<?xml version="1.0" encoding="UTF-8" standalone="no" ?>
<gpx xmlns="http://www.topografix.com/GPX/1/1" xmlns:xsi="http://www.w3.org/2001/XMLSchema-instance" xsi:schemaLocation="http://www.topografix.com/GPX/1/1 http://www.topografix.com/GPX/1/1/gpx.xsd" version="1.1" creator="VisuGPX - https://www.visugpx.com">
  <metadata>
    <name>saint beauzely </name>
  </metadata>
  <trk>
    <name><![CDATA[Tracé 016]]></name>
    <trkseg>
      <trkpt lat="44.15031" lon="2.98995">
        <ele>762.6</ele>
        <time>2010-01-01T07:04:56Z</time>
      </trkpt>
      <trkpt lat="44.15044" lon="2.98998">
        <ele>762.9</ele>
        <time>2010-01-01T07:05:01Z</time>
      </trkpt>
      <trkpt lat="44.15059" lon="2.98995">
        <ele>762.8</ele>
        <time>2010-01-01T07:05:07Z</time>
      </trkpt>
      <trkpt lat="44.15071" lon="2.98993">
        <ele>762.7</ele>
        <time>2010-01-01T07:05:12Z</time>
      </trkpt>
      <trkpt lat="44.15097" lon="2.98987">
        <ele>763</ele>
        <time>2010-01-01T07:05:22Z</time>
      </trkpt>
      <trkpt lat="44.15105" lon="2.98981">
        <ele>763.2</ele>
        <time>2010-01-01T07:05:26Z</time>
      </trkpt>
      <trkpt lat="44.15105" lon="2.9898">
        <ele>763.2</ele>
        <time>2010-01-01T07:05:26Z</time>
      </trkpt>
      <trkpt lat="44.15107" lon="2.98975">
        <ele>763.3</ele>
        <time>2010-01-01T07:05:28Z</time>
      </trkpt>
      <trkpt lat="44.15112" lon="2.98982">
        <ele>763.4</ele>
        <time>2010-01-01T07:05:31Z</time>
      </trkpt>
      <trkpt lat="44.1512" lon="2.98984">
        <ele>763.7</ele>
        <time>2010-01-01T07:05:34Z</time>
      </trkpt>
      <trkpt lat="44.15123" lon="2.98988">
        <ele>763.7</ele>
        <time>2010-01-01T07:05:36Z</time>
      </trkpt>
      <trkpt lat="44.15127" lon="2.99003">
        <ele>763.4</ele>
        <time>2010-01-01T07:05:40Z</time>
      </trkpt>
      <trkpt lat="44.15135" lon="2.99052">
        <ele>761</ele>
        <time>2010-01-01T07:05:54Z</time>
      </trkpt>
      <trkpt lat="44.15143" lon="2.99103">
        <ele>758.7</ele>
        <time>2010-01-01T07:06:10Z</time>
      </trkpt>
      <trkpt lat="44.15145" lon="2.99112">
        <ele>758.5</ele>
        <time>2010-01-01T07:06:12Z</time>
      </trkpt>
      <trkpt lat="44.15156" lon="2.99118">
        <ele>758.2</ele>
        <time>2010-01-01T07:06:17Z</time>
      </trkpt>
      <trkpt lat="44.15173" lon="2.99126">
        <ele>758.5</ele>
        <time>2010-01-01T07:06:24Z</time>
      </trkpt>
      <trkpt lat="44.15187" lon="2.99132">
        <ele>759.5</ele>
        <time>2010-01-01T07:06:30Z</time>
      </trkpt>
      <trkpt lat="44.15198" lon="2.99131">
        <ele>760.4</ele>
        <time>2010-01-01T07:06:34Z</time>
      </trkpt>
      <trkpt lat="44.15206" lon="2.99128">
        <ele>761.2</ele>
        <time>2010-01-01T07:06:38Z</time>
      </trkpt>
      <trkpt lat="44.1521" lon="2.99128">
        <ele>761.5</ele>
        <time>2010-01-01T07:06:39Z</time>
      </trkpt>
      <trkpt lat="44.1522" lon="2.99141">
        <ele>761.8</ele>
        <time>2010-01-01T07:06:45Z</time>
      </trkpt>
      <trkpt lat="44.15232" lon="2.99144">
        <ele>762.7</ele>
        <time>2010-01-01T07:06:50Z</time>
      </trkpt>
      <trkpt lat="44.15245" lon="2.99144">
        <ele>763.7</ele>
        <time>2010-01-01T07:06:55Z</time>
      </trkpt>
      <trkpt lat="44.15262" lon="2.99148">
        <ele>764.9</ele>
        <time>2010-01-01T07:07:02Z</time>
      </trkpt>
      <trkpt lat="44.15277" lon="2.9915">
        <ele>766.2</ele>
        <time>2010-01-01T07:07:08Z</time>
      </trkpt>
      <trkpt lat="44.15289" lon="2.99147">
        <ele>767.4</ele>
        <time>2010-01-01T07:07:13Z</time>
      </trkpt>
      <trkpt lat="44.153" lon="2.99144">
        <ele>768.6</ele>
        <time>2010-01-01T07:07:17Z</time>
      </trkpt>
      <trkpt lat="44.15313" lon="2.99141">
        <ele>770</ele>
        <time>2010-01-01T07:07:22Z</time>
      </trkpt>
      <trkpt lat="44.15324" lon="2.99141">
        <ele>771</ele>
        <time>2010-01-01T07:07:27Z</time>
      </trkpt>
      <trkpt lat="44.15337" lon="2.99144">
        <ele>771.9</ele>
        <time>2010-01-01T07:07:32Z</time>
      </trkpt>
      <trkpt lat="44.15352" lon="2.9915">
        <ele>772.4</ele>
        <time>2010-01-01T07:07:38Z</time>
      </trkpt>
      <trkpt lat="44.1537" lon="2.99154">
        <ele>773.4</ele>
        <time>2010-01-01T07:07:46Z</time>
      </trkpt>
      <trkpt lat="44.15391" lon="2.99154">
        <ele>774.8</ele>
        <time>2010-01-01T07:07:54Z</time>
      </trkpt>
      <trkpt lat="44.15413" lon="2.99153">
        <ele>776.3</ele>
        <time>2010-01-01T07:08:03Z</time>
      </trkpt>
      <trkpt lat="44.15438" lon="2.99155">
        <ele>779.2</ele>
        <time>2010-01-01T07:08:13Z</time>
      </trkpt>
      <trkpt lat="44.15456" lon="2.99161">
        <ele>780.9</ele>
        <time>2010-01-01T07:08:21Z</time>
      </trkpt>
      <trkpt lat="44.15475" lon="2.99173">
        <ele>782</ele>
        <time>2010-01-01T07:08:29Z</time>
      </trkpt>
      <trkpt lat="44.1549" lon="2.99188">
        <ele>782.2</ele>
        <time>2010-01-01T07:08:36Z</time>
      </trkpt>
      <trkpt lat="44.15503" lon="2.992">
        <ele>782.8</ele>
        <time>2010-01-01T07:08:42Z</time>
      </trkpt>
      <trkpt lat="44.15516" lon="2.99213">
        <ele>783.8</ele>
        <time>2010-01-01T07:08:49Z</time>
      </trkpt>
      <trkpt lat="44.15535" lon="2.99233">
        <ele>785.1</ele>
        <time>2010-01-01T07:08:58Z</time>
      </trkpt>
      <trkpt lat="44.15549" lon="2.9926">
        <ele>785.1</ele>
        <time>2010-01-01T07:09:08Z</time>
      </trkpt>
      <trkpt lat="44.1556" lon="2.99285">
        <ele>785.2</ele>
        <time>2010-01-01T07:09:17Z</time>
      </trkpt>
      <trkpt lat="44.15571" lon="2.99309">
        <ele>785</ele>
        <time>2010-01-01T07:09:25Z</time>
      </trkpt>
      <trkpt lat="44.15585" lon="2.99329">
        <ele>785.6</ele>
        <time>2010-01-01T07:09:33Z</time>
      </trkpt>
      <trkpt lat="44.15607" lon="2.99344">
        <ele>787.4</ele>
        <time>2010-01-01T07:09:42Z</time>
      </trkpt>
      <trkpt lat="44.15626" lon="2.99356">
        <ele>788.8</ele>
        <time>2010-01-01T07:09:51Z</time>
      </trkpt>
      <trkpt lat="44.15649" lon="2.99371">
        <ele>790.3</ele>
        <time>2010-01-01T07:10:01Z</time>
      </trkpt>
      <trkpt lat="44.15671" lon="2.99384">
        <ele>791.3</ele>
        <time>2010-01-01T07:10:10Z</time>
      </trkpt>
      <trkpt lat="44.15701" lon="2.99398">
        <ele>790.8</ele>
        <time>2010-01-01T07:10:23Z</time>
      </trkpt>
      <trkpt lat="44.15722" lon="2.99406">
        <ele>790.6</ele>
        <time>2010-01-01T07:10:32Z</time>
      </trkpt>
      <trkpt lat="44.15744" lon="2.99411">
        <ele>790.6</ele>
        <time>2010-01-01T07:10:41Z</time>
      </trkpt>
      <trkpt lat="44.1577" lon="2.99415">
        <ele>790.7</ele>
        <time>2010-01-01T07:10:51Z</time>
      </trkpt>
      <trkpt lat="44.15808" lon="2.99425">
        <ele>790.5</ele>
        <time>2010-01-01T07:11:07Z</time>
      </trkpt>
      <trkpt lat="44.15832" lon="2.99434">
        <ele>790.1</ele>
        <time>2010-01-01T07:11:17Z</time>
      </trkpt>
      <trkpt lat="44.15865" lon="2.99449">
        <ele>789.4</ele>
        <time>2010-01-01T07:11:31Z</time>
      </trkpt>
      <trkpt lat="44.15874" lon="2.99452">
        <ele>789.4</ele>
        <time>2010-01-01T07:11:34Z</time>
      </trkpt>
      <trkpt lat="44.15907" lon="2.9946">
        <ele>790.1</ele>
        <time>2010-01-01T07:11:48Z</time>
      </trkpt>
      <trkpt lat="44.15942" lon="2.99467">
        <ele>790.3</ele>
        <time>2010-01-01T07:12:02Z</time>
      </trkpt>
      <trkpt lat="44.15984" lon="2.99477">
        <ele>790.2</ele>
        <time>2010-01-01T07:12:19Z</time>
      </trkpt>
      <trkpt lat="44.1601" lon="2.9948">
        <ele>789.9</ele>
        <time>2010-01-01T07:12:29Z</time>
      </trkpt>
      <trkpt lat="44.16046" lon="2.99475">
        <ele>788.9</ele>
        <time>2010-01-01T07:12:44Z</time>
      </trkpt>
      <trkpt lat="44.16086" lon="2.99466">
        <ele>787.4</ele>
        <time>2010-01-01T07:13:00Z</time>
      </trkpt>
      <trkpt lat="44.161" lon="2.99461">
        <ele>786.4</ele>
        <time>2010-01-01T07:13:06Z</time>
      </trkpt>
      <trkpt lat="44.16119" lon="2.99453">
        <ele>785.2</ele>
        <time>2010-01-01T07:13:14Z</time>
      </trkpt>
      <trkpt lat="44.1616" lon="2.99422">
        <ele>783.2</ele>
        <time>2010-01-01T07:13:32Z</time>
      </trkpt>
      <trkpt lat="44.16177" lon="2.99411">
        <ele>782.4</ele>
        <time>2010-01-01T07:13:40Z</time>
      </trkpt>
      <trkpt lat="44.16208" lon="2.99405">
        <ele>780.5</ele>
        <time>2010-01-01T07:13:52Z</time>
      </trkpt>
      <trkpt lat="44.1622" lon="2.99402">
        <ele>779.9</ele>
        <time>2010-01-01T07:13:57Z</time>
      </trkpt>
      <trkpt lat="44.16242" lon="2.99405">
        <ele>778.6</ele>
        <time>2010-01-01T07:14:06Z</time>
      </trkpt>
      <trkpt lat="44.16266" lon="2.9941">
        <ele>777.2</ele>
        <time>2010-01-01T07:14:16Z</time>
      </trkpt>
      <trkpt lat="44.16309" lon="2.9941">
        <ele>774.7</ele>
        <time>2010-01-01T07:14:33Z</time>
      </trkpt>
      <trkpt lat="44.16366" lon="2.99419">
        <ele>772.1</ele>
        <time>2010-01-01T07:14:56Z</time>
      </trkpt>
      <trkpt lat="44.164" lon="2.99433">
        <ele>770.5</ele>
        <time>2010-01-01T07:15:10Z</time>
      </trkpt>
      <trkpt lat="44.16436" lon="2.99451">
        <ele>769.7</ele>
        <time>2010-01-01T07:15:25Z</time>
      </trkpt>
      <trkpt lat="44.16451" lon="2.99461">
        <ele>769.5</ele>
        <time>2010-01-01T07:15:32Z</time>
      </trkpt>
      <trkpt lat="44.1646" lon="2.99466">
        <ele>769.5</ele>
        <time>2010-01-01T07:15:36Z</time>
      </trkpt>
      <trkpt lat="44.16495" lon="2.99489">
        <ele>769.3</ele>
        <time>2010-01-01T07:15:52Z</time>
      </trkpt>
      <trkpt lat="44.16525" lon="2.99502">
        <ele>767.8</ele>
        <time>2010-01-01T07:16:04Z</time>
      </trkpt>
      <trkpt lat="44.16556" lon="2.99509">
        <ele>766.3</ele>
        <time>2010-01-01T07:16:17Z</time>
      </trkpt>
      <trkpt lat="44.16578" lon="2.99516">
        <ele>765.3</ele>
        <time>2010-01-01T07:16:26Z</time>
      </trkpt>
      <trkpt lat="44.1659" lon="2.99529">
        <ele>764.7</ele>
        <time>2010-01-01T07:16:32Z</time>
      </trkpt>
      <trkpt lat="44.16596" lon="2.99542">
        <ele>764.6</ele>
        <time>2010-01-01T07:16:36Z</time>
      </trkpt>
      <trkpt lat="44.16616" lon="2.99569">
        <ele>764.3</ele>
        <time>2010-01-01T07:16:48Z</time>
      </trkpt>
      <trkpt lat="44.16645" lon="2.99593">
        <ele>764.8</ele>
        <time>2010-01-01T07:17:01Z</time>
      </trkpt>
      <trkpt lat="44.16673" lon="2.99613">
        <ele>765.6</ele>
        <time>2010-01-01T07:17:13Z</time>
      </trkpt>
      <trkpt lat="44.16684" lon="2.9962">
        <ele>765.8</ele>
        <time>2010-01-01T07:17:18Z</time>
      </trkpt>
      <trkpt lat="44.16705" lon="2.99631">
        <ele>765.9</ele>
        <time>2010-01-01T07:17:27Z</time>
      </trkpt>
      <trkpt lat="44.1673" lon="2.99645">
        <ele>766.2</ele>
        <time>2010-01-01T07:17:38Z</time>
      </trkpt>
      <trkpt lat="44.16759" lon="2.99667">
        <ele>766.1</ele>
        <time>2010-01-01T07:17:51Z</time>
      </trkpt>
      <trkpt lat="44.16782" lon="2.99686">
        <ele>764.5</ele>
        <time>2010-01-01T07:18:02Z</time>
      </trkpt>
      <trkpt lat="44.16807" lon="2.99711">
        <ele>763.1</ele>
        <time>2010-01-01T07:18:14Z</time>
      </trkpt>
      <trkpt lat="44.16821" lon="2.99726">
        <ele>762.7</ele>
        <time>2010-01-01T07:18:21Z</time>
      </trkpt>
      <trkpt lat="44.1683" lon="2.99739">
        <ele>762.6</ele>
        <time>2010-01-01T07:18:27Z</time>
      </trkpt>
      <trkpt lat="44.16853" lon="2.99783">
        <ele>759.4</ele>
        <time>2010-01-01T07:18:42Z</time>
      </trkpt>
      <trkpt lat="44.16865" lon="2.99806">
        <ele>757.6</ele>
        <time>2010-01-01T07:18:50Z</time>
      </trkpt>
      <trkpt lat="44.16874" lon="2.99819">
        <ele>756.5</ele>
        <time>2010-01-01T07:18:56Z</time>
      </trkpt>
      <trkpt lat="44.16912" lon="2.99874">
        <ele>752</ele>
        <time>2010-01-01T07:19:17Z</time>
      </trkpt>
      <trkpt lat="44.16934" lon="2.99897">
        <ele>750.9</ele>
        <time>2010-01-01T07:19:28Z</time>
      </trkpt>
      <trkpt lat="44.16957" lon="2.99919">
        <ele>750</ele>
        <time>2010-01-01T07:19:40Z</time>
      </trkpt>
      <trkpt lat="44.16962" lon="2.99923">
        <ele>749.8</ele>
        <time>2010-01-01T07:19:42Z</time>
      </trkpt>
      <trkpt lat="44.1699" lon="2.9994">
        <ele>748.2</ele>
        <time>2010-01-01T07:19:54Z</time>
      </trkpt>
      <trkpt lat="44.17018" lon="2.99961">
        <ele>748.4</ele>
        <time>2010-01-01T07:20:07Z</time>
      </trkpt>
      <trkpt lat="44.17022" lon="2.99963">
        <ele>748.5</ele>
        <time>2010-01-01T07:20:09Z</time>
      </trkpt>
      <trkpt lat="44.1703" lon="2.99968">
        <ele>748.9</ele>
        <time>2010-01-01T07:20:12Z</time>
      </trkpt>
      <trkpt lat="44.17054" lon="2.99987">
        <ele>750.2</ele>
        <time>2010-01-01T07:20:23Z</time>
      </trkpt>
      <trkpt lat="44.17065" lon="2.99996">
        <ele>750.9</ele>
        <time>2010-01-01T07:20:28Z</time>
      </trkpt>
      <trkpt lat="44.17092" lon="3.00016">
        <ele>752.6</ele>
        <time>2010-01-01T07:20:40Z</time>
      </trkpt>
      <trkpt lat="44.17107" lon="3.00022">
        <ele>753.9</ele>
        <time>2010-01-01T07:20:47Z</time>
      </trkpt>
      <trkpt lat="44.1713" lon="3.00027">
        <ele>755.9</ele>
        <time>2010-01-01T07:20:56Z</time>
      </trkpt>
      <trkpt lat="44.17141" lon="3.00027">
        <ele>757</ele>
        <time>2010-01-01T07:21:01Z</time>
      </trkpt>
      <trkpt lat="44.17158" lon="3.00024">
        <ele>758.6</ele>
        <time>2010-01-01T07:21:07Z</time>
      </trkpt>
      <trkpt lat="44.17178" lon="3.00023">
        <ele>760</ele>
        <time>2010-01-01T07:21:15Z</time>
      </trkpt>
      <trkpt lat="44.17197" lon="3.00037">
        <ele>760.6</ele>
        <time>2010-01-01T07:21:24Z</time>
      </trkpt>
      <trkpt lat="44.17212" lon="3.00051">
        <ele>761</ele>
        <time>2010-01-01T07:21:31Z</time>
      </trkpt>
      <trkpt lat="44.17233" lon="3.00068">
        <ele>761.6</ele>
        <time>2010-01-01T07:21:41Z</time>
      </trkpt>
      <trkpt lat="44.17253" lon="3.00077">
        <ele>762.2</ele>
        <time>2010-01-01T07:21:49Z</time>
      </trkpt>
      <trkpt lat="44.1727" lon="3.00086">
        <ele>762.6</ele>
        <time>2010-01-01T07:21:57Z</time>
      </trkpt>
      <trkpt lat="44.17296" lon="3.00097">
        <ele>763.4</ele>
        <time>2010-01-01T07:22:07Z</time>
      </trkpt>
      <trkpt lat="44.17325" lon="3.00109">
        <ele>764.6</ele>
        <time>2010-01-01T07:22:20Z</time>
      </trkpt>
      <trkpt lat="44.17354" lon="3.00122">
        <ele>765.2</ele>
        <time>2010-01-01T07:22:32Z</time>
      </trkpt>
      <trkpt lat="44.1737" lon="3.00142">
        <ele>765.8</ele>
        <time>2010-01-01T07:22:40Z</time>
      </trkpt>
      <trkpt lat="44.17376" lon="3.00159">
        <ele>766.4</ele>
        <time>2010-01-01T07:22:46Z</time>
      </trkpt>
      <trkpt lat="44.17386" lon="3.00177">
        <ele>767.1</ele>
        <time>2010-01-01T07:22:52Z</time>
      </trkpt>
      <trkpt lat="44.17401" lon="3.00186">
        <ele>767.9</ele>
        <time>2010-01-01T07:22:59Z</time>
      </trkpt>
      <trkpt lat="44.17421" lon="3.00198">
        <ele>768.7</ele>
        <time>2010-01-01T07:23:07Z</time>
      </trkpt>
      <trkpt lat="44.17444" lon="3.0021">
        <ele>768.9</ele>
        <time>2010-01-01T07:23:18Z</time>
      </trkpt>
      <trkpt lat="44.17463" lon="3.00212">
        <ele>768.8</ele>
        <time>2010-01-01T07:23:25Z</time>
      </trkpt>
      <trkpt lat="44.17484" lon="3.00219">
        <ele>768.7</ele>
        <time>2010-01-01T07:23:34Z</time>
      </trkpt>
      <trkpt lat="44.17512" lon="3.0023">
        <ele>768.2</ele>
        <time>2010-01-01T07:23:45Z</time>
      </trkpt>
      <trkpt lat="44.17532" lon="3.0024">
        <ele>767.4</ele>
        <time>2010-01-01T07:23:54Z</time>
      </trkpt>
      <trkpt lat="44.17554" lon="3.00247">
        <ele>766.4</ele>
        <time>2010-01-01T07:24:03Z</time>
      </trkpt>
      <trkpt lat="44.17574" lon="3.00262">
        <ele>765.6</ele>
        <time>2010-01-01T07:24:12Z</time>
      </trkpt>
      <trkpt lat="44.17589" lon="3.00272">
        <ele>764.9</ele>
        <time>2010-01-01T07:24:18Z</time>
      </trkpt>
      <trkpt lat="44.17617" lon="3.00277">
        <ele>763.3</ele>
        <time>2010-01-01T07:24:30Z</time>
      </trkpt>
      <trkpt lat="44.17661" lon="3.00281">
        <ele>760.8</ele>
        <time>2010-01-01T07:24:47Z</time>
      </trkpt>
      <trkpt lat="44.1769" lon="3.00288">
        <ele>759.5</ele>
        <time>2010-01-01T07:24:59Z</time>
      </trkpt>
      <trkpt lat="44.17704" lon="3.00308">
        <ele>759.8</ele>
        <time>2010-01-01T07:25:07Z</time>
      </trkpt>
      <trkpt lat="44.17715" lon="3.0033">
        <ele>760.5</ele>
        <time>2010-01-01T07:25:15Z</time>
      </trkpt>
      <trkpt lat="44.17724" lon="3.00347">
        <ele>761</ele>
        <time>2010-01-01T07:25:21Z</time>
      </trkpt>
      <trkpt lat="44.17726" lon="3.00351">
        <ele>761.1</ele>
        <time>2010-01-01T07:25:22Z</time>
      </trkpt>
      <trkpt lat="44.17742" lon="3.00383">
        <ele>762.7</ele>
        <time>2010-01-01T07:25:34Z</time>
      </trkpt>
      <trkpt lat="44.17762" lon="3.00428">
        <ele>765.4</ele>
        <time>2010-01-01T07:25:49Z</time>
      </trkpt>
      <trkpt lat="44.17769" lon="3.00467">
        <ele>766.4</ele>
        <time>2010-01-01T07:26:00Z</time>
      </trkpt>
      <trkpt lat="44.17768" lon="3.0051">
        <ele>767.4</ele>
        <time>2010-01-01T07:26:13Z</time>
      </trkpt>
      <trkpt lat="44.17767" lon="3.00551">
        <ele>767.9</ele>
        <time>2010-01-01T07:26:24Z</time>
      </trkpt>
      <trkpt lat="44.17767" lon="3.00575">
        <ele>768.3</ele>
        <time>2010-01-01T07:26:31Z</time>
      </trkpt>
      <trkpt lat="44.17767" lon="3.00627">
        <ele>767.8</ele>
        <time>2010-01-01T07:26:46Z</time>
      </trkpt>
      <trkpt lat="44.17767" lon="3.00647">
        <ele>767.5</ele>
        <time>2010-01-01T07:26:52Z</time>
      </trkpt>
      <trkpt lat="44.17767" lon="3.00703">
        <ele>765.5</ele>
        <time>2010-01-01T07:27:08Z</time>
      </trkpt>
      <trkpt lat="44.17765" lon="3.00755">
        <ele>762.8</ele>
        <time>2010-01-01T07:27:23Z</time>
      </trkpt>
      <trkpt lat="44.17767" lon="3.0079">
        <ele>760.1</ele>
        <time>2010-01-01T07:27:33Z</time>
      </trkpt>
      <trkpt lat="44.1777" lon="3.00809">
        <ele>758.5</ele>
        <time>2010-01-01T07:27:39Z</time>
      </trkpt>
      <trkpt lat="44.1777" lon="3.00823">
        <ele>757.3</ele>
        <time>2010-01-01T07:27:43Z</time>
      </trkpt>
      <trkpt lat="44.17771" lon="3.00837">
        <ele>756.2</ele>
        <time>2010-01-01T07:27:47Z</time>
      </trkpt>
      <trkpt lat="44.17779" lon="3.00854">
        <ele>754.6</ele>
        <time>2010-01-01T07:27:53Z</time>
      </trkpt>
      <trkpt lat="44.17793" lon="3.00887">
        <ele>751.8</ele>
        <time>2010-01-01T07:28:04Z</time>
      </trkpt>
      <trkpt lat="44.17804" lon="3.00925">
        <ele>749.5</ele>
        <time>2010-01-01T07:28:16Z</time>
      </trkpt>
      <trkpt lat="44.17813" lon="3.00974">
        <ele>749.4</ele>
        <time>2010-01-01T07:28:30Z</time>
      </trkpt>
      <trkpt lat="44.17813" lon="3.0099">
        <ele>749.4</ele>
        <time>2010-01-01T07:28:35Z</time>
      </trkpt>
      <trkpt lat="44.17817" lon="3.01027">
        <ele>748.9</ele>
        <time>2010-01-01T07:28:45Z</time>
      </trkpt>
      <trkpt lat="44.17821" lon="3.01049">
        <ele>748.5</ele>
        <time>2010-01-01T07:28:52Z</time>
      </trkpt>
      <trkpt lat="44.17819" lon="3.01073">
        <ele>747.8</ele>
        <time>2010-01-01T07:28:59Z</time>
      </trkpt>
      <trkpt lat="44.1782" lon="3.01089">
        <ele>747.3</ele>
        <time>2010-01-01T07:29:03Z</time>
      </trkpt>
      <trkpt lat="44.17827" lon="3.01111">
        <ele>746.4</ele>
        <time>2010-01-01T07:29:10Z</time>
      </trkpt>
      <trkpt lat="44.17833" lon="3.01125">
        <ele>746</ele>
        <time>2010-01-01T07:29:15Z</time>
      </trkpt>
      <trkpt lat="44.1784" lon="3.01134">
        <ele>745.9</ele>
        <time>2010-01-01T07:29:19Z</time>
      </trkpt>
      <trkpt lat="44.17848" lon="3.01147">
        <ele>745.6</ele>
        <time>2010-01-01T07:29:24Z</time>
      </trkpt>
      <trkpt lat="44.17852" lon="3.01159">
        <ele>745.3</ele>
        <time>2010-01-01T07:29:27Z</time>
      </trkpt>
      <trkpt lat="44.17848" lon="3.01177">
        <ele>745</ele>
        <time>2010-01-01T07:29:33Z</time>
      </trkpt>
      <trkpt lat="44.17834" lon="3.01187">
        <ele>744.5</ele>
        <time>2010-01-01T07:29:39Z</time>
      </trkpt>
      <trkpt lat="44.17815" lon="3.01201">
        <ele>743.9</ele>
        <time>2010-01-01T07:29:48Z</time>
      </trkpt>
      <trkpt lat="44.1779" lon="3.01223">
        <ele>742.2</ele>
        <time>2010-01-01T07:30:00Z</time>
      </trkpt>
      <trkpt lat="44.17769" lon="3.01246">
        <ele>740</ele>
        <time>2010-01-01T07:30:10Z</time>
      </trkpt>
      <trkpt lat="44.17747" lon="3.01267">
        <ele>738.9</ele>
        <time>2010-01-01T07:30:21Z</time>
      </trkpt>
      <trkpt lat="44.17719" lon="3.0129">
        <ele>738.8</ele>
        <time>2010-01-01T07:30:34Z</time>
      </trkpt>
      <trkpt lat="44.17697" lon="3.01311">
        <ele>737.7</ele>
        <time>2010-01-01T07:30:45Z</time>
      </trkpt>
      <trkpt lat="44.1768" lon="3.01333">
        <ele>736.3</ele>
        <time>2010-01-01T07:30:54Z</time>
      </trkpt>
      <trkpt lat="44.17664" lon="3.01359">
        <ele>736.1</ele>
        <time>2010-01-01T07:31:04Z</time>
      </trkpt>
      <trkpt lat="44.17644" lon="3.01391">
        <ele>736</ele>
        <time>2010-01-01T07:31:16Z</time>
      </trkpt>
      <trkpt lat="44.17625" lon="3.01424">
        <ele>735.2</ele>
        <time>2010-01-01T07:31:28Z</time>
      </trkpt>
      <trkpt lat="44.17609" lon="3.01452">
        <ele>736.1</ele>
        <time>2010-01-01T07:31:38Z</time>
      </trkpt>
      <trkpt lat="44.17579" lon="3.01496">
        <ele>736.2</ele>
        <time>2010-01-01T07:31:56Z</time>
      </trkpt>
      <trkpt lat="44.17551" lon="3.01541">
        <ele>737.1</ele>
        <time>2010-01-01T07:32:13Z</time>
      </trkpt>
      <trkpt lat="44.17536" lon="3.01568">
        <ele>737.9</ele>
        <time>2010-01-01T07:32:23Z</time>
      </trkpt>
      <trkpt lat="44.17523" lon="3.01583">
        <ele>737.8</ele>
        <time>2010-01-01T07:32:30Z</time>
      </trkpt>
      <trkpt lat="44.17518" lon="3.01583">
        <ele>737.2</ele>
        <time>2010-01-01T07:32:32Z</time>
      </trkpt>
      <trkpt lat="44.17497" lon="3.01584">
        <ele>734.6</ele>
        <time>2010-01-01T07:32:40Z</time>
      </trkpt>
      <trkpt lat="44.1748" lon="3.01586">
        <ele>732.6</ele>
        <time>2010-01-01T07:32:47Z</time>
      </trkpt>
      <trkpt lat="44.17467" lon="3.01586">
        <ele>730.9</ele>
        <time>2010-01-01T07:32:52Z</time>
      </trkpt>
      <trkpt lat="44.1746" lon="3.01585">
        <ele>729.9</ele>
        <time>2010-01-01T07:32:55Z</time>
      </trkpt>
      <trkpt lat="44.17443" lon="3.01576">
        <ele>726.9</ele>
        <time>2010-01-01T07:33:02Z</time>
      </trkpt>
      <trkpt lat="44.17431" lon="3.01556">
        <ele>723.9</ele>
        <time>2010-01-01T07:33:10Z</time>
      </trkpt>
      <trkpt lat="44.17424" lon="3.01539">
        <ele>721.7</ele>
        <time>2010-01-01T07:33:15Z</time>
      </trkpt>
      <trkpt lat="44.1742" lon="3.01533">
        <ele>720.8</ele>
        <time>2010-01-01T07:33:18Z</time>
      </trkpt>
      <trkpt lat="44.17415" lon="3.01522">
        <ele>719.6</ele>
        <time>2010-01-01T07:33:22Z</time>
      </trkpt>
      <trkpt lat="44.17405" lon="3.01507">
        <ele>718.8</ele>
        <time>2010-01-01T07:33:27Z</time>
      </trkpt>
      <trkpt lat="44.174" lon="3.01499">
        <ele>718.7</ele>
        <time>2010-01-01T07:33:30Z</time>
      </trkpt>
      <trkpt lat="44.17399" lon="3.01497">
        <ele>719</ele>
        <time>2010-01-01T07:33:31Z</time>
      </trkpt>
      <trkpt lat="44.17396" lon="3.01492">
        <ele>719.6</ele>
        <time>2010-01-01T07:33:33Z</time>
      </trkpt>
      <trkpt lat="44.17394" lon="3.01489">
        <ele>719.9</ele>
        <time>2010-01-01T07:33:34Z</time>
      </trkpt>
      <trkpt lat="44.17393" lon="3.01489">
        <ele>720</ele>
        <time>2010-01-01T07:33:34Z</time>
      </trkpt>
      <trkpt lat="44.17393" lon="3.01488">
        <ele>720</ele>
        <time>2010-01-01T07:33:35Z</time>
      </trkpt>
      <trkpt lat="44.1739" lon="3.01489">
        <ele>720</ele>
        <time>2010-01-01T07:33:36Z</time>
      </trkpt>
      <trkpt lat="44.17388" lon="3.0149">
        <ele>720</ele>
        <time>2010-01-01T07:33:37Z</time>
      </trkpt>
      <trkpt lat="44.17378" lon="3.01494">
        <ele>720</ele>
        <time>2010-01-01T07:33:41Z</time>
      </trkpt>
      <trkpt lat="44.17369" lon="3.01498">
        <ele>719.9</ele>
        <time>2010-01-01T07:33:45Z</time>
      </trkpt>
      <trkpt lat="44.17359" lon="3.01504">
        <ele>720</ele>
        <time>2010-01-01T07:33:49Z</time>
      </trkpt>
      <trkpt lat="44.17351" lon="3.01509">
        <ele>720.2</ele>
        <time>2010-01-01T07:33:53Z</time>
      </trkpt>
      <trkpt lat="44.1734" lon="3.01518">
        <ele>720.1</ele>
        <time>2010-01-01T07:33:57Z</time>
      </trkpt>
      <trkpt lat="44.17329" lon="3.01523">
        <ele>719.9</ele>
        <time>2010-01-01T07:34:02Z</time>
      </trkpt>
      <trkpt lat="44.1732" lon="3.01533">
        <ele>719.4</ele>
        <time>2010-01-01T07:34:07Z</time>
      </trkpt>
      <trkpt lat="44.17309" lon="3.01542">
        <ele>718.7</ele>
        <time>2010-01-01T07:34:12Z</time>
      </trkpt>
      <trkpt lat="44.17292" lon="3.01553">
        <ele>717.4</ele>
        <time>2010-01-01T07:34:19Z</time>
      </trkpt>
      <trkpt lat="44.17289" lon="3.01556">
        <ele>717</ele>
        <time>2010-01-01T07:34:21Z</time>
      </trkpt>
      <trkpt lat="44.17268" lon="3.01568">
        <ele>715</ele>
        <time>2010-01-01T07:34:30Z</time>
      </trkpt>
      <trkpt lat="44.17249" lon="3.01572">
        <ele>713.7</ele>
        <time>2010-01-01T07:34:38Z</time>
      </trkpt>
      <trkpt lat="44.17236" lon="3.01572">
        <ele>713.9</ele>
        <time>2010-01-01T07:34:43Z</time>
      </trkpt>
      <trkpt lat="44.17232" lon="3.01571">
        <ele>714.2</ele>
        <time>2010-01-01T07:34:44Z</time>
      </trkpt>
      <trkpt lat="44.1722" lon="3.01569">
        <ele>714.8</ele>
        <time>2010-01-01T07:34:49Z</time>
      </trkpt>
      <trkpt lat="44.17213" lon="3.01567">
        <ele>715.1</ele>
        <time>2010-01-01T07:34:52Z</time>
      </trkpt>
      <trkpt lat="44.17198" lon="3.01562">
        <ele>716.1</ele>
        <time>2010-01-01T07:34:58Z</time>
      </trkpt>
      <trkpt lat="44.17188" lon="3.01555">
        <ele>717.3</ele>
        <time>2010-01-01T07:35:03Z</time>
      </trkpt>
      <trkpt lat="44.17173" lon="3.01549">
        <ele>718.4</ele>
        <time>2010-01-01T07:35:09Z</time>
      </trkpt>
      <trkpt lat="44.17158" lon="3.01547">
        <ele>719.7</ele>
        <time>2010-01-01T07:35:15Z</time>
      </trkpt>
      <trkpt lat="44.17141" lon="3.01548">
        <ele>721.3</ele>
        <time>2010-01-01T07:35:22Z</time>
      </trkpt>
      <trkpt lat="44.1713" lon="3.01557">
        <ele>721.6</ele>
        <time>2010-01-01T07:35:27Z</time>
      </trkpt>
      <trkpt lat="44.17124" lon="3.01567">
        <ele>721.2</ele>
        <time>2010-01-01T07:35:31Z</time>
      </trkpt>
      <trkpt lat="44.1712" lon="3.01578">
        <ele>720.6</ele>
        <time>2010-01-01T07:35:34Z</time>
      </trkpt>
      <trkpt lat="44.17115" lon="3.01586">
        <ele>720.6</ele>
        <time>2010-01-01T07:35:37Z</time>
      </trkpt>
      <trkpt lat="44.17104" lon="3.01599">
        <ele>720.9</ele>
        <time>2010-01-01T07:35:43Z</time>
      </trkpt>
      <trkpt lat="44.17091" lon="3.01615">
        <ele>721</ele>
        <time>2010-01-01T07:35:50Z</time>
      </trkpt>
      <trkpt lat="44.17076" lon="3.0163">
        <ele>721.2</ele>
        <time>2010-01-01T07:35:57Z</time>
      </trkpt>
      <trkpt lat="44.17058" lon="3.01637">
        <ele>722.2</ele>
        <time>2010-01-01T07:36:05Z</time>
      </trkpt>
      <trkpt lat="44.17044" lon="3.01647">
        <ele>722.6</ele>
        <time>2010-01-01T07:36:11Z</time>
      </trkpt>
      <trkpt lat="44.17029" lon="3.01662">
        <ele>722.6</ele>
        <time>2010-01-01T07:36:18Z</time>
      </trkpt>
      <trkpt lat="44.17014" lon="3.01679">
        <ele>722.3</ele>
        <time>2010-01-01T07:36:26Z</time>
      </trkpt>
      <trkpt lat="44.16993" lon="3.01698">
        <ele>722.4</ele>
        <time>2010-01-01T07:36:36Z</time>
      </trkpt>
      <trkpt lat="44.16973" lon="3.01717">
        <ele>722</ele>
        <time>2010-01-01T07:36:46Z</time>
      </trkpt>
      <trkpt lat="44.16952" lon="3.01737">
        <ele>722</ele>
        <time>2010-01-01T07:36:56Z</time>
      </trkpt>
      <trkpt lat="44.16929" lon="3.01747">
        <ele>723.1</ele>
        <time>2010-01-01T07:37:06Z</time>
      </trkpt>
      <trkpt lat="44.16911" lon="3.01749">
        <ele>724.1</ele>
        <time>2010-01-01T07:37:13Z</time>
      </trkpt>
      <trkpt lat="44.169" lon="3.01757">
        <ele>723.6</ele>
        <time>2010-01-01T07:37:18Z</time>
      </trkpt>
      <trkpt lat="44.16879" lon="3.01752">
        <ele>724.3</ele>
        <time>2010-01-01T07:37:26Z</time>
      </trkpt>
      <trkpt lat="44.16858" lon="3.01746">
        <ele>724.8</ele>
        <time>2010-01-01T07:37:35Z</time>
      </trkpt>
      <trkpt lat="44.16838" lon="3.01745">
        <ele>725</ele>
        <time>2010-01-01T07:37:43Z</time>
      </trkpt>
      <trkpt lat="44.16815" lon="3.01743">
        <ele>723.1</ele>
        <time>2010-01-01T07:37:52Z</time>
      </trkpt>
      <trkpt lat="44.16806" lon="3.0174">
        <ele>722.2</ele>
        <time>2010-01-01T07:37:56Z</time>
      </trkpt>
      <trkpt lat="44.16798" lon="3.01732">
        <ele>721.4</ele>
        <time>2010-01-01T07:38:00Z</time>
      </trkpt>
      <trkpt lat="44.16785" lon="3.01716">
        <ele>720.2</ele>
        <time>2010-01-01T07:38:07Z</time>
      </trkpt>
      <trkpt lat="44.16781" lon="3.01703">
        <ele>719.9</ele>
        <time>2010-01-01T07:38:11Z</time>
      </trkpt>
      <trkpt lat="44.16773" lon="3.01687">
        <ele>719.3</ele>
        <time>2010-01-01T07:38:16Z</time>
      </trkpt>
      <trkpt lat="44.16766" lon="3.01674">
        <ele>718.6</ele>
        <time>2010-01-01T07:38:21Z</time>
      </trkpt>
      <trkpt lat="44.16751" lon="3.01668">
        <ele>717.1</ele>
        <time>2010-01-01T07:38:27Z</time>
      </trkpt>
      <trkpt lat="44.16734" lon="3.01656">
        <ele>717.1</ele>
        <time>2010-01-01T07:38:35Z</time>
      </trkpt>
      <trkpt lat="44.16721" lon="3.0164">
        <ele>717.6</ele>
        <time>2010-01-01T07:38:42Z</time>
      </trkpt>
      <trkpt lat="44.16707" lon="3.01642">
        <ele>717.3</ele>
        <time>2010-01-01T07:38:47Z</time>
      </trkpt>
      <trkpt lat="44.16693" lon="3.01653">
        <ele>716.4</ele>
        <time>2010-01-01T07:38:54Z</time>
      </trkpt>
      <trkpt lat="44.16667" lon="3.01667">
        <ele>715</ele>
        <time>2010-01-01T07:39:05Z</time>
      </trkpt>
      <trkpt lat="44.16653" lon="3.01674">
        <ele>714.7</ele>
        <time>2010-01-01T07:39:11Z</time>
      </trkpt>
      <trkpt lat="44.16623" lon="3.0169">
        <ele>714.1</ele>
        <time>2010-01-01T07:39:24Z</time>
      </trkpt>
      <trkpt lat="44.16602" lon="3.017">
        <ele>714</ele>
        <time>2010-01-01T07:39:33Z</time>
      </trkpt>
      <trkpt lat="44.1659" lon="3.0171">
        <ele>713.7</ele>
        <time>2010-01-01T07:39:38Z</time>
      </trkpt>
      <trkpt lat="44.16573" lon="3.01717">
        <ele>713.2</ele>
        <time>2010-01-01T07:39:46Z</time>
      </trkpt>
      <trkpt lat="44.16555" lon="3.01721">
        <ele>712.5</ele>
        <time>2010-01-01T07:39:53Z</time>
      </trkpt>
      <trkpt lat="44.16544" lon="3.01728">
        <ele>711.9</ele>
        <time>2010-01-01T07:39:57Z</time>
      </trkpt>
      <trkpt lat="44.16529" lon="3.01749">
        <ele>710.7</ele>
        <time>2010-01-01T07:40:06Z</time>
      </trkpt>
      <trkpt lat="44.16523" lon="3.01756">
        <ele>710.5</ele>
        <time>2010-01-01T07:40:09Z</time>
      </trkpt>
      <trkpt lat="44.16502" lon="3.01767">
        <ele>710.2</ele>
        <time>2010-01-01T07:40:18Z</time>
      </trkpt>
      <trkpt lat="44.16535" lon="3.01749">
        <ele>710.9</ele>
        <time>2012-09-06T16:01:20Z</time>
      </trkpt>
      <trkpt lat="44.1653" lon="3.01755">
        <ele>710.7</ele>
        <time>2012-09-06T16:01:22Z</time>
      </trkpt>
      <trkpt lat="44.16522" lon="3.01761">
        <ele>710.4</ele>
        <time>2012-09-06T16:01:27Z</time>
      </trkpt>
      <trkpt lat="44.16517" lon="3.01764">
        <ele>710.4</ele>
        <time>2012-09-06T16:01:29Z</time>
      </trkpt>
      <trkpt lat="44.16512" lon="3.01768">
        <ele>710.3</ele>
        <time>2012-09-06T16:01:31Z</time>
      </trkpt>
      <trkpt lat="44.16507" lon="3.01771">
        <ele>710.3</ele>
        <time>2012-09-06T16:01:34Z</time>
      </trkpt>
      <trkpt lat="44.16504" lon="3.01764">
        <ele>710.2</ele>
        <time>2012-09-06T16:01:44Z</time>
      </trkpt>
      <trkpt lat="44.1651" lon="3.01758">
        <ele>710.3</ele>
        <time>2012-09-06T16:01:47Z</time>
      </trkpt>
      <trkpt lat="44.16515" lon="3.01751">
        <ele>710.3</ele>
        <time>2012-09-06T16:01:49Z</time>
      </trkpt>
      <trkpt lat="44.1652" lon="3.01744">
        <ele>710.6</ele>
        <time>2012-09-06T16:01:51Z</time>
      </trkpt>
      <trkpt lat="44.16525" lon="3.01736">
        <ele>711</ele>
        <time>2012-09-06T16:01:53Z</time>
      </trkpt>
      <trkpt lat="44.16531" lon="3.01729">
        <ele>711.4</ele>
        <time>2012-09-06T16:01:55Z</time>
      </trkpt>
      <trkpt lat="44.16534" lon="3.01725">
        <ele>711.7</ele>
        <time>2012-09-06T16:01:56Z</time>
      </trkpt>
      <trkpt lat="44.16541" lon="3.01718">
        <ele>712.1</ele>
        <time>2012-09-06T16:01:58Z</time>
      </trkpt>
      <trkpt lat="44.16549" lon="3.0171">
        <ele>712.7</ele>
        <time>2012-09-06T16:02:01Z</time>
      </trkpt>
      <trkpt lat="44.16554" lon="3.01705">
        <ele>713.1</ele>
        <time>2012-09-06T16:02:03Z</time>
      </trkpt>
      <trkpt lat="44.16559" lon="3.01698">
        <ele>713.6</ele>
        <time>2012-09-06T16:02:05Z</time>
      </trkpt>
      <trkpt lat="44.16564" lon="3.0169">
        <ele>714.1</ele>
        <time>2012-09-06T16:02:07Z</time>
      </trkpt>
      <trkpt lat="44.16569" lon="3.01684">
        <ele>714.5</ele>
        <time>2012-09-06T16:02:09Z</time>
      </trkpt>
      <trkpt lat="44.16573" lon="3.01674">
        <ele>715.2</ele>
        <time>2012-09-06T16:02:11Z</time>
      </trkpt>
      <trkpt lat="44.16575" lon="3.01668">
        <ele>715.6</ele>
        <time>2012-09-06T16:02:12Z</time>
      </trkpt>
      <trkpt lat="44.1658" lon="3.01653">
        <ele>716.5</ele>
        <time>2012-09-06T16:02:15Z</time>
      </trkpt>
      <trkpt lat="44.16584" lon="3.01641">
        <ele>717.2</ele>
        <time>2012-09-06T16:02:17Z</time>
      </trkpt>
      <trkpt lat="44.16588" lon="3.01629">
        <ele>717.8</ele>
        <time>2012-09-06T16:02:20Z</time>
      </trkpt>
      <trkpt lat="44.16591" lon="3.01622">
        <ele>718.1</ele>
        <time>2012-09-06T16:02:22Z</time>
      </trkpt>
      <trkpt lat="44.16594" lon="3.01613">
        <ele>718.6</ele>
        <time>2012-09-06T16:02:24Z</time>
      </trkpt>
      <trkpt lat="44.16597" lon="3.01604">
        <ele>719.1</ele>
        <time>2012-09-06T16:02:27Z</time>
      </trkpt>
      <trkpt lat="44.166" lon="3.01596">
        <ele>719.5</ele>
        <time>2012-09-06T16:02:29Z</time>
      </trkpt>
      <trkpt lat="44.16605" lon="3.01583">
        <ele>720.3</ele>
        <time>2012-09-06T16:02:32Z</time>
      </trkpt>
      <trkpt lat="44.16608" lon="3.01576">
        <ele>720.7</ele>
        <time>2012-09-06T16:02:34Z</time>
      </trkpt>
      <trkpt lat="44.16615" lon="3.01564">
        <ele>721.3</ele>
        <time>2012-09-06T16:02:37Z</time>
      </trkpt>
      <trkpt lat="44.16622" lon="3.01554">
        <ele>721.9</ele>
        <time>2012-09-06T16:02:40Z</time>
      </trkpt>
      <trkpt lat="44.1663" lon="3.01543">
        <ele>722.5</ele>
        <time>2012-09-06T16:02:43Z</time>
      </trkpt>
      <trkpt lat="44.16635" lon="3.01537">
        <ele>722.8</ele>
        <time>2012-09-06T16:02:45Z</time>
      </trkpt>
      <trkpt lat="44.16642" lon="3.01529">
        <ele>723.3</ele>
        <time>2012-09-06T16:02:48Z</time>
      </trkpt>
      <trkpt lat="44.16647" lon="3.01523">
        <ele>723.6</ele>
        <time>2012-09-06T16:02:50Z</time>
      </trkpt>
      <trkpt lat="44.1665" lon="3.01518">
        <ele>724</ele>
        <time>2012-09-06T16:02:52Z</time>
      </trkpt>
      <trkpt lat="44.16654" lon="3.01506">
        <ele>724.6</ele>
        <time>2012-09-06T16:02:55Z</time>
      </trkpt>
      <trkpt lat="44.16654" lon="3.01499">
        <ele>725</ele>
        <time>2012-09-06T16:02:57Z</time>
      </trkpt>
      <trkpt lat="44.16652" lon="3.0149">
        <ele>725.6</ele>
        <time>2012-09-06T16:03:00Z</time>
      </trkpt>
      <trkpt lat="44.16651" lon="3.01482">
        <ele>726.3</ele>
        <time>2012-09-06T16:03:03Z</time>
      </trkpt>
      <trkpt lat="44.16651" lon="3.01475">
        <ele>726.8</ele>
        <time>2012-09-06T16:03:05Z</time>
      </trkpt>
      <trkpt lat="44.16651" lon="3.01468">
        <ele>727.4</ele>
        <time>2012-09-06T16:03:07Z</time>
      </trkpt>
      <trkpt lat="44.1665" lon="3.01461">
        <ele>727.9</ele>
        <time>2012-09-06T16:03:09Z</time>
      </trkpt>
      <trkpt lat="44.1665" lon="3.01454">
        <ele>728.4</ele>
        <time>2012-09-06T16:03:11Z</time>
      </trkpt>
      <trkpt lat="44.1665" lon="3.01445">
        <ele>729.1</ele>
        <time>2012-09-06T16:03:14Z</time>
      </trkpt>
      <trkpt lat="44.16651" lon="3.01434">
        <ele>730.1</ele>
        <time>2012-09-06T16:03:17Z</time>
      </trkpt>
      <trkpt lat="44.16651" lon="3.01427">
        <ele>730.6</ele>
        <time>2012-09-06T16:03:19Z</time>
      </trkpt>
      <trkpt lat="44.16652" lon="3.01419">
        <ele>731.3</ele>
        <time>2012-09-06T16:03:21Z</time>
      </trkpt>
      <trkpt lat="44.16653" lon="3.01411">
        <ele>731.8</ele>
        <time>2012-09-06T16:03:23Z</time>
      </trkpt>
      <trkpt lat="44.16654" lon="3.01404">
        <ele>732.2</ele>
        <time>2012-09-06T16:03:25Z</time>
      </trkpt>
      <trkpt lat="44.16656" lon="3.01396">
        <ele>732.6</ele>
        <time>2012-09-06T16:03:27Z</time>
      </trkpt>
      <trkpt lat="44.16661" lon="3.01384">
        <ele>733.4</ele>
        <time>2012-09-06T16:03:31Z</time>
      </trkpt>
      <trkpt lat="44.16663" lon="3.01377">
        <ele>733.8</ele>
        <time>2012-09-06T16:03:33Z</time>
      </trkpt>
      <trkpt lat="44.16666" lon="3.01369">
        <ele>734.3</ele>
        <time>2012-09-06T16:03:36Z</time>
      </trkpt>
      <trkpt lat="44.16668" lon="3.01362">
        <ele>734.6</ele>
        <time>2012-09-06T16:03:38Z</time>
      </trkpt>
      <trkpt lat="44.1667" lon="3.01356">
        <ele>734.9</ele>
        <time>2012-09-06T16:03:40Z</time>
      </trkpt>
      <trkpt lat="44.16672" lon="3.01347">
        <ele>735.3</ele>
        <time>2012-09-06T16:03:43Z</time>
      </trkpt>
      <trkpt lat="44.16674" lon="3.01339">
        <ele>735.7</ele>
        <time>2012-09-06T16:03:45Z</time>
      </trkpt>
      <trkpt lat="44.16678" lon="3.01331">
        <ele>736.1</ele>
        <time>2012-09-06T16:03:48Z</time>
      </trkpt>
      <trkpt lat="44.1668" lon="3.01323">
        <ele>736.4</ele>
        <time>2012-09-06T16:03:50Z</time>
      </trkpt>
      <trkpt lat="44.16683" lon="3.01316">
        <ele>736.7</ele>
        <time>2012-09-06T16:03:52Z</time>
      </trkpt>
      <trkpt lat="44.16686" lon="3.01309">
        <ele>737.1</ele>
        <time>2012-09-06T16:03:54Z</time>
      </trkpt>
      <trkpt lat="44.1669" lon="3.01301">
        <ele>737.5</ele>
        <time>2012-09-06T16:03:56Z</time>
      </trkpt>
      <trkpt lat="44.16693" lon="3.01294">
        <ele>737.8</ele>
        <time>2012-09-06T16:03:58Z</time>
      </trkpt>
      <trkpt lat="44.16695" lon="3.01286">
        <ele>738.3</ele>
        <time>2012-09-06T16:04:01Z</time>
      </trkpt>
      <trkpt lat="44.16696" lon="3.0128">
        <ele>738.6</ele>
        <time>2012-09-06T16:04:03Z</time>
      </trkpt>
      <trkpt lat="44.16698" lon="3.01272">
        <ele>739</ele>
        <time>2012-09-06T16:04:05Z</time>
      </trkpt>
      <trkpt lat="44.16698" lon="3.01265">
        <ele>739.4</ele>
        <time>2012-09-06T16:04:07Z</time>
      </trkpt>
      <trkpt lat="44.16698" lon="3.01257">
        <ele>739.8</ele>
        <time>2012-09-06T16:04:09Z</time>
      </trkpt>
      <trkpt lat="44.16698" lon="3.01249">
        <ele>740.1</ele>
        <time>2012-09-06T16:04:11Z</time>
      </trkpt>
      <trkpt lat="44.16697" lon="3.01239">
        <ele>740.3</ele>
        <time>2012-09-06T16:04:13Z</time>
      </trkpt>
      <trkpt lat="44.16697" lon="3.01231">
        <ele>740.5</ele>
        <time>2012-09-06T16:04:15Z</time>
      </trkpt>
      <trkpt lat="44.16696" lon="3.01223">
        <ele>740.6</ele>
        <time>2012-09-06T16:04:17Z</time>
      </trkpt>
      <trkpt lat="44.16695" lon="3.01216">
        <ele>740.7</ele>
        <time>2012-09-06T16:04:19Z</time>
      </trkpt>
      <trkpt lat="44.16692" lon="3.01219">
        <ele>740.5</ele>
        <time>2012-09-06T16:04:27Z</time>
      </trkpt>
      <trkpt lat="44.1668" lon="3.01218">
        <ele>740.2</ele>
        <time>2012-09-06T16:04:30Z</time>
      </trkpt>
      <trkpt lat="44.16672" lon="3.01216">
        <ele>740</ele>
        <time>2012-09-06T16:04:32Z</time>
      </trkpt>
      <trkpt lat="44.16664" lon="3.01212">
        <ele>739.8</ele>
        <time>2012-09-06T16:04:34Z</time>
      </trkpt>
      <trkpt lat="44.16659" lon="3.01209">
        <ele>739.6</ele>
        <time>2012-09-06T16:04:35Z</time>
      </trkpt>
      <trkpt lat="44.16655" lon="3.01206">
        <ele>739.4</ele>
        <time>2012-09-06T16:04:36Z</time>
      </trkpt>
      <trkpt lat="44.16648" lon="3.01203">
        <ele>739</ele>
        <time>2012-09-06T16:04:38Z</time>
      </trkpt>
      <trkpt lat="44.16642" lon="3.01203">
        <ele>738.6</ele>
        <time>2012-09-06T16:04:40Z</time>
      </trkpt>
      <trkpt lat="44.16636" lon="3.01202">
        <ele>738.2</ele>
        <time>2012-09-06T16:04:42Z</time>
      </trkpt>
      <trkpt lat="44.16628" lon="3.012">
        <ele>737.8</ele>
        <time>2012-09-06T16:04:44Z</time>
      </trkpt>
      <trkpt lat="44.16621" lon="3.01199">
        <ele>737.4</ele>
        <time>2012-09-06T16:04:46Z</time>
      </trkpt>
      <trkpt lat="44.16614" lon="3.01197">
        <ele>737</ele>
        <time>2012-09-06T16:04:48Z</time>
      </trkpt>
      <trkpt lat="44.16608" lon="3.01195">
        <ele>736.6</ele>
        <time>2012-09-06T16:04:50Z</time>
      </trkpt>
      <trkpt lat="44.16604" lon="3.01193">
        <ele>736.3</ele>
        <time>2012-09-06T16:04:52Z</time>
      </trkpt>
      <trkpt lat="44.16593" lon="3.01184">
        <ele>735.6</ele>
        <time>2012-09-06T16:05:32Z</time>
      </trkpt>
      <trkpt lat="44.16585" lon="3.01178">
        <ele>735.1</ele>
        <time>2012-09-06T16:05:35Z</time>
      </trkpt>
      <trkpt lat="44.16577" lon="3.01171">
        <ele>734.5</ele>
        <time>2012-09-06T16:05:37Z</time>
      </trkpt>
      <trkpt lat="44.16573" lon="3.01167">
        <ele>734.2</ele>
        <time>2012-09-06T16:05:38Z</time>
      </trkpt>
      <trkpt lat="44.16566" lon="3.0116">
        <ele>733.8</ele>
        <time>2012-09-06T16:05:40Z</time>
      </trkpt>
      <trkpt lat="44.16562" lon="3.01157">
        <ele>733.5</ele>
        <time>2012-09-06T16:05:41Z</time>
      </trkpt>
      <trkpt lat="44.16559" lon="3.01152">
        <ele>733.3</ele>
        <time>2012-09-06T16:05:42Z</time>
      </trkpt>
      <trkpt lat="44.16556" lon="3.01147">
        <ele>733.1</ele>
        <time>2012-09-06T16:05:43Z</time>
      </trkpt>
      <trkpt lat="44.16552" lon="3.01142">
        <ele>732.9</ele>
        <time>2012-09-06T16:05:44Z</time>
      </trkpt>
      <trkpt lat="44.16548" lon="3.01137">
        <ele>732.6</ele>
        <time>2012-09-06T16:05:45Z</time>
      </trkpt>
      <trkpt lat="44.16545" lon="3.01132">
        <ele>732.4</ele>
        <time>2012-09-06T16:05:46Z</time>
      </trkpt>
      <trkpt lat="44.1654" lon="3.01127">
        <ele>732.1</ele>
        <time>2012-09-06T16:05:47Z</time>
      </trkpt>
      <trkpt lat="44.16535" lon="3.01122">
        <ele>731.8</ele>
        <time>2012-09-06T16:05:48Z</time>
      </trkpt>
      <trkpt lat="44.16529" lon="3.01117">
        <ele>731.5</ele>
        <time>2012-09-06T16:05:49Z</time>
      </trkpt>
      <trkpt lat="44.16524" lon="3.01111">
        <ele>731.2</ele>
        <time>2012-09-06T16:05:50Z</time>
      </trkpt>
      <trkpt lat="44.1652" lon="3.01105">
        <ele>731</ele>
        <time>2012-09-06T16:05:51Z</time>
      </trkpt>
      <trkpt lat="44.16516" lon="3.01099">
        <ele>730.8</ele>
        <time>2012-09-06T16:05:52Z</time>
      </trkpt>
      <trkpt lat="44.16513" lon="3.01092">
        <ele>730.7</ele>
        <time>2012-09-06T16:05:53Z</time>
      </trkpt>
      <trkpt lat="44.16511" lon="3.01084">
        <ele>730.6</ele>
        <time>2012-09-06T16:05:54Z</time>
      </trkpt>
      <trkpt lat="44.1651" lon="3.01076">
        <ele>730.7</ele>
        <time>2012-09-06T16:05:55Z</time>
      </trkpt>
      <trkpt lat="44.16509" lon="3.01068">
        <ele>730.9</ele>
        <time>2012-09-06T16:05:56Z</time>
      </trkpt>
      <trkpt lat="44.16509" lon="3.0106">
        <ele>731</ele>
        <time>2012-09-06T16:05:57Z</time>
      </trkpt>
      <trkpt lat="44.16509" lon="3.01053">
        <ele>731.2</ele>
        <time>2012-09-06T16:05:58Z</time>
      </trkpt>
      <trkpt lat="44.16506" lon="3.01046">
        <ele>731.2</ele>
        <time>2012-09-06T16:05:59Z</time>
      </trkpt>
      <trkpt lat="44.16502" lon="3.01041">
        <ele>731.1</ele>
        <time>2012-09-06T16:06:00Z</time>
      </trkpt>
      <trkpt lat="44.16498" lon="3.01037">
        <ele>731.1</ele>
        <time>2012-09-06T16:06:01Z</time>
      </trkpt>
      <trkpt lat="44.16493" lon="3.01033">
        <ele>731.3</ele>
        <time>2012-09-06T16:06:02Z</time>
      </trkpt>
      <trkpt lat="44.16488" lon="3.0103">
        <ele>731.5</ele>
        <time>2012-09-06T16:06:03Z</time>
      </trkpt>
      <trkpt lat="44.16483" lon="3.01027">
        <ele>731.7</ele>
        <time>2012-09-06T16:06:04Z</time>
      </trkpt>
      <trkpt lat="44.16477" lon="3.01024">
        <ele>731.9</ele>
        <time>2012-09-06T16:06:05Z</time>
      </trkpt>
      <trkpt lat="44.16472" lon="3.01022">
        <ele>732.1</ele>
        <time>2012-09-06T16:06:06Z</time>
      </trkpt>
      <trkpt lat="44.16467" lon="3.0102">
        <ele>732.3</ele>
        <time>2012-09-06T16:06:07Z</time>
      </trkpt>
      <trkpt lat="44.16461" lon="3.01019">
        <ele>732.5</ele>
        <time>2012-09-06T16:06:08Z</time>
      </trkpt>
      <trkpt lat="44.16456" lon="3.01018">
        <ele>732.7</ele>
        <time>2012-09-06T16:06:09Z</time>
      </trkpt>
      <trkpt lat="44.16452" lon="3.01018">
        <ele>732.8</ele>
        <time>2012-09-06T16:06:10Z</time>
      </trkpt>
      <trkpt lat="44.16446" lon="3.01018">
        <ele>733</ele>
        <time>2012-09-06T16:06:11Z</time>
      </trkpt>
      <trkpt lat="44.16436" lon="3.01018">
        <ele>733.2</ele>
        <time>2012-09-06T16:06:14Z</time>
      </trkpt>
      <trkpt lat="44.16427" lon="3.01019">
        <ele>733.4</ele>
        <time>2012-09-06T16:06:16Z</time>
      </trkpt>
      <trkpt lat="44.16422" lon="3.01019">
        <ele>733.5</ele>
        <time>2012-09-06T16:06:17Z</time>
      </trkpt>
      <trkpt lat="44.16414" lon="3.01019">
        <ele>733.6</ele>
        <time>2012-09-06T16:06:19Z</time>
      </trkpt>
      <trkpt lat="44.16406" lon="3.01019">
        <ele>733.5</ele>
        <time>2012-09-06T16:06:21Z</time>
      </trkpt>
      <trkpt lat="44.16397" lon="3.01018">
        <ele>733.4</ele>
        <time>2012-09-06T16:06:23Z</time>
      </trkpt>
      <trkpt lat="44.1639" lon="3.01016">
        <ele>733.4</ele>
        <time>2012-09-06T16:06:25Z</time>
      </trkpt>
      <trkpt lat="44.16376" lon="3.01013">
        <ele>733.4</ele>
        <time>2012-09-06T16:06:28Z</time>
      </trkpt>
      <trkpt lat="44.16368" lon="3.01011">
        <ele>733.3</ele>
        <time>2012-09-06T16:06:30Z</time>
      </trkpt>
      <trkpt lat="44.16361" lon="3.01009">
        <ele>733.3</ele>
        <time>2012-09-06T16:06:32Z</time>
      </trkpt>
      <trkpt lat="44.16354" lon="3.01007">
        <ele>733.2</ele>
        <time>2012-09-06T16:06:34Z</time>
      </trkpt>
      <trkpt lat="44.16347" lon="3.01004">
        <ele>733.2</ele>
        <time>2012-09-06T16:06:36Z</time>
      </trkpt>
      <trkpt lat="44.16338" lon="3.01001">
        <ele>733.1</ele>
        <time>2012-09-06T16:06:38Z</time>
      </trkpt>
      <trkpt lat="44.16334" lon="3.00999">
        <ele>733</ele>
        <time>2012-09-06T16:06:39Z</time>
      </trkpt>
      <trkpt lat="44.1633" lon="3.00996">
        <ele>732.8</ele>
        <time>2012-09-06T16:06:40Z</time>
      </trkpt>
      <trkpt lat="44.16324" lon="3.00986">
        <ele>732.4</ele>
        <time>2012-09-06T16:06:42Z</time>
      </trkpt>
      <trkpt lat="44.16322" lon="3.00981">
        <ele>732.3</ele>
        <time>2012-09-06T16:06:43Z</time>
      </trkpt>
      <trkpt lat="44.16319" lon="3.00975">
        <ele>732.1</ele>
        <time>2012-09-06T16:06:44Z</time>
      </trkpt>
      <trkpt lat="44.16317" lon="3.00969">
        <ele>731.9</ele>
        <time>2012-09-06T16:06:45Z</time>
      </trkpt>
      <trkpt lat="44.16314" lon="3.00963">
        <ele>731.7</ele>
        <time>2012-09-06T16:06:46Z</time>
      </trkpt>
      <trkpt lat="44.16311" lon="3.00957">
        <ele>731.5</ele>
        <time>2012-09-06T16:06:47Z</time>
      </trkpt>
      <trkpt lat="44.16307" lon="3.0095">
        <ele>731.2</ele>
        <time>2012-09-06T16:06:48Z</time>
      </trkpt>
      <trkpt lat="44.16303" lon="3.00943">
        <ele>730.9</ele>
        <time>2012-09-06T16:06:49Z</time>
      </trkpt>
      <trkpt lat="44.16299" lon="3.00936">
        <ele>730.7</ele>
        <time>2012-09-06T16:06:50Z</time>
      </trkpt>
      <trkpt lat="44.16297" lon="3.00928">
        <ele>730.4</ele>
        <time>2012-09-06T16:06:51Z</time>
      </trkpt>
      <trkpt lat="44.16295" lon="3.00919">
        <ele>730.3</ele>
        <time>2012-09-06T16:06:52Z</time>
      </trkpt>
      <trkpt lat="44.16294" lon="3.0091">
        <ele>730.3</ele>
        <time>2012-09-06T16:06:53Z</time>
      </trkpt>
      <trkpt lat="44.16292" lon="3.0089">
        <ele>730.5</ele>
        <time>2012-09-06T16:06:55Z</time>
      </trkpt>
      <trkpt lat="44.16292" lon="3.00881">
        <ele>730.7</ele>
        <time>2012-09-06T16:06:56Z</time>
      </trkpt>
      <trkpt lat="44.16292" lon="3.00871">
        <ele>730.8</ele>
        <time>2012-09-06T16:06:57Z</time>
      </trkpt>
      <trkpt lat="44.16292" lon="3.00861">
        <ele>731</ele>
        <time>2012-09-06T16:06:58Z</time>
      </trkpt>
      <trkpt lat="44.16292" lon="3.00851">
        <ele>731.2</ele>
        <time>2012-09-06T16:06:59Z</time>
      </trkpt>
      <trkpt lat="44.16292" lon="3.00841">
        <ele>731.4</ele>
        <time>2012-09-06T16:07:00Z</time>
      </trkpt>
      <trkpt lat="44.16289" lon="3.00832">
        <ele>731.4</ele>
        <time>2012-09-06T16:07:01Z</time>
      </trkpt>
      <trkpt lat="44.16285" lon="3.00826">
        <ele>731.4</ele>
        <time>2012-09-06T16:07:02Z</time>
      </trkpt>
      <trkpt lat="44.16282" lon="3.0082">
        <ele>731.4</ele>
        <time>2012-09-06T16:07:03Z</time>
      </trkpt>
      <trkpt lat="44.16277" lon="3.00814">
        <ele>731.4</ele>
        <time>2012-09-06T16:07:04Z</time>
      </trkpt>
      <trkpt lat="44.16273" lon="3.00809">
        <ele>731.4</ele>
        <time>2012-09-06T16:07:05Z</time>
      </trkpt>
      <trkpt lat="44.16269" lon="3.00805">
        <ele>731.5</ele>
        <time>2012-09-06T16:07:06Z</time>
      </trkpt>
      <trkpt lat="44.16266" lon="3.00801">
        <ele>731.5</ele>
        <time>2012-09-06T16:07:07Z</time>
      </trkpt>
      <trkpt lat="44.16259" lon="3.00794">
        <ele>731.6</ele>
        <time>2012-09-06T16:07:09Z</time>
      </trkpt>
      <trkpt lat="44.16252" lon="3.00788">
        <ele>731.8</ele>
        <time>2012-09-06T16:07:11Z</time>
      </trkpt>
      <trkpt lat="44.16246" lon="3.00782">
        <ele>732.3</ele>
        <time>2012-09-06T16:07:13Z</time>
      </trkpt>
      <trkpt lat="44.16243" lon="3.00773">
        <ele>733</ele>
        <time>2012-09-06T16:07:15Z</time>
      </trkpt>
      <trkpt lat="44.16239" lon="3.00765">
        <ele>733.7</ele>
        <time>2012-09-06T16:07:17Z</time>
      </trkpt>
      <trkpt lat="44.16235" lon="3.00755">
        <ele>734.4</ele>
        <time>2012-09-06T16:07:19Z</time>
      </trkpt>
      <trkpt lat="44.16232" lon="3.00748">
        <ele>735</ele>
        <time>2012-09-06T16:07:21Z</time>
      </trkpt>
      <trkpt lat="44.16226" lon="3.00739">
        <ele>735.6</ele>
        <time>2012-09-06T16:07:24Z</time>
      </trkpt>
      <trkpt lat="44.16221" lon="3.00733">
        <ele>736.1</ele>
        <time>2012-09-06T16:07:27Z</time>
      </trkpt>
      <trkpt lat="44.16218" lon="3.00727">
        <ele>736.5</ele>
        <time>2012-09-06T16:07:29Z</time>
      </trkpt>
      <trkpt lat="44.16215" lon="3.00721">
        <ele>736.9</ele>
        <time>2012-09-06T16:07:31Z</time>
      </trkpt>
      <trkpt lat="44.16212" lon="3.00714">
        <ele>737.4</ele>
        <time>2012-09-06T16:07:33Z</time>
      </trkpt>
      <trkpt lat="44.16209" lon="3.00708">
        <ele>737.7</ele>
        <time>2012-09-06T16:07:35Z</time>
      </trkpt>
      <trkpt lat="44.16206" lon="3.00702">
        <ele>738.1</ele>
        <time>2012-09-06T16:07:37Z</time>
      </trkpt>
      <trkpt lat="44.16203" lon="3.00696">
        <ele>738.5</ele>
        <time>2012-09-06T16:07:39Z</time>
      </trkpt>
      <trkpt lat="44.162" lon="3.00689">
        <ele>738.9</ele>
        <time>2012-09-06T16:07:41Z</time>
      </trkpt>
      <trkpt lat="44.16196" lon="3.00684">
        <ele>739.2</ele>
        <time>2012-09-06T16:07:43Z</time>
      </trkpt>
      <trkpt lat="44.16192" lon="3.00678">
        <ele>739.7</ele>
        <time>2012-09-06T16:07:46Z</time>
      </trkpt>
      <trkpt lat="44.16188" lon="3.00672">
        <ele>740</ele>
        <time>2012-09-06T16:07:48Z</time>
      </trkpt>
      <trkpt lat="44.16184" lon="3.00664">
        <ele>740.4</ele>
        <time>2012-09-06T16:07:50Z</time>
      </trkpt>
      <trkpt lat="44.16181" lon="3.00659">
        <ele>740.7</ele>
        <time>2012-09-06T16:07:52Z</time>
      </trkpt>
      <trkpt lat="44.16177" lon="3.00655">
        <ele>740.9</ele>
        <time>2012-09-06T16:07:54Z</time>
      </trkpt>
      <trkpt lat="44.16173" lon="3.00649">
        <ele>741.2</ele>
        <time>2012-09-06T16:07:56Z</time>
      </trkpt>
      <trkpt lat="44.16169" lon="3.00643">
        <ele>741.5</ele>
        <time>2012-09-06T16:07:58Z</time>
      </trkpt>
      <trkpt lat="44.16166" lon="3.00638">
        <ele>741.7</ele>
        <time>2012-09-06T16:08:00Z</time>
      </trkpt>
      <trkpt lat="44.16162" lon="3.00632">
        <ele>741.7</ele>
        <time>2012-09-06T16:08:02Z</time>
      </trkpt>
      <trkpt lat="44.16158" lon="3.00627">
        <ele>741.8</ele>
        <time>2012-09-06T16:08:04Z</time>
      </trkpt>
      <trkpt lat="44.16155" lon="3.0062">
        <ele>741.9</ele>
        <time>2012-09-06T16:08:06Z</time>
      </trkpt>
      <trkpt lat="44.16155" lon="3.0061">
        <ele>742.1</ele>
        <time>2012-09-06T16:08:09Z</time>
      </trkpt>
      <trkpt lat="44.16155" lon="3.00602">
        <ele>742.3</ele>
        <time>2012-09-06T16:08:12Z</time>
      </trkpt>
      <trkpt lat="44.16155" lon="3.00595">
        <ele>742.5</ele>
        <time>2012-09-06T16:08:14Z</time>
      </trkpt>
      <trkpt lat="44.16156" lon="3.00588">
        <ele>742.6</ele>
        <time>2012-09-06T16:08:16Z</time>
      </trkpt>
      <trkpt lat="44.16156" lon="3.00581">
        <ele>742.9</ele>
        <time>2012-09-06T16:08:18Z</time>
      </trkpt>
      <trkpt lat="44.16157" lon="3.00574">
        <ele>743.2</ele>
        <time>2012-09-06T16:08:20Z</time>
      </trkpt>
      <trkpt lat="44.16155" lon="3.00562">
        <ele>743.6</ele>
        <time>2012-09-06T16:08:23Z</time>
      </trkpt>
      <trkpt lat="44.16155" lon="3.00553">
        <ele>744</ele>
        <time>2012-09-06T16:08:25Z</time>
      </trkpt>
      <trkpt lat="44.16154" lon="3.00545">
        <ele>744.3</ele>
        <time>2012-09-06T16:08:28Z</time>
      </trkpt>
      <trkpt lat="44.16155" lon="3.00538">
        <ele>744.7</ele>
        <time>2012-09-06T16:08:31Z</time>
      </trkpt>
      <trkpt lat="44.16162" lon="3.00537">
        <ele>745</ele>
        <time>2012-09-06T16:08:34Z</time>
      </trkpt>
      <trkpt lat="44.16168" lon="3.00536">
        <ele>745.2</ele>
        <time>2012-09-06T16:08:36Z</time>
      </trkpt>
      <trkpt lat="44.16175" lon="3.00535">
        <ele>745.3</ele>
        <time>2012-09-06T16:08:38Z</time>
      </trkpt>
      <trkpt lat="44.16182" lon="3.00533">
        <ele>745.3</ele>
        <time>2012-09-06T16:08:40Z</time>
      </trkpt>
      <trkpt lat="44.16189" lon="3.00531">
        <ele>745.4</ele>
        <time>2012-09-06T16:08:42Z</time>
      </trkpt>
      <trkpt lat="44.16195" lon="3.0053">
        <ele>745.4</ele>
        <time>2012-09-06T16:08:44Z</time>
      </trkpt>
      <trkpt lat="44.16201" lon="3.00528">
        <ele>745.5</ele>
        <time>2012-09-06T16:08:46Z</time>
      </trkpt>
      <trkpt lat="44.16208" lon="3.00525">
        <ele>745.7</ele>
        <time>2012-09-06T16:08:48Z</time>
      </trkpt>
      <trkpt lat="44.16215" lon="3.00522">
        <ele>745.8</ele>
        <time>2012-09-06T16:08:50Z</time>
      </trkpt>
      <trkpt lat="44.1622" lon="3.00519">
        <ele>746</ele>
        <time>2012-09-06T16:08:52Z</time>
      </trkpt>
      <trkpt lat="44.16227" lon="3.00514">
        <ele>746.2</ele>
        <time>2012-09-06T16:08:54Z</time>
      </trkpt>
      <trkpt lat="44.16234" lon="3.00509">
        <ele>746.5</ele>
        <time>2012-09-06T16:08:56Z</time>
      </trkpt>
      <trkpt lat="44.16238" lon="3.00505">
        <ele>746.7</ele>
        <time>2012-09-06T16:08:58Z</time>
      </trkpt>
      <trkpt lat="44.16242" lon="3.00503">
        <ele>746.8</ele>
        <time>2012-09-06T16:09:01Z</time>
      </trkpt>
      <trkpt lat="44.16248" lon="3.00501">
        <ele>746.9</ele>
        <time>2012-09-06T16:09:04Z</time>
      </trkpt>
      <trkpt lat="44.16254" lon="3.00499">
        <ele>747.2</ele>
        <time>2012-09-06T16:09:06Z</time>
      </trkpt>
      <trkpt lat="44.16259" lon="3.00497">
        <ele>747.6</ele>
        <time>2012-09-06T16:09:08Z</time>
      </trkpt>
      <trkpt lat="44.16265" lon="3.00493">
        <ele>748.1</ele>
        <time>2012-09-06T16:09:10Z</time>
      </trkpt>
      <trkpt lat="44.16271" lon="3.00491">
        <ele>748.5</ele>
        <time>2012-09-06T16:09:12Z</time>
      </trkpt>
      <trkpt lat="44.16282" lon="3.00485">
        <ele>749.5</ele>
        <time>2012-09-06T16:09:15Z</time>
      </trkpt>
      <trkpt lat="44.16291" lon="3.00479">
        <ele>750.4</ele>
        <time>2012-09-06T16:09:19Z</time>
      </trkpt>
      <trkpt lat="44.16296" lon="3.00479">
        <ele>750.5</ele>
        <time>2012-09-06T16:09:22Z</time>
      </trkpt>
      <trkpt lat="44.163" lon="3.00479">
        <ele>750.6</ele>
        <time>2012-09-06T16:09:24Z</time>
      </trkpt>
      <trkpt lat="44.16306" lon="3.0048">
        <ele>750.7</ele>
        <time>2012-09-06T16:09:26Z</time>
      </trkpt>
      <trkpt lat="44.16312" lon="3.00479">
        <ele>751</ele>
        <time>2012-09-06T16:09:28Z</time>
      </trkpt>
      <trkpt lat="44.16318" lon="3.00478">
        <ele>751.2</ele>
        <time>2012-09-06T16:09:30Z</time>
      </trkpt>
      <trkpt lat="44.16323" lon="3.00477">
        <ele>751.5</ele>
        <time>2012-09-06T16:09:32Z</time>
      </trkpt>
      <trkpt lat="44.16329" lon="3.00474">
        <ele>751.9</ele>
        <time>2012-09-06T16:09:34Z</time>
      </trkpt>
      <trkpt lat="44.16334" lon="3.00472">
        <ele>752.4</ele>
        <time>2012-09-06T16:09:37Z</time>
      </trkpt>
      <trkpt lat="44.16341" lon="3.00468">
        <ele>753.1</ele>
        <time>2012-09-06T16:09:39Z</time>
      </trkpt>
      <trkpt lat="44.16346" lon="3.00466">
        <ele>753.6</ele>
        <time>2012-09-06T16:09:41Z</time>
      </trkpt>
      <trkpt lat="44.16352" lon="3.00462">
        <ele>754.3</ele>
        <time>2012-09-06T16:09:44Z</time>
      </trkpt>
      <trkpt lat="44.16356" lon="3.00458">
        <ele>754.8</ele>
        <time>2012-09-06T16:09:47Z</time>
      </trkpt>
      <trkpt lat="44.1636" lon="3.00453">
        <ele>755.6</ele>
        <time>2012-09-06T16:09:49Z</time>
      </trkpt>
      <trkpt lat="44.16362" lon="3.00445">
        <ele>756.5</ele>
        <time>2012-09-06T16:09:51Z</time>
      </trkpt>
      <trkpt lat="44.16363" lon="3.00438">
        <ele>757.3</ele>
        <time>2012-09-06T16:09:54Z</time>
      </trkpt>
      <trkpt lat="44.16361" lon="3.00431">
        <ele>758.1</ele>
        <time>2012-09-06T16:09:57Z</time>
      </trkpt>
      <trkpt lat="44.16356" lon="3.00425">
        <ele>758.6</ele>
        <time>2012-09-06T16:10:00Z</time>
      </trkpt>
      <trkpt lat="44.16351" lon="3.00421">
        <ele>759</ele>
        <time>2012-09-06T16:10:03Z</time>
      </trkpt>
      <trkpt lat="44.16345" lon="3.00416">
        <ele>759.4</ele>
        <time>2012-09-06T16:10:06Z</time>
      </trkpt>
      <trkpt lat="44.16342" lon="3.00412">
        <ele>759.5</ele>
        <time>2012-09-06T16:10:08Z</time>
      </trkpt>
      <trkpt lat="44.16338" lon="3.00408">
        <ele>759.7</ele>
        <time>2012-09-06T16:10:10Z</time>
      </trkpt>
      <trkpt lat="44.16334" lon="3.00402">
        <ele>760</ele>
        <time>2012-09-06T16:10:12Z</time>
      </trkpt>
      <trkpt lat="44.16331" lon="3.00396">
        <ele>760.4</ele>
        <time>2012-09-06T16:10:14Z</time>
      </trkpt>
      <trkpt lat="44.16327" lon="3.00389">
        <ele>760.7</ele>
        <time>2012-09-06T16:10:17Z</time>
      </trkpt>
      <trkpt lat="44.16323" lon="3.00381">
        <ele>761.2</ele>
        <time>2012-09-06T16:10:20Z</time>
      </trkpt>
      <trkpt lat="44.16323" lon="3.00372">
        <ele>761.8</ele>
        <time>2012-09-06T16:10:24Z</time>
      </trkpt>
      <trkpt lat="44.16323" lon="3.00365">
        <ele>762.4</ele>
        <time>2012-09-06T16:10:27Z</time>
      </trkpt>
      <trkpt lat="44.16323" lon="3.00357">
        <ele>762.9</ele>
        <time>2012-09-06T16:10:29Z</time>
      </trkpt>
      <trkpt lat="44.16321" lon="3.00348">
        <ele>763.5</ele>
        <time>2012-09-06T16:10:32Z</time>
      </trkpt>
      <trkpt lat="44.16321" lon="3.00342">
        <ele>764</ele>
        <time>2012-09-06T16:10:34Z</time>
      </trkpt>
      <trkpt lat="44.1632" lon="3.00334">
        <ele>764.5</ele>
        <time>2012-09-06T16:10:36Z</time>
      </trkpt>
      <trkpt lat="44.16321" lon="3.00325">
        <ele>764.9</ele>
        <time>2012-09-06T16:10:39Z</time>
      </trkpt>
      <trkpt lat="44.16321" lon="3.00318">
        <ele>765.1</ele>
        <time>2012-09-06T16:10:41Z</time>
      </trkpt>
      <trkpt lat="44.16319" lon="3.0031">
        <ele>765.4</ele>
        <time>2012-09-06T16:10:44Z</time>
      </trkpt>
      <trkpt lat="44.16315" lon="3.00303">
        <ele>765.5</ele>
        <time>2012-09-06T16:10:47Z</time>
      </trkpt>
      <trkpt lat="44.16309" lon="3.00294">
        <ele>765.7</ele>
        <time>2012-09-06T16:10:51Z</time>
      </trkpt>
      <trkpt lat="44.16306" lon="3.0029">
        <ele>765.7</ele>
        <time>2012-09-06T16:10:53Z</time>
      </trkpt>
      <trkpt lat="44.16302" lon="3.00286">
        <ele>765.8</ele>
        <time>2012-09-06T16:10:55Z</time>
      </trkpt>
      <trkpt lat="44.16296" lon="3.00278">
        <ele>765.9</ele>
        <time>2012-09-06T16:10:59Z</time>
      </trkpt>
      <trkpt lat="44.16293" lon="3.00272">
        <ele>766.1</ele>
        <time>2012-09-06T16:11:01Z</time>
      </trkpt>
      <trkpt lat="44.16289" lon="3.00267">
        <ele>766.2</ele>
        <time>2012-09-06T16:11:03Z</time>
      </trkpt>
      <trkpt lat="44.16284" lon="3.00261">
        <ele>766.4</ele>
        <time>2012-09-06T16:11:06Z</time>
      </trkpt>
      <trkpt lat="44.16279" lon="3.00255">
        <ele>766.5</ele>
        <time>2012-09-06T16:11:08Z</time>
      </trkpt>
      <trkpt lat="44.16271" lon="3.00247">
        <ele>766.6</ele>
        <time>2012-09-06T16:11:10Z</time>
      </trkpt>
      <trkpt lat="44.16263" lon="3.00238">
        <ele>766.6</ele>
        <time>2012-09-06T16:11:12Z</time>
      </trkpt>
      <trkpt lat="44.16257" lon="3.00232">
        <ele>766.6</ele>
        <time>2012-09-06T16:11:13Z</time>
      </trkpt>
      <trkpt lat="44.16252" lon="3.00227">
        <ele>766.6</ele>
        <time>2012-09-06T16:11:14Z</time>
      </trkpt>
      <trkpt lat="44.16248" lon="3.00222">
        <ele>766.6</ele>
        <time>2012-09-06T16:11:15Z</time>
      </trkpt>
      <trkpt lat="44.16243" lon="3.00217">
        <ele>766.6</ele>
        <time>2012-09-06T16:11:16Z</time>
      </trkpt>
      <trkpt lat="44.16238" lon="3.00213">
        <ele>766.5</ele>
        <time>2012-09-06T16:11:17Z</time>
      </trkpt>
      <trkpt lat="44.16233" lon="3.00208">
        <ele>766.5</ele>
        <time>2012-09-06T16:11:18Z</time>
      </trkpt>
      <trkpt lat="44.16227" lon="3.00202">
        <ele>766.5</ele>
        <time>2012-09-06T16:11:19Z</time>
      </trkpt>
      <trkpt lat="44.16222" lon="3.00195">
        <ele>766.5</ele>
        <time>2012-09-06T16:11:20Z</time>
      </trkpt>
      <trkpt lat="44.16217" lon="3.00189">
        <ele>766.6</ele>
        <time>2012-09-06T16:11:21Z</time>
      </trkpt>
      <trkpt lat="44.16212" lon="3.00184">
        <ele>766.6</ele>
        <time>2012-09-06T16:11:22Z</time>
      </trkpt>
      <trkpt lat="44.16206" lon="3.00178">
        <ele>766.6</ele>
        <time>2012-09-06T16:11:23Z</time>
      </trkpt>
      <trkpt lat="44.16195" lon="3.00165">
        <ele>766.7</ele>
        <time>2012-09-06T16:11:25Z</time>
      </trkpt>
      <trkpt lat="44.16186" lon="3.00155">
        <ele>766.2</ele>
        <time>2012-09-06T16:11:27Z</time>
      </trkpt>
      <trkpt lat="44.1618" lon="3.0015">
        <ele>766</ele>
        <time>2012-09-06T16:11:28Z</time>
      </trkpt>
      <trkpt lat="44.16176" lon="3.00146">
        <ele>765.8</ele>
        <time>2012-09-06T16:11:29Z</time>
      </trkpt>
      <trkpt lat="44.1617" lon="3.00142">
        <ele>765.5</ele>
        <time>2012-09-06T16:11:30Z</time>
      </trkpt>
      <trkpt lat="44.16164" lon="3.00137">
        <ele>765.2</ele>
        <time>2012-09-06T16:11:31Z</time>
      </trkpt>
      <trkpt lat="44.16159" lon="3.00133">
        <ele>764.9</ele>
        <time>2012-09-06T16:11:32Z</time>
      </trkpt>
      <trkpt lat="44.16154" lon="3.00132">
        <ele>764.7</ele>
        <time>2012-09-06T16:11:33Z</time>
      </trkpt>
      <trkpt lat="44.16148" lon="3.00131">
        <ele>764.5</ele>
        <time>2012-09-06T16:11:34Z</time>
      </trkpt>
      <trkpt lat="44.16142" lon="3.0013">
        <ele>764.2</ele>
        <time>2012-09-06T16:11:35Z</time>
      </trkpt>
      <trkpt lat="44.16136" lon="3.0013">
        <ele>764</ele>
        <time>2012-09-06T16:11:36Z</time>
      </trkpt>
      <trkpt lat="44.1613" lon="3.0013">
        <ele>763.8</ele>
        <time>2012-09-06T16:11:37Z</time>
      </trkpt>
      <trkpt lat="44.16124" lon="3.0013">
        <ele>763.6</ele>
        <time>2012-09-06T16:11:38Z</time>
      </trkpt>
      <trkpt lat="44.16118" lon="3.0013">
        <ele>763.4</ele>
        <time>2012-09-06T16:11:39Z</time>
      </trkpt>
      <trkpt lat="44.16107" lon="3.00131">
        <ele>763</ele>
        <time>2012-09-06T16:11:41Z</time>
      </trkpt>
      <trkpt lat="44.16101" lon="3.00132">
        <ele>762.8</ele>
        <time>2012-09-06T16:11:42Z</time>
      </trkpt>
      <trkpt lat="44.16095" lon="3.00131">
        <ele>762.6</ele>
        <time>2012-09-06T16:11:43Z</time>
      </trkpt>
      <trkpt lat="44.1609" lon="3.0013">
        <ele>762.4</ele>
        <time>2012-09-06T16:11:44Z</time>
      </trkpt>
      <trkpt lat="44.16079" lon="3.00127">
        <ele>761.8</ele>
        <time>2012-09-06T16:11:47Z</time>
      </trkpt>
      <trkpt lat="44.16071" lon="3.00123">
        <ele>761.4</ele>
        <time>2012-09-06T16:11:58Z</time>
      </trkpt>
      <trkpt lat="44.16065" lon="3.00123">
        <ele>761.1</ele>
        <time>2012-09-06T16:12:34Z</time>
      </trkpt>
      <trkpt lat="44.1606" lon="3.00122">
        <ele>760.8</ele>
        <time>2012-09-06T16:12:36Z</time>
      </trkpt>
      <trkpt lat="44.16053" lon="3.00122">
        <ele>760.5</ele>
        <time>2012-09-06T16:12:38Z</time>
      </trkpt>
      <trkpt lat="44.16045" lon="3.00122">
        <ele>760.1</ele>
        <time>2012-09-06T16:12:40Z</time>
      </trkpt>
      <trkpt lat="44.16036" lon="3.0012">
        <ele>759.6</ele>
        <time>2012-09-06T16:12:42Z</time>
      </trkpt>
      <trkpt lat="44.16031" lon="3.00119">
        <ele>759.3</ele>
        <time>2012-09-06T16:12:43Z</time>
      </trkpt>
      <trkpt lat="44.16025" lon="3.00118">
        <ele>759</ele>
        <time>2012-09-06T16:12:44Z</time>
      </trkpt>
      <trkpt lat="44.16019" lon="3.00117">
        <ele>758.7</ele>
        <time>2012-09-06T16:12:45Z</time>
      </trkpt>
      <trkpt lat="44.16008" lon="3.00117">
        <ele>758.2</ele>
        <time>2012-09-06T16:12:47Z</time>
      </trkpt>
      <trkpt lat="44.15997" lon="3.00121">
        <ele>757.6</ele>
        <time>2012-09-06T16:12:49Z</time>
      </trkpt>
      <trkpt lat="44.15985" lon="3.00129">
        <ele>756.8</ele>
        <time>2012-09-06T16:12:51Z</time>
      </trkpt>
      <trkpt lat="44.15979" lon="3.00132">
        <ele>756.3</ele>
        <time>2012-09-06T16:12:52Z</time>
      </trkpt>
      <trkpt lat="44.15972" lon="3.00135">
        <ele>755.8</ele>
        <time>2012-09-06T16:12:53Z</time>
      </trkpt>
      <trkpt lat="44.15965" lon="3.00138">
        <ele>755.2</ele>
        <time>2012-09-06T16:12:54Z</time>
      </trkpt>
      <trkpt lat="44.15957" lon="3.0014">
        <ele>754.6</ele>
        <time>2012-09-06T16:12:55Z</time>
      </trkpt>
      <trkpt lat="44.15948" lon="3.00139">
        <ele>753.8</ele>
        <time>2012-09-06T16:12:56Z</time>
      </trkpt>
      <trkpt lat="44.15939" lon="3.00139">
        <ele>752.9</ele>
        <time>2012-09-06T16:12:57Z</time>
      </trkpt>
      <trkpt lat="44.15929" lon="3.00138">
        <ele>752.1</ele>
        <time>2012-09-06T16:12:58Z</time>
      </trkpt>
      <trkpt lat="44.1592" lon="3.00142">
        <ele>751.4</ele>
        <time>2012-09-06T16:12:59Z</time>
      </trkpt>
      <trkpt lat="44.15911" lon="3.00145">
        <ele>750.7</ele>
        <time>2012-09-06T16:13:00Z</time>
      </trkpt>
      <trkpt lat="44.15902" lon="3.00152">
        <ele>750.3</ele>
        <time>2012-09-06T16:13:01Z</time>
      </trkpt>
      <trkpt lat="44.15894" lon="3.00158">
        <ele>749.8</ele>
        <time>2012-09-06T16:13:02Z</time>
      </trkpt>
      <trkpt lat="44.15886" lon="3.00163">
        <ele>749.3</ele>
        <time>2012-09-06T16:13:03Z</time>
      </trkpt>
      <trkpt lat="44.15878" lon="3.00166">
        <ele>748.7</ele>
        <time>2012-09-06T16:13:04Z</time>
      </trkpt>
      <trkpt lat="44.1587" lon="3.00168">
        <ele>748</ele>
        <time>2012-09-06T16:13:05Z</time>
      </trkpt>
      <trkpt lat="44.15863" lon="3.00171">
        <ele>747.3</ele>
        <time>2012-09-06T16:13:06Z</time>
      </trkpt>
      <trkpt lat="44.15849" lon="3.00175">
        <ele>745.9</ele>
        <time>2012-09-06T16:13:08Z</time>
      </trkpt>
      <trkpt lat="44.15833" lon="3.00184">
        <ele>744.4</ele>
        <time>2012-09-06T16:13:10Z</time>
      </trkpt>
      <trkpt lat="44.15825" lon="3.00188">
        <ele>744</ele>
        <time>2012-09-06T16:13:11Z</time>
      </trkpt>
      <trkpt lat="44.15818" lon="3.00193">
        <ele>743.7</ele>
        <time>2012-09-06T16:13:12Z</time>
      </trkpt>
      <trkpt lat="44.1581" lon="3.00198">
        <ele>743.5</ele>
        <time>2012-09-06T16:13:13Z</time>
      </trkpt>
      <trkpt lat="44.15802" lon="3.00204">
        <ele>743.3</ele>
        <time>2012-09-06T16:13:14Z</time>
      </trkpt>
      <trkpt lat="44.15795" lon="3.00211">
        <ele>743.3</ele>
        <time>2012-09-06T16:13:15Z</time>
      </trkpt>
      <trkpt lat="44.15789" lon="3.00217">
        <ele>743.3</ele>
        <time>2012-09-06T16:13:16Z</time>
      </trkpt>
      <trkpt lat="44.15784" lon="3.00221">
        <ele>743.4</ele>
        <time>2012-09-06T16:13:17Z</time>
      </trkpt>
      <trkpt lat="44.15779" lon="3.00226">
        <ele>743.5</ele>
        <time>2012-09-06T16:13:18Z</time>
      </trkpt>
      <trkpt lat="44.15774" lon="3.0023">
        <ele>743.7</ele>
        <time>2012-09-06T16:13:19Z</time>
      </trkpt>
      <trkpt lat="44.15768" lon="3.00234">
        <ele>743.9</ele>
        <time>2012-09-06T16:13:20Z</time>
      </trkpt>
      <trkpt lat="44.15763" lon="3.00239">
        <ele>744.2</ele>
        <time>2012-09-06T16:13:21Z</time>
      </trkpt>
      <trkpt lat="44.15755" lon="3.00246">
        <ele>744.7</ele>
        <time>2012-09-06T16:13:23Z</time>
      </trkpt>
      <trkpt lat="44.15751" lon="3.00251">
        <ele>745</ele>
        <time>2012-09-06T16:13:24Z</time>
      </trkpt>
      <trkpt lat="44.15745" lon="3.00257">
        <ele>745.2</ele>
        <time>2012-09-06T16:13:25Z</time>
      </trkpt>
      <trkpt lat="44.1574" lon="3.00262">
        <ele>745.4</ele>
        <time>2012-09-06T16:13:26Z</time>
      </trkpt>
      <trkpt lat="44.15736" lon="3.00268">
        <ele>745.5</ele>
        <time>2012-09-06T16:13:27Z</time>
      </trkpt>
      <trkpt lat="44.15726" lon="3.00279">
        <ele>745.8</ele>
        <time>2012-09-06T16:13:29Z</time>
      </trkpt>
      <trkpt lat="44.15721" lon="3.00284">
        <ele>745.9</ele>
        <time>2012-09-06T16:13:30Z</time>
      </trkpt>
      <trkpt lat="44.15717" lon="3.0029">
        <ele>746</ele>
        <time>2012-09-06T16:13:31Z</time>
      </trkpt>
      <trkpt lat="44.15708" lon="3.00299">
        <ele>746.1</ele>
        <time>2012-09-06T16:13:33Z</time>
      </trkpt>
      <trkpt lat="44.15704" lon="3.00303">
        <ele>746.1</ele>
        <time>2012-09-06T16:13:34Z</time>
      </trkpt>
      <trkpt lat="44.157" lon="3.00308">
        <ele>746.2</ele>
        <time>2012-09-06T16:13:35Z</time>
      </trkpt>
      <trkpt lat="44.15696" lon="3.00312">
        <ele>746.2</ele>
        <time>2012-09-06T16:13:36Z</time>
      </trkpt>
      <trkpt lat="44.15688" lon="3.0032">
        <ele>746.2</ele>
        <time>2012-09-06T16:13:38Z</time>
      </trkpt>
      <trkpt lat="44.15679" lon="3.00329">
        <ele>746.1</ele>
        <time>2012-09-06T16:13:40Z</time>
      </trkpt>
      <trkpt lat="44.15675" lon="3.00334">
        <ele>746.1</ele>
        <time>2012-09-06T16:13:41Z</time>
      </trkpt>
      <trkpt lat="44.15671" lon="3.00339">
        <ele>746.1</ele>
        <time>2012-09-06T16:13:42Z</time>
      </trkpt>
      <trkpt lat="44.15669" lon="3.00345">
        <ele>746</ele>
        <time>2012-09-06T16:13:43Z</time>
      </trkpt>
      <trkpt lat="44.15665" lon="3.00351">
        <ele>746</ele>
        <time>2012-09-06T16:13:44Z</time>
      </trkpt>
      <trkpt lat="44.15662" lon="3.00357">
        <ele>745.9</ele>
        <time>2012-09-06T16:13:45Z</time>
      </trkpt>
      <trkpt lat="44.15658" lon="3.00363">
        <ele>745.9</ele>
        <time>2012-09-06T16:13:46Z</time>
      </trkpt>
      <trkpt lat="44.15655" lon="3.0037">
        <ele>745.8</ele>
        <time>2012-09-06T16:13:47Z</time>
      </trkpt>
      <trkpt lat="44.15648" lon="3.0038">
        <ele>745.7</ele>
        <time>2012-09-06T16:13:49Z</time>
      </trkpt>
      <trkpt lat="44.15645" lon="3.00384">
        <ele>745.6</ele>
        <time>2012-09-06T16:13:50Z</time>
      </trkpt>
      <trkpt lat="44.15641" lon="3.00389">
        <ele>745.5</ele>
        <time>2012-09-06T16:13:51Z</time>
      </trkpt>
      <trkpt lat="44.15637" lon="3.00394">
        <ele>745.4</ele>
        <time>2012-09-06T16:13:52Z</time>
      </trkpt>
      <trkpt lat="44.15632" lon="3.00401">
        <ele>745.2</ele>
        <time>2012-09-06T16:13:53Z</time>
      </trkpt>
      <trkpt lat="44.15622" lon="3.00416">
        <ele>744.9</ele>
        <time>2012-09-06T16:13:55Z</time>
      </trkpt>
      <trkpt lat="44.15618" lon="3.00423">
        <ele>744.7</ele>
        <time>2012-09-06T16:13:56Z</time>
      </trkpt>
      <trkpt lat="44.15612" lon="3.00432">
        <ele>744.5</ele>
        <time>2012-09-06T16:13:57Z</time>
      </trkpt>
      <trkpt lat="44.15608" lon="3.00439">
        <ele>744.2</ele>
        <time>2012-09-06T16:13:58Z</time>
      </trkpt>
      <trkpt lat="44.15604" lon="3.00447">
        <ele>743.9</ele>
        <time>2012-09-06T16:13:59Z</time>
      </trkpt>
      <trkpt lat="44.156" lon="3.00453">
        <ele>743.7</ele>
        <time>2012-09-06T16:14:00Z</time>
      </trkpt>
      <trkpt lat="44.15595" lon="3.00463">
        <ele>743.3</ele>
        <time>2012-09-06T16:14:01Z</time>
      </trkpt>
      <trkpt lat="44.1559" lon="3.00472">
        <ele>742.9</ele>
        <time>2012-09-06T16:14:02Z</time>
      </trkpt>
      <trkpt lat="44.15585" lon="3.00482">
        <ele>742.5</ele>
        <time>2012-09-06T16:14:03Z</time>
      </trkpt>
      <trkpt lat="44.1558" lon="3.0049">
        <ele>742.2</ele>
        <time>2012-09-06T16:14:04Z</time>
      </trkpt>
      <trkpt lat="44.15576" lon="3.00499">
        <ele>741.8</ele>
        <time>2012-09-06T16:14:05Z</time>
      </trkpt>
      <trkpt lat="44.15568" lon="3.00513">
        <ele>741.1</ele>
        <time>2012-09-06T16:14:07Z</time>
      </trkpt>
      <trkpt lat="44.15563" lon="3.0052">
        <ele>740.8</ele>
        <time>2012-09-06T16:14:08Z</time>
      </trkpt>
      <trkpt lat="44.15558" lon="3.00526">
        <ele>740.5</ele>
        <time>2012-09-06T16:14:09Z</time>
      </trkpt>
      <trkpt lat="44.15553" lon="3.00532">
        <ele>740.1</ele>
        <time>2012-09-06T16:14:10Z</time>
      </trkpt>
      <trkpt lat="44.15541" lon="3.00543">
        <ele>739.4</ele>
        <time>2012-09-06T16:14:12Z</time>
      </trkpt>
      <trkpt lat="44.15528" lon="3.00557">
        <ele>738.6</ele>
        <time>2012-09-06T16:14:14Z</time>
      </trkpt>
      <trkpt lat="44.15521" lon="3.00566">
        <ele>738.1</ele>
        <time>2012-09-06T16:14:15Z</time>
      </trkpt>
      <trkpt lat="44.15515" lon="3.00574">
        <ele>737.7</ele>
        <time>2012-09-06T16:14:16Z</time>
      </trkpt>
      <trkpt lat="44.15509" lon="3.00582">
        <ele>737.3</ele>
        <time>2012-09-06T16:14:17Z</time>
      </trkpt>
      <trkpt lat="44.15499" lon="3.00598">
        <ele>736.6</ele>
        <time>2012-09-06T16:14:19Z</time>
      </trkpt>
      <trkpt lat="44.15487" lon="3.00611">
        <ele>735.9</ele>
        <time>2012-09-06T16:14:21Z</time>
      </trkpt>
      <trkpt lat="44.15475" lon="3.00621">
        <ele>735.3</ele>
        <time>2012-09-06T16:14:23Z</time>
      </trkpt>
      <trkpt lat="44.15467" lon="3.00626">
        <ele>735</ele>
        <time>2012-09-06T16:14:24Z</time>
      </trkpt>
      <trkpt lat="44.15459" lon="3.00633">
        <ele>734.6</ele>
        <time>2012-09-06T16:14:25Z</time>
      </trkpt>
      <trkpt lat="44.15453" lon="3.00639">
        <ele>734.3</ele>
        <time>2012-09-06T16:14:26Z</time>
      </trkpt>
      <trkpt lat="44.15446" lon="3.00642">
        <ele>734.1</ele>
        <time>2012-09-06T16:14:27Z</time>
      </trkpt>
      <trkpt lat="44.15439" lon="3.00644">
        <ele>733.9</ele>
        <time>2012-09-06T16:14:28Z</time>
      </trkpt>
      <trkpt lat="44.15432" lon="3.00645">
        <ele>733.7</ele>
        <time>2012-09-06T16:14:29Z</time>
      </trkpt>
      <trkpt lat="44.15426" lon="3.00647">
        <ele>733.5</ele>
        <time>2012-09-06T16:14:30Z</time>
      </trkpt>
      <trkpt lat="44.15419" lon="3.00648">
        <ele>733.3</ele>
        <time>2012-09-06T16:14:31Z</time>
      </trkpt>
      <trkpt lat="44.15403" lon="3.00653">
        <ele>732.2</ele>
        <time>2012-09-06T16:14:33Z</time>
      </trkpt>
      <trkpt lat="44.15395" lon="3.00656">
        <ele>731.6</ele>
        <time>2012-09-06T16:14:34Z</time>
      </trkpt>
      <trkpt lat="44.15387" lon="3.00658">
        <ele>731</ele>
        <time>2012-09-06T16:14:35Z</time>
      </trkpt>
      <trkpt lat="44.15372" lon="3.00661">
        <ele>729.8</ele>
        <time>2012-09-06T16:14:37Z</time>
      </trkpt>
      <trkpt lat="44.15355" lon="3.00665">
        <ele>728.6</ele>
        <time>2012-09-06T16:14:39Z</time>
      </trkpt>
      <trkpt lat="44.1534" lon="3.0067">
        <ele>727.4</ele>
        <time>2012-09-06T16:14:41Z</time>
      </trkpt>
      <trkpt lat="44.15328" lon="3.00675">
        <ele>726.7</ele>
        <time>2012-09-06T16:14:43Z</time>
      </trkpt>
      <trkpt lat="44.15321" lon="3.00685">
        <ele>726.3</ele>
        <time>2012-09-06T16:14:48Z</time>
      </trkpt>
      <trkpt lat="44.1532" lon="3.00691">
        <ele>726.1</ele>
        <time>2012-09-06T16:14:50Z</time>
      </trkpt>
      <trkpt lat="44.15316" lon="3.00701">
        <ele>725.8</ele>
        <time>2012-09-06T16:14:53Z</time>
      </trkpt>
      <trkpt lat="44.15313" lon="3.0071">
        <ele>725.6</ele>
        <time>2012-09-06T16:14:55Z</time>
      </trkpt>
      <trkpt lat="44.15312" lon="3.00717">
        <ele>725.4</ele>
        <time>2012-09-06T16:14:57Z</time>
      </trkpt>
      <trkpt lat="44.1531" lon="3.00725">
        <ele>725.2</ele>
        <time>2012-09-06T16:14:59Z</time>
      </trkpt>
      <trkpt lat="44.15304" lon="3.00733">
        <ele>725</ele>
        <time>2012-09-06T16:15:01Z</time>
      </trkpt>
      <trkpt lat="44.15299" lon="3.00736">
        <ele>724.8</ele>
        <time>2012-09-06T16:15:02Z</time>
      </trkpt>
      <trkpt lat="44.15286" lon="3.00743">
        <ele>724.6</ele>
        <time>2012-09-06T16:15:04Z</time>
      </trkpt>
      <trkpt lat="44.15274" lon="3.00747">
        <ele>724.3</ele>
        <time>2012-09-06T16:15:06Z</time>
      </trkpt>
      <trkpt lat="44.15267" lon="3.00749">
        <ele>724.2</ele>
        <time>2012-09-06T16:15:07Z</time>
      </trkpt>
      <trkpt lat="44.1526" lon="3.00752">
        <ele>724.1</ele>
        <time>2012-09-06T16:15:08Z</time>
      </trkpt>
      <trkpt lat="44.15254" lon="3.00753">
        <ele>723.9</ele>
        <time>2012-09-06T16:15:09Z</time>
      </trkpt>
      <trkpt lat="44.15248" lon="3.00751">
        <ele>724</ele>
        <time>2012-09-06T16:15:10Z</time>
      </trkpt>
      <trkpt lat="44.15239" lon="3.00742">
        <ele>724.1</ele>
        <time>2012-09-06T16:15:12Z</time>
      </trkpt>
      <trkpt lat="44.15235" lon="3.00738">
        <ele>724.1</ele>
        <time>2012-09-06T16:15:13Z</time>
      </trkpt>
      <trkpt lat="44.15226" lon="3.00726">
        <ele>724.3</ele>
        <time>2012-09-06T16:15:15Z</time>
      </trkpt>
      <trkpt lat="44.15223" lon="3.00719">
        <ele>724.4</ele>
        <time>2012-09-06T16:15:16Z</time>
      </trkpt>
      <trkpt lat="44.1522" lon="3.00712">
        <ele>724.5</ele>
        <time>2012-09-06T16:15:17Z</time>
      </trkpt>
      <trkpt lat="44.15214" lon="3.007">
        <ele>724.6</ele>
        <time>2012-09-06T16:15:19Z</time>
      </trkpt>
      <trkpt lat="44.15211" lon="3.00694">
        <ele>724.7</ele>
        <time>2012-09-06T16:15:20Z</time>
      </trkpt>
      <trkpt lat="44.15206" lon="3.00684">
        <ele>724.8</ele>
        <time>2012-09-06T16:15:22Z</time>
      </trkpt>
      <trkpt lat="44.15198" lon="3.00672">
        <ele>724.9</ele>
        <time>2012-09-06T16:15:24Z</time>
      </trkpt>
      <trkpt lat="44.1519" lon="3.00659">
        <ele>724.8</ele>
        <time>2012-09-06T16:15:26Z</time>
      </trkpt>
      <trkpt lat="44.15186" lon="3.00652">
        <ele>724.7</ele>
        <time>2012-09-06T16:15:27Z</time>
      </trkpt>
      <trkpt lat="44.15183" lon="3.00646">
        <ele>724.5</ele>
        <time>2012-09-06T16:15:28Z</time>
      </trkpt>
      <trkpt lat="44.15179" lon="3.0064">
        <ele>724.4</ele>
        <time>2012-09-06T16:15:29Z</time>
      </trkpt>
      <trkpt lat="44.15175" lon="3.00634">
        <ele>724.2</ele>
        <time>2012-09-06T16:15:30Z</time>
      </trkpt>
      <trkpt lat="44.1517" lon="3.00629">
        <ele>724.1</ele>
        <time>2012-09-06T16:15:31Z</time>
      </trkpt>
      <trkpt lat="44.15166" lon="3.00624">
        <ele>724</ele>
        <time>2012-09-06T16:15:32Z</time>
      </trkpt>
      <trkpt lat="44.15162" lon="3.00619">
        <ele>723.9</ele>
        <time>2012-09-06T16:15:33Z</time>
      </trkpt>
      <trkpt lat="44.15157" lon="3.00617">
        <ele>723.9</ele>
        <time>2012-09-06T16:15:34Z</time>
      </trkpt>
      <trkpt lat="44.15151" lon="3.00614">
        <ele>723.8</ele>
        <time>2012-09-06T16:15:35Z</time>
      </trkpt>
      <trkpt lat="44.15145" lon="3.0061">
        <ele>723.7</ele>
        <time>2012-09-06T16:15:36Z</time>
      </trkpt>
      <trkpt lat="44.15139" lon="3.00607">
        <ele>723.7</ele>
        <time>2012-09-06T16:15:37Z</time>
      </trkpt>
      <trkpt lat="44.15133" lon="3.00605">
        <ele>723.6</ele>
        <time>2012-09-06T16:15:38Z</time>
      </trkpt>
      <trkpt lat="44.15127" lon="3.00602">
        <ele>723.5</ele>
        <time>2012-09-06T16:15:39Z</time>
      </trkpt>
      <trkpt lat="44.1512" lon="3.00599">
        <ele>723.5</ele>
        <time>2012-09-06T16:15:40Z</time>
      </trkpt>
      <trkpt lat="44.15114" lon="3.00596">
        <ele>723.4</ele>
        <time>2012-09-06T16:15:41Z</time>
      </trkpt>
      <trkpt lat="44.15103" lon="3.0059">
        <ele>723.2</ele>
        <time>2012-09-06T16:15:43Z</time>
      </trkpt>
      <trkpt lat="44.15092" lon="3.00584">
        <ele>723</ele>
        <time>2012-09-06T16:15:45Z</time>
      </trkpt>
      <trkpt lat="44.15087" lon="3.0058">
        <ele>722.9</ele>
        <time>2012-09-06T16:15:46Z</time>
      </trkpt>
      <trkpt lat="44.15081" lon="3.00577">
        <ele>722.8</ele>
        <time>2012-09-06T16:15:47Z</time>
      </trkpt>
      <trkpt lat="44.15075" lon="3.00573">
        <ele>722.9</ele>
        <time>2012-09-06T16:15:48Z</time>
      </trkpt>
      <trkpt lat="44.1507" lon="3.0057">
        <ele>723</ele>
        <time>2012-09-06T16:15:49Z</time>
      </trkpt>
      <trkpt lat="44.15065" lon="3.00566">
        <ele>723</ele>
        <time>2012-09-06T16:15:50Z</time>
      </trkpt>
      <trkpt lat="44.1506" lon="3.00562">
        <ele>723</ele>
        <time>2012-09-06T16:15:51Z</time>
      </trkpt>
      <trkpt lat="44.15055" lon="3.00558">
        <ele>723</ele>
        <time>2012-09-06T16:15:52Z</time>
      </trkpt>
      <trkpt lat="44.15051" lon="3.00553">
        <ele>723</ele>
        <time>2012-09-06T16:15:53Z</time>
      </trkpt>
      <trkpt lat="44.15044" lon="3.00545">
        <ele>722.8</ele>
        <time>2012-09-06T16:15:55Z</time>
      </trkpt>
      <trkpt lat="44.15036" lon="3.00534">
        <ele>722.6</ele>
        <time>2012-09-06T16:15:57Z</time>
      </trkpt>
      <trkpt lat="44.15028" lon="3.00523">
        <ele>722.3</ele>
        <time>2012-09-06T16:15:59Z</time>
      </trkpt>
      <trkpt lat="44.15021" lon="3.00513">
        <ele>722</ele>
        <time>2012-09-06T16:16:01Z</time>
      </trkpt>
      <trkpt lat="44.15016" lon="3.00508">
        <ele>721.9</ele>
        <time>2012-09-06T16:16:02Z</time>
      </trkpt>
      <trkpt lat="44.15012" lon="3.00502">
        <ele>721.7</ele>
        <time>2012-09-06T16:16:03Z</time>
      </trkpt>
      <trkpt lat="44.15008" lon="3.00498">
        <ele>721.6</ele>
        <time>2012-09-06T16:16:04Z</time>
      </trkpt>
      <trkpt lat="44.15004" lon="3.00493">
        <ele>721.6</ele>
        <time>2012-09-06T16:16:05Z</time>
      </trkpt>
      <trkpt lat="44.15" lon="3.00488">
        <ele>721.4</ele>
        <time>2012-09-06T16:16:06Z</time>
      </trkpt>
      <trkpt lat="44.14996" lon="3.00484">
        <ele>721.5</ele>
        <time>2012-09-06T16:16:07Z</time>
      </trkpt>
      <trkpt lat="44.14992" lon="3.0048">
        <ele>721.6</ele>
        <time>2012-09-06T16:16:08Z</time>
      </trkpt>
      <trkpt lat="44.14987" lon="3.00476">
        <ele>721.6</ele>
        <time>2012-09-06T16:16:09Z</time>
      </trkpt>
      <trkpt lat="44.14983" lon="3.00473">
        <ele>721.7</ele>
        <time>2012-09-06T16:16:10Z</time>
      </trkpt>
      <trkpt lat="44.14978" lon="3.00468">
        <ele>721.8</ele>
        <time>2012-09-06T16:16:11Z</time>
      </trkpt>
      <trkpt lat="44.14973" lon="3.00465">
        <ele>721.8</ele>
        <time>2012-09-06T16:16:12Z</time>
      </trkpt>
      <trkpt lat="44.14968" lon="3.0046">
        <ele>721.8</ele>
        <time>2012-09-06T16:16:13Z</time>
      </trkpt>
      <trkpt lat="44.14963" lon="3.00456">
        <ele>721.8</ele>
        <time>2012-09-06T16:16:14Z</time>
      </trkpt>
      <trkpt lat="44.14959" lon="3.00452">
        <ele>721.8</ele>
        <time>2012-09-06T16:16:15Z</time>
      </trkpt>
      <trkpt lat="44.14954" lon="3.00448">
        <ele>721.8</ele>
        <time>2012-09-06T16:16:16Z</time>
      </trkpt>
      <trkpt lat="44.14949" lon="3.00444">
        <ele>721.8</ele>
        <time>2012-09-06T16:16:17Z</time>
      </trkpt>
      <trkpt lat="44.14944" lon="3.0044">
        <ele>721.7</ele>
        <time>2012-09-06T16:16:18Z</time>
      </trkpt>
      <trkpt lat="44.14939" lon="3.00437">
        <ele>721.7</ele>
        <time>2012-09-06T16:16:19Z</time>
      </trkpt>
      <trkpt lat="44.14934" lon="3.00433">
        <ele>721.6</ele>
        <time>2012-09-06T16:16:20Z</time>
      </trkpt>
      <trkpt lat="44.1493" lon="3.00428">
        <ele>721.5</ele>
        <time>2012-09-06T16:16:21Z</time>
      </trkpt>
      <trkpt lat="44.14926" lon="3.00425">
        <ele>721.3</ele>
        <time>2012-09-06T16:16:22Z</time>
      </trkpt>
      <trkpt lat="44.1492" lon="3.00416">
        <ele>720.9</ele>
        <time>2012-09-06T16:16:24Z</time>
      </trkpt>
      <trkpt lat="44.14916" lon="3.0041">
        <ele>720.4</ele>
        <time>2012-09-06T16:16:25Z</time>
      </trkpt>
      <trkpt lat="44.14913" lon="3.00405">
        <ele>720.3</ele>
        <time>2012-09-06T16:16:26Z</time>
      </trkpt>
      <trkpt lat="44.14909" lon="3.004">
        <ele>720.1</ele>
        <time>2012-09-06T16:16:27Z</time>
      </trkpt>
      <trkpt lat="44.14902" lon="3.00388">
        <ele>719.7</ele>
        <time>2012-09-06T16:16:29Z</time>
      </trkpt>
      <trkpt lat="44.14894" lon="3.00373">
        <ele>719</ele>
        <time>2012-09-06T16:16:31Z</time>
      </trkpt>
      <trkpt lat="44.14891" lon="3.00366">
        <ele>718.8</ele>
        <time>2012-09-06T16:16:32Z</time>
      </trkpt>
      <trkpt lat="44.14887" lon="3.00359">
        <ele>718.5</ele>
        <time>2012-09-06T16:16:33Z</time>
      </trkpt>
      <trkpt lat="44.14883" lon="3.00352">
        <ele>718.4</ele>
        <time>2012-09-06T16:16:34Z</time>
      </trkpt>
      <trkpt lat="44.14878" lon="3.00345">
        <ele>718.3</ele>
        <time>2012-09-06T16:16:35Z</time>
      </trkpt>
      <trkpt lat="44.14873" lon="3.00338">
        <ele>718.1</ele>
        <time>2012-09-06T16:16:36Z</time>
      </trkpt>
      <trkpt lat="44.14869" lon="3.00331">
        <ele>717.9</ele>
        <time>2012-09-06T16:16:37Z</time>
      </trkpt>
      <trkpt lat="44.14865" lon="3.00324">
        <ele>717.5</ele>
        <time>2012-09-06T16:16:38Z</time>
      </trkpt>
      <trkpt lat="44.14861" lon="3.00316">
        <ele>716.9</ele>
        <time>2012-09-06T16:16:39Z</time>
      </trkpt>
      <trkpt lat="44.14857" lon="3.00308">
        <ele>716.3</ele>
        <time>2012-09-06T16:16:40Z</time>
      </trkpt>
      <trkpt lat="44.14852" lon="3.003">
        <ele>715.7</ele>
        <time>2012-09-06T16:16:41Z</time>
      </trkpt>
      <trkpt lat="44.14848" lon="3.00291">
        <ele>714.9</ele>
        <time>2012-09-06T16:16:42Z</time>
      </trkpt>
      <trkpt lat="44.14843" lon="3.00283">
        <ele>714.1</ele>
        <time>2012-09-06T16:16:43Z</time>
      </trkpt>
      <trkpt lat="44.14838" lon="3.00275">
        <ele>713.3</ele>
        <time>2012-09-06T16:16:44Z</time>
      </trkpt>
      <trkpt lat="44.14833" lon="3.00267">
        <ele>712.5</ele>
        <time>2012-09-06T16:16:45Z</time>
      </trkpt>
      <trkpt lat="44.14827" lon="3.0026">
        <ele>711.4</ele>
        <time>2012-09-06T16:16:46Z</time>
      </trkpt>
      <trkpt lat="44.14821" lon="3.00253">
        <ele>710.6</ele>
        <time>2012-09-06T16:16:47Z</time>
      </trkpt>
      <trkpt lat="44.14815" lon="3.00247">
        <ele>709.8</ele>
        <time>2012-09-06T16:16:48Z</time>
      </trkpt>
      <trkpt lat="44.14808" lon="3.00241">
        <ele>709.1</ele>
        <time>2012-09-06T16:16:49Z</time>
      </trkpt>
      <trkpt lat="44.148" lon="3.00235">
        <ele>708.4</ele>
        <time>2012-09-06T16:16:50Z</time>
      </trkpt>
      <trkpt lat="44.14792" lon="3.00229">
        <ele>707.7</ele>
        <time>2012-09-06T16:16:51Z</time>
      </trkpt>
      <trkpt lat="44.14784" lon="3.00223">
        <ele>707.1</ele>
        <time>2012-09-06T16:16:52Z</time>
      </trkpt>
      <trkpt lat="44.14775" lon="3.00217">
        <ele>706.4</ele>
        <time>2012-09-06T16:16:53Z</time>
      </trkpt>
      <trkpt lat="44.14765" lon="3.00211">
        <ele>705.7</ele>
        <time>2012-09-06T16:16:54Z</time>
      </trkpt>
      <trkpt lat="44.14756" lon="3.00206">
        <ele>705.1</ele>
        <time>2012-09-06T16:16:55Z</time>
      </trkpt>
      <trkpt lat="44.14746" lon="3.00201">
        <ele>704.4</ele>
        <time>2012-09-06T16:16:56Z</time>
      </trkpt>
      <trkpt lat="44.14735" lon="3.00195">
        <ele>703.2</ele>
        <time>2012-09-06T16:16:57Z</time>
      </trkpt>
      <trkpt lat="44.14726" lon="3.00191">
        <ele>702.3</ele>
        <time>2012-09-06T16:16:58Z</time>
      </trkpt>
      <trkpt lat="44.14716" lon="3.00186">
        <ele>701.4</ele>
        <time>2012-09-06T16:16:59Z</time>
      </trkpt>
      <trkpt lat="44.14706" lon="3.00182">
        <ele>700.6</ele>
        <time>2012-09-06T16:17:00Z</time>
      </trkpt>
      <trkpt lat="44.14694" lon="3.00176">
        <ele>699.7</ele>
        <time>2012-09-06T16:17:01Z</time>
      </trkpt>
      <trkpt lat="44.14683" lon="3.00172">
        <ele>698.9</ele>
        <time>2012-09-06T16:17:02Z</time>
      </trkpt>
      <trkpt lat="44.14673" lon="3.00168">
        <ele>698.2</ele>
        <time>2012-09-06T16:17:03Z</time>
      </trkpt>
      <trkpt lat="44.14663" lon="3.00162">
        <ele>697.5</ele>
        <time>2012-09-06T16:17:04Z</time>
      </trkpt>
      <trkpt lat="44.14652" lon="3.00156">
        <ele>696.6</ele>
        <time>2012-09-06T16:17:05Z</time>
      </trkpt>
      <trkpt lat="44.1464" lon="3.00148">
        <ele>695.6</ele>
        <time>2012-09-06T16:17:06Z</time>
      </trkpt>
      <trkpt lat="44.1463" lon="3.0014">
        <ele>694.7</ele>
        <time>2012-09-06T16:17:07Z</time>
      </trkpt>
      <trkpt lat="44.14622" lon="3.00133">
        <ele>694.1</ele>
        <time>2012-09-06T16:17:08Z</time>
      </trkpt>
      <trkpt lat="44.14615" lon="3.00126">
        <ele>693.5</ele>
        <time>2012-09-06T16:17:09Z</time>
      </trkpt>
      <trkpt lat="44.14606" lon="3.00119">
        <ele>692.9</ele>
        <time>2012-09-06T16:17:10Z</time>
      </trkpt>
      <trkpt lat="44.14597" lon="3.0011">
        <ele>692.3</ele>
        <time>2012-09-06T16:17:11Z</time>
      </trkpt>
      <trkpt lat="44.14589" lon="3.00102">
        <ele>691.8</ele>
        <time>2012-09-06T16:17:12Z</time>
      </trkpt>
      <trkpt lat="44.14581" lon="3.00095">
        <ele>691.4</ele>
        <time>2012-09-06T16:17:13Z</time>
      </trkpt>
      <trkpt lat="44.14573" lon="3.00087">
        <ele>690.9</ele>
        <time>2012-09-06T16:17:14Z</time>
      </trkpt>
      <trkpt lat="44.14565" lon="3.00078">
        <ele>690.4</ele>
        <time>2012-09-06T16:17:15Z</time>
      </trkpt>
      <trkpt lat="44.14556" lon="3.00068">
        <ele>690</ele>
        <time>2012-09-06T16:17:16Z</time>
      </trkpt>
      <trkpt lat="44.14549" lon="3.0006">
        <ele>689.7</ele>
        <time>2012-09-06T16:17:17Z</time>
      </trkpt>
      <trkpt lat="44.14541" lon="3.00051">
        <ele>689.4</ele>
        <time>2012-09-06T16:17:18Z</time>
      </trkpt>
      <trkpt lat="44.14534" lon="3.00045">
        <ele>689.2</ele>
        <time>2012-09-06T16:17:19Z</time>
      </trkpt>
      <trkpt lat="44.14527" lon="3.00037">
        <ele>689.1</ele>
        <time>2012-09-06T16:17:20Z</time>
      </trkpt>
      <trkpt lat="44.14519" lon="3.00029">
        <ele>689</ele>
        <time>2012-09-06T16:17:21Z</time>
      </trkpt>
      <trkpt lat="44.14513" lon="3.00022">
        <ele>689</ele>
        <time>2012-09-06T16:17:22Z</time>
      </trkpt>
      <trkpt lat="44.14506" lon="3.00014">
        <ele>689</ele>
        <time>2012-09-06T16:17:23Z</time>
      </trkpt>
      <trkpt lat="44.14498" lon="3.00006">
        <ele>688.9</ele>
        <time>2012-09-06T16:17:24Z</time>
      </trkpt>
      <trkpt lat="44.14489" lon="2.99997">
        <ele>688.7</ele>
        <time>2012-09-06T16:17:25Z</time>
      </trkpt>
      <trkpt lat="44.1448" lon="2.99987">
        <ele>688.3</ele>
        <time>2012-09-06T16:17:26Z</time>
      </trkpt>
      <trkpt lat="44.14472" lon="2.99978">
        <ele>688</ele>
        <time>2012-09-06T16:17:27Z</time>
      </trkpt>
      <trkpt lat="44.14464" lon="2.99969">
        <ele>687.7</ele>
        <time>2012-09-06T16:17:28Z</time>
      </trkpt>
      <trkpt lat="44.14456" lon="2.99961">
        <ele>687.5</ele>
        <time>2012-09-06T16:17:29Z</time>
      </trkpt>
      <trkpt lat="44.14448" lon="2.99951">
        <ele>687.3</ele>
        <time>2012-09-06T16:17:30Z</time>
      </trkpt>
      <trkpt lat="44.1444" lon="2.99943">
        <ele>687.2</ele>
        <time>2012-09-06T16:17:31Z</time>
      </trkpt>
      <trkpt lat="44.14431" lon="2.99935">
        <ele>687.1</ele>
        <time>2012-09-06T16:17:32Z</time>
      </trkpt>
      <trkpt lat="44.14423" lon="2.99927">
        <ele>687</ele>
        <time>2012-09-06T16:17:33Z</time>
      </trkpt>
      <trkpt lat="44.14415" lon="2.99921">
        <ele>686.9</ele>
        <time>2012-09-06T16:17:34Z</time>
      </trkpt>
      <trkpt lat="44.14406" lon="2.99913">
        <ele>686.4</ele>
        <time>2012-09-06T16:17:35Z</time>
      </trkpt>
      <trkpt lat="44.14397" lon="2.99906">
        <ele>685.6</ele>
        <time>2012-09-06T16:17:36Z</time>
      </trkpt>
      <trkpt lat="44.14389" lon="2.99898">
        <ele>685</ele>
        <time>2012-09-06T16:17:37Z</time>
      </trkpt>
      <trkpt lat="44.1438" lon="2.99891">
        <ele>684.4</ele>
        <time>2012-09-06T16:17:38Z</time>
      </trkpt>
      <trkpt lat="44.14371" lon="2.99884">
        <ele>683.9</ele>
        <time>2012-09-06T16:17:39Z</time>
      </trkpt>
      <trkpt lat="44.14363" lon="2.99877">
        <ele>683.4</ele>
        <time>2012-09-06T16:17:40Z</time>
      </trkpt>
      <trkpt lat="44.14354" lon="2.9987">
        <ele>683</ele>
        <time>2012-09-06T16:17:41Z</time>
      </trkpt>
      <trkpt lat="44.14346" lon="2.99863">
        <ele>682.7</ele>
        <time>2012-09-06T16:17:42Z</time>
      </trkpt>
      <trkpt lat="44.14337" lon="2.99856">
        <ele>682.4</ele>
        <time>2012-09-06T16:17:43Z</time>
      </trkpt>
      <trkpt lat="44.14329" lon="2.99848">
        <ele>682.1</ele>
        <time>2012-09-06T16:17:44Z</time>
      </trkpt>
      <trkpt lat="44.14322" lon="2.99841">
        <ele>681.8</ele>
        <time>2012-09-06T16:17:45Z</time>
      </trkpt>
      <trkpt lat="44.14314" lon="2.99834">
        <ele>681.5</ele>
        <time>2012-09-06T16:17:46Z</time>
      </trkpt>
      <trkpt lat="44.14306" lon="2.99827">
        <ele>681.1</ele>
        <time>2012-09-06T16:17:47Z</time>
      </trkpt>
      <trkpt lat="44.14298" lon="2.9982">
        <ele>680.6</ele>
        <time>2012-09-06T16:17:48Z</time>
      </trkpt>
      <trkpt lat="44.14291" lon="2.99813">
        <ele>680.2</ele>
        <time>2012-09-06T16:17:49Z</time>
      </trkpt>
      <trkpt lat="44.14284" lon="2.99806">
        <ele>679.9</ele>
        <time>2012-09-06T16:17:50Z</time>
      </trkpt>
      <trkpt lat="44.14277" lon="2.99799">
        <ele>679.6</ele>
        <time>2012-09-06T16:17:51Z</time>
      </trkpt>
      <trkpt lat="44.1427" lon="2.99793">
        <ele>679.3</ele>
        <time>2012-09-06T16:17:52Z</time>
      </trkpt>
      <trkpt lat="44.14263" lon="2.99787">
        <ele>679</ele>
        <time>2012-09-06T16:17:53Z</time>
      </trkpt>
      <trkpt lat="44.14257" lon="2.99782">
        <ele>678.8</ele>
        <time>2012-09-06T16:17:54Z</time>
      </trkpt>
      <trkpt lat="44.14251" lon="2.99778">
        <ele>678.7</ele>
        <time>2012-09-06T16:17:55Z</time>
      </trkpt>
      <trkpt lat="44.14241" lon="2.99777">
        <ele>678.8</ele>
        <time>2012-09-06T16:17:57Z</time>
      </trkpt>
      <trkpt lat="44.14231" lon="2.99778">
        <ele>679</ele>
        <time>2012-09-06T16:17:59Z</time>
      </trkpt>
      <trkpt lat="44.14226" lon="2.99779">
        <ele>679.1</ele>
        <time>2012-09-06T16:18:00Z</time>
      </trkpt>
      <trkpt lat="44.1422" lon="2.99779">
        <ele>679.2</ele>
        <time>2012-09-06T16:18:01Z</time>
      </trkpt>
      <trkpt lat="44.14215" lon="2.99777">
        <ele>679.2</ele>
        <time>2012-09-06T16:18:02Z</time>
      </trkpt>
      <trkpt lat="44.1421" lon="2.99774">
        <ele>679.3</ele>
        <time>2012-09-06T16:18:03Z</time>
      </trkpt>
      <trkpt lat="44.14205" lon="2.99771">
        <ele>679.3</ele>
        <time>2012-09-06T16:18:04Z</time>
      </trkpt>
      <trkpt lat="44.142" lon="2.99767">
        <ele>679.4</ele>
        <time>2012-09-06T16:18:05Z</time>
      </trkpt>
      <trkpt lat="44.14196" lon="2.99763">
        <ele>679.4</ele>
        <time>2012-09-06T16:18:06Z</time>
      </trkpt>
      <trkpt lat="44.14191" lon="2.99758">
        <ele>679.5</ele>
        <time>2012-09-06T16:18:07Z</time>
      </trkpt>
      <trkpt lat="44.14187" lon="2.99754">
        <ele>679.5</ele>
        <time>2012-09-06T16:18:08Z</time>
      </trkpt>
      <trkpt lat="44.14182" lon="2.99748">
        <ele>679.6</ele>
        <time>2012-09-06T16:18:09Z</time>
      </trkpt>
      <trkpt lat="44.14178" lon="2.99743">
        <ele>679.8</ele>
        <time>2012-09-06T16:18:10Z</time>
      </trkpt>
      <trkpt lat="44.14172" lon="2.99737">
        <ele>680</ele>
        <time>2012-09-06T16:18:11Z</time>
      </trkpt>
      <trkpt lat="44.14167" lon="2.99731">
        <ele>680.2</ele>
        <time>2012-09-06T16:18:12Z</time>
      </trkpt>
      <trkpt lat="44.14162" lon="2.99724">
        <ele>680.3</ele>
        <time>2012-09-06T16:18:13Z</time>
      </trkpt>
      <trkpt lat="44.14157" lon="2.99717">
        <ele>680.5</ele>
        <time>2012-09-06T16:18:14Z</time>
      </trkpt>
      <trkpt lat="44.14152" lon="2.99709">
        <ele>680.7</ele>
        <time>2012-09-06T16:18:15Z</time>
      </trkpt>
      <trkpt lat="44.14148" lon="2.99701">
        <ele>680.8</ele>
        <time>2012-09-06T16:18:16Z</time>
      </trkpt>
      <trkpt lat="44.14144" lon="2.99694">
        <ele>681</ele>
        <time>2012-09-06T16:18:17Z</time>
      </trkpt>
      <trkpt lat="44.14141" lon="2.99686">
        <ele>681.2</ele>
        <time>2012-09-06T16:18:18Z</time>
      </trkpt>
      <trkpt lat="44.14138" lon="2.9968">
        <ele>681.4</ele>
        <time>2012-09-06T16:18:19Z</time>
      </trkpt>
      <trkpt lat="44.14133" lon="2.99678">
        <ele>681.5</ele>
        <time>2012-09-06T16:18:20Z</time>
      </trkpt>
      <trkpt lat="44.14128" lon="2.99678">
        <ele>681.7</ele>
        <time>2012-09-06T16:18:21Z</time>
      </trkpt>
      <trkpt lat="44.14123" lon="2.99678">
        <ele>681.8</ele>
        <time>2012-09-06T16:18:22Z</time>
      </trkpt>
      <trkpt lat="44.14118" lon="2.99679">
        <ele>681.9</ele>
        <time>2012-09-06T16:18:23Z</time>
      </trkpt>
      <trkpt lat="44.14112" lon="2.9968">
        <ele>681.9</ele>
        <time>2012-09-06T16:18:24Z</time>
      </trkpt>
      <trkpt lat="44.14108" lon="2.99683">
        <ele>681.9</ele>
        <time>2012-09-06T16:18:25Z</time>
      </trkpt>
      <trkpt lat="44.14102" lon="2.99687">
        <ele>681.9</ele>
        <time>2012-09-06T16:18:26Z</time>
      </trkpt>
      <trkpt lat="44.14097" lon="2.99692">
        <ele>681.9</ele>
        <time>2012-09-06T16:18:27Z</time>
      </trkpt>
      <trkpt lat="44.14091" lon="2.99696">
        <ele>681.8</ele>
        <time>2012-09-06T16:18:28Z</time>
      </trkpt>
      <trkpt lat="44.14085" lon="2.99699">
        <ele>681.8</ele>
        <time>2012-09-06T16:18:29Z</time>
      </trkpt>
      <trkpt lat="44.14079" lon="2.99702">
        <ele>681.6</ele>
        <time>2012-09-06T16:18:30Z</time>
      </trkpt>
      <trkpt lat="44.14073" lon="2.99705">
        <ele>681.2</ele>
        <time>2012-09-06T16:18:31Z</time>
      </trkpt>
      <trkpt lat="44.14067" lon="2.99707">
        <ele>680.8</ele>
        <time>2012-09-06T16:18:32Z</time>
      </trkpt>
      <trkpt lat="44.14061" lon="2.9971">
        <ele>680.5</ele>
        <time>2012-09-06T16:18:33Z</time>
      </trkpt>
      <trkpt lat="44.14054" lon="2.99712">
        <ele>680.2</ele>
        <time>2012-09-06T16:18:34Z</time>
      </trkpt>
      <trkpt lat="44.14049" lon="2.99715">
        <ele>679.8</ele>
        <time>2012-09-06T16:18:35Z</time>
      </trkpt>
      <trkpt lat="44.14042" lon="2.99717">
        <ele>679.5</ele>
        <time>2012-09-06T16:18:36Z</time>
      </trkpt>
      <trkpt lat="44.14036" lon="2.9972">
        <ele>679.2</ele>
        <time>2012-09-06T16:18:37Z</time>
      </trkpt>
      <trkpt lat="44.14023" lon="2.99726">
        <ele>678.5</ele>
        <time>2012-09-06T16:18:39Z</time>
      </trkpt>
      <trkpt lat="44.14018" lon="2.99732">
        <ele>678.1</ele>
        <time>2012-09-06T16:18:40Z</time>
      </trkpt>
      <trkpt lat="44.14008" lon="2.99742">
        <ele>677.5</ele>
        <time>2012-09-06T16:18:42Z</time>
      </trkpt>
      <trkpt lat="44.14002" lon="2.99746">
        <ele>677.1</ele>
        <time>2012-09-06T16:18:43Z</time>
      </trkpt>
      <trkpt lat="44.13996" lon="2.99749">
        <ele>676.8</ele>
        <time>2012-09-06T16:18:44Z</time>
      </trkpt>
      <trkpt lat="44.13981" lon="2.99756">
        <ele>675.3</ele>
        <time>2012-09-06T16:18:46Z</time>
      </trkpt>
      <trkpt lat="44.13966" lon="2.99762">
        <ele>674</ele>
        <time>2012-09-06T16:18:48Z</time>
      </trkpt>
      <trkpt lat="44.13959" lon="2.99765">
        <ele>673.4</ele>
        <time>2012-09-06T16:18:49Z</time>
      </trkpt>
      <trkpt lat="44.13953" lon="2.99768">
        <ele>672.9</ele>
        <time>2012-09-06T16:18:50Z</time>
      </trkpt>
      <trkpt lat="44.13946" lon="2.99771">
        <ele>672.3</ele>
        <time>2012-09-06T16:18:51Z</time>
      </trkpt>
      <trkpt lat="44.13939" lon="2.99775">
        <ele>671.8</ele>
        <time>2012-09-06T16:18:52Z</time>
      </trkpt>
      <trkpt lat="44.13933" lon="2.9978">
        <ele>671.2</ele>
        <time>2012-09-06T16:18:53Z</time>
      </trkpt>
      <trkpt lat="44.13926" lon="2.99785">
        <ele>670.7</ele>
        <time>2012-09-06T16:18:54Z</time>
      </trkpt>
      <trkpt lat="44.13919" lon="2.99791">
        <ele>670.1</ele>
        <time>2012-09-06T16:18:55Z</time>
      </trkpt>
      <trkpt lat="44.13913" lon="2.99797">
        <ele>669.5</ele>
        <time>2012-09-06T16:18:56Z</time>
      </trkpt>
      <trkpt lat="44.13906" lon="2.99802">
        <ele>668.9</ele>
        <time>2012-09-06T16:18:57Z</time>
      </trkpt>
      <trkpt lat="44.139" lon="2.99807">
        <ele>668.2</ele>
        <time>2012-09-06T16:18:58Z</time>
      </trkpt>
      <trkpt lat="44.13887" lon="2.99816">
        <ele>667.1</ele>
        <time>2012-09-06T16:19:00Z</time>
      </trkpt>
      <trkpt lat="44.1388" lon="2.99822">
        <ele>666.5</ele>
        <time>2012-09-06T16:19:01Z</time>
      </trkpt>
      <trkpt lat="44.13867" lon="2.99834">
        <ele>665.4</ele>
        <time>2012-09-06T16:19:03Z</time>
      </trkpt>
      <trkpt lat="44.13861" lon="2.9984">
        <ele>664.3</ele>
        <time>2012-09-06T16:19:04Z</time>
      </trkpt>
      <trkpt lat="44.13854" lon="2.99845">
        <ele>663.1</ele>
        <time>2012-09-06T16:19:05Z</time>
      </trkpt>
      <trkpt lat="44.13847" lon="2.99852">
        <ele>661.9</ele>
        <time>2012-09-06T16:19:06Z</time>
      </trkpt>
      <trkpt lat="44.1384" lon="2.99858">
        <ele>660.8</ele>
        <time>2012-09-06T16:19:07Z</time>
      </trkpt>
      <trkpt lat="44.13834" lon="2.99864">
        <ele>659.7</ele>
        <time>2012-09-06T16:19:08Z</time>
      </trkpt>
      <trkpt lat="44.13829" lon="2.9987">
        <ele>658.9</ele>
        <time>2012-09-06T16:19:09Z</time>
      </trkpt>
      <trkpt lat="44.13823" lon="2.99874">
        <ele>658.2</ele>
        <time>2012-09-06T16:19:10Z</time>
      </trkpt>
      <trkpt lat="44.13817" lon="2.99879">
        <ele>657.6</ele>
        <time>2012-09-06T16:19:11Z</time>
      </trkpt>
      <trkpt lat="44.13812" lon="2.99883">
        <ele>657</ele>
        <time>2012-09-06T16:19:12Z</time>
      </trkpt>
      <trkpt lat="44.13807" lon="2.99888">
        <ele>656.3</ele>
        <time>2012-09-06T16:19:13Z</time>
      </trkpt>
      <trkpt lat="44.138" lon="2.99894">
        <ele>655.6</ele>
        <time>2012-09-06T16:19:14Z</time>
      </trkpt>
      <trkpt lat="44.13787" lon="2.99904">
        <ele>654.5</ele>
        <time>2012-09-06T16:19:16Z</time>
      </trkpt>
      <trkpt lat="44.13781" lon="2.99908">
        <ele>654</ele>
        <time>2012-09-06T16:19:17Z</time>
      </trkpt>
      <trkpt lat="44.13774" lon="2.99912">
        <ele>653.6</ele>
        <time>2012-09-06T16:19:18Z</time>
      </trkpt>
      <trkpt lat="44.13768" lon="2.99916">
        <ele>653.2</ele>
        <time>2012-09-06T16:19:19Z</time>
      </trkpt>
      <trkpt lat="44.13763" lon="2.99918">
        <ele>653</ele>
        <time>2012-09-06T16:19:20Z</time>
      </trkpt>
      <trkpt lat="44.13749" lon="2.99921">
        <ele>652.4</ele>
        <time>2012-09-06T16:19:22Z</time>
      </trkpt>
      <trkpt lat="44.13742" lon="2.99922">
        <ele>651.5</ele>
        <time>2012-09-06T16:19:23Z</time>
      </trkpt>
      <trkpt lat="44.13735" lon="2.99924">
        <ele>650.6</ele>
        <time>2012-09-06T16:19:24Z</time>
      </trkpt>
      <trkpt lat="44.13728" lon="2.99926">
        <ele>649.7</ele>
        <time>2012-09-06T16:19:25Z</time>
      </trkpt>
      <trkpt lat="44.13721" lon="2.99928">
        <ele>648.8</ele>
        <time>2012-09-06T16:19:26Z</time>
      </trkpt>
      <trkpt lat="44.13706" lon="2.99927">
        <ele>647.5</ele>
        <time>2012-09-06T16:19:28Z</time>
      </trkpt>
      <trkpt lat="44.13699" lon="2.99927">
        <ele>646.8</ele>
        <time>2012-09-06T16:19:29Z</time>
      </trkpt>
      <trkpt lat="44.13693" lon="2.99928">
        <ele>646.1</ele>
        <time>2012-09-06T16:19:30Z</time>
      </trkpt>
      <trkpt lat="44.13687" lon="2.99928">
        <ele>645.4</ele>
        <time>2012-09-06T16:19:31Z</time>
      </trkpt>
      <trkpt lat="44.13676" lon="2.99928">
        <ele>644.4</ele>
        <time>2012-09-06T16:19:33Z</time>
      </trkpt>
      <trkpt lat="44.13669" lon="2.99927">
        <ele>643.8</ele>
        <time>2012-09-06T16:19:34Z</time>
      </trkpt>
      <trkpt lat="44.13663" lon="2.99926">
        <ele>643.1</ele>
        <time>2012-09-06T16:19:35Z</time>
      </trkpt>
      <trkpt lat="44.13657" lon="2.99925">
        <ele>642.2</ele>
        <time>2012-09-06T16:19:36Z</time>
      </trkpt>
      <trkpt lat="44.13651" lon="2.99925">
        <ele>641.3</ele>
        <time>2012-09-06T16:19:37Z</time>
      </trkpt>
      <trkpt lat="44.13639" lon="2.99922">
        <ele>639.7</ele>
        <time>2012-09-06T16:19:39Z</time>
      </trkpt>
      <trkpt lat="44.13628" lon="2.9992">
        <ele>638</ele>
        <time>2012-09-06T16:19:41Z</time>
      </trkpt>
      <trkpt lat="44.13623" lon="2.99922">
        <ele>637.1</ele>
        <time>2012-09-06T16:19:42Z</time>
      </trkpt>
      <trkpt lat="44.13612" lon="2.99921">
        <ele>635.3</ele>
        <time>2012-09-06T16:19:44Z</time>
      </trkpt>
      <trkpt lat="44.13601" lon="2.9992">
        <ele>633.7</ele>
        <time>2012-09-06T16:19:46Z</time>
      </trkpt>
      <trkpt lat="44.13597" lon="2.9992">
        <ele>633</ele>
        <time>2012-09-06T16:19:47Z</time>
      </trkpt>
      <trkpt lat="44.13592" lon="2.99919">
        <ele>632.2</ele>
        <time>2012-09-06T16:19:48Z</time>
      </trkpt>
      <trkpt lat="44.13583" lon="2.99916">
        <ele>630.9</ele>
        <time>2012-09-06T16:19:50Z</time>
      </trkpt>
      <trkpt lat="44.13578" lon="2.99913">
        <ele>630.4</ele>
        <time>2012-09-06T16:19:51Z</time>
      </trkpt>
      <trkpt lat="44.13574" lon="2.9991">
        <ele>629.9</ele>
        <time>2012-09-06T16:19:52Z</time>
      </trkpt>
      <trkpt lat="44.13569" lon="2.99907">
        <ele>629.2</ele>
        <time>2012-09-06T16:19:53Z</time>
      </trkpt>
      <trkpt lat="44.13565" lon="2.99902">
        <ele>628.8</ele>
        <time>2012-09-06T16:19:54Z</time>
      </trkpt>
      <trkpt lat="44.13561" lon="2.99896">
        <ele>628.4</ele>
        <time>2012-09-06T16:19:55Z</time>
      </trkpt>
      <trkpt lat="44.13557" lon="2.99891">
        <ele>627.9</ele>
        <time>2012-09-06T16:19:56Z</time>
      </trkpt>
      <trkpt lat="44.13553" lon="2.99886">
        <ele>627.4</ele>
        <time>2012-09-06T16:19:57Z</time>
      </trkpt>
      <trkpt lat="44.13549" lon="2.99881">
        <ele>626.8</ele>
        <time>2012-09-06T16:19:58Z</time>
      </trkpt>
      <trkpt lat="44.13545" lon="2.99876">
        <ele>626.2</ele>
        <time>2012-09-06T16:19:59Z</time>
      </trkpt>
      <trkpt lat="44.13541" lon="2.9987">
        <ele>625.6</ele>
        <time>2012-09-06T16:20:00Z</time>
      </trkpt>
      <trkpt lat="44.13538" lon="2.99865">
        <ele>624.9</ele>
        <time>2012-09-06T16:20:01Z</time>
      </trkpt>
      <trkpt lat="44.13535" lon="2.9986">
        <ele>624.3</ele>
        <time>2012-09-06T16:20:02Z</time>
      </trkpt>
      <trkpt lat="44.13531" lon="2.99855">
        <ele>623.7</ele>
        <time>2012-09-06T16:20:03Z</time>
      </trkpt>
      <trkpt lat="44.13528" lon="2.99849">
        <ele>623</ele>
        <time>2012-09-06T16:20:04Z</time>
      </trkpt>
      <trkpt lat="44.13526" lon="2.99843">
        <ele>622.5</ele>
        <time>2012-09-06T16:20:05Z</time>
      </trkpt>
      <trkpt lat="44.13524" lon="2.99837">
        <ele>622.1</ele>
        <time>2012-09-06T16:20:06Z</time>
      </trkpt>
      <trkpt lat="44.13523" lon="2.9983">
        <ele>621.7</ele>
        <time>2012-09-06T16:20:07Z</time>
      </trkpt>
      <trkpt lat="44.13522" lon="2.99824">
        <ele>621.2</ele>
        <time>2012-09-06T16:20:08Z</time>
      </trkpt>
      <trkpt lat="44.13519" lon="2.99812">
        <ele>620.2</ele>
        <time>2012-09-06T16:20:10Z</time>
      </trkpt>
      <trkpt lat="44.13518" lon="2.99805">
        <ele>619.7</ele>
        <time>2012-09-06T16:20:11Z</time>
      </trkpt>
      <trkpt lat="44.13517" lon="2.99798">
        <ele>619.4</ele>
        <time>2012-09-06T16:20:12Z</time>
      </trkpt>
      <trkpt lat="44.13518" lon="2.99791">
        <ele>619.4</ele>
        <time>2012-09-06T16:20:13Z</time>
      </trkpt>
      <trkpt lat="44.13518" lon="2.99784">
        <ele>619.3</ele>
        <time>2012-09-06T16:20:14Z</time>
      </trkpt>
      <trkpt lat="44.13516" lon="2.99771">
        <ele>618.5</ele>
        <time>2012-09-06T16:20:16Z</time>
      </trkpt>
      <trkpt lat="44.13515" lon="2.99764">
        <ele>618.2</ele>
        <time>2012-09-06T16:20:17Z</time>
      </trkpt>
      <trkpt lat="44.13514" lon="2.99752">
        <ele>617.8</ele>
        <time>2012-09-06T16:20:19Z</time>
      </trkpt>
      <trkpt lat="44.13515" lon="2.99745">
        <ele>618</ele>
        <time>2012-09-06T16:20:20Z</time>
      </trkpt>
      <trkpt lat="44.13517" lon="2.99736">
        <ele>618.3</ele>
        <time>2012-09-06T16:20:21Z</time>
      </trkpt>
      <trkpt lat="44.13518" lon="2.99729">
        <ele>618.5</ele>
        <time>2012-09-06T16:20:22Z</time>
      </trkpt>
      <trkpt lat="44.13519" lon="2.99721">
        <ele>618.8</ele>
        <time>2012-09-06T16:20:23Z</time>
      </trkpt>
      <trkpt lat="44.13521" lon="2.99713">
        <ele>619</ele>
        <time>2012-09-06T16:20:24Z</time>
      </trkpt>
      <trkpt lat="44.13522" lon="2.99699">
        <ele>619.1</ele>
        <time>2012-09-06T16:20:26Z</time>
      </trkpt>
      <trkpt lat="44.13518" lon="2.99691">
        <ele>618.6</ele>
        <time>2012-09-06T16:20:28Z</time>
      </trkpt>
      <trkpt lat="44.13511" lon="2.99689">
        <ele>617.7</ele>
        <time>2012-09-06T16:20:31Z</time>
      </trkpt>
      <trkpt lat="44.13502" lon="2.99688">
        <ele>616.7</ele>
        <time>2012-09-06T16:20:33Z</time>
      </trkpt>
      <trkpt lat="44.13491" lon="2.99687">
        <ele>615.6</ele>
        <time>2012-09-06T16:20:35Z</time>
      </trkpt>
      <trkpt lat="44.1348" lon="2.99687">
        <ele>614.5</ele>
        <time>2012-09-06T16:20:37Z</time>
      </trkpt>
      <trkpt lat="44.13468" lon="2.99689">
        <ele>613.2</ele>
        <time>2012-09-06T16:20:39Z</time>
      </trkpt>
      <trkpt lat="44.13457" lon="2.99691">
        <ele>612</ele>
        <time>2012-09-06T16:20:41Z</time>
      </trkpt>
      <trkpt lat="44.13443" lon="2.9969">
        <ele>610.7</ele>
        <time>2012-09-06T16:20:43Z</time>
      </trkpt>
      <trkpt lat="44.13434" lon="2.99686">
        <ele>610.1</ele>
        <time>2012-09-06T16:20:44Z</time>
      </trkpt>
      <trkpt lat="44.13426" lon="2.9968">
        <ele>609.7</ele>
        <time>2012-09-06T16:20:45Z</time>
      </trkpt>
      <trkpt lat="44.13412" lon="2.99667">
        <ele>609.3</ele>
        <time>2012-09-06T16:20:47Z</time>
      </trkpt>
      <trkpt lat="44.13398" lon="2.99654">
        <ele>609.3</ele>
        <time>2012-09-06T16:20:49Z</time>
      </trkpt>
      <trkpt lat="44.13388" lon="2.99645">
        <ele>609</ele>
        <time>2012-09-06T16:20:51Z</time>
      </trkpt>
      <trkpt lat="44.13378" lon="2.99643">
        <ele>607.7</ele>
        <time>2012-09-06T16:20:53Z</time>
      </trkpt>
      <trkpt lat="44.13367" lon="2.99642">
        <ele>606</ele>
        <time>2012-09-06T16:20:55Z</time>
      </trkpt>
      <trkpt lat="44.13357" lon="2.99638">
        <ele>604.7</ele>
        <time>2012-09-06T16:20:57Z</time>
      </trkpt>
      <trkpt lat="44.13344" lon="2.99632">
        <ele>603.2</ele>
        <time>2012-09-06T16:20:59Z</time>
      </trkpt>
      <trkpt lat="44.13336" lon="2.99628">
        <ele>602.2</ele>
        <time>2012-09-06T16:21:00Z</time>
      </trkpt>
      <trkpt lat="44.13329" lon="2.99625">
        <ele>602.1</ele>
        <time>2012-09-06T16:21:01Z</time>
      </trkpt>
      <trkpt lat="44.13323" lon="2.9962">
        <ele>602.5</ele>
        <time>2012-09-06T16:21:02Z</time>
      </trkpt>
      <trkpt lat="44.13315" lon="2.99614">
        <ele>602.8</ele>
        <time>2012-09-06T16:21:03Z</time>
      </trkpt>
      <trkpt lat="44.13301" lon="2.99601">
        <ele>602.5</ele>
        <time>2012-09-06T16:21:05Z</time>
      </trkpt>
      <trkpt lat="44.13295" lon="2.99595">
        <ele>602.1</ele>
        <time>2012-09-06T16:21:06Z</time>
      </trkpt>
      <trkpt lat="44.1329" lon="2.99589">
        <ele>601.5</ele>
        <time>2012-09-06T16:21:07Z</time>
      </trkpt>
      <trkpt lat="44.13285" lon="2.99583">
        <ele>600.8</ele>
        <time>2012-09-06T16:21:08Z</time>
      </trkpt>
      <trkpt lat="44.13277" lon="2.9957">
        <ele>600.4</ele>
        <time>2012-09-06T16:21:10Z</time>
      </trkpt>
      <trkpt lat="44.13269" lon="2.99557">
        <ele>599.7</ele>
        <time>2012-09-06T16:21:12Z</time>
      </trkpt>
      <trkpt lat="44.13263" lon="2.99543">
        <ele>598.9</ele>
        <time>2012-09-06T16:21:14Z</time>
      </trkpt>
      <trkpt lat="44.13261" lon="2.99537">
        <ele>598.5</ele>
        <time>2012-09-06T16:21:15Z</time>
      </trkpt>
      <trkpt lat="44.13258" lon="2.99532">
        <ele>598.1</ele>
        <time>2012-09-06T16:21:16Z</time>
      </trkpt>
      <trkpt lat="44.13256" lon="2.99526">
        <ele>597.6</ele>
        <time>2012-09-06T16:21:17Z</time>
      </trkpt>
      <trkpt lat="44.13253" lon="2.99521">
        <ele>596.9</ele>
        <time>2012-09-06T16:21:18Z</time>
      </trkpt>
      <trkpt lat="44.1325" lon="2.99515">
        <ele>596.2</ele>
        <time>2012-09-06T16:21:19Z</time>
      </trkpt>
      <trkpt lat="44.13247" lon="2.99509">
        <ele>596.4</ele>
        <time>2012-09-06T16:21:20Z</time>
      </trkpt>
      <trkpt lat="44.13244" lon="2.99502">
        <ele>596.5</ele>
        <time>2012-09-06T16:21:21Z</time>
      </trkpt>
      <trkpt lat="44.13241" lon="2.99495">
        <ele>596.9</ele>
        <time>2012-09-06T16:21:22Z</time>
      </trkpt>
      <trkpt lat="44.13238" lon="2.99488">
        <ele>597.5</ele>
        <time>2012-09-06T16:21:23Z</time>
      </trkpt>
      <trkpt lat="44.13234" lon="2.99481">
        <ele>597.9</ele>
        <time>2012-09-06T16:21:24Z</time>
      </trkpt>
      <trkpt lat="44.13231" lon="2.99474">
        <ele>598.2</ele>
        <time>2012-09-06T16:21:25Z</time>
      </trkpt>
      <trkpt lat="44.13227" lon="2.99466">
        <ele>598.4</ele>
        <time>2012-09-06T16:21:26Z</time>
      </trkpt>
      <trkpt lat="44.13224" lon="2.99459">
        <ele>598.4</ele>
        <time>2012-09-06T16:21:27Z</time>
      </trkpt>
      <trkpt lat="44.13221" lon="2.99452">
        <ele>598.3</ele>
        <time>2012-09-06T16:21:28Z</time>
      </trkpt>
      <trkpt lat="44.13218" lon="2.99446">
        <ele>598.1</ele>
        <time>2012-09-06T16:21:29Z</time>
      </trkpt>
      <trkpt lat="44.13215" lon="2.9944">
        <ele>597.8</ele>
        <time>2012-09-06T16:21:30Z</time>
      </trkpt>
      <trkpt lat="44.13212" lon="2.99433">
        <ele>597.4</ele>
        <time>2012-09-06T16:21:31Z</time>
      </trkpt>
      <trkpt lat="44.13208" lon="2.99426">
        <ele>596.8</ele>
        <time>2012-09-06T16:21:32Z</time>
      </trkpt>
      <trkpt lat="44.13205" lon="2.99419">
        <ele>596</ele>
        <time>2012-09-06T16:21:33Z</time>
      </trkpt>
      <trkpt lat="44.13201" lon="2.99411">
        <ele>595.4</ele>
        <time>2012-09-06T16:21:34Z</time>
      </trkpt>
      <trkpt lat="44.13195" lon="2.99397">
        <ele>594.2</ele>
        <time>2012-09-06T16:21:36Z</time>
      </trkpt>
      <trkpt lat="44.13191" lon="2.9939">
        <ele>593.5</ele>
        <time>2012-09-06T16:21:37Z</time>
      </trkpt>
      <trkpt lat="44.13188" lon="2.99383">
        <ele>592.7</ele>
        <time>2012-09-06T16:21:38Z</time>
      </trkpt>
      <trkpt lat="44.13185" lon="2.99375">
        <ele>591.9</ele>
        <time>2012-09-06T16:21:39Z</time>
      </trkpt>
      <trkpt lat="44.13183" lon="2.99367">
        <ele>591</ele>
        <time>2012-09-06T16:21:40Z</time>
      </trkpt>
      <trkpt lat="44.1318" lon="2.99358">
        <ele>590.1</ele>
        <time>2012-09-06T16:21:41Z</time>
      </trkpt>
      <trkpt lat="44.13178" lon="2.9935">
        <ele>589.1</ele>
        <time>2012-09-06T16:21:42Z</time>
      </trkpt>
      <trkpt lat="44.13175" lon="2.99341">
        <ele>588</ele>
        <time>2012-09-06T16:21:43Z</time>
      </trkpt>
      <trkpt lat="44.13171" lon="2.99321">
        <ele>585.7</ele>
        <time>2012-09-06T16:21:45Z</time>
      </trkpt>
      <trkpt lat="44.13169" lon="2.9931">
        <ele>584.8</ele>
        <time>2012-09-06T16:21:46Z</time>
      </trkpt>
      <trkpt lat="44.13169" lon="2.99299">
        <ele>584</ele>
        <time>2012-09-06T16:21:47Z</time>
      </trkpt>
      <trkpt lat="44.13168" lon="2.99286">
        <ele>583.1</ele>
        <time>2012-09-06T16:21:48Z</time>
      </trkpt>
      <trkpt lat="44.13168" lon="2.99266">
        <ele>582.2</ele>
        <time>2012-09-06T16:21:50Z</time>
      </trkpt>
      <trkpt lat="44.13168" lon="2.99256">
        <ele>581.8</ele>
        <time>2012-09-06T16:21:51Z</time>
      </trkpt>
      <trkpt lat="44.13168" lon="2.99244">
        <ele>581.3</ele>
        <time>2012-09-06T16:21:52Z</time>
      </trkpt>
      <trkpt lat="44.13169" lon="2.99235">
        <ele>581.2</ele>
        <time>2012-09-06T16:21:53Z</time>
      </trkpt>
      <trkpt lat="44.1317" lon="2.99227">
        <ele>581.2</ele>
        <time>2012-09-06T16:21:54Z</time>
      </trkpt>
      <trkpt lat="44.1317" lon="2.99212">
        <ele>580.9</ele>
        <time>2012-09-06T16:21:57Z</time>
      </trkpt>
      <trkpt lat="44.13174" lon="2.99207">
        <ele>582.1</ele>
        <time>2012-09-06T16:22:39Z</time>
      </trkpt>
      <trkpt lat="44.13172" lon="2.9919">
        <ele>580.8</ele>
        <time>2012-09-06T16:22:51Z</time>
      </trkpt>
      <trkpt lat="44.13172" lon="2.99173">
        <ele>579.9</ele>
        <time>2012-09-06T16:22:53Z</time>
      </trkpt>
      <trkpt lat="44.13172" lon="2.99154">
        <ele>579.3</ele>
        <time>2012-09-06T16:22:55Z</time>
      </trkpt>
      <trkpt lat="44.13173" lon="2.99136">
        <ele>578.8</ele>
        <time>2012-09-06T16:22:57Z</time>
      </trkpt>
      <trkpt lat="44.13174" lon="2.99126">
        <ele>578.8</ele>
        <time>2012-09-06T16:22:58Z</time>
      </trkpt>
      <trkpt lat="44.13175" lon="2.99118">
        <ele>578.8</ele>
        <time>2012-09-06T16:22:59Z</time>
      </trkpt>
      <trkpt lat="44.13176" lon="2.99111">
        <ele>578.8</ele>
        <time>2012-09-06T16:23:00Z</time>
      </trkpt>
      <trkpt lat="44.13178" lon="2.99102">
        <ele>578.8</ele>
        <time>2012-09-06T16:23:01Z</time>
      </trkpt>
      <trkpt lat="44.1318" lon="2.99093">
        <ele>578.9</ele>
        <time>2012-09-06T16:23:02Z</time>
      </trkpt>
      <trkpt lat="44.13181" lon="2.99087">
        <ele>579</ele>
        <time>2012-09-06T16:23:03Z</time>
      </trkpt>
      <trkpt lat="44.13172" lon="2.9908">
        <ele>576.8</ele>
        <time>2012-09-06T16:23:07Z</time>
      </trkpt>
      <trkpt lat="44.13159" lon="2.99073">
        <ele>575.8</ele>
        <time>2012-09-06T16:23:10Z</time>
      </trkpt>
      <trkpt lat="44.13147" lon="2.99066">
        <ele>575.5</ele>
        <time>2012-09-06T16:23:12Z</time>
      </trkpt>
      <trkpt lat="44.13134" lon="2.99058">
        <ele>575.1</ele>
        <time>2012-09-06T16:23:14Z</time>
      </trkpt>
      <trkpt lat="44.13121" lon="2.99049">
        <ele>574.8</ele>
        <time>2012-09-06T16:23:16Z</time>
      </trkpt>
      <trkpt lat="44.13108" lon="2.99039">
        <ele>574.3</ele>
        <time>2012-09-06T16:23:18Z</time>
      </trkpt>
      <trkpt lat="44.13096" lon="2.9903">
        <ele>573.6</ele>
        <time>2012-09-06T16:23:20Z</time>
      </trkpt>
      <trkpt lat="44.13083" lon="2.99022">
        <ele>572.5</ele>
        <time>2012-09-06T16:23:22Z</time>
      </trkpt>
      <trkpt lat="44.13069" lon="2.99015">
        <ele>572</ele>
        <time>2012-09-06T16:23:24Z</time>
      </trkpt>
      <trkpt lat="44.13062" lon="2.99011">
        <ele>571.6</ele>
        <time>2012-09-06T16:23:25Z</time>
      </trkpt>
      <trkpt lat="44.13056" lon="2.99008">
        <ele>571.3</ele>
        <time>2012-09-06T16:23:26Z</time>
      </trkpt>
      <trkpt lat="44.13049" lon="2.99004">
        <ele>571</ele>
        <time>2012-09-06T16:23:27Z</time>
      </trkpt>
      <trkpt lat="44.13036" lon="2.98995">
        <ele>571</ele>
        <time>2012-09-06T16:23:29Z</time>
      </trkpt>
      <trkpt lat="44.13024" lon="2.98991">
        <ele>570.4</ele>
        <time>2012-09-06T16:23:31Z</time>
      </trkpt>
      <trkpt lat="44.13012" lon="2.9899">
        <ele>569.4</ele>
        <time>2012-09-06T16:23:33Z</time>
      </trkpt>
      <trkpt lat="44.12999" lon="2.98992">
        <ele>567.6</ele>
        <time>2012-09-06T16:23:35Z</time>
      </trkpt>
      <trkpt lat="44.12986" lon="2.98996">
        <ele>567</ele>
        <time>2012-09-06T16:23:37Z</time>
      </trkpt>
      <trkpt lat="44.12972" lon="2.99">
        <ele>566</ele>
        <time>2012-09-06T16:23:39Z</time>
      </trkpt>
      <trkpt lat="44.12957" lon="2.99004">
        <ele>565.6</ele>
        <time>2012-09-06T16:23:41Z</time>
      </trkpt>
      <trkpt lat="44.12942" lon="2.99009">
        <ele>564.9</ele>
        <time>2012-09-06T16:23:43Z</time>
      </trkpt>
      <trkpt lat="44.12925" lon="2.99013">
        <ele>564.2</ele>
        <time>2012-09-06T16:23:45Z</time>
      </trkpt>
      <trkpt lat="44.12908" lon="2.99017">
        <ele>563.8</ele>
        <time>2012-09-06T16:23:47Z</time>
      </trkpt>
      <trkpt lat="44.12892" lon="2.9902">
        <ele>563.6</ele>
        <time>2012-09-06T16:23:49Z</time>
      </trkpt>
      <trkpt lat="44.12876" lon="2.99026">
        <ele>563.1</ele>
        <time>2012-09-06T16:23:51Z</time>
      </trkpt>
      <trkpt lat="44.12859" lon="2.99033">
        <ele>562.2</ele>
        <time>2012-09-06T16:23:53Z</time>
      </trkpt>
      <trkpt lat="44.12844" lon="2.99042">
        <ele>560.9</ele>
        <time>2012-09-06T16:23:55Z</time>
      </trkpt>
      <trkpt lat="44.1283" lon="2.99051">
        <ele>559.3</ele>
        <time>2012-09-06T16:23:57Z</time>
      </trkpt>
      <trkpt lat="44.12815" lon="2.99061">
        <ele>557.2</ele>
        <time>2012-09-06T16:23:59Z</time>
      </trkpt>
      <trkpt lat="44.12801" lon="2.9907">
        <ele>555.1</ele>
        <time>2012-09-06T16:24:01Z</time>
      </trkpt>
      <trkpt lat="44.12787" lon="2.99079">
        <ele>552.8</ele>
        <time>2012-09-06T16:24:03Z</time>
      </trkpt>
      <trkpt lat="44.12773" lon="2.99088">
        <ele>551.5</ele>
        <time>2012-09-06T16:24:05Z</time>
      </trkpt>
      <trkpt lat="44.12764" lon="2.99089">
        <ele>551.2</ele>
        <time>2012-09-06T16:24:06Z</time>
      </trkpt>
      <trkpt lat="44.12757" lon="2.99091">
        <ele>551</ele>
        <time>2012-09-06T16:24:07Z</time>
      </trkpt>
      <trkpt lat="44.12751" lon="2.99092">
        <ele>550.8</ele>
        <time>2012-09-06T16:24:08Z</time>
      </trkpt>
      <trkpt lat="44.12745" lon="2.99094">
        <ele>550.6</ele>
        <time>2012-09-06T16:24:09Z</time>
      </trkpt>
      <trkpt lat="44.1274" lon="2.99095">
        <ele>550.3</ele>
        <time>2012-09-06T16:24:10Z</time>
      </trkpt>
      <trkpt lat="44.12735" lon="2.99096">
        <ele>550.1</ele>
        <time>2012-09-06T16:24:11Z</time>
      </trkpt>
      <trkpt lat="44.12724" lon="2.99099">
        <ele>549.6</ele>
        <time>2012-09-06T16:24:13Z</time>
      </trkpt>
      <trkpt lat="44.12713" lon="2.99102">
        <ele>549.1</ele>
        <time>2012-09-06T16:24:15Z</time>
      </trkpt>
      <trkpt lat="44.12707" lon="2.99104">
        <ele>548.9</ele>
        <time>2012-09-06T16:24:16Z</time>
      </trkpt>
      <trkpt lat="44.12701" lon="2.99105">
        <ele>548.6</ele>
        <time>2012-09-06T16:24:17Z</time>
      </trkpt>
      <trkpt lat="44.12695" lon="2.99105">
        <ele>548.3</ele>
        <time>2012-09-06T16:24:18Z</time>
      </trkpt>
      <trkpt lat="44.12689" lon="2.99105">
        <ele>548.1</ele>
        <time>2012-09-06T16:24:19Z</time>
      </trkpt>
      <trkpt lat="44.12683" lon="2.99105">
        <ele>547.9</ele>
        <time>2012-09-06T16:24:20Z</time>
      </trkpt>
      <trkpt lat="44.12677" lon="2.99106">
        <ele>547.6</ele>
        <time>2012-09-06T16:24:21Z</time>
      </trkpt>
      <trkpt lat="44.12671" lon="2.99107">
        <ele>547.3</ele>
        <time>2012-09-06T16:24:22Z</time>
      </trkpt>
      <trkpt lat="44.12664" lon="2.99107">
        <ele>547</ele>
        <time>2012-09-06T16:24:23Z</time>
      </trkpt>
      <trkpt lat="44.12657" lon="2.99107">
        <ele>546.5</ele>
        <time>2012-09-06T16:24:24Z</time>
      </trkpt>
      <trkpt lat="44.12649" lon="2.99108">
        <ele>546</ele>
        <time>2012-09-06T16:24:25Z</time>
      </trkpt>
      <trkpt lat="44.12641" lon="2.99108">
        <ele>545.5</ele>
        <time>2012-09-06T16:24:26Z</time>
      </trkpt>
      <trkpt lat="44.12634" lon="2.99108">
        <ele>545</ele>
        <time>2012-09-06T16:24:27Z</time>
      </trkpt>
      <trkpt lat="44.12627" lon="2.99108">
        <ele>544.6</ele>
        <time>2012-09-06T16:24:28Z</time>
      </trkpt>
      <trkpt lat="44.1262" lon="2.99107">
        <ele>544.1</ele>
        <time>2012-09-06T16:24:29Z</time>
      </trkpt>
      <trkpt lat="44.12613" lon="2.99107">
        <ele>543.7</ele>
        <time>2012-09-06T16:24:30Z</time>
      </trkpt>
      <trkpt lat="44.12606" lon="2.99105">
        <ele>543.2</ele>
        <time>2012-09-06T16:24:31Z</time>
      </trkpt>
      <trkpt lat="44.12592" lon="2.991">
        <ele>542.4</ele>
        <time>2012-09-06T16:24:33Z</time>
      </trkpt>
      <trkpt lat="44.12576" lon="2.99096">
        <ele>541.4</ele>
        <time>2012-09-06T16:24:35Z</time>
      </trkpt>
      <trkpt lat="44.12561" lon="2.99093">
        <ele>540.5</ele>
        <time>2012-09-06T16:24:37Z</time>
      </trkpt>
      <trkpt lat="44.12543" lon="2.99089">
        <ele>539.3</ele>
        <time>2012-09-06T16:24:39Z</time>
      </trkpt>
      <trkpt lat="44.12526" lon="2.99087">
        <ele>538</ele>
        <time>2012-09-06T16:24:41Z</time>
      </trkpt>
      <trkpt lat="44.12508" lon="2.99085">
        <ele>536.7</ele>
        <time>2012-09-06T16:24:43Z</time>
      </trkpt>
      <trkpt lat="44.12499" lon="2.99083">
        <ele>535.9</ele>
        <time>2012-09-06T16:24:44Z</time>
      </trkpt>
      <trkpt lat="44.1249" lon="2.99082">
        <ele>535.6</ele>
        <time>2012-09-06T16:24:45Z</time>
      </trkpt>
      <trkpt lat="44.12481" lon="2.9908">
        <ele>535.4</ele>
        <time>2012-09-06T16:24:46Z</time>
      </trkpt>
      <trkpt lat="44.12472" lon="2.99078">
        <ele>535.2</ele>
        <time>2012-09-06T16:24:47Z</time>
      </trkpt>
      <trkpt lat="44.12462" lon="2.99075">
        <ele>535</ele>
        <time>2012-09-06T16:24:48Z</time>
      </trkpt>
      <trkpt lat="44.12453" lon="2.99074">
        <ele>534.7</ele>
        <time>2012-09-06T16:24:49Z</time>
      </trkpt>
      <trkpt lat="44.12444" lon="2.99072">
        <ele>534.4</ele>
        <time>2012-09-06T16:24:50Z</time>
      </trkpt>
      <trkpt lat="44.12435" lon="2.99071">
        <ele>534</ele>
        <time>2012-09-06T16:24:51Z</time>
      </trkpt>
      <trkpt lat="44.1242" lon="2.99068">
        <ele>533.5</ele>
        <time>2012-09-06T16:24:53Z</time>
      </trkpt>
      <trkpt lat="44.12409" lon="2.99066">
        <ele>533.2</ele>
        <time>2012-09-06T16:24:55Z</time>
      </trkpt>
      <trkpt lat="44.12398" lon="2.99065">
        <ele>532.8</ele>
        <time>2012-09-06T16:24:57Z</time>
      </trkpt>
      <trkpt lat="44.12387" lon="2.99064">
        <ele>532.2</ele>
        <time>2012-09-06T16:25:00Z</time>
      </trkpt>
      <trkpt lat="44.12377" lon="2.99061">
        <ele>532.1</ele>
        <time>2012-09-06T16:25:02Z</time>
      </trkpt>
      <trkpt lat="44.12365" lon="2.99056">
        <ele>532</ele>
        <time>2012-09-06T16:25:04Z</time>
      </trkpt>
      <trkpt lat="44.12352" lon="2.9905">
        <ele>531.8</ele>
        <time>2012-09-06T16:25:06Z</time>
      </trkpt>
      <trkpt lat="44.12339" lon="2.99046">
        <ele>531.4</ele>
        <time>2012-09-06T16:25:08Z</time>
      </trkpt>
      <trkpt lat="44.12326" lon="2.99046">
        <ele>530.5</ele>
        <time>2012-09-06T16:25:10Z</time>
      </trkpt>
      <trkpt lat="44.12312" lon="2.99047">
        <ele>529.6</ele>
        <time>2012-09-06T16:25:12Z</time>
      </trkpt>
      <trkpt lat="44.12299" lon="2.99049">
        <ele>528.7</ele>
        <time>2012-09-06T16:25:14Z</time>
      </trkpt>
      <trkpt lat="44.12283" lon="2.9905">
        <ele>527.8</ele>
        <time>2012-09-06T16:25:16Z</time>
      </trkpt>
      <trkpt lat="44.12266" lon="2.99048">
        <ele>527</ele>
        <time>2012-09-06T16:25:18Z</time>
      </trkpt>
      <trkpt lat="44.12249" lon="2.99044">
        <ele>526.3</ele>
        <time>2012-09-06T16:25:20Z</time>
      </trkpt>
      <trkpt lat="44.12235" lon="2.9904">
        <ele>525.6</ele>
        <time>2012-09-06T16:25:22Z</time>
      </trkpt>
      <trkpt lat="44.12218" lon="2.99034">
        <ele>524.5</ele>
        <time>2012-09-06T16:25:24Z</time>
      </trkpt>
      <trkpt lat="44.12209" lon="2.9903">
        <ele>523.9</ele>
        <time>2012-09-06T16:25:25Z</time>
      </trkpt>
      <trkpt lat="44.12194" lon="2.99022">
        <ele>522.6</ele>
        <time>2012-09-06T16:25:27Z</time>
      </trkpt>
      <trkpt lat="44.12183" lon="2.99019">
        <ele>521.5</ele>
        <time>2012-09-06T16:25:29Z</time>
      </trkpt>
      <trkpt lat="44.12179" lon="2.9902">
        <ele>521.2</ele>
        <time>2012-09-06T16:25:38Z</time>
      </trkpt>
      <trkpt lat="44.12177" lon="2.99012">
        <ele>520.6</ele>
        <time>2012-09-06T16:25:57Z</time>
      </trkpt>
      <trkpt lat="44.12171" lon="2.99016">
        <ele>520.2</ele>
        <time>2012-09-06T16:26:39Z</time>
      </trkpt>
      <trkpt lat="44.12171" lon="2.99022">
        <ele>520.5</ele>
        <time>2012-09-06T16:27:07Z</time>
      </trkpt>
      <trkpt lat="44.1217" lon="2.99029">
        <ele>520.6</ele>
        <time>2012-09-06T16:27:09Z</time>
      </trkpt>
      <trkpt lat="44.12166" lon="2.99037">
        <ele>520.8</ele>
        <time>2012-09-06T16:27:11Z</time>
      </trkpt>
      <trkpt lat="44.12162" lon="2.99045">
        <ele>520.9</ele>
        <time>2012-09-06T16:27:13Z</time>
      </trkpt>
      <trkpt lat="44.1216" lon="2.99049">
        <ele>521</ele>
        <time>2012-09-06T16:27:14Z</time>
      </trkpt>
      <trkpt lat="44.12156" lon="2.99059">
        <ele>521.3</ele>
        <time>2012-09-06T16:27:16Z</time>
      </trkpt>
      <trkpt lat="44.12154" lon="2.99065">
        <ele>521.5</ele>
        <time>2012-09-06T16:27:17Z</time>
      </trkpt>
      <trkpt lat="44.12151" lon="2.9907">
        <ele>521.5</ele>
        <time>2012-09-06T16:27:18Z</time>
      </trkpt>
      <trkpt lat="44.12147" lon="2.99074">
        <ele>521.6</ele>
        <time>2012-09-06T16:27:19Z</time>
      </trkpt>
      <trkpt lat="44.12139" lon="2.99079">
        <ele>521.4</ele>
        <time>2012-09-06T16:27:21Z</time>
      </trkpt>
      <trkpt lat="44.12131" lon="2.99081">
        <ele>521.2</ele>
        <time>2012-09-06T16:27:23Z</time>
      </trkpt>
      <trkpt lat="44.12125" lon="2.99082">
        <ele>521</ele>
        <time>2012-09-06T16:27:24Z</time>
      </trkpt>
      <trkpt lat="44.12113" lon="2.99083">
        <ele>520.4</ele>
        <time>2012-09-06T16:27:27Z</time>
      </trkpt>
      <trkpt lat="44.121" lon="2.99083">
        <ele>519.8</ele>
        <time>2012-09-06T16:27:30Z</time>
      </trkpt>
      <trkpt lat="44.12091" lon="2.99082">
        <ele>519.3</ele>
        <time>2012-09-06T16:27:32Z</time>
      </trkpt>
      <trkpt lat="44.1208" lon="2.99082">
        <ele>518.8</ele>
        <time>2012-09-06T16:27:34Z</time>
      </trkpt>
      <trkpt lat="44.12068" lon="2.99082">
        <ele>518.2</ele>
        <time>2012-09-06T16:27:36Z</time>
      </trkpt>
      <trkpt lat="44.12057" lon="2.99082">
        <ele>517.7</ele>
        <time>2012-09-06T16:27:38Z</time>
      </trkpt>
      <trkpt lat="44.12042" lon="2.99082">
        <ele>517</ele>
        <time>2012-09-06T16:27:40Z</time>
      </trkpt>
      <trkpt lat="44.12027" lon="2.9908">
        <ele>516.2</ele>
        <time>2012-09-06T16:27:42Z</time>
      </trkpt>
      <trkpt lat="44.12011" lon="2.99079">
        <ele>515.4</ele>
        <time>2012-09-06T16:27:44Z</time>
      </trkpt>
      <trkpt lat="44.11994" lon="2.99079">
        <ele>514.6</ele>
        <time>2012-09-06T16:27:46Z</time>
      </trkpt>
      <trkpt lat="44.11977" lon="2.99082">
        <ele>513.6</ele>
        <time>2012-09-06T16:27:48Z</time>
      </trkpt>
      <trkpt lat="44.11959" lon="2.99085">
        <ele>513.1</ele>
        <time>2012-09-06T16:27:50Z</time>
      </trkpt>
      <trkpt lat="44.1195" lon="2.99088">
        <ele>513</ele>
        <time>2012-09-06T16:27:51Z</time>
      </trkpt>
      <trkpt lat="44.11941" lon="2.9909">
        <ele>512.8</ele>
        <time>2012-09-06T16:27:52Z</time>
      </trkpt>
      <trkpt lat="44.11932" lon="2.99092">
        <ele>512.7</ele>
        <time>2012-09-06T16:27:53Z</time>
      </trkpt>
      <trkpt lat="44.11923" lon="2.99093">
        <ele>512.4</ele>
        <time>2012-09-06T16:27:54Z</time>
      </trkpt>
      <trkpt lat="44.11914" lon="2.99095">
        <ele>512.2</ele>
        <time>2012-09-06T16:27:55Z</time>
      </trkpt>
      <trkpt lat="44.11905" lon="2.99097">
        <ele>512.4</ele>
        <time>2012-09-06T16:27:56Z</time>
      </trkpt>
      <trkpt lat="44.11896" lon="2.99099">
        <ele>512.4</ele>
        <time>2012-09-06T16:27:57Z</time>
      </trkpt>
      <trkpt lat="44.11888" lon="2.99102">
        <ele>512.5</ele>
        <time>2012-09-06T16:27:58Z</time>
      </trkpt>
      <trkpt lat="44.11871" lon="2.99106">
        <ele>512.5</ele>
        <time>2012-09-06T16:28:00Z</time>
      </trkpt>
      <trkpt lat="44.11854" lon="2.99112">
        <ele>512.4</ele>
        <time>2012-09-06T16:28:02Z</time>
      </trkpt>
      <trkpt lat="44.11839" lon="2.99117">
        <ele>512.2</ele>
        <time>2012-09-06T16:28:04Z</time>
      </trkpt>
      <trkpt lat="44.11824" lon="2.99123">
        <ele>511.8</ele>
        <time>2012-09-06T16:28:06Z</time>
      </trkpt>
      <trkpt lat="44.11808" lon="2.99129">
        <ele>511.3</ele>
        <time>2012-09-06T16:28:08Z</time>
      </trkpt>
      <trkpt lat="44.11801" lon="2.99132">
        <ele>510.9</ele>
        <time>2012-09-06T16:28:09Z</time>
      </trkpt>
      <trkpt lat="44.11793" lon="2.99135">
        <ele>510.5</ele>
        <time>2012-09-06T16:28:10Z</time>
      </trkpt>
      <trkpt lat="44.11785" lon="2.99137">
        <ele>510.1</ele>
        <time>2012-09-06T16:28:11Z</time>
      </trkpt>
      <trkpt lat="44.11777" lon="2.99139">
        <ele>509.6</ele>
        <time>2012-09-06T16:28:12Z</time>
      </trkpt>
      <trkpt lat="44.11769" lon="2.99142">
        <ele>509.1</ele>
        <time>2012-09-06T16:28:13Z</time>
      </trkpt>
      <trkpt lat="44.11762" lon="2.99145">
        <ele>508.6</ele>
        <time>2012-09-06T16:28:14Z</time>
      </trkpt>
      <trkpt lat="44.11754" lon="2.99148">
        <ele>508.1</ele>
        <time>2012-09-06T16:28:15Z</time>
      </trkpt>
      <trkpt lat="44.1174" lon="2.99154">
        <ele>507.2</ele>
        <time>2012-09-06T16:28:17Z</time>
      </trkpt>
      <trkpt lat="44.11725" lon="2.99161">
        <ele>506.1</ele>
        <time>2012-09-06T16:28:19Z</time>
      </trkpt>
      <trkpt lat="44.11718" lon="2.99165">
        <ele>505.4</ele>
        <time>2012-09-06T16:28:20Z</time>
      </trkpt>
      <trkpt lat="44.11711" lon="2.99169">
        <ele>505.1</ele>
        <time>2012-09-06T16:28:21Z</time>
      </trkpt>
      <trkpt lat="44.11704" lon="2.99173">
        <ele>505</ele>
        <time>2012-09-06T16:28:22Z</time>
      </trkpt>
      <trkpt lat="44.11697" lon="2.99177">
        <ele>504.9</ele>
        <time>2012-09-06T16:28:23Z</time>
      </trkpt>
      <trkpt lat="44.1169" lon="2.99181">
        <ele>504.8</ele>
        <time>2012-09-06T16:28:24Z</time>
      </trkpt>
      <trkpt lat="44.11684" lon="2.99184">
        <ele>504.7</ele>
        <time>2012-09-06T16:28:25Z</time>
      </trkpt>
      <trkpt lat="44.11678" lon="2.99188">
        <ele>504.5</ele>
        <time>2012-09-06T16:28:26Z</time>
      </trkpt>
      <trkpt lat="44.11672" lon="2.99193">
        <ele>504.3</ele>
        <time>2012-09-06T16:28:27Z</time>
      </trkpt>
      <trkpt lat="44.11666" lon="2.99197">
        <ele>504.2</ele>
        <time>2012-09-06T16:28:28Z</time>
      </trkpt>
      <trkpt lat="44.11661" lon="2.992">
        <ele>504.2</ele>
        <time>2012-09-06T16:28:29Z</time>
      </trkpt>
      <trkpt lat="44.11655" lon="2.99204">
        <ele>504.2</ele>
        <time>2012-09-06T16:28:30Z</time>
      </trkpt>
      <trkpt lat="44.11643" lon="2.99214">
        <ele>504.1</ele>
        <time>2012-09-06T16:28:32Z</time>
      </trkpt>
      <trkpt lat="44.11633" lon="2.99227">
        <ele>504.2</ele>
        <time>2012-09-06T16:28:34Z</time>
      </trkpt>
      <trkpt lat="44.11623" lon="2.99232">
        <ele>503.6</ele>
        <time>2010-01-01T03:47:37Z</time>
      </trkpt>
      <trkpt lat="44.1162" lon="2.99227">
        <ele>503</ele>
        <time>2010-01-01T03:47:39Z</time>
      </trkpt>
      <trkpt lat="44.11604" lon="2.99232">
        <ele>501.7</ele>
        <time>2010-01-01T03:47:45Z</time>
      </trkpt>
      <trkpt lat="44.11589" lon="2.99223">
        <ele>499.9</ele>
        <time>2010-01-01T03:47:52Z</time>
      </trkpt>
      <trkpt lat="44.11584" lon="2.99218">
        <ele>499.3</ele>
        <time>2010-01-01T03:47:54Z</time>
      </trkpt>
      <trkpt lat="44.11564" lon="2.99192">
        <ele>498.2</ele>
        <time>2010-01-01T03:48:05Z</time>
      </trkpt>
      <trkpt lat="44.1155" lon="2.99173">
        <ele>498.3</ele>
        <time>2010-01-01T03:48:13Z</time>
      </trkpt>
      <trkpt lat="44.11536" lon="2.99155">
        <ele>500.4</ele>
        <time>2010-01-01T03:48:21Z</time>
      </trkpt>
      <trkpt lat="44.11527" lon="2.99141">
        <ele>502.5</ele>
        <time>2010-01-01T03:48:26Z</time>
      </trkpt>
      <trkpt lat="44.11513" lon="2.9913">
        <ele>504.4</ele>
        <time>2010-01-01T03:48:32Z</time>
      </trkpt>
      <trkpt lat="44.11497" lon="2.99133">
        <ele>504.5</ele>
        <time>2010-01-01T03:48:39Z</time>
      </trkpt>
      <trkpt lat="44.11473" lon="2.99139">
        <ele>505.3</ele>
        <time>2010-01-01T03:48:49Z</time>
      </trkpt>
      <trkpt lat="44.1145" lon="2.99142">
        <ele>506.3</ele>
        <time>2010-01-01T03:48:58Z</time>
      </trkpt>
      <trkpt lat="44.11431" lon="2.99142">
        <ele>507.5</ele>
        <time>2010-01-01T03:49:05Z</time>
      </trkpt>
      <trkpt lat="44.11418" lon="2.99144">
        <ele>508.1</ele>
        <time>2010-01-01T03:49:11Z</time>
      </trkpt>
      <trkpt lat="44.11398" lon="2.99148">
        <ele>509.3</ele>
        <time>2010-01-01T03:49:19Z</time>
      </trkpt>
      <trkpt lat="44.11376" lon="2.99158">
        <ele>509.2</ele>
        <time>2010-01-01T03:49:28Z</time>
      </trkpt>
      <trkpt lat="44.11349" lon="2.99167">
        <ele>509.5</ele>
        <time>2010-01-01T03:49:39Z</time>
      </trkpt>
      <trkpt lat="44.11322" lon="2.99172">
        <ele>510.7</ele>
        <time>2010-01-01T03:49:50Z</time>
      </trkpt>
      <trkpt lat="44.11293" lon="2.99175">
        <ele>512.1</ele>
        <time>2010-01-01T03:50:02Z</time>
      </trkpt>
      <trkpt lat="44.11271" lon="2.99174">
        <ele>513.7</ele>
        <time>2010-01-01T03:50:11Z</time>
      </trkpt>
      <trkpt lat="44.11251" lon="2.99175">
        <ele>515.1</ele>
        <time>2010-01-01T03:50:19Z</time>
      </trkpt>
      <trkpt lat="44.11235" lon="2.99175">
        <ele>515.5</ele>
        <time>2010-01-01T03:50:25Z</time>
      </trkpt>
      <trkpt lat="44.11212" lon="2.99172">
        <ele>517</ele>
        <time>2010-01-01T03:50:34Z</time>
      </trkpt>
      <trkpt lat="44.11192" lon="2.99165">
        <ele>519.6</ele>
        <time>2010-01-01T03:50:42Z</time>
      </trkpt>
      <trkpt lat="44.1118" lon="2.99159">
        <ele>521.7</ele>
        <time>2010-01-01T03:50:47Z</time>
      </trkpt>
      <trkpt lat="44.11164" lon="2.99151">
        <ele>524.1</ele>
        <time>2010-01-01T03:50:54Z</time>
      </trkpt>
      <trkpt lat="44.11153" lon="2.99146">
        <ele>524.2</ele>
        <time>2010-01-01T03:50:59Z</time>
      </trkpt>
      <trkpt lat="44.11143" lon="2.99142">
        <ele>524</ele>
        <time>2010-01-01T03:51:03Z</time>
      </trkpt>
      <trkpt lat="44.11128" lon="2.99134">
        <ele>523.9</ele>
        <time>2010-01-01T03:51:10Z</time>
      </trkpt>
      <trkpt lat="44.11118" lon="2.99128">
        <ele>523.9</ele>
        <time>2010-01-01T03:51:14Z</time>
      </trkpt>
      <trkpt lat="44.11108" lon="2.9912">
        <ele>523.9</ele>
        <time>2010-01-01T03:51:19Z</time>
      </trkpt>
      <trkpt lat="44.11091" lon="2.99105">
        <ele>523.8</ele>
        <time>2010-01-01T03:51:27Z</time>
      </trkpt>
      <trkpt lat="44.1108" lon="2.9908">
        <ele>526</ele>
        <time>2010-01-01T03:51:35Z</time>
      </trkpt>
      <trkpt lat="44.11071" lon="2.99061">
        <ele>527.3</ele>
        <time>2010-01-01T03:51:41Z</time>
      </trkpt>
      <trkpt lat="44.11053" lon="2.9905">
        <ele>525.9</ele>
        <time>2010-01-01T03:51:49Z</time>
      </trkpt>
      <trkpt lat="44.11031" lon="2.9903">
        <ele>525.2</ele>
        <time>2010-01-01T03:52:00Z</time>
      </trkpt>
      <trkpt lat="44.11014" lon="2.99033">
        <ele>521.8</ele>
        <time>2010-01-01T03:52:07Z</time>
      </trkpt>
      <trkpt lat="44.1099" lon="2.99047">
        <ele>518.2</ele>
        <time>2010-01-01T03:52:17Z</time>
      </trkpt>
      <trkpt lat="44.10985" lon="2.99051">
        <ele>518.1</ele>
        <time>2010-01-01T03:52:20Z</time>
      </trkpt>
      <trkpt lat="44.10977" lon="2.99042">
        <ele>520.3</ele>
        <time>2010-01-01T03:52:24Z</time>
      </trkpt>
      <trkpt lat="44.10973" lon="2.99032">
        <ele>522.3</ele>
        <time>2010-01-01T03:52:27Z</time>
      </trkpt>
      <trkpt lat="44.10965" lon="2.99028">
        <ele>523.8</ele>
        <time>2010-01-01T03:52:31Z</time>
      </trkpt>
      <trkpt lat="44.10957" lon="2.9903">
        <ele>524.2</ele>
        <time>2010-01-01T03:52:34Z</time>
      </trkpt>
      <trkpt lat="44.10954" lon="2.99022">
        <ele>525.9</ele>
        <time>2010-01-01T03:52:36Z</time>
      </trkpt>
      <trkpt lat="44.10956" lon="2.9901">
        <ele>527.5</ele>
        <time>2010-01-01T03:52:40Z</time>
      </trkpt>
      <trkpt lat="44.10951" lon="2.99011">
        <ele>528</ele>
        <time>2010-01-01T03:52:42Z</time>
      </trkpt>
      <trkpt lat="44.10948" lon="2.99013">
        <ele>528</ele>
        <time>2010-01-01T03:52:43Z</time>
      </trkpt>
      <trkpt lat="44.10936" lon="2.99022">
        <ele>527.9</ele>
        <time>2010-01-01T03:52:49Z</time>
      </trkpt>
      <trkpt lat="44.10924" lon="2.99025">
        <ele>528.7</ele>
        <time>2010-01-01T03:52:54Z</time>
      </trkpt>
      <trkpt lat="44.10913" lon="2.9903">
        <ele>529.2</ele>
        <time>2010-01-01T03:52:58Z</time>
      </trkpt>
      <trkpt lat="44.10895" lon="2.99033">
        <ele>530.6</ele>
        <time>2010-01-01T03:53:05Z</time>
      </trkpt>
      <trkpt lat="44.10882" lon="2.99033">
        <ele>532.3</ele>
        <time>2010-01-01T03:53:11Z</time>
      </trkpt>
      <trkpt lat="44.10871" lon="2.99032">
        <ele>534</ele>
        <time>2010-01-01T03:53:15Z</time>
      </trkpt>
      <trkpt lat="44.10861" lon="2.99031">
        <ele>535.5</ele>
        <time>2010-01-01T03:53:19Z</time>
      </trkpt>
      <trkpt lat="44.1085" lon="2.99029">
        <ele>537.4</ele>
        <time>2010-01-01T03:53:24Z</time>
      </trkpt>
      <trkpt lat="44.10835" lon="2.99025">
        <ele>540.8</ele>
        <time>2010-01-01T03:53:30Z</time>
      </trkpt>
      <trkpt lat="44.10818" lon="2.99018">
        <ele>541.5</ele>
        <time>2010-01-01T03:53:37Z</time>
      </trkpt>
      <trkpt lat="44.10807" lon="2.99008">
        <ele>543.5</ele>
        <time>2010-01-01T03:53:42Z</time>
      </trkpt>
      <trkpt lat="44.10793" lon="2.98994">
        <ele>546.7</ele>
        <time>2010-01-01T03:53:49Z</time>
      </trkpt>
      <trkpt lat="44.10781" lon="2.9898">
        <ele>550.4</ele>
        <time>2010-01-01T03:53:55Z</time>
      </trkpt>
      <trkpt lat="44.10765" lon="2.98968">
        <ele>552.9</ele>
        <time>2010-01-01T03:54:03Z</time>
      </trkpt>
      <trkpt lat="44.10749" lon="2.98963">
        <ele>553.1</ele>
        <time>2010-01-01T03:54:09Z</time>
      </trkpt>
      <trkpt lat="44.10729" lon="2.98964">
        <ele>552.9</ele>
        <time>2010-01-01T03:54:17Z</time>
      </trkpt>
      <trkpt lat="44.10702" lon="2.98964">
        <ele>553</ele>
        <time>2010-01-01T03:54:28Z</time>
      </trkpt>
      <trkpt lat="44.10676" lon="2.98964">
        <ele>553.2</ele>
        <time>2010-01-01T03:54:38Z</time>
      </trkpt>
      <trkpt lat="44.10652" lon="2.98959">
        <ele>555.2</ele>
        <time>2010-01-01T03:54:48Z</time>
      </trkpt>
      <trkpt lat="44.10638" lon="2.98955">
        <ele>556.9</ele>
        <time>2010-01-01T03:54:54Z</time>
      </trkpt>
      <trkpt lat="44.1062" lon="2.98946">
        <ele>560.2</ele>
        <time>2010-01-01T03:55:01Z</time>
      </trkpt>
      <trkpt lat="44.10604" lon="2.98943">
        <ele>561.7</ele>
        <time>2010-01-01T03:55:08Z</time>
      </trkpt>
      <trkpt lat="44.10594" lon="2.98941">
        <ele>562.9</ele>
        <time>2010-01-01T03:55:12Z</time>
      </trkpt>
      <trkpt lat="44.10577" lon="2.98939">
        <ele>563.6</ele>
        <time>2010-01-01T03:55:19Z</time>
      </trkpt>
      <trkpt lat="44.10565" lon="2.98941">
        <ele>562.2</ele>
        <time>2010-01-01T03:55:24Z</time>
      </trkpt>
      <trkpt lat="44.1055" lon="2.98936">
        <ele>563.3</ele>
        <time>2010-01-01T03:55:30Z</time>
      </trkpt>
      <trkpt lat="44.1054" lon="2.98932">
        <ele>563.9</ele>
        <time>2010-01-01T03:55:34Z</time>
      </trkpt>
      <trkpt lat="44.10527" lon="2.98927">
        <ele>564.8</ele>
        <time>2010-01-01T03:55:39Z</time>
      </trkpt>
      <trkpt lat="44.10514" lon="2.98918">
        <ele>566.6</ele>
        <time>2010-01-01T03:55:45Z</time>
      </trkpt>
      <trkpt lat="44.10505" lon="2.98907">
        <ele>569.2</ele>
        <time>2010-01-01T03:55:50Z</time>
      </trkpt>
      <trkpt lat="44.10496" lon="2.98891">
        <ele>572.8</ele>
        <time>2010-01-01T03:55:56Z</time>
      </trkpt>
      <trkpt lat="44.10488" lon="2.98878">
        <ele>575.4</ele>
        <time>2010-01-01T03:56:01Z</time>
      </trkpt>
      <trkpt lat="44.10476" lon="2.98861">
        <ele>578.7</ele>
        <time>2010-01-01T03:56:08Z</time>
      </trkpt>
      <trkpt lat="44.10464" lon="2.98847">
        <ele>580.7</ele>
        <time>2010-01-01T03:56:14Z</time>
      </trkpt>
      <trkpt lat="44.1045" lon="2.98836">
        <ele>581.7</ele>
        <time>2010-01-01T03:56:20Z</time>
      </trkpt>
      <trkpt lat="44.10437" lon="2.98828">
        <ele>581.6</ele>
        <time>2010-01-01T03:56:26Z</time>
      </trkpt>
      <trkpt lat="44.10427" lon="2.98819">
        <ele>582.2</ele>
        <time>2010-01-01T03:56:31Z</time>
      </trkpt>
      <trkpt lat="44.10417" lon="2.98812">
        <ele>582.5</ele>
        <time>2010-01-01T03:56:35Z</time>
      </trkpt>
      <trkpt lat="44.10407" lon="2.98806">
        <ele>583.9</ele>
        <time>2010-01-01T03:56:40Z</time>
      </trkpt>
      <trkpt lat="44.10396" lon="2.98797">
        <ele>586.1</ele>
        <time>2010-01-01T03:56:45Z</time>
      </trkpt>
      <trkpt lat="44.10389" lon="2.98789">
        <ele>588.1</ele>
        <time>2010-01-01T03:56:48Z</time>
      </trkpt>
      <trkpt lat="44.10384" lon="2.9878">
        <ele>590.3</ele>
        <time>2010-01-01T03:56:52Z</time>
      </trkpt>
      <trkpt lat="44.1038" lon="2.98764">
        <ele>594.1</ele>
        <time>2010-01-01T03:56:56Z</time>
      </trkpt>
      <trkpt lat="44.1038" lon="2.98758">
        <ele>595.5</ele>
        <time>2010-01-01T03:56:58Z</time>
      </trkpt>
      <trkpt lat="44.10379" lon="2.98748">
        <ele>597.6</ele>
        <time>2010-01-01T03:57:01Z</time>
      </trkpt>
      <trkpt lat="44.10375" lon="2.98736">
        <ele>597.9</ele>
        <time>2010-01-01T03:57:05Z</time>
      </trkpt>
      <trkpt lat="44.10372" lon="2.98728">
        <ele>598.1</ele>
        <time>2010-01-01T03:57:08Z</time>
      </trkpt>
      <trkpt lat="44.10374" lon="2.98723">
        <ele>598.3</ele>
        <time>2010-01-01T03:57:09Z</time>
      </trkpt>
      <trkpt lat="44.10382" lon="2.98719">
        <ele>598.7</ele>
        <time>2010-01-01T03:57:13Z</time>
      </trkpt>
      <trkpt lat="44.10394" lon="2.98717">
        <ele>599.4</ele>
        <time>2010-01-01T03:57:17Z</time>
      </trkpt>
      <trkpt lat="44.10403" lon="2.98714">
        <ele>599.9</ele>
        <time>2010-01-01T03:57:21Z</time>
      </trkpt>
      <trkpt lat="44.10414" lon="2.98709">
        <ele>600.8</ele>
        <time>2010-01-01T03:57:26Z</time>
      </trkpt>
      <trkpt lat="44.10425" lon="2.98704">
        <ele>602.8</ele>
        <time>2010-01-01T03:57:30Z</time>
      </trkpt>
      <trkpt lat="44.10438" lon="2.98699">
        <ele>605.3</ele>
        <time>2010-01-01T03:57:36Z</time>
      </trkpt>
      <trkpt lat="44.10449" lon="2.98694">
        <ele>607.4</ele>
        <time>2010-01-01T03:57:40Z</time>
      </trkpt>
      <trkpt lat="44.10459" lon="2.9869">
        <ele>609.5</ele>
        <time>2010-01-01T03:57:45Z</time>
      </trkpt>
      <trkpt lat="44.10475" lon="2.98683">
        <ele>612.6</ele>
        <time>2010-01-01T03:57:51Z</time>
      </trkpt>
      <trkpt lat="44.10485" lon="2.98681">
        <ele>614.4</ele>
        <time>2010-01-01T03:57:55Z</time>
      </trkpt>
      <trkpt lat="44.10496" lon="2.98678">
        <ele>616.4</ele>
        <time>2010-01-01T03:58:00Z</time>
      </trkpt>
      <trkpt lat="44.10505" lon="2.98677">
        <ele>618</ele>
        <time>2010-01-01T03:58:03Z</time>
      </trkpt>
      <trkpt lat="44.10514" lon="2.98676">
        <ele>619.3</ele>
        <time>2010-01-01T03:58:07Z</time>
      </trkpt>
      <trkpt lat="44.10525" lon="2.98674">
        <ele>621</ele>
        <time>2010-01-01T03:58:11Z</time>
      </trkpt>
      <trkpt lat="44.10538" lon="2.98672">
        <ele>623.1</ele>
        <time>2010-01-01T03:58:17Z</time>
      </trkpt>
      <trkpt lat="44.10548" lon="2.98669">
        <ele>624.8</ele>
        <time>2010-01-01T03:58:21Z</time>
      </trkpt>
      <trkpt lat="44.10559" lon="2.98663">
        <ele>626.4</ele>
        <time>2010-01-01T03:58:26Z</time>
      </trkpt>
      <trkpt lat="44.10574" lon="2.98656">
        <ele>628.2</ele>
        <time>2010-01-01T03:58:32Z</time>
      </trkpt>
      <trkpt lat="44.10587" lon="2.98649">
        <ele>629.5</ele>
        <time>2010-01-01T03:58:37Z</time>
      </trkpt>
      <trkpt lat="44.10601" lon="2.98639">
        <ele>630.4</ele>
        <time>2010-01-01T03:58:44Z</time>
      </trkpt>
      <trkpt lat="44.10614" lon="2.98631">
        <ele>631.4</ele>
        <time>2010-01-01T03:58:50Z</time>
      </trkpt>
      <trkpt lat="44.10632" lon="2.98621">
        <ele>632.9</ele>
        <time>2010-01-01T03:58:57Z</time>
      </trkpt>
      <trkpt lat="44.10649" lon="2.98611">
        <ele>634.5</ele>
        <time>2010-01-01T03:59:05Z</time>
      </trkpt>
      <trkpt lat="44.10665" lon="2.98602">
        <ele>636</ele>
        <time>2010-01-01T03:59:11Z</time>
      </trkpt>
      <trkpt lat="44.10684" lon="2.98584">
        <ele>637.7</ele>
        <time>2010-01-01T03:59:21Z</time>
      </trkpt>
      <trkpt lat="44.10698" lon="2.98569">
        <ele>638.4</ele>
        <time>2010-01-01T03:59:28Z</time>
      </trkpt>
      <trkpt lat="44.10717" lon="2.98553">
        <ele>639.6</ele>
        <time>2010-01-01T03:59:37Z</time>
      </trkpt>
      <trkpt lat="44.10731" lon="2.9854">
        <ele>640.5</ele>
        <time>2010-01-01T03:59:43Z</time>
      </trkpt>
      <trkpt lat="44.10755" lon="2.98523">
        <ele>642.2</ele>
        <time>2010-01-01T03:59:54Z</time>
      </trkpt>
      <trkpt lat="44.10777" lon="2.98508">
        <ele>643.8</ele>
        <time>2010-01-01T04:00:04Z</time>
      </trkpt>
      <trkpt lat="44.10797" lon="2.9849">
        <ele>645.6</ele>
        <time>2010-01-01T04:00:13Z</time>
      </trkpt>
      <trkpt lat="44.1081" lon="2.98474">
        <ele>647.2</ele>
        <time>2010-01-01T04:00:20Z</time>
      </trkpt>
      <trkpt lat="44.10817" lon="2.98454">
        <ele>648.3</ele>
        <time>2010-01-01T04:00:27Z</time>
      </trkpt>
      <trkpt lat="44.10813" lon="2.98436">
        <ele>648.2</ele>
        <time>2010-01-01T04:00:32Z</time>
      </trkpt>
      <trkpt lat="44.10804" lon="2.98416">
        <ele>647.5</ele>
        <time>2010-01-01T04:00:39Z</time>
      </trkpt>
      <trkpt lat="44.10795" lon="2.98386">
        <ele>647.3</ele>
        <time>2010-01-01T04:00:48Z</time>
      </trkpt>
      <trkpt lat="44.10788" lon="2.98349">
        <ele>647.5</ele>
        <time>2010-01-01T04:00:59Z</time>
      </trkpt>
      <trkpt lat="44.1078" lon="2.98311">
        <ele>648.4</ele>
        <time>2010-01-01T04:01:11Z</time>
      </trkpt>
      <trkpt lat="44.10762" lon="2.98269">
        <ele>649</ele>
        <time>2010-01-01T04:01:25Z</time>
      </trkpt>
      <trkpt lat="44.1074" lon="2.98226">
        <ele>649.3</ele>
        <time>2010-01-01T04:01:40Z</time>
      </trkpt>
      <trkpt lat="44.10721" lon="2.98208">
        <ele>648.6</ele>
        <time>2010-01-01T04:01:49Z</time>
      </trkpt>
      <trkpt lat="44.10693" lon="2.98186">
        <ele>647.2</ele>
        <time>2010-01-01T04:02:02Z</time>
      </trkpt>
      <trkpt lat="44.10687" lon="2.98169">
        <ele>647.6</ele>
        <time>2010-01-01T04:02:08Z</time>
      </trkpt>
      <trkpt lat="44.10692" lon="2.98148">
        <ele>646.1</ele>
        <time>2010-01-01T04:02:14Z</time>
      </trkpt>
      <trkpt lat="44.10696" lon="2.98136">
        <ele>645.1</ele>
        <time>2010-01-01T04:02:18Z</time>
      </trkpt>
      <trkpt lat="44.10715" lon="2.98111">
        <ele>644.1</ele>
        <time>2010-01-01T04:02:28Z</time>
      </trkpt>
      <trkpt lat="44.1072" lon="2.98108">
        <ele>644.3</ele>
        <time>2010-01-01T04:02:30Z</time>
      </trkpt>
      <trkpt lat="44.10748" lon="2.9809">
        <ele>645.4</ele>
        <time>2010-01-01T04:02:43Z</time>
      </trkpt>
      <trkpt lat="44.10783" lon="2.98068">
        <ele>644.6</ele>
        <time>2010-01-01T04:02:58Z</time>
      </trkpt>
      <trkpt lat="44.1082" lon="2.98045">
        <ele>643.1</ele>
        <time>2010-01-01T04:03:14Z</time>
      </trkpt>
      <trkpt lat="44.10854" lon="2.98028">
        <ele>642</ele>
        <time>2010-01-01T04:03:29Z</time>
      </trkpt>
      <trkpt lat="44.10898" lon="2.98017">
        <ele>642</ele>
        <time>2010-01-01T04:03:47Z</time>
      </trkpt>
      <trkpt lat="44.10945" lon="2.9801">
        <ele>643</ele>
        <time>2010-01-01T04:04:05Z</time>
      </trkpt>
      <trkpt lat="44.10991" lon="2.97995">
        <ele>642.8</ele>
        <time>2010-01-01T04:04:25Z</time>
      </trkpt>
      <trkpt lat="44.11036" lon="2.9797">
        <ele>644.7</ele>
        <time>2010-01-01T04:04:44Z</time>
      </trkpt>
      <trkpt lat="44.11069" lon="2.97946">
        <ele>645.8</ele>
        <time>2010-01-01T04:04:59Z</time>
      </trkpt>
      <trkpt lat="44.11103" lon="2.97914">
        <ele>646.6</ele>
        <time>2010-01-01T04:05:15Z</time>
      </trkpt>
      <trkpt lat="44.11112" lon="2.97886">
        <ele>650</ele>
        <time>2010-01-01T04:05:24Z</time>
      </trkpt>
      <trkpt lat="44.11107" lon="2.97869">
        <ele>650.9</ele>
        <time>2010-01-01T04:05:29Z</time>
      </trkpt>
      <trkpt lat="44.11105" lon="2.97866">
        <ele>651</ele>
        <time>2010-01-01T04:05:31Z</time>
      </trkpt>
      <trkpt lat="44.11084" lon="2.97842">
        <ele>651.2</ele>
        <time>2010-01-01T04:05:41Z</time>
      </trkpt>
      <trkpt lat="44.11059" lon="2.97822">
        <ele>650.1</ele>
        <time>2010-01-01T04:05:53Z</time>
      </trkpt>
      <trkpt lat="44.11034" lon="2.97807">
        <ele>648.6</ele>
        <time>2010-01-01T04:06:04Z</time>
      </trkpt>
      <trkpt lat="44.11011" lon="2.97783">
        <ele>648.7</ele>
        <time>2010-01-01T04:06:15Z</time>
      </trkpt>
      <trkpt lat="44.10999" lon="2.97752">
        <ele>651.4</ele>
        <time>2010-01-01T04:06:25Z</time>
      </trkpt>
      <trkpt lat="44.10997" lon="2.9772">
        <ele>652</ele>
        <time>2010-01-01T04:06:34Z</time>
      </trkpt>
      <trkpt lat="44.11003" lon="2.97688">
        <ele>654.1</ele>
        <time>2010-01-01T04:06:44Z</time>
      </trkpt>
      <trkpt lat="44.11017" lon="2.97657">
        <ele>657.2</ele>
        <time>2010-01-01T04:06:54Z</time>
      </trkpt>
      <trkpt lat="44.11033" lon="2.97626">
        <ele>659.8</ele>
        <time>2010-01-01T04:07:06Z</time>
      </trkpt>
      <trkpt lat="44.11053" lon="2.97589">
        <ele>663</ele>
        <time>2010-01-01T04:07:19Z</time>
      </trkpt>
      <trkpt lat="44.11061" lon="2.97566">
        <ele>665.7</ele>
        <time>2010-01-01T04:07:26Z</time>
      </trkpt>
      <trkpt lat="44.11062" lon="2.97541">
        <ele>667.8</ele>
        <time>2010-01-01T04:07:34Z</time>
      </trkpt>
      <trkpt lat="44.11055" lon="2.97512">
        <ele>669</ele>
        <time>2010-01-01T04:07:43Z</time>
      </trkpt>
      <trkpt lat="44.11039" lon="2.97494">
        <ele>669.3</ele>
        <time>2010-01-01T04:07:51Z</time>
      </trkpt>
      <trkpt lat="44.11024" lon="2.97488">
        <ele>668.7</ele>
        <time>2010-01-01T04:07:57Z</time>
      </trkpt>
      <trkpt lat="44.11012" lon="2.9748">
        <ele>668.8</ele>
        <time>2010-01-01T04:08:02Z</time>
      </trkpt>
      <trkpt lat="44.10999" lon="2.9747">
        <ele>669.4</ele>
        <time>2010-01-01T04:08:08Z</time>
      </trkpt>
      <trkpt lat="44.10988" lon="2.97458">
        <ele>670.2</ele>
        <time>2010-01-01T04:08:14Z</time>
      </trkpt>
      <trkpt lat="44.10973" lon="2.9745">
        <ele>669.9</ele>
        <time>2010-01-01T04:08:20Z</time>
      </trkpt>
      <trkpt lat="44.10961" lon="2.97439">
        <ele>670.3</ele>
        <time>2010-01-01T04:08:26Z</time>
      </trkpt>
      <trkpt lat="44.10948" lon="2.97422">
        <ele>671.8</ele>
        <time>2010-01-01T04:08:33Z</time>
      </trkpt>
      <trkpt lat="44.10937" lon="2.974">
        <ele>671.6</ele>
        <time>2010-01-01T04:08:41Z</time>
      </trkpt>
      <trkpt lat="44.10937" lon="2.97383">
        <ele>671.7</ele>
        <time>2010-01-01T04:08:46Z</time>
      </trkpt>
      <trkpt lat="44.10946" lon="2.97369">
        <ele>673.3</ele>
        <time>2010-01-01T04:08:51Z</time>
      </trkpt>
      <trkpt lat="44.10958" lon="2.97361">
        <ele>675.5</ele>
        <time>2010-01-01T04:08:56Z</time>
      </trkpt>
      <trkpt lat="44.1097" lon="2.97357">
        <ele>677.9</ele>
        <time>2010-01-01T04:09:01Z</time>
      </trkpt>
      <trkpt lat="44.1098" lon="2.97354">
        <ele>679.9</ele>
        <time>2010-01-01T04:09:06Z</time>
      </trkpt>
      <trkpt lat="44.10988" lon="2.97352">
        <ele>681.4</ele>
        <time>2010-01-01T04:09:09Z</time>
      </trkpt>
      <trkpt lat="44.11003" lon="2.97348">
        <ele>684.4</ele>
        <time>2010-01-01T04:09:15Z</time>
      </trkpt>
      <trkpt lat="44.11016" lon="2.97342">
        <ele>686.4</ele>
        <time>2010-01-01T04:09:20Z</time>
      </trkpt>
      <trkpt lat="44.11024" lon="2.97331">
        <ele>688.1</ele>
        <time>2010-01-01T04:09:25Z</time>
      </trkpt>
      <trkpt lat="44.11031" lon="2.97317">
        <ele>688.1</ele>
        <time>2010-01-01T04:09:30Z</time>
      </trkpt>
      <trkpt lat="44.11035" lon="2.97309">
        <ele>688.4</ele>
        <time>2010-01-01T04:09:33Z</time>
      </trkpt>
      <trkpt lat="44.11042" lon="2.97292">
        <ele>688.6</ele>
        <time>2010-01-01T04:09:38Z</time>
      </trkpt>
      <trkpt lat="44.1105" lon="2.97276">
        <ele>689.4</ele>
        <time>2010-01-01T04:09:44Z</time>
      </trkpt>
      <trkpt lat="44.11064" lon="2.97257">
        <ele>691.3</ele>
        <time>2010-01-01T04:09:52Z</time>
      </trkpt>
      <trkpt lat="44.11079" lon="2.97232">
        <ele>692.5</ele>
        <time>2010-01-01T04:10:01Z</time>
      </trkpt>
      <trkpt lat="44.11091" lon="2.97209">
        <ele>692.9</ele>
        <time>2010-01-01T04:10:09Z</time>
      </trkpt>
      <trkpt lat="44.11103" lon="2.97188">
        <ele>693.8</ele>
        <time>2010-01-01T04:10:17Z</time>
      </trkpt>
      <trkpt lat="44.11113" lon="2.97162">
        <ele>694.9</ele>
        <time>2010-01-01T04:10:25Z</time>
      </trkpt>
      <trkpt lat="44.11121" lon="2.9714">
        <ele>696.8</ele>
        <time>2010-01-01T04:10:32Z</time>
      </trkpt>
      <trkpt lat="44.11121" lon="2.9713">
        <ele>697.1</ele>
        <time>2010-01-01T04:10:35Z</time>
      </trkpt>
      <trkpt lat="44.11113" lon="2.97096">
        <ele>695.1</ele>
        <time>2010-01-01T04:10:45Z</time>
      </trkpt>
      <trkpt lat="44.11108" lon="2.97089">
        <ele>693.8</ele>
        <time>2010-01-01T04:10:48Z</time>
      </trkpt>
      <trkpt lat="44.11081" lon="2.97061">
        <ele>686.6</ele>
        <time>2010-01-01T04:11:02Z</time>
      </trkpt>
      <trkpt lat="44.11054" lon="2.97019">
        <ele>678.7</ele>
        <time>2010-01-01T04:11:18Z</time>
      </trkpt>
      <trkpt lat="44.11045" lon="2.96976">
        <ele>675.8</ele>
        <time>2010-01-01T04:11:31Z</time>
      </trkpt>
      <trkpt lat="44.11042" lon="2.96896">
        <ele>673.1</ele>
        <time>2010-01-01T04:11:54Z</time>
      </trkpt>
      <trkpt lat="44.11041" lon="2.96844">
        <ele>669.9</ele>
        <time>2010-01-01T04:12:09Z</time>
      </trkpt>
      <trkpt lat="44.11041" lon="2.96826">
        <ele>668.7</ele>
        <time>2010-01-01T04:12:14Z</time>
      </trkpt>
      <trkpt lat="44.11041" lon="2.96742">
        <ele>662.3</ele>
        <time>2010-01-01T04:12:38Z</time>
      </trkpt>
      <trkpt lat="44.11038" lon="2.96637">
        <ele>656.6</ele>
        <time>2010-01-01T04:13:08Z</time>
      </trkpt>
      <trkpt lat="44.11043" lon="2.96553">
        <ele>654.7</ele>
        <time>2010-01-01T04:13:32Z</time>
      </trkpt>
      <trkpt lat="44.11042" lon="2.96524">
        <ele>653.5</ele>
        <time>2010-01-01T04:13:41Z</time>
      </trkpt>
      <trkpt lat="44.11051" lon="2.96457">
        <ele>652.6</ele>
        <time>2010-01-01T04:14:00Z</time>
      </trkpt>
      <trkpt lat="44.11062" lon="2.96404">
        <ele>652.6</ele>
        <time>2010-01-01T04:14:16Z</time>
      </trkpt>
      <trkpt lat="44.11066" lon="2.96365">
        <ele>652.5</ele>
        <time>2010-01-01T04:14:28Z</time>
      </trkpt>
      <trkpt lat="44.11074" lon="2.96312">
        <ele>653.1</ele>
        <time>2010-01-01T04:14:43Z</time>
      </trkpt>
      <trkpt lat="44.11089" lon="2.96233">
        <ele>655.5</ele>
        <time>2010-01-01T04:15:06Z</time>
      </trkpt>
      <trkpt lat="44.11095" lon="2.96179">
        <ele>657.4</ele>
        <time>2010-01-01T04:15:22Z</time>
      </trkpt>
      <trkpt lat="44.111" lon="2.96134">
        <ele>659.6</ele>
        <time>2010-01-01T04:15:35Z</time>
      </trkpt>
      <trkpt lat="44.11107" lon="2.96101">
        <ele>662.2</ele>
        <time>2010-01-01T04:15:45Z</time>
      </trkpt>
      <trkpt lat="44.11112" lon="2.96061">
        <ele>665.2</ele>
        <time>2010-01-01T04:15:57Z</time>
      </trkpt>
      <trkpt lat="44.11112" lon="2.96027">
        <ele>667.3</ele>
        <time>2010-01-01T04:16:07Z</time>
      </trkpt>
      <trkpt lat="44.11107" lon="2.96001">
        <ele>668.1</ele>
        <time>2010-01-01T04:16:14Z</time>
      </trkpt>
      <trkpt lat="44.11101" lon="2.95973">
        <ele>668.8</ele>
        <time>2010-01-01T04:16:23Z</time>
      </trkpt>
      <trkpt lat="44.11102" lon="2.95945">
        <ele>670.3</ele>
        <time>2010-01-01T04:16:31Z</time>
      </trkpt>
      <trkpt lat="44.1111" lon="2.95922">
        <ele>672.3</ele>
        <time>2010-01-01T04:16:38Z</time>
      </trkpt>
      <trkpt lat="44.1112" lon="2.95902">
        <ele>673.6</ele>
        <time>2010-01-01T04:16:45Z</time>
      </trkpt>
      <trkpt lat="44.11123" lon="2.95883">
        <ele>674.1</ele>
        <time>2010-01-01T04:16:51Z</time>
      </trkpt>
      <trkpt lat="44.1113" lon="2.95851">
        <ele>674.8</ele>
        <time>2010-01-01T04:17:01Z</time>
      </trkpt>
      <trkpt lat="44.11142" lon="2.95814">
        <ele>676</ele>
        <time>2010-01-01T04:17:12Z</time>
      </trkpt>
      <trkpt lat="44.11156" lon="2.95766">
        <ele>677.8</ele>
        <time>2010-01-01T04:17:27Z</time>
      </trkpt>
      <trkpt lat="44.11164" lon="2.95728">
        <ele>679.3</ele>
        <time>2010-01-01T04:17:38Z</time>
      </trkpt>
      <trkpt lat="44.11162" lon="2.957">
        <ele>679.9</ele>
        <time>2010-01-01T04:17:46Z</time>
      </trkpt>
      <trkpt lat="44.11157" lon="2.95671">
        <ele>680.7</ele>
        <time>2010-01-01T04:17:55Z</time>
      </trkpt>
      <trkpt lat="44.11152" lon="2.95658">
        <ele>681.9</ele>
        <time>2010-01-01T04:17:59Z</time>
      </trkpt>
      <trkpt lat="44.11138" lon="2.95651">
        <ele>682.6</ele>
        <time>2010-01-01T04:18:05Z</time>
      </trkpt>
      <trkpt lat="44.11126" lon="2.95643">
        <ele>683.7</ele>
        <time>2010-01-01T04:18:11Z</time>
      </trkpt>
      <trkpt lat="44.11115" lon="2.95635">
        <ele>684.8</ele>
        <time>2010-01-01T04:18:16Z</time>
      </trkpt>
      <trkpt lat="44.11102" lon="2.95624">
        <ele>686.4</ele>
        <time>2010-01-01T04:18:22Z</time>
      </trkpt>
      <trkpt lat="44.11089" lon="2.95612">
        <ele>688.5</ele>
        <time>2010-01-01T04:18:28Z</time>
      </trkpt>
      <trkpt lat="44.11077" lon="2.95599">
        <ele>689.7</ele>
        <time>2010-01-01T04:18:34Z</time>
      </trkpt>
      <trkpt lat="44.11068" lon="2.95587">
        <ele>690.2</ele>
        <time>2010-01-01T04:18:39Z</time>
      </trkpt>
      <trkpt lat="44.1106" lon="2.95576">
        <ele>690.4</ele>
        <time>2010-01-01T04:18:43Z</time>
      </trkpt>
      <trkpt lat="44.11053" lon="2.95563">
        <ele>690.6</ele>
        <time>2010-01-01T04:18:48Z</time>
      </trkpt>
      <trkpt lat="44.11047" lon="2.95548">
        <ele>691.2</ele>
        <time>2010-01-01T04:18:53Z</time>
      </trkpt>
      <trkpt lat="44.11042" lon="2.95533">
        <ele>692.1</ele>
        <time>2010-01-01T04:18:58Z</time>
      </trkpt>
      <trkpt lat="44.11037" lon="2.95515">
        <ele>693.4</ele>
        <time>2010-01-01T04:19:03Z</time>
      </trkpt>
      <trkpt lat="44.11035" lon="2.95495">
        <ele>695.2</ele>
        <time>2010-01-01T04:19:09Z</time>
      </trkpt>
      <trkpt lat="44.11035" lon="2.95473">
        <ele>697.1</ele>
        <time>2010-01-01T04:19:16Z</time>
      </trkpt>
      <trkpt lat="44.11038" lon="2.95452">
        <ele>699.2</ele>
        <time>2010-01-01T04:19:22Z</time>
      </trkpt>
      <trkpt lat="44.11039" lon="2.95426">
        <ele>701.5</ele>
        <time>2010-01-01T04:19:29Z</time>
      </trkpt>
      <trkpt lat="44.11039" lon="2.95405">
        <ele>703</ele>
        <time>2010-01-01T04:19:35Z</time>
      </trkpt>
      <trkpt lat="44.11031" lon="2.95378">
        <ele>704.2</ele>
        <time>2010-01-01T04:19:43Z</time>
      </trkpt>
      <trkpt lat="44.1102" lon="2.95344">
        <ele>705.7</ele>
        <time>2010-01-01T04:19:54Z</time>
      </trkpt>
      <trkpt lat="44.11003" lon="2.9531">
        <ele>706.6</ele>
        <time>2010-01-01T04:20:06Z</time>
      </trkpt>
      <trkpt lat="44.10987" lon="2.95297">
        <ele>707.5</ele>
        <time>2010-01-01T04:20:14Z</time>
      </trkpt>
      <trkpt lat="44.10968" lon="2.95282">
        <ele>708.8</ele>
        <time>2010-01-01T04:20:22Z</time>
      </trkpt>
      <trkpt lat="44.10947" lon="2.95277">
        <ele>709.6</ele>
        <time>2010-01-01T04:20:31Z</time>
      </trkpt>
      <trkpt lat="44.10937" lon="2.95268">
        <ele>710.4</ele>
        <time>2010-01-01T04:20:36Z</time>
      </trkpt>
      <trkpt lat="44.10921" lon="2.95239">
        <ele>711.9</ele>
        <time>2010-01-01T04:20:46Z</time>
      </trkpt>
      <trkpt lat="44.10901" lon="2.95209">
        <ele>712.7</ele>
        <time>2010-01-01T04:20:58Z</time>
      </trkpt>
      <trkpt lat="44.10883" lon="2.95187">
        <ele>713.4</ele>
        <time>2010-01-01T04:21:08Z</time>
      </trkpt>
      <trkpt lat="44.10864" lon="2.95169">
        <ele>713.9</ele>
        <time>2010-01-01T04:21:17Z</time>
      </trkpt>
      <trkpt lat="44.10843" lon="2.95153">
        <ele>714.1</ele>
        <time>2010-01-01T04:21:26Z</time>
      </trkpt>
      <trkpt lat="44.10817" lon="2.95139">
        <ele>712.6</ele>
        <time>2010-01-01T04:21:38Z</time>
      </trkpt>
      <trkpt lat="44.10785" lon="2.95115">
        <ele>709.8</ele>
        <time>2010-01-01T04:21:52Z</time>
      </trkpt>
      <trkpt lat="44.1075" lon="2.95091">
        <ele>707.2</ele>
        <time>2010-01-01T04:22:08Z</time>
      </trkpt>
      <trkpt lat="44.10739" lon="2.95084">
        <ele>706.5</ele>
        <time>2010-01-01T04:22:13Z</time>
      </trkpt>
      <trkpt lat="44.10701" lon="2.95062">
        <ele>703.3</ele>
        <time>2010-01-01T04:22:29Z</time>
      </trkpt>
      <trkpt lat="44.10667" lon="2.95039">
        <ele>700.9</ele>
        <time>2010-01-01T04:22:44Z</time>
      </trkpt>
      <trkpt lat="44.10642" lon="2.95023">
        <ele>699.8</ele>
        <time>2010-01-01T04:22:55Z</time>
      </trkpt>
      <trkpt lat="44.10626" lon="2.95013">
        <ele>699.5</ele>
        <time>2010-01-01T04:23:02Z</time>
      </trkpt>
      <trkpt lat="44.10599" lon="2.94988">
        <ele>698.7</ele>
        <time>2010-01-01T04:23:15Z</time>
      </trkpt>
      <trkpt lat="44.10569" lon="2.94969">
        <ele>697</ele>
        <time>2010-01-01T04:23:28Z</time>
      </trkpt>
      <trkpt lat="44.10553" lon="2.94963">
        <ele>696.2</ele>
        <time>2010-01-01T04:23:35Z</time>
      </trkpt>
      <trkpt lat="44.10528" lon="2.94937">
        <ele>694.9</ele>
        <time>2010-01-01T04:23:48Z</time>
      </trkpt>
      <trkpt lat="44.1052" lon="2.94928">
        <ele>694.8</ele>
        <time>2010-01-01T04:23:51Z</time>
      </trkpt>
      <trkpt lat="44.1051" lon="2.94911">
        <ele>693.8</ele>
        <time>2010-01-01T04:23:58Z</time>
      </trkpt>
      <trkpt lat="44.10483" lon="2.94882">
        <ele>687.9</ele>
        <time>2010-01-01T04:24:11Z</time>
      </trkpt>
      <trkpt lat="44.10464" lon="2.94872">
        <ele>685.3</ele>
        <time>2010-01-01T04:24:20Z</time>
      </trkpt>
      <trkpt lat="44.1044" lon="2.94867">
        <ele>683.6</ele>
        <time>2010-01-01T04:24:29Z</time>
      </trkpt>
      <trkpt lat="44.10414" lon="2.94876">
        <ele>683.4</ele>
        <time>2010-01-01T04:24:40Z</time>
      </trkpt>
      <trkpt lat="44.10378" lon="2.94881">
        <ele>680.7</ele>
        <time>2010-01-01T04:24:54Z</time>
      </trkpt>
      <trkpt lat="44.1036" lon="2.94881">
        <ele>679</ele>
        <time>2010-01-01T04:25:02Z</time>
      </trkpt>
      <trkpt lat="44.10329" lon="2.94863">
        <ele>677.3</ele>
        <time>2010-01-01T04:25:15Z</time>
      </trkpt>
      <trkpt lat="44.10314" lon="2.9484">
        <ele>677.3</ele>
        <time>2010-01-01T04:25:24Z</time>
      </trkpt>
      <trkpt lat="44.10291" lon="2.94818">
        <ele>676.3</ele>
        <time>2010-01-01T04:25:35Z</time>
      </trkpt>
      <trkpt lat="44.10275" lon="2.94804">
        <ele>675.4</ele>
        <time>2010-01-01T04:25:43Z</time>
      </trkpt>
      <trkpt lat="44.10261" lon="2.94776">
        <ele>675.5</ele>
        <time>2010-01-01T04:25:53Z</time>
      </trkpt>
      <trkpt lat="44.1026" lon="2.9477">
        <ele>675.7</ele>
        <time>2010-01-01T04:25:55Z</time>
      </trkpt>
      <trkpt lat="44.10256" lon="2.94746">
        <ele>676.7</ele>
        <time>2010-01-01T04:26:02Z</time>
      </trkpt>
      <trkpt lat="44.10247" lon="2.94695">
        <ele>678.1</ele>
        <time>2010-01-01T04:26:17Z</time>
      </trkpt>
      <trkpt lat="44.10239" lon="2.94655">
        <ele>677.7</ele>
        <time>2010-01-01T04:26:29Z</time>
      </trkpt>
      <trkpt lat="44.10227" lon="2.94627">
        <ele>675.2</ele>
        <time>2010-01-01T04:26:38Z</time>
      </trkpt>
      <trkpt lat="44.1022" lon="2.94604">
        <ele>673.4</ele>
        <time>2010-01-01T04:26:45Z</time>
      </trkpt>
      <trkpt lat="44.10204" lon="2.94555">
        <ele>668.9</ele>
        <time>2010-01-01T04:27:01Z</time>
      </trkpt>
      <trkpt lat="44.10183" lon="2.94493">
        <ele>664.4</ele>
        <time>2010-01-01T04:27:20Z</time>
      </trkpt>
      <trkpt lat="44.10168" lon="2.94459">
        <ele>663.6</ele>
        <time>2010-01-01T04:27:32Z</time>
      </trkpt>
      <trkpt lat="44.10157" lon="2.94432">
        <ele>662.6</ele>
        <time>2010-01-01T04:27:41Z</time>
      </trkpt>
      <trkpt lat="44.10148" lon="2.94389">
        <ele>662.9</ele>
        <time>2010-01-01T04:27:54Z</time>
      </trkpt>
      <trkpt lat="44.10142" lon="2.9437">
        <ele>662.6</ele>
        <time>2010-01-01T04:28:00Z</time>
      </trkpt>
      <trkpt lat="44.10138" lon="2.94359">
        <ele>662.4</ele>
        <time>2010-01-01T04:28:03Z</time>
      </trkpt>
      <trkpt lat="44.10125" lon="2.94316">
        <ele>660.8</ele>
        <time>2010-01-01T04:28:17Z</time>
      </trkpt>
      <trkpt lat="44.1011" lon="2.94279">
        <ele>657.6</ele>
        <time>2010-01-01T04:28:29Z</time>
      </trkpt>
      <trkpt lat="44.10098" lon="2.94253">
        <ele>655.7</ele>
        <time>2010-01-01T04:28:38Z</time>
      </trkpt>
      <trkpt lat="44.10081" lon="2.9423">
        <ele>652.1</ele>
        <time>2010-01-01T04:28:47Z</time>
      </trkpt>
      <trkpt lat="44.1004" lon="2.94194">
        <ele>647.8</ele>
        <time>2010-01-01T04:29:07Z</time>
      </trkpt>
      <trkpt lat="44.10034" lon="2.9419">
        <ele>647.5</ele>
        <time>2010-01-01T04:29:09Z</time>
      </trkpt>
      <trkpt lat="44.10023" lon="2.94172">
        <ele>647</ele>
        <time>2010-01-01T04:29:16Z</time>
      </trkpt>
      <trkpt lat="44.10028" lon="2.94163">
        <ele>646.4</ele>
        <time>2010-01-01T04:29:20Z</time>
      </trkpt>
      <trkpt lat="44.10049" lon="2.94148">
        <ele>643.5</ele>
        <time>2010-01-01T04:29:29Z</time>
      </trkpt>
      <trkpt lat="44.10063" lon="2.94143">
        <ele>642</ele>
        <time>2010-01-01T04:29:34Z</time>
      </trkpt>
      <trkpt lat="44.1008" lon="2.94139">
        <ele>640.1</ele>
        <time>2010-01-01T04:29:42Z</time>
      </trkpt>
      <trkpt lat="44.1011" lon="2.94129">
        <ele>637</ele>
        <time>2010-01-01T04:29:54Z</time>
      </trkpt>
      <trkpt lat="44.10115" lon="2.94127">
        <ele>636.6</ele>
        <time>2010-01-01T04:29:56Z</time>
      </trkpt>
      <trkpt lat="44.10134" lon="2.94117">
        <ele>633.4</ele>
        <time>2010-01-01T04:30:04Z</time>
      </trkpt>
      <trkpt lat="44.1014" lon="2.94113">
        <ele>632</ele>
        <time>2010-01-01T04:30:07Z</time>
      </trkpt>
      <trkpt lat="44.1015" lon="2.94106">
        <ele>629.5</ele>
        <time>2010-01-01T04:30:11Z</time>
      </trkpt>
      <trkpt lat="44.10171" lon="2.94092">
        <ele>625.2</ele>
        <time>2010-01-01T04:30:21Z</time>
      </trkpt>
      <trkpt lat="44.10188" lon="2.94078">
        <ele>622.4</ele>
        <time>2010-01-01T04:30:28Z</time>
      </trkpt>
      <trkpt lat="44.10213" lon="2.94049">
        <ele>614</ele>
        <time>2010-01-01T04:30:42Z</time>
      </trkpt>
      <trkpt lat="44.10226" lon="2.94037">
        <ele>610.7</ele>
        <time>2010-01-01T04:30:48Z</time>
      </trkpt>
      <trkpt lat="44.10244" lon="2.94013">
        <ele>603.4</ele>
        <time>2010-01-01T04:30:58Z</time>
      </trkpt>
      <trkpt lat="44.10254" lon="2.93997">
        <ele>598.7</ele>
        <time>2010-01-01T04:31:04Z</time>
      </trkpt>
      <trkpt lat="44.10268" lon="2.93979">
        <ele>593.8</ele>
        <time>2010-01-01T04:31:11Z</time>
      </trkpt>
      <trkpt lat="44.1028" lon="2.93956">
        <ele>587.3</ele>
        <time>2010-01-01T04:31:19Z</time>
      </trkpt>
      <trkpt lat="44.10294" lon="2.93938">
        <ele>583.3</ele>
        <time>2010-01-01T04:31:27Z</time>
      </trkpt>
      <trkpt lat="44.10331" lon="2.93913">
        <ele>581.9</ele>
        <time>2010-01-01T04:31:44Z</time>
      </trkpt>
      <trkpt lat="44.10334" lon="2.9391">
        <ele>580.9</ele>
        <time>2010-01-01T04:31:45Z</time>
      </trkpt>
      <trkpt lat="44.10345" lon="2.93894">
        <ele>572.9</ele>
        <time>2010-01-01T04:31:52Z</time>
      </trkpt>
      <trkpt lat="44.10358" lon="2.93872">
        <ele>563.4</ele>
        <time>2010-01-01T04:32:00Z</time>
      </trkpt>
      <trkpt lat="44.10364" lon="2.93859">
        <ele>559</ele>
        <time>2010-01-01T04:32:04Z</time>
      </trkpt>
      <trkpt lat="44.10372" lon="2.93847">
        <ele>555.1</ele>
        <time>2010-01-01T04:32:09Z</time>
      </trkpt>
      <trkpt lat="44.10383" lon="2.9383">
        <ele>550.8</ele>
        <time>2010-01-01T04:32:15Z</time>
      </trkpt>
      <trkpt lat="44.10398" lon="2.93819">
        <ele>549.8</ele>
        <time>2010-01-01T04:32:22Z</time>
      </trkpt>
      <trkpt lat="44.10408" lon="2.93811">
        <ele>549.2</ele>
        <time>2010-01-01T04:32:27Z</time>
      </trkpt>
      <trkpt lat="44.10424" lon="2.9379">
        <ele>543.6</ele>
        <time>2010-01-01T04:32:35Z</time>
      </trkpt>
      <trkpt lat="44.10428" lon="2.93778">
        <ele>539.6</ele>
        <time>2010-01-01T04:32:39Z</time>
      </trkpt>
      <trkpt lat="44.10434" lon="2.93759">
        <ele>534.3</ele>
        <time>2010-01-01T04:32:45Z</time>
      </trkpt>
      <trkpt lat="44.10435" lon="2.93737">
        <ele>530.1</ele>
        <time>2010-01-01T04:32:52Z</time>
      </trkpt>
      <trkpt lat="44.10433" lon="2.93721">
        <ele>527.3</ele>
        <time>2010-01-01T04:32:56Z</time>
      </trkpt>
      <trkpt lat="44.10434" lon="2.93717">
        <ele>526.3</ele>
        <time>2010-01-01T04:32:58Z</time>
      </trkpt>
      <trkpt lat="44.10437" lon="2.93711">
        <ele>524</ele>
        <time>2010-01-01T04:33:00Z</time>
      </trkpt>
      <trkpt lat="44.1044" lon="2.93715">
        <ele>524.2</ele>
        <time>2010-01-01T04:33:02Z</time>
      </trkpt>
      <trkpt lat="44.10446" lon="2.93729">
        <ele>525.4</ele>
        <time>2010-01-01T04:33:06Z</time>
      </trkpt>
      <trkpt lat="44.10451" lon="2.9373">
        <ele>524.1</ele>
        <time>2010-01-01T04:33:08Z</time>
      </trkpt>
      <trkpt lat="44.10451" lon="2.93721">
        <ele>522.6</ele>
        <time>2010-01-01T04:33:11Z</time>
      </trkpt>
      <trkpt lat="44.10446" lon="2.93705">
        <ele>520.8</ele>
        <time>2010-01-01T04:33:16Z</time>
      </trkpt>
      <trkpt lat="44.10438" lon="2.93699">
        <ele>521.5</ele>
        <time>2010-01-01T04:33:19Z</time>
      </trkpt>
      <trkpt lat="44.10437" lon="2.93699">
        <ele>521.7</ele>
        <time>2010-01-01T04:33:20Z</time>
      </trkpt>
      <trkpt lat="44.10431" lon="2.93694">
        <ele>522.1</ele>
        <time>2010-01-01T04:33:23Z</time>
      </trkpt>
      <trkpt lat="44.10415" lon="2.93691">
        <ele>524.2</ele>
        <time>2010-01-01T04:33:29Z</time>
      </trkpt>
      <trkpt lat="44.10407" lon="2.93695">
        <ele>522.4</ele>
        <time>2010-01-01T04:33:33Z</time>
      </trkpt>
      <trkpt lat="44.10404" lon="2.93695">
        <ele>521.7</ele>
        <time>2010-01-01T04:33:34Z</time>
      </trkpt>
      <trkpt lat="44.10404" lon="2.93692">
        <ele>520.5</ele>
        <time>2010-01-01T04:33:35Z</time>
      </trkpt>
      <trkpt lat="44.10403" lon="2.93691">
        <ele>520.3</ele>
        <time>2010-01-01T04:33:35Z</time>
      </trkpt>
      <trkpt lat="44.10405" lon="2.93679">
        <ele>517.9</ele>
        <time>2010-01-01T04:33:38Z</time>
      </trkpt>
      <trkpt lat="44.10411" lon="2.93669">
        <ele>517.6</ele>
        <time>2010-01-01T04:33:42Z</time>
      </trkpt>
      <trkpt lat="44.10418" lon="2.93661">
        <ele>516.9</ele>
        <time>2010-01-01T04:33:46Z</time>
      </trkpt>
      <trkpt lat="44.10426" lon="2.93658">
        <ele>514.5</ele>
        <time>2010-01-01T04:33:49Z</time>
      </trkpt>
      <trkpt lat="44.1044" lon="2.93656">
        <ele>511.5</ele>
        <time>2010-01-01T04:33:55Z</time>
      </trkpt>
      <trkpt lat="44.1045" lon="2.93657">
        <ele>509.7</ele>
        <time>2010-01-01T04:33:59Z</time>
      </trkpt>
      <trkpt lat="44.10459" lon="2.93659">
        <ele>508.6</ele>
        <time>2010-01-01T04:34:02Z</time>
      </trkpt>
      <trkpt lat="44.10469" lon="2.93662">
        <ele>507.6</ele>
        <time>2010-01-01T04:34:06Z</time>
      </trkpt>
      <trkpt lat="44.10474" lon="2.93663">
        <ele>507</ele>
        <time>2010-01-01T04:34:08Z</time>
      </trkpt>
      <trkpt lat="44.10474" lon="2.93663">
        <ele>507.1</ele>
        <time>2010-01-01T04:34:09Z</time>
      </trkpt>
      <trkpt lat="44.10483" lon="2.93674">
        <ele>507.4</ele>
        <time>2010-01-01T04:34:13Z</time>
      </trkpt>
      <trkpt lat="44.10489" lon="2.93686">
        <ele>507.9</ele>
        <time>2010-01-01T04:34:18Z</time>
      </trkpt>
      <trkpt lat="44.10496" lon="2.937">
        <ele>508.3</ele>
        <time>2010-01-01T04:34:22Z</time>
      </trkpt>
      <trkpt lat="44.10504" lon="2.93715">
        <ele>507.5</ele>
        <time>2010-01-01T04:34:28Z</time>
      </trkpt>
      <trkpt lat="44.10511" lon="2.93731">
        <ele>505.7</ele>
        <time>2010-01-01T04:34:33Z</time>
      </trkpt>
      <trkpt lat="44.10516" lon="2.93729">
        <ele>502.7</ele>
        <time>2010-01-01T04:34:35Z</time>
      </trkpt>
      <trkpt lat="44.10516" lon="2.93727">
        <ele>502.5</ele>
        <time>2010-01-01T04:34:36Z</time>
      </trkpt>
      <trkpt lat="44.10514" lon="2.93709">
        <ele>501.3</ele>
        <time>2010-01-01T04:34:41Z</time>
      </trkpt>
      <trkpt lat="44.10513" lon="2.93697">
        <ele>500.4</ele>
        <time>2010-01-01T04:34:44Z</time>
      </trkpt>
      <trkpt lat="44.10513" lon="2.93697">
        <ele>500.2</ele>
        <time>2010-01-01T04:34:44Z</time>
      </trkpt>
      <trkpt lat="44.10514" lon="2.93687">
        <ele>498.7</ele>
        <time>2010-01-01T04:34:47Z</time>
      </trkpt>
      <trkpt lat="44.10514" lon="2.9368">
        <ele>497.8</ele>
        <time>2010-01-01T04:34:49Z</time>
      </trkpt>
      <trkpt lat="44.10511" lon="2.93668">
        <ele>497.5</ele>
        <time>2010-01-01T04:34:53Z</time>
      </trkpt>
      <trkpt lat="44.10511" lon="2.93655">
        <ele>495.1</ele>
        <time>2010-01-01T04:34:57Z</time>
      </trkpt>
      <trkpt lat="44.10509" lon="2.93638">
        <ele>492.1</ele>
        <time>2010-01-01T04:35:02Z</time>
      </trkpt>
      <trkpt lat="44.10504" lon="2.93621">
        <ele>490.1</ele>
        <time>2010-01-01T04:35:07Z</time>
      </trkpt>
      <trkpt lat="44.10501" lon="2.9361">
        <ele>488.9</ele>
        <time>2010-01-01T04:35:10Z</time>
      </trkpt>
      <trkpt lat="44.10496" lon="2.93597">
        <ele>486.6</ele>
        <time>2010-01-01T04:35:14Z</time>
      </trkpt>
      <trkpt lat="44.10492" lon="2.93583">
        <ele>483.8</ele>
        <time>2010-01-01T04:35:19Z</time>
      </trkpt>
      <trkpt lat="44.10491" lon="2.93576">
        <ele>482</ele>
        <time>2010-01-01T04:35:21Z</time>
      </trkpt>
      <trkpt lat="44.10493" lon="2.93576">
        <ele>481.9</ele>
        <time>2010-01-01T04:35:22Z</time>
      </trkpt>
      <trkpt lat="44.10495" lon="2.93576">
        <ele>481.7</ele>
        <time>2010-01-01T04:35:23Z</time>
      </trkpt>
      <trkpt lat="44.10504" lon="2.93583">
        <ele>481.2</ele>
        <time>2010-01-01T04:35:27Z</time>
      </trkpt>
      <trkpt lat="44.1051" lon="2.93581">
        <ele>478.5</ele>
        <time>2010-01-01T04:35:29Z</time>
      </trkpt>
      <trkpt lat="44.1051" lon="2.93579">
        <ele>478</ele>
        <time>2010-01-01T04:35:30Z</time>
      </trkpt>
      <trkpt lat="44.10506" lon="2.93563">
        <ele>476.1</ele>
        <time>2010-01-01T04:35:35Z</time>
      </trkpt>
      <trkpt lat="44.10498" lon="2.93554">
        <ele>476</ele>
        <time>2010-01-01T04:35:39Z</time>
      </trkpt>
      <trkpt lat="44.10493" lon="2.93544">
        <ele>474.1</ele>
        <time>2010-01-01T04:35:42Z</time>
      </trkpt>
      <trkpt lat="44.10487" lon="2.93532">
        <ele>471.2</ele>
        <time>2010-01-01T04:35:47Z</time>
      </trkpt>
      <trkpt lat="44.10475" lon="2.93517">
        <ele>467.9</ele>
        <time>2010-01-01T04:35:53Z</time>
      </trkpt>
      <trkpt lat="44.10467" lon="2.93512">
        <ele>466.8</ele>
        <time>2010-01-01T04:35:56Z</time>
      </trkpt>
      <trkpt lat="44.10459" lon="2.93508">
        <ele>465.7</ele>
        <time>2010-01-01T04:36:00Z</time>
      </trkpt>
      <trkpt lat="44.10452" lon="2.93499">
        <ele>463.5</ele>
        <time>2010-01-01T04:36:03Z</time>
      </trkpt>
      <trkpt lat="44.10451" lon="2.93496">
        <ele>462.9</ele>
        <time>2010-01-01T04:36:04Z</time>
      </trkpt>
      <trkpt lat="44.10441" lon="2.93487">
        <ele>460.9</ele>
        <time>2010-01-01T04:36:09Z</time>
      </trkpt>
      <trkpt lat="44.10425" lon="2.93481">
        <ele>459.4</ele>
        <time>2010-01-01T04:36:16Z</time>
      </trkpt>
      <trkpt lat="44.10416" lon="2.93482">
        <ele>459.4</ele>
        <time>2010-01-01T04:36:20Z</time>
      </trkpt>
      <trkpt lat="44.10413" lon="2.93483">
        <ele>459.3</ele>
        <time>2010-01-01T04:36:21Z</time>
      </trkpt>
      <trkpt lat="44.10407" lon="2.93481">
        <ele>458.3</ele>
        <time>2010-01-01T04:36:23Z</time>
      </trkpt>
      <trkpt lat="44.10406" lon="2.93482">
        <ele>458.2</ele>
        <time>2010-01-01T04:36:24Z</time>
      </trkpt>
      <trkpt lat="44.10398" lon="2.93479">
        <ele>456.7</ele>
        <time>2010-01-01T04:36:27Z</time>
      </trkpt>
      <trkpt lat="44.10396" lon="2.93478">
        <ele>456.3</ele>
        <time>2010-01-01T04:36:28Z</time>
      </trkpt>
      <trkpt lat="44.10392" lon="2.93476">
        <ele>455.3</ele>
        <time>2010-01-01T04:36:30Z</time>
      </trkpt>
      <trkpt lat="44.10389" lon="2.93478">
        <ele>455.5</ele>
        <time>2010-01-01T04:36:31Z</time>
      </trkpt>
      <trkpt lat="44.1038" lon="2.9348">
        <ele>455</ele>
        <time>2010-01-01T04:36:34Z</time>
      </trkpt>
      <trkpt lat="44.10378" lon="2.9348">
        <ele>454.8</ele>
        <time>2010-01-01T04:36:35Z</time>
      </trkpt>
      <trkpt lat="44.10376" lon="2.93478">
        <ele>454.2</ele>
        <time>2010-01-01T04:36:36Z</time>
      </trkpt>
      <trkpt lat="44.10368" lon="2.93477">
        <ele>453</ele>
        <time>2010-01-01T04:36:39Z</time>
      </trkpt>
      <trkpt lat="44.10365" lon="2.93476">
        <ele>452.6</ele>
        <time>2010-01-01T04:36:41Z</time>
      </trkpt>
      <trkpt lat="44.10363" lon="2.93476">
        <ele>452.4</ele>
        <time>2010-01-01T04:36:41Z</time>
      </trkpt>
      <trkpt lat="44.10362" lon="2.93475">
        <ele>452</ele>
        <time>2010-01-01T04:36:42Z</time>
      </trkpt>
      <trkpt lat="44.10354" lon="2.93472">
        <ele>450.7</ele>
        <time>2010-01-01T04:36:45Z</time>
      </trkpt>
      <trkpt lat="44.10345" lon="2.93469">
        <ele>449.4</ele>
        <time>2010-01-01T04:36:49Z</time>
      </trkpt>
      <trkpt lat="44.10339" lon="2.93469">
        <ele>448.7</ele>
        <time>2010-01-01T04:36:51Z</time>
      </trkpt>
      <trkpt lat="44.10336" lon="2.93468">
        <ele>448.2</ele>
        <time>2010-01-01T04:36:53Z</time>
      </trkpt>
      <trkpt lat="44.10331" lon="2.93467">
        <ele>447.2</ele>
        <time>2010-01-01T04:36:55Z</time>
      </trkpt>
      <trkpt lat="44.10323" lon="2.93465">
        <ele>445</ele>
        <time>2010-01-01T04:36:58Z</time>
      </trkpt>
      <trkpt lat="44.10316" lon="2.93464">
        <ele>443</ele>
        <time>2010-01-01T04:37:01Z</time>
      </trkpt>
      <trkpt lat="44.10304" lon="2.93457">
        <ele>439.4</ele>
        <time>2010-01-01T04:37:06Z</time>
      </trkpt>
      <trkpt lat="44.10302" lon="2.93455">
        <ele>438.6</ele>
        <time>2010-01-01T04:37:07Z</time>
      </trkpt>
      <trkpt lat="44.10292" lon="2.93459">
        <ele>436.8</ele>
        <time>2010-01-01T04:37:11Z</time>
      </trkpt>
      <trkpt lat="44.1029" lon="2.93463">
        <ele>436.7</ele>
        <time>2010-01-01T04:37:12Z</time>
      </trkpt>
      <trkpt lat="44.10276" lon="2.9349">
        <ele>436.1</ele>
        <time>2010-01-01T04:37:22Z</time>
      </trkpt>
      <trkpt lat="44.10254" lon="2.93523">
        <ele>434.1</ele>
        <time>2010-01-01T04:37:35Z</time>
      </trkpt>
      <trkpt lat="44.1025" lon="2.93527">
        <ele>433.6</ele>
        <time>2010-01-01T04:37:37Z</time>
      </trkpt>
      <trkpt lat="44.10227" lon="2.93541">
        <ele>435.4</ele>
        <time>2010-01-01T04:37:47Z</time>
      </trkpt>
      <trkpt lat="44.1021" lon="2.93544">
        <ele>435.9</ele>
        <time>2010-01-01T04:37:54Z</time>
      </trkpt>
      <trkpt lat="44.10201" lon="2.93543">
        <ele>435.7</ele>
        <time>2010-01-01T04:37:57Z</time>
      </trkpt>
      <trkpt lat="44.10197" lon="2.93526">
        <ele>432.9</ele>
        <time>2010-01-01T04:38:03Z</time>
      </trkpt>
      <trkpt lat="44.10196" lon="2.93511">
        <ele>430.5</ele>
        <time>2010-01-01T04:38:07Z</time>
      </trkpt>
      <trkpt lat="44.10193" lon="2.93488">
        <ele>426.9</ele>
        <time>2010-01-01T04:38:14Z</time>
      </trkpt>
      <trkpt lat="44.10197" lon="2.93448">
        <ele>421.6</ele>
        <time>2010-01-01T04:38:25Z</time>
      </trkpt>
      <trkpt lat="44.102" lon="2.93431">
        <ele>419.4</ele>
        <time>2010-01-01T04:38:30Z</time>
      </trkpt>
      <trkpt lat="44.10196" lon="2.93397">
        <ele>414.3</ele>
        <time>2010-01-01T04:38:40Z</time>
      </trkpt>
      <trkpt lat="44.10176" lon="2.93364">
        <ele>407.8</ele>
        <time>2010-01-01T04:38:52Z</time>
      </trkpt>
      <trkpt lat="44.1015" lon="2.93322">
        <ele>405.4</ele>
        <time>2010-01-01T04:39:08Z</time>
      </trkpt>
      <trkpt lat="44.10112" lon="2.93263">
        <ele>406.1</ele>
        <time>2010-01-01T04:39:31Z</time>
      </trkpt>
      <trkpt lat="44.10095" lon="2.93234">
        <ele>405.2</ele>
        <time>2010-01-01T04:39:42Z</time>
      </trkpt>
      <trkpt lat="44.10086" lon="2.93208">
        <ele>402.5</ele>
        <time>2010-01-01T04:39:50Z</time>
      </trkpt>
      <trkpt lat="44.10084" lon="2.93203">
        <ele>402</ele>
        <time>2010-01-01T04:39:52Z</time>
      </trkpt>
      <trkpt lat="44.1007" lon="2.93166">
        <ele>398.1</ele>
        <time>2010-01-01T04:40:04Z</time>
      </trkpt>
      <trkpt lat="44.10074" lon="2.93161">
        <ele>396.4</ele>
        <time>2010-01-01T04:40:06Z</time>
      </trkpt>
      <trkpt lat="44.1008" lon="2.93167">
        <ele>396.5</ele>
        <time>2010-01-01T04:40:09Z</time>
      </trkpt>
      <trkpt lat="44.10087" lon="2.93174">
        <ele>396.6</ele>
        <time>2010-01-01T04:40:12Z</time>
      </trkpt>
      <trkpt lat="44.10098" lon="2.93166">
        <ele>393.5</ele>
        <time>2010-01-01T04:40:17Z</time>
      </trkpt>
      <trkpt lat="44.10103" lon="2.93159">
        <ele>391.3</ele>
        <time>2010-01-01T04:40:20Z</time>
      </trkpt>
      <trkpt lat="44.10099" lon="2.93134">
        <ele>387.7</ele>
        <time>2010-01-01T04:40:28Z</time>
      </trkpt>
      <trkpt lat="44.10095" lon="2.93115">
        <ele>384.8</ele>
        <time>2010-01-01T04:40:33Z</time>
      </trkpt>
      <trkpt lat="44.10086" lon="2.93102">
        <ele>383.4</ele>
        <time>2010-01-01T04:40:38Z</time>
      </trkpt>
      <trkpt lat="44.10078" lon="2.93088">
        <ele>381.7</ele>
        <time>2010-01-01T04:40:44Z</time>
      </trkpt>
      <trkpt lat="44.10074" lon="2.93077">
        <ele>380.8</ele>
        <time>2010-01-01T04:40:47Z</time>
      </trkpt>
      <trkpt lat="44.10071" lon="2.93072">
        <ele>380.8</ele>
        <time>2010-01-01T04:40:49Z</time>
      </trkpt>
      <trkpt lat="44.1007" lon="2.93049">
        <ele>378.4</ele>
        <time>2010-01-01T04:40:56Z</time>
      </trkpt>
      <trkpt lat="44.10072" lon="2.93013">
        <ele>374.4</ele>
        <time>2010-01-01T04:41:06Z</time>
      </trkpt>
      <trkpt lat="44.1008" lon="2.92996">
        <ele>373.6</ele>
        <time>2010-01-01T04:41:12Z</time>
      </trkpt>
      <trkpt lat="44.10084" lon="2.92994">
        <ele>373.9</ele>
        <time>2010-01-01T04:41:14Z</time>
      </trkpt>
      <trkpt lat="44.1009" lon="2.92986">
        <ele>375.5</ele>
        <time>2010-01-01T04:41:17Z</time>
      </trkpt>
      <trkpt lat="44.10095" lon="2.92978">
        <ele>377.1</ele>
        <time>2010-01-01T04:41:20Z</time>
      </trkpt>
      <trkpt lat="44.10098" lon="2.92977">
        <ele>377.5</ele>
        <time>2010-01-01T04:41:21Z</time>
      </trkpt>
      <trkpt lat="44.10099" lon="2.92976">
        <ele>377.6</ele>
        <time>2010-01-01T04:41:22Z</time>
      </trkpt>
      <trkpt lat="44.10103" lon="2.92973">
        <ele>378.3</ele>
        <time>2010-01-01T04:41:24Z</time>
      </trkpt>
      <trkpt lat="44.10104" lon="2.92972">
        <ele>378.6</ele>
        <time>2010-01-01T04:41:24Z</time>
      </trkpt>
      <trkpt lat="44.10114" lon="2.92968">
        <ele>379.9</ele>
        <time>2010-01-01T04:41:28Z</time>
      </trkpt>
      <trkpt lat="44.1012" lon="2.92963">
        <ele>381.2</ele>
        <time>2010-01-01T04:41:31Z</time>
      </trkpt>
      <trkpt lat="44.10124" lon="2.9296">
        <ele>381.9</ele>
        <time>2010-01-01T04:41:33Z</time>
      </trkpt>
      <trkpt lat="44.10135" lon="2.92961">
        <ele>382.5</ele>
        <time>2010-01-01T04:41:37Z</time>
      </trkpt>
      <trkpt lat="44.10145" lon="2.92963">
        <ele>382.7</ele>
        <time>2010-01-01T04:41:41Z</time>
      </trkpt>
      <trkpt lat="44.10158" lon="2.92963">
        <ele>383.6</ele>
        <time>2010-01-01T04:41:46Z</time>
      </trkpt>
      <trkpt lat="44.10173" lon="2.92958">
        <ele>386.4</ele>
        <time>2010-01-01T04:41:53Z</time>
      </trkpt>
      <trkpt lat="44.10183" lon="2.92954">
        <ele>389</ele>
        <time>2010-01-01T04:41:57Z</time>
      </trkpt>
      <trkpt lat="44.10193" lon="2.92954">
        <ele>391.1</ele>
        <time>2010-01-01T04:42:01Z</time>
      </trkpt>
      <trkpt lat="44.10203" lon="2.92956">
        <ele>392.7</ele>
        <time>2010-01-01T04:42:05Z</time>
      </trkpt>
      <trkpt lat="44.10208" lon="2.92956">
        <ele>393.8</ele>
        <time>2010-01-01T04:42:07Z</time>
      </trkpt>
      <trkpt lat="44.1022" lon="2.92958">
        <ele>395.9</ele>
        <time>2010-01-01T04:42:12Z</time>
      </trkpt>
      <trkpt lat="44.10229" lon="2.92957">
        <ele>397.9</ele>
        <time>2010-01-01T04:42:15Z</time>
      </trkpt>
      <trkpt lat="44.10237" lon="2.92957">
        <ele>399.5</ele>
        <time>2010-01-01T04:42:19Z</time>
      </trkpt>
      <trkpt lat="44.10242" lon="2.9296">
        <ele>400.2</ele>
        <time>2010-01-01T04:42:21Z</time>
      </trkpt>
      <trkpt lat="44.10244" lon="2.92963">
        <ele>400.3</ele>
        <time>2010-01-01T04:42:22Z</time>
      </trkpt>
      <trkpt lat="44.10248" lon="2.92965">
        <ele>400.9</ele>
        <time>2010-01-01T04:42:24Z</time>
      </trkpt>
      <trkpt lat="44.10252" lon="2.92968">
        <ele>401.1</ele>
        <time>2010-01-01T04:42:25Z</time>
      </trkpt>
      <trkpt lat="44.10254" lon="2.92972">
        <ele>401.1</ele>
        <time>2010-01-01T04:42:27Z</time>
      </trkpt>
      <trkpt lat="44.10257" lon="2.92975">
        <ele>401.2</ele>
        <time>2010-01-01T04:42:28Z</time>
      </trkpt>
      <trkpt lat="44.10262" lon="2.92981">
        <ele>401.4</ele>
        <time>2010-01-01T04:42:31Z</time>
      </trkpt>
      <trkpt lat="44.10267" lon="2.92988">
        <ele>401.6</ele>
        <time>2010-01-01T04:42:34Z</time>
      </trkpt>
      <trkpt lat="44.10269" lon="2.92991">
        <ele>401.7</ele>
        <time>2010-01-01T04:42:35Z</time>
      </trkpt>
      <trkpt lat="44.10273" lon="2.92997">
        <ele>401.9</ele>
        <time>2010-01-01T04:42:37Z</time>
      </trkpt>
      <trkpt lat="44.10274" lon="2.93">
        <ele>401.9</ele>
        <time>2010-01-01T04:42:38Z</time>
      </trkpt>
      <trkpt lat="44.1028" lon="2.93008">
        <ele>402.5</ele>
        <time>2010-01-01T04:42:41Z</time>
      </trkpt>
      <trkpt lat="44.10287" lon="2.93015">
        <ele>403.4</ele>
        <time>2010-01-01T04:42:45Z</time>
      </trkpt>
      <trkpt lat="44.10294" lon="2.93014">
        <ele>405</ele>
        <time>2010-01-01T04:42:48Z</time>
      </trkpt>
      <trkpt lat="44.10302" lon="2.93013">
        <ele>406.6</ele>
        <time>2010-01-01T04:42:51Z</time>
      </trkpt>
      <trkpt lat="44.10314" lon="2.93008">
        <ele>409.5</ele>
        <time>2010-01-01T04:42:56Z</time>
      </trkpt>
      <trkpt lat="44.10325" lon="2.93001">
        <ele>412.3</ele>
        <time>2010-01-01T04:43:01Z</time>
      </trkpt>
      <trkpt lat="44.10338" lon="2.92993">
        <ele>414.8</ele>
        <time>2010-01-01T04:43:06Z</time>
      </trkpt>
      <trkpt lat="44.10349" lon="2.92987">
        <ele>416.7</ele>
        <time>2010-01-01T04:43:11Z</time>
      </trkpt>
      <trkpt lat="44.10359" lon="2.92981">
        <ele>418.5</ele>
        <time>2010-01-01T04:43:16Z</time>
      </trkpt>
      <trkpt lat="44.10372" lon="2.92976">
        <ele>420.7</ele>
        <time>2010-01-01T04:43:21Z</time>
      </trkpt>
      <trkpt lat="44.10379" lon="2.92975">
        <ele>422</ele>
        <time>2010-01-01T04:43:24Z</time>
      </trkpt>
      <trkpt lat="44.10391" lon="2.92972">
        <ele>424</ele>
        <time>2010-01-01T04:43:29Z</time>
      </trkpt>
      <trkpt lat="44.10403" lon="2.9297">
        <ele>426.1</ele>
        <time>2010-01-01T04:43:33Z</time>
      </trkpt>
      <trkpt lat="44.10413" lon="2.9297">
        <ele>427.7</ele>
        <time>2010-01-01T04:43:37Z</time>
      </trkpt>
      <trkpt lat="44.10418" lon="2.9297">
        <ele>428.6</ele>
        <time>2010-01-01T04:43:39Z</time>
      </trkpt>
      <trkpt lat="44.10418" lon="2.9297">
        <ele>428.6</ele>
        <time>2010-01-01T04:43:40Z</time>
      </trkpt>
      <trkpt lat="44.10423" lon="2.9297">
        <ele>429.1</ele>
        <time>2010-01-01T04:43:41Z</time>
      </trkpt>
      <trkpt lat="44.10425" lon="2.92971">
        <ele>429.2</ele>
        <time>2010-01-01T04:43:42Z</time>
      </trkpt>
      <trkpt lat="44.10428" lon="2.92972">
        <ele>429.3</ele>
        <time>2010-01-01T04:43:44Z</time>
      </trkpt>
      <trkpt lat="44.10428" lon="2.92973">
        <ele>429.3</ele>
        <time>2010-01-01T04:43:44Z</time>
      </trkpt>
      <trkpt lat="44.10431" lon="2.92979">
        <ele>429.2</ele>
        <time>2010-01-01T04:43:46Z</time>
      </trkpt>
      <trkpt lat="44.10433" lon="2.92977">
        <ele>429.4</ele>
        <time>2010-01-01T04:43:47Z</time>
      </trkpt>
      <trkpt lat="44.10435" lon="2.92967">
        <ele>430.4</ele>
        <time>2010-01-01T04:43:50Z</time>
      </trkpt>
      <trkpt lat="44.10438" lon="2.92958">
        <ele>431.5</ele>
        <time>2010-01-01T04:43:52Z</time>
      </trkpt>
      <trkpt lat="44.10438" lon="2.92957">
        <ele>431.6</ele>
        <time>2010-01-01T04:43:53Z</time>
      </trkpt>
      <trkpt lat="44.10442" lon="2.92949">
        <ele>433.1</ele>
        <time>2010-01-01T04:43:56Z</time>
      </trkpt>
      <trkpt lat="44.10448" lon="2.92939">
        <ele>434.9</ele>
        <time>2010-01-01T04:43:59Z</time>
      </trkpt>
      <trkpt lat="44.10453" lon="2.92934">
        <ele>436.4</ele>
        <time>2010-01-01T04:44:02Z</time>
      </trkpt>
      <trkpt lat="44.10459" lon="2.92929">
        <ele>438.1</ele>
        <time>2010-01-01T04:44:05Z</time>
      </trkpt>
      <trkpt lat="44.10463" lon="2.92926">
        <ele>439.1</ele>
        <time>2010-01-01T04:44:06Z</time>
      </trkpt>
      <trkpt lat="44.10466" lon="2.92924">
        <ele>440</ele>
        <time>2010-01-01T04:44:08Z</time>
      </trkpt>
      <trkpt lat="44.10469" lon="2.92921">
        <ele>440.9</ele>
        <time>2010-01-01T04:44:09Z</time>
      </trkpt>
      <trkpt lat="44.10475" lon="2.92917">
        <ele>442.8</ele>
        <time>2010-01-01T04:44:12Z</time>
      </trkpt>
      <trkpt lat="44.10477" lon="2.92916">
        <ele>443.4</ele>
        <time>2010-01-01T04:44:13Z</time>
      </trkpt>
      <trkpt lat="44.1048" lon="2.92915">
        <ele>443.9</ele>
        <time>2010-01-01T04:44:14Z</time>
      </trkpt>
      <trkpt lat="44.1048" lon="2.92915">
        <ele>444.1</ele>
        <time>2010-01-01T04:44:14Z</time>
      </trkpt>
      <trkpt lat="44.10484" lon="2.92912">
        <ele>445</ele>
        <time>2010-01-01T04:44:16Z</time>
      </trkpt>
      <trkpt lat="44.10488" lon="2.9291">
        <ele>446</ele>
        <time>2010-01-01T04:44:17Z</time>
      </trkpt>
      <trkpt lat="44.10494" lon="2.92908">
        <ele>447.5</ele>
        <time>2010-01-01T04:44:20Z</time>
      </trkpt>
      <trkpt lat="44.105" lon="2.92907">
        <ele>448.9</ele>
        <time>2010-01-01T04:44:22Z</time>
      </trkpt>
      <trkpt lat="44.10501" lon="2.92907">
        <ele>448.9</ele>
        <time>2010-01-01T04:44:23Z</time>
      </trkpt>
      <trkpt lat="44.10502" lon="2.92909">
        <ele>448.8</ele>
        <time>2010-01-01T04:44:23Z</time>
      </trkpt>
      <trkpt lat="44.10505" lon="2.92905">
        <ele>449.3</ele>
        <time>2010-01-01T04:44:25Z</time>
      </trkpt>
      <trkpt lat="44.1051" lon="2.92899">
        <ele>450.1</ele>
        <time>2010-01-01T04:44:27Z</time>
      </trkpt>
      <trkpt lat="44.10515" lon="2.92889">
        <ele>451.5</ele>
        <time>2010-01-01T04:44:31Z</time>
      </trkpt>
      <trkpt lat="44.10519" lon="2.92879">
        <ele>453.1</ele>
        <time>2010-01-01T04:44:34Z</time>
      </trkpt>
      <trkpt lat="44.10521" lon="2.92869">
        <ele>454.6</ele>
        <time>2010-01-01T04:44:37Z</time>
      </trkpt>
      <trkpt lat="44.10522" lon="2.92855">
        <ele>456.7</ele>
        <time>2010-01-01T04:44:41Z</time>
      </trkpt>
      <trkpt lat="44.10524" lon="2.92842">
        <ele>458.8</ele>
        <time>2010-01-01T04:44:45Z</time>
      </trkpt>
      <trkpt lat="44.10524" lon="2.9283">
        <ele>460.5</ele>
        <time>2010-01-01T04:44:48Z</time>
      </trkpt>
      <trkpt lat="44.10524" lon="2.92829">
        <ele>460.8</ele>
        <time>2010-01-01T04:44:49Z</time>
      </trkpt>
      <trkpt lat="44.10528" lon="2.9283">
        <ele>461.1</ele>
        <time>2010-01-01T04:44:50Z</time>
      </trkpt>
      <trkpt lat="44.1053" lon="2.92847">
        <ele>458.9</ele>
        <time>2010-01-01T04:44:55Z</time>
      </trkpt>
      <trkpt lat="44.10538" lon="2.92869">
        <ele>456.2</ele>
        <time>2010-01-01T04:45:02Z</time>
      </trkpt>
      <trkpt lat="44.1054" lon="2.92872">
        <ele>456</ele>
        <time>2010-01-01T04:45:04Z</time>
      </trkpt>
      <trkpt lat="44.10559" lon="2.92872">
        <ele>457.6</ele>
        <time>2010-01-01T04:45:11Z</time>
      </trkpt>
      <trkpt lat="44.10588" lon="2.9287">
        <ele>460.6</ele>
        <time>2010-01-01T04:45:23Z</time>
      </trkpt>
      <trkpt lat="44.10613" lon="2.92869">
        <ele>462</ele>
        <time>2010-01-01T04:45:32Z</time>
      </trkpt>
      <trkpt lat="44.10627" lon="2.92872">
        <ele>461.8</ele>
        <time>2010-01-01T04:45:38Z</time>
      </trkpt>
      <trkpt lat="44.10642" lon="2.92875">
        <ele>461.9</ele>
        <time>2010-01-01T04:45:44Z</time>
      </trkpt>
      <trkpt lat="44.10656" lon="2.9287">
        <ele>464</ele>
        <time>2010-01-01T04:45:50Z</time>
      </trkpt>
      <trkpt lat="44.1067" lon="2.92863">
        <ele>466.4</ele>
        <time>2010-01-01T04:45:56Z</time>
      </trkpt>
      <trkpt lat="44.10683" lon="2.92858">
        <ele>467.7</ele>
        <time>2010-01-01T04:46:02Z</time>
      </trkpt>
      <trkpt lat="44.10687" lon="2.92857">
        <ele>468</ele>
        <time>2010-01-01T04:46:03Z</time>
      </trkpt>
      <trkpt lat="44.10704" lon="2.92853">
        <ele>469.2</ele>
        <time>2010-01-01T04:46:10Z</time>
      </trkpt>
      <trkpt lat="44.10722" lon="2.92849">
        <ele>470</ele>
        <time>2010-01-01T04:46:17Z</time>
      </trkpt>
      <trkpt lat="44.10732" lon="2.92847">
        <ele>470.6</ele>
        <time>2010-01-01T04:46:21Z</time>
      </trkpt>
      <trkpt lat="44.1074" lon="2.9284">
        <ele>472.4</ele>
        <time>2010-01-01T04:46:25Z</time>
      </trkpt>
      <trkpt lat="44.10752" lon="2.9283">
        <ele>474.4</ele>
        <time>2010-01-01T04:46:31Z</time>
      </trkpt>
      <trkpt lat="44.10764" lon="2.92824">
        <ele>474.1</ele>
        <time>2010-01-01T04:46:36Z</time>
      </trkpt>
      <trkpt lat="44.10779" lon="2.92811">
        <ele>474.9</ele>
        <time>2010-01-01T04:46:43Z</time>
      </trkpt>
      <trkpt lat="44.10791" lon="2.92802">
        <ele>475.6</ele>
        <time>2010-01-01T04:46:48Z</time>
      </trkpt>
      <trkpt lat="44.108" lon="2.92793">
        <ele>476.5</ele>
        <time>2010-01-01T04:46:53Z</time>
      </trkpt>
      <trkpt lat="44.10802" lon="2.92791">
        <ele>476.9</ele>
        <time>2010-01-01T04:46:54Z</time>
      </trkpt>
      <trkpt lat="44.1082" lon="2.92786">
        <ele>476.3</ele>
        <time>2010-01-01T04:47:01Z</time>
      </trkpt>
      <trkpt lat="44.1083" lon="2.92783">
        <ele>476</ele>
        <time>2010-01-01T04:47:05Z</time>
      </trkpt>
      <trkpt lat="44.10849" lon="2.92771">
        <ele>479.5</ele>
        <time>2010-01-01T04:47:13Z</time>
      </trkpt>
      <trkpt lat="44.10875" lon="2.92751">
        <ele>484.3</ele>
        <time>2010-01-01T04:47:26Z</time>
      </trkpt>
      <trkpt lat="44.10887" lon="2.92728">
        <ele>487.5</ele>
        <time>2010-01-01T04:47:34Z</time>
      </trkpt>
      <trkpt lat="44.10889" lon="2.92724">
        <ele>488</ele>
        <time>2010-01-01T04:47:35Z</time>
      </trkpt>
      <trkpt lat="44.10902" lon="2.92723">
        <ele>487.8</ele>
        <time>2010-01-01T04:47:40Z</time>
      </trkpt>
      <trkpt lat="44.10904" lon="2.92726">
        <ele>487.5</ele>
        <time>2010-01-01T04:47:41Z</time>
      </trkpt>
      <trkpt lat="44.10913" lon="2.92748">
        <ele>485.2</ele>
        <time>2010-01-01T04:47:49Z</time>
      </trkpt>
      <trkpt lat="44.1092" lon="2.9276">
        <ele>485</ele>
        <time>2010-01-01T04:47:53Z</time>
      </trkpt>
      <trkpt lat="44.10923" lon="2.92776">
        <ele>484.6</ele>
        <time>2010-01-01T04:47:58Z</time>
      </trkpt>
      <trkpt lat="44.10924" lon="2.9278">
        <ele>484.5</ele>
        <time>2010-01-01T04:47:59Z</time>
      </trkpt>
      <trkpt lat="44.10927" lon="2.92778">
        <ele>485.6</ele>
        <time>2010-01-01T04:48:01Z</time>
      </trkpt>
      <trkpt lat="44.10929" lon="2.92764">
        <ele>487.1</ele>
        <time>2010-01-01T04:48:04Z</time>
      </trkpt>
      <trkpt lat="44.10929" lon="2.92738">
        <ele>489.6</ele>
        <time>2010-01-01T04:48:12Z</time>
      </trkpt>
      <trkpt lat="44.10929" lon="2.92708">
        <ele>492.4</ele>
        <time>2010-01-01T04:48:21Z</time>
      </trkpt>
      <trkpt lat="44.10929" lon="2.9268">
        <ele>494.9</ele>
        <time>2010-01-01T04:48:29Z</time>
      </trkpt>
      <trkpt lat="44.10927" lon="2.92656">
        <ele>496.9</ele>
        <time>2010-01-01T04:48:36Z</time>
      </trkpt>
      <trkpt lat="44.10924" lon="2.92626">
        <ele>499</ele>
        <time>2010-01-01T04:48:44Z</time>
      </trkpt>
      <trkpt lat="44.1092" lon="2.92601">
        <ele>500.2</ele>
        <time>2010-01-01T04:48:52Z</time>
      </trkpt>
      <trkpt lat="44.10915" lon="2.92577">
        <ele>501.9</ele>
        <time>2010-01-01T04:48:59Z</time>
      </trkpt>
      <trkpt lat="44.10913" lon="2.9257">
        <ele>502.9</ele>
        <time>2010-01-01T04:49:01Z</time>
      </trkpt>
      <trkpt lat="44.10907" lon="2.92545">
        <ele>506.3</ele>
        <time>2010-01-01T04:49:09Z</time>
      </trkpt>
      <trkpt lat="44.10911" lon="2.92539">
        <ele>506.8</ele>
        <time>2010-01-01T04:49:11Z</time>
      </trkpt>
      <trkpt lat="44.10915" lon="2.92545">
        <ele>505.7</ele>
        <time>2010-01-01T04:49:14Z</time>
      </trkpt>
      <trkpt lat="44.10928" lon="2.9257">
        <ele>505.6</ele>
        <time>2010-01-01T04:49:23Z</time>
      </trkpt>
      <trkpt lat="44.10938" lon="2.92594">
        <ele>505.9</ele>
        <time>2010-01-01T04:49:31Z</time>
      </trkpt>
      <trkpt lat="44.10948" lon="2.92613">
        <ele>506.7</ele>
        <time>2010-01-01T04:49:37Z</time>
      </trkpt>
      <trkpt lat="44.10957" lon="2.9263">
        <ele>507.4</ele>
        <time>2010-01-01T04:49:43Z</time>
      </trkpt>
      <trkpt lat="44.10965" lon="2.92647">
        <ele>507.7</ele>
        <time>2010-01-01T04:49:49Z</time>
      </trkpt>
      <trkpt lat="44.10975" lon="2.92666">
        <ele>508.4</ele>
        <time>2010-01-01T04:49:56Z</time>
      </trkpt>
      <trkpt lat="44.10987" lon="2.92685">
        <ele>509.9</ele>
        <time>2010-01-01T04:50:03Z</time>
      </trkpt>
      <trkpt lat="44.10999" lon="2.92703">
        <ele>511.7</ele>
        <time>2010-01-01T04:50:10Z</time>
      </trkpt>
      <trkpt lat="44.11012" lon="2.92723">
        <ele>512.9</ele>
        <time>2010-01-01T04:50:18Z</time>
      </trkpt>
      <trkpt lat="44.11021" lon="2.92736">
        <ele>513.9</ele>
        <time>2010-01-01T04:50:23Z</time>
      </trkpt>
      <trkpt lat="44.11033" lon="2.92756">
        <ele>515</ele>
        <time>2010-01-01T04:50:31Z</time>
      </trkpt>
      <trkpt lat="44.11046" lon="2.92772">
        <ele>516.4</ele>
        <time>2010-01-01T04:50:38Z</time>
      </trkpt>
      <trkpt lat="44.11047" lon="2.92773">
        <ele>516.6</ele>
        <time>2010-01-01T04:50:38Z</time>
      </trkpt>
      <trkpt lat="44.11054" lon="2.92767">
        <ele>518.7</ele>
        <time>2010-01-01T04:50:42Z</time>
      </trkpt>
      <trkpt lat="44.11053" lon="2.92751">
        <ele>520</ele>
        <time>2010-01-01T04:50:46Z</time>
      </trkpt>
      <trkpt lat="44.11052" lon="2.92748">
        <ele>520.1</ele>
        <time>2010-01-01T04:50:47Z</time>
      </trkpt>
      <trkpt lat="44.11038" lon="2.92712">
        <ele>519.7</ele>
        <time>2010-01-01T04:50:59Z</time>
      </trkpt>
      <trkpt lat="44.11024" lon="2.92675">
        <ele>519.6</ele>
        <time>2010-01-01T04:51:11Z</time>
      </trkpt>
      <trkpt lat="44.11011" lon="2.92637">
        <ele>520.7</ele>
        <time>2010-01-01T04:51:23Z</time>
      </trkpt>
      <trkpt lat="44.11002" lon="2.92607">
        <ele>521.9</ele>
        <time>2010-01-01T04:51:32Z</time>
      </trkpt>
      <trkpt lat="44.10993" lon="2.92564">
        <ele>524.7</ele>
        <time>2010-01-01T04:51:45Z</time>
      </trkpt>
      <trkpt lat="44.10985" lon="2.92525">
        <ele>527.4</ele>
        <time>2010-01-01T04:51:57Z</time>
      </trkpt>
      <trkpt lat="44.10978" lon="2.92488">
        <ele>530.2</ele>
        <time>2010-01-01T04:52:08Z</time>
      </trkpt>
      <trkpt lat="44.10972" lon="2.92463">
        <ele>532.2</ele>
        <time>2010-01-01T04:52:16Z</time>
      </trkpt>
      <trkpt lat="44.1097" lon="2.92455">
        <ele>532.7</ele>
        <time>2010-01-01T04:52:18Z</time>
      </trkpt>
      <trkpt lat="44.1096" lon="2.9242">
        <ele>535.4</ele>
        <time>2010-01-01T04:52:29Z</time>
      </trkpt>
      <trkpt lat="44.10947" lon="2.92406">
        <ele>535.5</ele>
        <time>2010-01-01T04:52:35Z</time>
      </trkpt>
      <trkpt lat="44.10942" lon="2.92404">
        <ele>534.8</ele>
        <time>2010-01-01T04:52:37Z</time>
      </trkpt>
      <trkpt lat="44.10941" lon="2.92397">
        <ele>536.6</ele>
        <time>2010-01-01T04:52:40Z</time>
      </trkpt>
      <trkpt lat="44.10949" lon="2.92398">
        <ele>537.8</ele>
        <time>2010-01-01T04:52:43Z</time>
      </trkpt>
      <trkpt lat="44.10951" lon="2.92398">
        <ele>538.2</ele>
        <time>2010-01-01T04:52:43Z</time>
      </trkpt>
      <trkpt lat="44.10967" lon="2.92406">
        <ele>539.9</ele>
        <time>2010-01-01T04:52:50Z</time>
      </trkpt>
      <trkpt lat="44.10982" lon="2.92424">
        <ele>540.1</ele>
        <time>2010-01-01T04:52:58Z</time>
      </trkpt>
      <trkpt lat="44.10996" lon="2.92436">
        <ele>541.6</ele>
        <time>2010-01-01T04:53:05Z</time>
      </trkpt>
      <trkpt lat="44.11012" lon="2.9245">
        <ele>543.9</ele>
        <time>2010-01-01T04:53:12Z</time>
      </trkpt>
      <trkpt lat="44.11023" lon="2.92461">
        <ele>544.9</ele>
        <time>2010-01-01T04:53:18Z</time>
      </trkpt>
      <trkpt lat="44.11037" lon="2.92481">
        <ele>545.6</ele>
        <time>2010-01-01T04:53:26Z</time>
      </trkpt>
      <trkpt lat="44.11053" lon="2.92504">
        <ele>546</ele>
        <time>2010-01-01T04:53:35Z</time>
      </trkpt>
      <trkpt lat="44.11068" lon="2.92525">
        <ele>546.6</ele>
        <time>2010-01-01T04:53:44Z</time>
      </trkpt>
      <trkpt lat="44.11093" lon="2.92549">
        <ele>548.4</ele>
        <time>2010-01-01T04:53:56Z</time>
      </trkpt>
      <trkpt lat="44.11099" lon="2.92555">
        <ele>548.4</ele>
        <time>2010-01-01T04:53:59Z</time>
      </trkpt>
      <trkpt lat="44.11108" lon="2.92577">
        <ele>546.7</ele>
        <time>2010-01-01T04:54:06Z</time>
      </trkpt>
      <trkpt lat="44.11121" lon="2.92621">
        <ele>542.5</ele>
        <time>2010-01-01T04:54:20Z</time>
      </trkpt>
      <trkpt lat="44.11123" lon="2.92628">
        <ele>541.8</ele>
        <time>2010-01-01T04:54:22Z</time>
      </trkpt>
      <trkpt lat="44.11128" lon="2.92652">
        <ele>539.6</ele>
        <time>2010-01-01T04:54:29Z</time>
      </trkpt>
      <trkpt lat="44.11131" lon="2.92655">
        <ele>539.6</ele>
        <time>2010-01-01T04:54:30Z</time>
      </trkpt>
      <trkpt lat="44.11142" lon="2.92669">
        <ele>539</ele>
        <time>2010-01-01T04:54:36Z</time>
      </trkpt>
      <trkpt lat="44.11162" lon="2.92682">
        <ele>539.4</ele>
        <time>2010-01-01T04:54:45Z</time>
      </trkpt>
      <trkpt lat="44.11181" lon="2.92672">
        <ele>539.7</ele>
        <time>2010-01-01T04:54:53Z</time>
      </trkpt>
      <trkpt lat="44.11203" lon="2.92651">
        <ele>540.2</ele>
        <time>2010-01-01T04:55:04Z</time>
      </trkpt>
      <trkpt lat="44.11206" lon="2.92647">
        <ele>540.5</ele>
        <time>2010-01-01T04:55:05Z</time>
      </trkpt>
      <trkpt lat="44.11219" lon="2.92632">
        <ele>541.3</ele>
        <time>2010-01-01T04:55:12Z</time>
      </trkpt>
      <trkpt lat="44.11231" lon="2.92619">
        <ele>542.2</ele>
        <time>2010-01-01T04:55:18Z</time>
      </trkpt>
      <trkpt lat="44.1124" lon="2.9261">
        <ele>542.7</ele>
        <time>2010-01-01T04:55:23Z</time>
      </trkpt>
      <trkpt lat="44.11253" lon="2.92596">
        <ele>543.6</ele>
        <time>2010-01-01T04:55:29Z</time>
      </trkpt>
      <trkpt lat="44.11265" lon="2.92582">
        <ele>544.2</ele>
        <time>2010-01-01T04:55:36Z</time>
      </trkpt>
      <trkpt lat="44.11275" lon="2.92566">
        <ele>545.9</ele>
        <time>2010-01-01T04:55:42Z</time>
      </trkpt>
      <trkpt lat="44.11286" lon="2.92547">
        <ele>547.7</ele>
        <time>2010-01-01T04:55:49Z</time>
      </trkpt>
      <trkpt lat="44.11295" lon="2.92527">
        <ele>549.9</ele>
        <time>2010-01-01T04:55:56Z</time>
      </trkpt>
      <trkpt lat="44.11304" lon="2.92506">
        <ele>552</ele>
        <time>2010-01-01T04:56:03Z</time>
      </trkpt>
      <trkpt lat="44.11316" lon="2.92483">
        <ele>553.8</ele>
        <time>2010-01-01T04:56:11Z</time>
      </trkpt>
      <trkpt lat="44.11323" lon="2.9247">
        <ele>554.6</ele>
        <time>2010-01-01T04:56:16Z</time>
      </trkpt>
      <trkpt lat="44.11332" lon="2.92448">
        <ele>555.7</ele>
        <time>2010-01-01T04:56:23Z</time>
      </trkpt>
      <trkpt lat="44.11341" lon="2.92424">
        <ele>557.1</ele>
        <time>2010-01-01T04:56:30Z</time>
      </trkpt>
      <trkpt lat="44.11349" lon="2.92402">
        <ele>558.1</ele>
        <time>2010-01-01T04:56:38Z</time>
      </trkpt>
      <trkpt lat="44.11353" lon="2.92384">
        <ele>558.8</ele>
        <time>2010-01-01T04:56:43Z</time>
      </trkpt>
      <trkpt lat="44.11359" lon="2.92358">
        <ele>560.1</ele>
        <time>2010-01-01T04:56:51Z</time>
      </trkpt>
      <trkpt lat="44.1136" lon="2.92339">
        <ele>561.8</ele>
        <time>2010-01-01T04:56:56Z</time>
      </trkpt>
      <trkpt lat="44.11355" lon="2.92318">
        <ele>564.5</ele>
        <time>2010-01-01T04:57:03Z</time>
      </trkpt>
      <trkpt lat="44.11348" lon="2.92296">
        <ele>567.7</ele>
        <time>2010-01-01T04:57:09Z</time>
      </trkpt>
      <trkpt lat="44.11339" lon="2.92276">
        <ele>571.4</ele>
        <time>2010-01-01T04:57:16Z</time>
      </trkpt>
      <trkpt lat="44.11334" lon="2.92259">
        <ele>574.2</ele>
        <time>2010-01-01T04:57:22Z</time>
      </trkpt>
      <trkpt lat="44.11334" lon="2.92238">
        <ele>575.5</ele>
        <time>2010-01-01T04:57:28Z</time>
      </trkpt>
      <trkpt lat="44.11339" lon="2.92217">
        <ele>575.1</ele>
        <time>2010-01-01T04:57:34Z</time>
      </trkpt>
      <trkpt lat="44.11342" lon="2.92197">
        <ele>575.1</ele>
        <time>2010-01-01T04:57:40Z</time>
      </trkpt>
      <trkpt lat="44.11343" lon="2.92175">
        <ele>575.8</ele>
        <time>2010-01-01T04:57:46Z</time>
      </trkpt>
      <trkpt lat="44.11343" lon="2.92149">
        <ele>578.4</ele>
        <time>2010-01-01T04:57:53Z</time>
      </trkpt>
      <trkpt lat="44.11338" lon="2.9213">
        <ele>581.9</ele>
        <time>2010-01-01T04:57:59Z</time>
      </trkpt>
      <trkpt lat="44.11334" lon="2.9212">
        <ele>584.2</ele>
        <time>2010-01-01T04:58:03Z</time>
      </trkpt>
      <trkpt lat="44.1133" lon="2.92103">
        <ele>587.6</ele>
        <time>2010-01-01T04:58:08Z</time>
      </trkpt>
      <trkpt lat="44.11328" lon="2.92086">
        <ele>589.8</ele>
        <time>2010-01-01T04:58:13Z</time>
      </trkpt>
      <trkpt lat="44.11331" lon="2.92068">
        <ele>592.5</ele>
        <time>2010-01-01T04:58:18Z</time>
      </trkpt>
      <trkpt lat="44.11338" lon="2.92054">
        <ele>594.1</ele>
        <time>2010-01-01T04:58:23Z</time>
      </trkpt>
      <trkpt lat="44.11349" lon="2.92045">
        <ele>593.6</ele>
        <time>2010-01-01T04:58:28Z</time>
      </trkpt>
      <trkpt lat="44.11358" lon="2.92039">
        <ele>592.5</ele>
        <time>2010-01-01T04:58:32Z</time>
      </trkpt>
      <trkpt lat="44.11371" lon="2.92028">
        <ele>591.6</ele>
        <time>2010-01-01T04:58:38Z</time>
      </trkpt>
      <trkpt lat="44.11381" lon="2.92012">
        <ele>592.5</ele>
        <time>2010-01-01T04:58:44Z</time>
      </trkpt>
      <trkpt lat="44.11389" lon="2.91999">
        <ele>593.1</ele>
        <time>2010-01-01T04:58:49Z</time>
      </trkpt>
      <trkpt lat="44.11399" lon="2.91976">
        <ele>594.8</ele>
        <time>2010-01-01T04:58:57Z</time>
      </trkpt>
      <trkpt lat="44.11407" lon="2.91954">
        <ele>596.7</ele>
        <time>2010-01-01T04:59:04Z</time>
      </trkpt>
      <trkpt lat="44.11419" lon="2.91927">
        <ele>598.2</ele>
        <time>2010-01-01T04:59:13Z</time>
      </trkpt>
      <trkpt lat="44.1143" lon="2.91907">
        <ele>598.1</ele>
        <time>2010-01-01T04:59:20Z</time>
      </trkpt>
      <trkpt lat="44.11442" lon="2.91887">
        <ele>597.5</ele>
        <time>2010-01-01T04:59:28Z</time>
      </trkpt>
      <trkpt lat="44.11456" lon="2.91852">
        <ele>598</ele>
        <time>2010-01-01T04:59:39Z</time>
      </trkpt>
      <trkpt lat="44.11462" lon="2.91822">
        <ele>599.2</ele>
        <time>2010-01-01T04:59:48Z</time>
      </trkpt>
      <trkpt lat="44.11469" lon="2.91795">
        <ele>598.8</ele>
        <time>2010-01-01T04:59:56Z</time>
      </trkpt>
      <trkpt lat="44.11472" lon="2.91767">
        <ele>599.5</ele>
        <time>2010-01-01T05:00:05Z</time>
      </trkpt>
      <trkpt lat="44.11481" lon="2.91736">
        <ele>597.7</ele>
        <time>2010-01-01T05:00:14Z</time>
      </trkpt>
      <trkpt lat="44.11483" lon="2.91724">
        <ele>597.4</ele>
        <time>2010-01-01T05:00:18Z</time>
      </trkpt>
      <trkpt lat="44.11484" lon="2.91704">
        <ele>598.1</ele>
        <time>2010-01-01T05:00:23Z</time>
      </trkpt>
      <trkpt lat="44.11474" lon="2.91667">
        <ele>605.4</ele>
        <time>2010-01-01T05:00:35Z</time>
      </trkpt>
      <trkpt lat="44.11467" lon="2.91639">
        <ele>612.6</ele>
        <time>2010-01-01T05:00:44Z</time>
      </trkpt>
      <trkpt lat="44.11478" lon="2.91631">
        <ele>608.7</ele>
        <time>2010-01-01T05:00:49Z</time>
      </trkpt>
      <trkpt lat="44.11487" lon="2.91641">
        <ele>603.2</ele>
        <time>2010-01-01T05:00:53Z</time>
      </trkpt>
      <trkpt lat="44.11496" lon="2.91649">
        <ele>598</ele>
        <time>2010-01-01T05:00:57Z</time>
      </trkpt>
      <trkpt lat="44.11509" lon="2.91659">
        <ele>596.9</ele>
        <time>2010-01-01T05:01:03Z</time>
      </trkpt>
      <trkpt lat="44.11524" lon="2.91679">
        <ele>599</ele>
        <time>2010-01-01T05:01:12Z</time>
      </trkpt>
      <trkpt lat="44.11536" lon="2.91702">
        <ele>600.8</ele>
        <time>2010-01-01T05:01:20Z</time>
      </trkpt>
      <trkpt lat="44.11547" lon="2.91729">
        <ele>602.3</ele>
        <time>2010-01-01T05:01:29Z</time>
      </trkpt>
      <trkpt lat="44.11558" lon="2.91749">
        <ele>604.1</ele>
        <time>2010-01-01T05:01:36Z</time>
      </trkpt>
      <trkpt lat="44.11562" lon="2.91766">
        <ele>603.6</ele>
        <time>2010-01-01T05:01:41Z</time>
      </trkpt>
      <trkpt lat="44.11565" lon="2.91789">
        <ele>602.1</ele>
        <time>2010-01-01T05:01:48Z</time>
      </trkpt>
      <trkpt lat="44.11569" lon="2.91804">
        <ele>601.8</ele>
        <time>2010-01-01T05:01:53Z</time>
      </trkpt>
      <trkpt lat="44.11573" lon="2.91826">
        <ele>600.4</ele>
        <time>2010-01-01T05:01:59Z</time>
      </trkpt>
      <trkpt lat="44.11574" lon="2.91842">
        <ele>599</ele>
        <time>2010-01-01T05:02:04Z</time>
      </trkpt>
      <trkpt lat="44.11576" lon="2.91855">
        <ele>598.2</ele>
        <time>2010-01-01T05:02:08Z</time>
      </trkpt>
      <trkpt lat="44.11578" lon="2.91866">
        <ele>597.6</ele>
        <time>2010-01-01T05:02:11Z</time>
      </trkpt>
      <trkpt lat="44.11578" lon="2.91874">
        <ele>596.7</ele>
        <time>2010-01-01T05:02:13Z</time>
      </trkpt>
      <trkpt lat="44.11581" lon="2.91896">
        <ele>595.5</ele>
        <time>2010-01-01T05:02:20Z</time>
      </trkpt>
      <trkpt lat="44.11586" lon="2.9191">
        <ele>596.4</ele>
        <time>2010-01-01T05:02:24Z</time>
      </trkpt>
      <trkpt lat="44.1159" lon="2.91925">
        <ele>596.9</ele>
        <time>2010-01-01T05:02:29Z</time>
      </trkpt>
      <trkpt lat="44.11593" lon="2.91943">
        <ele>597.4</ele>
        <time>2010-01-01T05:02:34Z</time>
      </trkpt>
      <trkpt lat="44.11597" lon="2.9196">
        <ele>598.1</ele>
        <time>2010-01-01T05:02:39Z</time>
      </trkpt>
      <trkpt lat="44.11603" lon="2.91979">
        <ele>599.7</ele>
        <time>2010-01-01T05:02:45Z</time>
      </trkpt>
      <trkpt lat="44.11607" lon="2.92002">
        <ele>599.5</ele>
        <time>2010-01-01T05:02:52Z</time>
      </trkpt>
      <trkpt lat="44.11608" lon="2.92033">
        <ele>597.7</ele>
        <time>2010-01-01T05:03:01Z</time>
      </trkpt>
      <trkpt lat="44.11614" lon="2.92059">
        <ele>598</ele>
        <time>2010-01-01T05:03:09Z</time>
      </trkpt>
      <trkpt lat="44.11624" lon="2.92086">
        <ele>599.8</ele>
        <time>2010-01-01T05:03:17Z</time>
      </trkpt>
      <trkpt lat="44.11635" lon="2.92112">
        <ele>603.5</ele>
        <time>2010-01-01T05:03:26Z</time>
      </trkpt>
      <trkpt lat="44.1165" lon="2.92136">
        <ele>608.5</ele>
        <time>2010-01-01T05:03:35Z</time>
      </trkpt>
      <trkpt lat="44.11653" lon="2.92151">
        <ele>608.4</ele>
        <time>2010-01-01T05:03:40Z</time>
      </trkpt>
      <trkpt lat="44.11659" lon="2.92173">
        <ele>609.1</ele>
        <time>2010-01-01T05:03:46Z</time>
      </trkpt>
      <trkpt lat="44.11669" lon="2.92189">
        <ele>610.4</ele>
        <time>2010-01-01T05:03:53Z</time>
      </trkpt>
      <trkpt lat="44.11681" lon="2.92206">
        <ele>611.2</ele>
        <time>2010-01-01T05:04:00Z</time>
      </trkpt>
      <trkpt lat="44.11695" lon="2.92224">
        <ele>612.7</ele>
        <time>2010-01-01T05:04:07Z</time>
      </trkpt>
      <trkpt lat="44.11709" lon="2.92236">
        <ele>615</ele>
        <time>2010-01-01T05:04:14Z</time>
      </trkpt>
      <trkpt lat="44.11721" lon="2.92247">
        <ele>616.8</ele>
        <time>2010-01-01T05:04:19Z</time>
      </trkpt>
      <trkpt lat="44.11736" lon="2.9226">
        <ele>619.4</ele>
        <time>2010-01-01T05:04:26Z</time>
      </trkpt>
      <trkpt lat="44.11751" lon="2.92277">
        <ele>621.7</ele>
        <time>2010-01-01T05:04:34Z</time>
      </trkpt>
      <trkpt lat="44.11757" lon="2.92287">
        <ele>621.6</ele>
        <time>2010-01-01T05:04:38Z</time>
      </trkpt>
      <trkpt lat="44.11768" lon="2.92303">
        <ele>621.5</ele>
        <time>2010-01-01T05:04:44Z</time>
      </trkpt>
      <trkpt lat="44.11782" lon="2.92321">
        <ele>621.1</ele>
        <time>2010-01-01T05:04:52Z</time>
      </trkpt>
      <trkpt lat="44.11794" lon="2.92335">
        <ele>620.7</ele>
        <time>2010-01-01T05:04:58Z</time>
      </trkpt>
      <trkpt lat="44.11805" lon="2.92349">
        <ele>620.8</ele>
        <time>2010-01-01T05:05:04Z</time>
      </trkpt>
      <trkpt lat="44.11815" lon="2.92359">
        <ele>620.8</ele>
        <time>2010-01-01T05:05:09Z</time>
      </trkpt>
      <trkpt lat="44.11827" lon="2.92364">
        <ele>621.8</ele>
        <time>2010-01-01T05:05:14Z</time>
      </trkpt>
      <trkpt lat="44.11843" lon="2.92362">
        <ele>620.9</ele>
        <time>2010-01-01T05:05:20Z</time>
      </trkpt>
      <trkpt lat="44.11868" lon="2.92353">
        <ele>617.6</ele>
        <time>2010-01-01T05:05:31Z</time>
      </trkpt>
      <trkpt lat="44.11913" lon="2.92328">
        <ele>616</ele>
        <time>2010-01-01T05:05:50Z</time>
      </trkpt>
      <trkpt lat="44.11931" lon="2.92315">
        <ele>614.4</ele>
        <time>2010-01-01T05:05:58Z</time>
      </trkpt>
      <trkpt lat="44.1196" lon="2.92304">
        <ele>608</ele>
        <time>2010-01-01T05:06:10Z</time>
      </trkpt>
      <trkpt lat="44.11971" lon="2.92296">
        <ele>606.9</ele>
        <time>2010-01-01T05:06:15Z</time>
      </trkpt>
      <trkpt lat="44.11982" lon="2.92291">
        <ele>604.9</ele>
        <time>2010-01-01T05:06:20Z</time>
      </trkpt>
      <trkpt lat="44.12002" lon="2.92274">
        <ele>604</ele>
        <time>2010-01-01T05:06:30Z</time>
      </trkpt>
      <trkpt lat="44.1203" lon="2.92243">
        <ele>602.1</ele>
        <time>2010-01-01T05:06:44Z</time>
      </trkpt>
      <trkpt lat="44.12035" lon="2.92237">
        <ele>601.6</ele>
        <time>2010-01-01T05:06:46Z</time>
      </trkpt>
      <trkpt lat="44.12057" lon="2.92203">
        <ele>601.2</ele>
        <time>2010-01-01T05:07:00Z</time>
      </trkpt>
      <trkpt lat="44.12087" lon="2.92152">
        <ele>600</ele>
        <time>2010-01-01T05:07:18Z</time>
      </trkpt>
      <trkpt lat="44.12094" lon="2.92143">
        <ele>598.9</ele>
        <time>2010-01-01T05:07:22Z</time>
      </trkpt>
      <trkpt lat="44.12113" lon="2.92105">
        <ele>598.2</ele>
        <time>2010-01-01T05:07:36Z</time>
      </trkpt>
      <trkpt lat="44.12131" lon="2.92068">
        <ele>595.4</ele>
        <time>2010-01-01T05:07:48Z</time>
      </trkpt>
      <trkpt lat="44.12143" lon="2.92042">
        <ele>591.7</ele>
        <time>2010-01-01T05:07:57Z</time>
      </trkpt>
      <trkpt lat="44.12154" lon="2.92008">
        <ele>588.5</ele>
        <time>2010-01-01T05:08:08Z</time>
      </trkpt>
      <trkpt lat="44.12154" lon="2.92">
        <ele>589.1</ele>
        <time>2010-01-01T05:08:10Z</time>
      </trkpt>
      <trkpt lat="44.12148" lon="2.91955">
        <ele>594.7</ele>
        <time>2010-01-01T05:08:23Z</time>
      </trkpt>
      <trkpt lat="44.12154" lon="2.9192">
        <ele>593.1</ele>
        <time>2010-01-01T05:08:34Z</time>
      </trkpt>
      <trkpt lat="44.12163" lon="2.91881">
        <ele>594.2</ele>
        <time>2010-01-01T05:08:46Z</time>
      </trkpt>
      <trkpt lat="44.12177" lon="2.91855">
        <ele>595.1</ele>
        <time>2010-01-01T05:08:55Z</time>
      </trkpt>
      <trkpt lat="44.122" lon="2.91826">
        <ele>596.4</ele>
        <time>2010-01-01T05:09:07Z</time>
      </trkpt>
      <trkpt lat="44.12204" lon="2.9182">
        <ele>597.3</ele>
        <time>2010-01-01T05:09:10Z</time>
      </trkpt>
      <trkpt lat="44.12226" lon="2.91808">
        <ele>597.6</ele>
        <time>2010-01-01T05:09:19Z</time>
      </trkpt>
      <trkpt lat="44.12231" lon="2.91811">
        <ele>595.9</ele>
        <time>2010-01-01T05:09:21Z</time>
      </trkpt>
      <trkpt lat="44.12249" lon="2.91838">
        <ele>586</ele>
        <time>2010-01-01T05:09:32Z</time>
      </trkpt>
      <trkpt lat="44.12247" lon="2.9185">
        <ele>586</ele>
        <time>2010-01-01T05:09:36Z</time>
      </trkpt>
      <trkpt lat="44.12242" lon="2.91862">
        <ele>586.2</ele>
        <time>2010-01-01T05:09:40Z</time>
      </trkpt>
      <trkpt lat="44.12243" lon="2.91875">
        <ele>585.6</ele>
        <time>2010-01-01T05:09:43Z</time>
      </trkpt>
      <trkpt lat="44.12245" lon="2.91882">
        <ele>585.3</ele>
        <time>2010-01-01T05:09:45Z</time>
      </trkpt>
      <trkpt lat="44.12251" lon="2.91905">
        <ele>584.6</ele>
        <time>2010-01-01T05:09:52Z</time>
      </trkpt>
      <trkpt lat="44.12256" lon="2.91924">
        <ele>585.5</ele>
        <time>2010-01-01T05:09:58Z</time>
      </trkpt>
      <trkpt lat="44.12265" lon="2.91943">
        <ele>587.2</ele>
        <time>2010-01-01T05:10:05Z</time>
      </trkpt>
      <trkpt lat="44.12272" lon="2.91959">
        <ele>588.9</ele>
        <time>2010-01-01T05:10:10Z</time>
      </trkpt>
      <trkpt lat="44.12279" lon="2.9197">
        <ele>590.7</ele>
        <time>2010-01-01T05:10:14Z</time>
      </trkpt>
      <trkpt lat="44.12286" lon="2.91984">
        <ele>593.2</ele>
        <time>2010-01-01T05:10:19Z</time>
      </trkpt>
      <trkpt lat="44.12291" lon="2.92002">
        <ele>594.6</ele>
        <time>2010-01-01T05:10:25Z</time>
      </trkpt>
      <trkpt lat="44.12295" lon="2.9202">
        <ele>595.1</ele>
        <time>2010-01-01T05:10:30Z</time>
      </trkpt>
      <trkpt lat="44.12298" lon="2.92035">
        <ele>595.2</ele>
        <time>2010-01-01T05:10:35Z</time>
      </trkpt>
      <trkpt lat="44.12301" lon="2.9206">
        <ele>594.3</ele>
        <time>2010-01-01T05:10:42Z</time>
      </trkpt>
      <trkpt lat="44.12302" lon="2.92076">
        <ele>593.7</ele>
        <time>2010-01-01T05:10:47Z</time>
      </trkpt>
      <trkpt lat="44.12305" lon="2.92099">
        <ele>593</ele>
        <time>2010-01-01T05:10:53Z</time>
      </trkpt>
      <trkpt lat="44.12311" lon="2.92112">
        <ele>594.4</ele>
        <time>2010-01-01T05:10:58Z</time>
      </trkpt>
      <trkpt lat="44.12318" lon="2.92128">
        <ele>596.6</ele>
        <time>2010-01-01T05:11:03Z</time>
      </trkpt>
      <trkpt lat="44.12325" lon="2.92146">
        <ele>598.6</ele>
        <time>2010-01-01T05:11:09Z</time>
      </trkpt>
      <trkpt lat="44.12331" lon="2.92166">
        <ele>599.6</ele>
        <time>2010-01-01T05:11:15Z</time>
      </trkpt>
      <trkpt lat="44.12331" lon="2.92185">
        <ele>600.1</ele>
        <time>2010-01-01T05:11:21Z</time>
      </trkpt>
      <trkpt lat="44.12331" lon="2.92209">
        <ele>600.8</ele>
        <time>2010-01-01T05:11:28Z</time>
      </trkpt>
      <trkpt lat="44.1233" lon="2.92228">
        <ele>600.7</ele>
        <time>2010-01-01T05:11:33Z</time>
      </trkpt>
      <trkpt lat="44.12329" lon="2.92238">
        <ele>600</ele>
        <time>2010-01-01T05:11:36Z</time>
      </trkpt>
      <trkpt lat="44.12329" lon="2.9225">
        <ele>600.2</ele>
        <time>2010-01-01T05:11:39Z</time>
      </trkpt>
      <trkpt lat="44.12333" lon="2.9227">
        <ele>604.3</ele>
        <time>2010-01-01T05:11:45Z</time>
      </trkpt>
      <trkpt lat="44.12342" lon="2.92291">
        <ele>610.6</ele>
        <time>2010-01-01T05:11:52Z</time>
      </trkpt>
      <trkpt lat="44.12347" lon="2.92309">
        <ele>614.6</ele>
        <time>2010-01-01T05:11:58Z</time>
      </trkpt>
      <trkpt lat="44.12341" lon="2.92325">
        <ele>612.3</ele>
        <time>2010-01-01T05:12:03Z</time>
      </trkpt>
      <trkpt lat="44.12331" lon="2.92344">
        <ele>609.4</ele>
        <time>2010-01-01T05:12:10Z</time>
      </trkpt>
      <trkpt lat="44.12326" lon="2.92364">
        <ele>609.8</ele>
        <time>2010-01-01T05:12:16Z</time>
      </trkpt>
      <trkpt lat="44.12317" lon="2.92387">
        <ele>609.1</ele>
        <time>2010-01-01T05:12:24Z</time>
      </trkpt>
      <trkpt lat="44.12305" lon="2.92407">
        <ele>606</ele>
        <time>2010-01-01T05:12:31Z</time>
      </trkpt>
      <trkpt lat="44.12296" lon="2.92434">
        <ele>604.6</ele>
        <time>2010-01-01T05:12:40Z</time>
      </trkpt>
      <trkpt lat="44.12295" lon="2.92439">
        <ele>604.7</ele>
        <time>2010-01-01T05:12:41Z</time>
      </trkpt>
      <trkpt lat="44.123" lon="2.92442">
        <ele>607.3</ele>
        <time>2010-01-01T05:12:43Z</time>
      </trkpt>
      <trkpt lat="44.12302" lon="2.92439">
        <ele>608</ele>
        <time>2010-01-01T05:12:44Z</time>
      </trkpt>
      <trkpt lat="44.1231" lon="2.92425">
        <ele>611.1</ele>
        <time>2010-01-01T05:12:49Z</time>
      </trkpt>
      <trkpt lat="44.12317" lon="2.92418">
        <ele>613.7</ele>
        <time>2010-01-01T05:12:53Z</time>
      </trkpt>
      <trkpt lat="44.12317" lon="2.92417">
        <ele>613.8</ele>
        <time>2010-01-01T05:12:53Z</time>
      </trkpt>
      <trkpt lat="44.12321" lon="2.92411">
        <ele>614.9</ele>
        <time>2010-01-01T05:12:55Z</time>
      </trkpt>
      <trkpt lat="44.12327" lon="2.92404">
        <ele>616.9</ele>
        <time>2010-01-01T05:12:58Z</time>
      </trkpt>
      <trkpt lat="44.12332" lon="2.924">
        <ele>618.7</ele>
        <time>2010-01-01T05:13:01Z</time>
      </trkpt>
      <trkpt lat="44.12338" lon="2.92395">
        <ele>621</ele>
        <time>2010-01-01T05:13:04Z</time>
      </trkpt>
      <trkpt lat="44.12343" lon="2.92389">
        <ele>622.5</ele>
        <time>2010-01-01T05:13:06Z</time>
      </trkpt>
      <trkpt lat="44.12348" lon="2.92383">
        <ele>623.9</ele>
        <time>2010-01-01T05:13:09Z</time>
      </trkpt>
      <trkpt lat="44.12352" lon="2.92381">
        <ele>625.5</ele>
        <time>2010-01-01T05:13:11Z</time>
      </trkpt>
      <trkpt lat="44.12353" lon="2.92384">
        <ele>626.2</ele>
        <time>2010-01-01T05:13:11Z</time>
      </trkpt>
      <trkpt lat="44.12351" lon="2.92389">
        <ele>625.8</ele>
        <time>2010-01-01T05:13:13Z</time>
      </trkpt>
      <trkpt lat="44.1235" lon="2.92391">
        <ele>625.8</ele>
        <time>2010-01-01T05:13:14Z</time>
      </trkpt>
      <trkpt lat="44.12347" lon="2.92407">
        <ele>626.9</ele>
        <time>2010-01-01T05:13:19Z</time>
      </trkpt>
      <trkpt lat="44.12345" lon="2.92418">
        <ele>627.6</ele>
        <time>2010-01-01T05:13:22Z</time>
      </trkpt>
      <trkpt lat="44.12344" lon="2.9243">
        <ele>627.6</ele>
        <time>2010-01-01T05:13:25Z</time>
      </trkpt>
      <trkpt lat="44.1234" lon="2.92446">
        <ele>627.1</ele>
        <time>2010-01-01T05:13:30Z</time>
      </trkpt>
      <trkpt lat="44.1234" lon="2.9246">
        <ele>627.9</ele>
        <time>2010-01-01T05:13:34Z</time>
      </trkpt>
      <trkpt lat="44.12342" lon="2.92475">
        <ele>629.9</ele>
        <time>2010-01-01T05:13:38Z</time>
      </trkpt>
      <trkpt lat="44.12344" lon="2.92481">
        <ele>630.9</ele>
        <time>2010-01-01T05:13:40Z</time>
      </trkpt>
      <trkpt lat="44.12346" lon="2.92493">
        <ele>633</ele>
        <time>2010-01-01T05:13:44Z</time>
      </trkpt>
      <trkpt lat="44.12349" lon="2.92503">
        <ele>634.6</ele>
        <time>2010-01-01T05:13:47Z</time>
      </trkpt>
      <trkpt lat="44.12351" lon="2.92516">
        <ele>635.6</ele>
        <time>2010-01-01T05:13:51Z</time>
      </trkpt>
      <trkpt lat="44.12353" lon="2.92526">
        <ele>636.5</ele>
        <time>2010-01-01T05:13:54Z</time>
      </trkpt>
      <trkpt lat="44.12354" lon="2.92537">
        <ele>637.1</ele>
        <time>2010-01-01T05:13:57Z</time>
      </trkpt>
      <trkpt lat="44.12356" lon="2.9255">
        <ele>638.3</ele>
        <time>2010-01-01T05:14:01Z</time>
      </trkpt>
      <trkpt lat="44.12358" lon="2.92561">
        <ele>639.4</ele>
        <time>2010-01-01T05:14:04Z</time>
      </trkpt>
      <trkpt lat="44.1236" lon="2.92574">
        <ele>640.3</ele>
        <time>2010-01-01T05:14:08Z</time>
      </trkpt>
      <trkpt lat="44.12363" lon="2.92585">
        <ele>641.4</ele>
        <time>2010-01-01T05:14:11Z</time>
      </trkpt>
      <trkpt lat="44.12364" lon="2.92597">
        <ele>642.1</ele>
        <time>2010-01-01T05:14:15Z</time>
      </trkpt>
      <trkpt lat="44.12366" lon="2.92609">
        <ele>642.9</ele>
        <time>2010-01-01T05:14:18Z</time>
      </trkpt>
      <trkpt lat="44.12367" lon="2.92619">
        <ele>643.7</ele>
        <time>2010-01-01T05:14:21Z</time>
      </trkpt>
      <trkpt lat="44.12369" lon="2.92629">
        <ele>644.6</ele>
        <time>2010-01-01T05:14:24Z</time>
      </trkpt>
      <trkpt lat="44.12371" lon="2.9264">
        <ele>645.4</ele>
        <time>2010-01-01T05:14:27Z</time>
      </trkpt>
      <trkpt lat="44.12371" lon="2.92651">
        <ele>645.6</ele>
        <time>2010-01-01T05:14:30Z</time>
      </trkpt>
      <trkpt lat="44.12374" lon="2.92662">
        <ele>647.1</ele>
        <time>2010-01-01T05:14:34Z</time>
      </trkpt>
      <trkpt lat="44.12378" lon="2.92671">
        <ele>648.8</ele>
        <time>2010-01-01T05:14:37Z</time>
      </trkpt>
      <trkpt lat="44.1238" lon="2.92675">
        <ele>649.3</ele>
        <time>2010-01-01T05:14:38Z</time>
      </trkpt>
      <trkpt lat="44.12384" lon="2.92687">
        <ele>650.9</ele>
        <time>2010-01-01T05:14:42Z</time>
      </trkpt>
      <trkpt lat="44.12385" lon="2.92691">
        <ele>650.8</ele>
        <time>2010-01-01T05:14:43Z</time>
      </trkpt>
      <trkpt lat="44.12386" lon="2.92694">
        <ele>651.3</ele>
        <time>2010-01-01T05:14:44Z</time>
      </trkpt>
      <trkpt lat="44.12387" lon="2.92698">
        <ele>651.7</ele>
        <time>2010-01-01T05:14:45Z</time>
      </trkpt>
      <trkpt lat="44.12392" lon="2.92712">
        <ele>653.6</ele>
        <time>2010-01-01T05:14:50Z</time>
      </trkpt>
      <trkpt lat="44.12398" lon="2.92721">
        <ele>656.4</ele>
        <time>2010-01-01T05:14:54Z</time>
      </trkpt>
      <trkpt lat="44.12403" lon="2.92727">
        <ele>658.6</ele>
        <time>2010-01-01T05:14:56Z</time>
      </trkpt>
      <trkpt lat="44.12405" lon="2.92733">
        <ele>659.4</ele>
        <time>2010-01-01T05:14:58Z</time>
      </trkpt>
      <trkpt lat="44.1241" lon="2.92739">
        <ele>661.6</ele>
        <time>2010-01-01T05:15:00Z</time>
      </trkpt>
      <trkpt lat="44.12412" lon="2.92743">
        <ele>662.9</ele>
        <time>2010-01-01T05:15:02Z</time>
      </trkpt>
      <trkpt lat="44.12415" lon="2.92751">
        <ele>663.8</ele>
        <time>2010-01-01T05:15:05Z</time>
      </trkpt>
      <trkpt lat="44.12418" lon="2.92757">
        <ele>664.8</ele>
        <time>2010-01-01T05:15:07Z</time>
      </trkpt>
      <trkpt lat="44.1242" lon="2.92761">
        <ele>665</ele>
        <time>2010-01-01T05:15:08Z</time>
      </trkpt>
      <trkpt lat="44.12423" lon="2.92769">
        <ele>665.5</ele>
        <time>2010-01-01T05:15:11Z</time>
      </trkpt>
      <trkpt lat="44.12427" lon="2.92778">
        <ele>665.8</ele>
        <time>2010-01-01T05:15:14Z</time>
      </trkpt>
      <trkpt lat="44.12429" lon="2.92786">
        <ele>665.5</ele>
        <time>2010-01-01T05:15:16Z</time>
      </trkpt>
      <trkpt lat="44.12435" lon="2.92797">
        <ele>667</ele>
        <time>2010-01-01T05:15:20Z</time>
      </trkpt>
      <trkpt lat="44.12441" lon="2.92802">
        <ele>669.7</ele>
        <time>2010-01-01T05:15:23Z</time>
      </trkpt>
      <trkpt lat="44.12443" lon="2.92804">
        <ele>670.1</ele>
        <time>2010-01-01T05:15:24Z</time>
      </trkpt>
      <trkpt lat="44.12445" lon="2.92808">
        <ele>670.7</ele>
        <time>2010-01-01T05:15:25Z</time>
      </trkpt>
      <trkpt lat="44.12445" lon="2.92809">
        <ele>670.7</ele>
        <time>2010-01-01T05:15:26Z</time>
      </trkpt>
      <trkpt lat="44.12448" lon="2.92821">
        <ele>670.6</ele>
        <time>2010-01-01T05:15:29Z</time>
      </trkpt>
      <trkpt lat="44.12452" lon="2.92827">
        <ele>671.9</ele>
        <time>2010-01-01T05:15:32Z</time>
      </trkpt>
      <trkpt lat="44.12457" lon="2.92836">
        <ele>673.2</ele>
        <time>2010-01-01T05:15:35Z</time>
      </trkpt>
      <trkpt lat="44.12462" lon="2.92843">
        <ele>674.9</ele>
        <time>2010-01-01T05:15:38Z</time>
      </trkpt>
      <trkpt lat="44.12467" lon="2.92851">
        <ele>676.6</ele>
        <time>2010-01-01T05:15:41Z</time>
      </trkpt>
      <trkpt lat="44.12473" lon="2.92859">
        <ele>678.1</ele>
        <time>2010-01-01T05:15:44Z</time>
      </trkpt>
      <trkpt lat="44.12474" lon="2.92861">
        <ele>678.6</ele>
        <time>2010-01-01T05:15:45Z</time>
      </trkpt>
      <trkpt lat="44.12481" lon="2.92872">
        <ele>680.8</ele>
        <time>2010-01-01T05:15:49Z</time>
      </trkpt>
      <trkpt lat="44.12487" lon="2.92879">
        <ele>682.7</ele>
        <time>2010-01-01T05:15:52Z</time>
      </trkpt>
      <trkpt lat="44.12493" lon="2.92887">
        <ele>684.6</ele>
        <time>2010-01-01T05:15:56Z</time>
      </trkpt>
      <trkpt lat="44.12496" lon="2.92896">
        <ele>684.8</ele>
        <time>2010-01-01T05:15:58Z</time>
      </trkpt>
      <trkpt lat="44.125" lon="2.92905">
        <ele>685.2</ele>
        <time>2010-01-01T05:16:01Z</time>
      </trkpt>
      <trkpt lat="44.12504" lon="2.92917">
        <ele>685.3</ele>
        <time>2010-01-01T05:16:05Z</time>
      </trkpt>
      <trkpt lat="44.12506" lon="2.92919">
        <ele>685.6</ele>
        <time>2010-01-01T05:16:06Z</time>
      </trkpt>
      <trkpt lat="44.12507" lon="2.92928">
        <ele>685.2</ele>
        <time>2010-01-01T05:16:09Z</time>
      </trkpt>
      <trkpt lat="44.12511" lon="2.9294">
        <ele>685.7</ele>
        <time>2010-01-01T05:16:12Z</time>
      </trkpt>
      <trkpt lat="44.12515" lon="2.92954">
        <ele>685.8</ele>
        <time>2010-01-01T05:16:17Z</time>
      </trkpt>
      <trkpt lat="44.12515" lon="2.92956">
        <ele>685.6</ele>
        <time>2010-01-01T05:16:17Z</time>
      </trkpt>
      <trkpt lat="44.12517" lon="2.92977">
        <ele>683.8</ele>
        <time>2010-01-01T05:16:23Z</time>
      </trkpt>
      <trkpt lat="44.12524" lon="2.92997">
        <ele>684</ele>
        <time>2010-01-01T05:16:30Z</time>
      </trkpt>
      <trkpt lat="44.12528" lon="2.93008">
        <ele>684.3</ele>
        <time>2010-01-01T05:16:33Z</time>
      </trkpt>
      <trkpt lat="44.12532" lon="2.93016">
        <ele>685</ele>
        <time>2010-01-01T05:16:36Z</time>
      </trkpt>
      <trkpt lat="44.12535" lon="2.93025">
        <ele>685.1</ele>
        <time>2010-01-01T05:16:39Z</time>
      </trkpt>
      <trkpt lat="44.12541" lon="2.93032">
        <ele>686.4</ele>
        <time>2010-01-01T05:16:42Z</time>
      </trkpt>
      <trkpt lat="44.12548" lon="2.93042">
        <ele>688</ele>
        <time>2010-01-01T05:16:46Z</time>
      </trkpt>
      <trkpt lat="44.12554" lon="2.93052">
        <ele>688.6</ele>
        <time>2010-01-01T05:16:50Z</time>
      </trkpt>
      <trkpt lat="44.12555" lon="2.93053">
        <ele>689.2</ele>
        <time>2010-01-01T05:16:51Z</time>
      </trkpt>
      <trkpt lat="44.12555" lon="2.93064">
        <ele>687.2</ele>
        <time>2010-01-01T05:16:54Z</time>
      </trkpt>
      <trkpt lat="44.12563" lon="2.9307">
        <ele>689.4</ele>
        <time>2010-01-01T05:16:57Z</time>
      </trkpt>
      <trkpt lat="44.12573" lon="2.93075">
        <ele>692.3</ele>
        <time>2010-01-01T05:17:02Z</time>
      </trkpt>
      <trkpt lat="44.12582" lon="2.9308">
        <ele>695.1</ele>
        <time>2010-01-01T05:17:05Z</time>
      </trkpt>
      <trkpt lat="44.12585" lon="2.93081">
        <ele>696</ele>
        <time>2010-01-01T05:17:07Z</time>
      </trkpt>
      <trkpt lat="44.12589" lon="2.93085">
        <ele>696.7</ele>
        <time>2010-01-01T05:17:09Z</time>
      </trkpt>
      <trkpt lat="44.12597" lon="2.93095">
        <ele>697.7</ele>
        <time>2010-01-01T05:17:13Z</time>
      </trkpt>
      <trkpt lat="44.12602" lon="2.93102">
        <ele>698.3</ele>
        <time>2010-01-01T05:17:16Z</time>
      </trkpt>
      <trkpt lat="44.1261" lon="2.93107">
        <ele>699.8</ele>
        <time>2010-01-01T05:17:19Z</time>
      </trkpt>
      <trkpt lat="44.12617" lon="2.93113">
        <ele>700.6</ele>
        <time>2010-01-01T05:17:23Z</time>
      </trkpt>
      <trkpt lat="44.12617" lon="2.93113">
        <ele>700.7</ele>
        <time>2010-01-01T05:17:23Z</time>
      </trkpt>
      <trkpt lat="44.12625" lon="2.93116">
        <ele>702.6</ele>
        <time>2010-01-01T05:17:26Z</time>
      </trkpt>
      <trkpt lat="44.1263" lon="2.93122">
        <ele>702.9</ele>
        <time>2010-01-01T05:17:29Z</time>
      </trkpt>
      <trkpt lat="44.12637" lon="2.9313">
        <ele>703.1</ele>
        <time>2010-01-01T05:17:32Z</time>
      </trkpt>
      <trkpt lat="44.12644" lon="2.93136">
        <ele>703.7</ele>
        <time>2010-01-01T05:17:36Z</time>
      </trkpt>
      <trkpt lat="44.12652" lon="2.93141">
        <ele>704.7</ele>
        <time>2010-01-01T05:17:39Z</time>
      </trkpt>
      <trkpt lat="44.12658" lon="2.93143">
        <ele>705.9</ele>
        <time>2010-01-01T05:17:42Z</time>
      </trkpt>
      <trkpt lat="44.12666" lon="2.93147">
        <ele>707</ele>
        <time>2010-01-01T05:17:45Z</time>
      </trkpt>
      <trkpt lat="44.12676" lon="2.9315">
        <ele>708.3</ele>
        <time>2010-01-01T05:17:49Z</time>
      </trkpt>
      <trkpt lat="44.12685" lon="2.93152">
        <ele>709.6</ele>
        <time>2010-01-01T05:17:53Z</time>
      </trkpt>
      <trkpt lat="44.12694" lon="2.93153">
        <ele>710.9</ele>
        <time>2010-01-01T05:17:56Z</time>
      </trkpt>
      <trkpt lat="44.12702" lon="2.93159">
        <ele>710.8</ele>
        <time>2010-01-01T05:18:00Z</time>
      </trkpt>
      <trkpt lat="44.12711" lon="2.93164">
        <ele>711.3</ele>
        <time>2010-01-01T05:18:04Z</time>
      </trkpt>
      <trkpt lat="44.12711" lon="2.93164">
        <ele>711.4</ele>
        <time>2010-01-01T05:18:04Z</time>
      </trkpt>
      <trkpt lat="44.12713" lon="2.93164">
        <ele>711.6</ele>
        <time>2010-01-01T05:18:04Z</time>
      </trkpt>
      <trkpt lat="44.12713" lon="2.93165">
        <ele>711.4</ele>
        <time>2010-01-01T05:18:05Z</time>
      </trkpt>
      <trkpt lat="44.12723" lon="2.93173">
        <ele>711.2</ele>
        <time>2010-01-01T05:18:09Z</time>
      </trkpt>
      <trkpt lat="44.12729" lon="2.93175">
        <ele>711.7</ele>
        <time>2010-01-01T05:18:12Z</time>
      </trkpt>
      <trkpt lat="44.12731" lon="2.93176">
        <ele>711.8</ele>
        <time>2010-01-01T05:18:13Z</time>
      </trkpt>
      <trkpt lat="44.12745" lon="2.93188">
        <ele>710.8</ele>
        <time>2010-01-01T05:18:19Z</time>
      </trkpt>
      <trkpt lat="44.12753" lon="2.93196">
        <ele>709.8</ele>
        <time>2010-01-01T05:18:23Z</time>
      </trkpt>
      <trkpt lat="44.12755" lon="2.93198">
        <ele>709.7</ele>
        <time>2010-01-01T05:18:24Z</time>
      </trkpt>
      <trkpt lat="44.12762" lon="2.93203">
        <ele>709.6</ele>
        <time>2010-01-01T05:18:27Z</time>
      </trkpt>
      <trkpt lat="44.12768" lon="2.93207">
        <ele>709.4</ele>
        <time>2010-01-01T05:18:30Z</time>
      </trkpt>
      <trkpt lat="44.1278" lon="2.93214">
        <ele>709.8</ele>
        <time>2010-01-01T05:18:35Z</time>
      </trkpt>
      <trkpt lat="44.1279" lon="2.93219">
        <ele>710.5</ele>
        <time>2010-01-01T05:18:40Z</time>
      </trkpt>
      <trkpt lat="44.12804" lon="2.93221">
        <ele>712.9</ele>
        <time>2010-01-01T05:18:45Z</time>
      </trkpt>
      <trkpt lat="44.12815" lon="2.93225">
        <ele>714.1</ele>
        <time>2010-01-01T05:18:50Z</time>
      </trkpt>
      <trkpt lat="44.12818" lon="2.93226">
        <ele>714.4</ele>
        <time>2010-01-01T05:18:51Z</time>
      </trkpt>
      <trkpt lat="44.12829" lon="2.93229">
        <ele>716.2</ele>
        <time>2010-01-01T05:18:56Z</time>
      </trkpt>
      <trkpt lat="44.1283" lon="2.9323">
        <ele>716.3</ele>
        <time>2010-01-01T05:18:56Z</time>
      </trkpt>
      <trkpt lat="44.12836" lon="2.93231">
        <ele>717.5</ele>
        <time>2010-01-01T05:18:58Z</time>
      </trkpt>
      <trkpt lat="44.12843" lon="2.93239">
        <ele>717.9</ele>
        <time>2010-01-01T05:19:02Z</time>
      </trkpt>
      <trkpt lat="44.12845" lon="2.93242">
        <ele>717.8</ele>
        <time>2010-01-01T05:19:03Z</time>
      </trkpt>
      <trkpt lat="44.1285" lon="2.93257">
        <ele>716.9</ele>
        <time>2010-01-01T05:19:08Z</time>
      </trkpt>
      <trkpt lat="44.12853" lon="2.9327">
        <ele>716</ele>
        <time>2010-01-01T05:19:12Z</time>
      </trkpt>
      <trkpt lat="44.12859" lon="2.93284">
        <ele>716.1</ele>
        <time>2010-01-01T05:19:16Z</time>
      </trkpt>
      <trkpt lat="44.12867" lon="2.93295">
        <ele>717.4</ele>
        <time>2010-01-01T05:19:21Z</time>
      </trkpt>
      <trkpt lat="44.12876" lon="2.93304">
        <ele>719</ele>
        <time>2010-01-01T05:19:25Z</time>
      </trkpt>
      <trkpt lat="44.12884" lon="2.93313">
        <ele>720.5</ele>
        <time>2010-01-01T05:19:29Z</time>
      </trkpt>
      <trkpt lat="44.12892" lon="2.9332">
        <ele>722.2</ele>
        <time>2010-01-01T05:19:33Z</time>
      </trkpt>
      <trkpt lat="44.12899" lon="2.93326">
        <ele>724</ele>
        <time>2010-01-01T05:19:37Z</time>
      </trkpt>
      <trkpt lat="44.12908" lon="2.93332">
        <ele>726.2</ele>
        <time>2010-01-01T05:19:41Z</time>
      </trkpt>
      <trkpt lat="44.12917" lon="2.93337">
        <ele>728.5</ele>
        <time>2010-01-01T05:19:45Z</time>
      </trkpt>
      <trkpt lat="44.12926" lon="2.93343">
        <ele>729</ele>
        <time>2010-01-01T05:19:48Z</time>
      </trkpt>
      <trkpt lat="44.12932" lon="2.93351">
        <ele>728.8</ele>
        <time>2010-01-01T05:19:52Z</time>
      </trkpt>
      <trkpt lat="44.12939" lon="2.93359">
        <ele>728.7</ele>
        <time>2010-01-01T05:19:55Z</time>
      </trkpt>
      <trkpt lat="44.12941" lon="2.93374">
        <ele>727</ele>
        <time>2010-01-01T05:20:00Z</time>
      </trkpt>
      <trkpt lat="44.12939" lon="2.93388">
        <ele>724.9</ele>
        <time>2010-01-01T05:20:04Z</time>
      </trkpt>
      <trkpt lat="44.12939" lon="2.93399">
        <ele>723.4</ele>
        <time>2010-01-01T05:20:07Z</time>
      </trkpt>
      <trkpt lat="44.12942" lon="2.93405">
        <ele>723.1</ele>
        <time>2010-01-01T05:20:09Z</time>
      </trkpt>
      <trkpt lat="44.12953" lon="2.93404">
        <ele>725.1</ele>
        <time>2010-01-01T05:20:13Z</time>
      </trkpt>
      <trkpt lat="44.1296" lon="2.93395">
        <ele>727.5</ele>
        <time>2010-01-01T05:20:17Z</time>
      </trkpt>
      <trkpt lat="44.12962" lon="2.93392">
        <ele>728.3</ele>
        <time>2010-01-01T05:20:18Z</time>
      </trkpt>
      <trkpt lat="44.12969" lon="2.93388">
        <ele>730</ele>
        <time>2010-01-01T05:20:21Z</time>
      </trkpt>
      <trkpt lat="44.1297" lon="2.93382">
        <ele>730.9</ele>
        <time>2010-01-01T05:20:23Z</time>
      </trkpt>
      <trkpt lat="44.12971" lon="2.9338">
        <ele>731.2</ele>
        <time>2010-01-01T05:20:24Z</time>
      </trkpt>
      <trkpt lat="44.12972" lon="2.9338">
        <ele>731.4</ele>
        <time>2010-01-01T05:20:24Z</time>
      </trkpt>
      <trkpt lat="44.12984" lon="2.93381">
        <ele>733.2</ele>
        <time>2010-01-01T05:20:29Z</time>
      </trkpt>
      <trkpt lat="44.12979" lon="2.93387">
        <ele>731.7</ele>
        <time>2010-01-01T05:20:31Z</time>
      </trkpt>
      <trkpt lat="44.12979" lon="2.93387">
        <ele>731.8</ele>
        <time>2010-01-01T05:20:32Z</time>
      </trkpt>
      <trkpt lat="44.12974" lon="2.93368">
        <ele>733.1</ele>
        <time>2010-01-01T05:20:37Z</time>
      </trkpt>
      <trkpt lat="44.12974" lon="2.93363">
        <ele>733.6</ele>
        <time>2010-01-01T05:20:39Z</time>
      </trkpt>
      <trkpt lat="44.12976" lon="2.93354">
        <ele>735.1</ele>
        <time>2010-01-01T05:20:42Z</time>
      </trkpt>
      <trkpt lat="44.12979" lon="2.93342">
        <ele>737</ele>
        <time>2010-01-01T05:20:45Z</time>
      </trkpt>
      <trkpt lat="44.12982" lon="2.93328">
        <ele>738.9</ele>
        <time>2010-01-01T05:20:49Z</time>
      </trkpt>
      <trkpt lat="44.12982" lon="2.93315">
        <ele>740.1</ele>
        <time>2010-01-01T05:20:53Z</time>
      </trkpt>
      <trkpt lat="44.12983" lon="2.93312">
        <ele>740.6</ele>
        <time>2010-01-01T05:20:54Z</time>
      </trkpt>
      <trkpt lat="44.12984" lon="2.93303">
        <ele>741.5</ele>
        <time>2010-01-01T05:20:57Z</time>
      </trkpt>
      <trkpt lat="44.12985" lon="2.93299">
        <ele>742.1</ele>
        <time>2010-01-01T05:20:58Z</time>
      </trkpt>
      <trkpt lat="44.12984" lon="2.93297">
        <ele>742.2</ele>
        <time>2010-01-01T05:20:58Z</time>
      </trkpt>
      <trkpt lat="44.12982" lon="2.93285">
        <ele>743.1</ele>
        <time>2010-01-01T05:21:02Z</time>
      </trkpt>
      <trkpt lat="44.12983" lon="2.93276">
        <ele>744</ele>
        <time>2010-01-01T05:21:05Z</time>
      </trkpt>
      <trkpt lat="44.12983" lon="2.93268">
        <ele>744.9</ele>
        <time>2010-01-01T05:21:07Z</time>
      </trkpt>
      <trkpt lat="44.12985" lon="2.93261">
        <ele>745.7</ele>
        <time>2010-01-01T05:21:09Z</time>
      </trkpt>
      <trkpt lat="44.1298" lon="2.93256">
        <ele>745.7</ele>
        <time>2010-01-01T05:21:12Z</time>
      </trkpt>
      <trkpt lat="44.12981" lon="2.93256">
        <ele>745.8</ele>
        <time>2010-01-01T05:21:12Z</time>
      </trkpt>
      <trkpt lat="44.12982" lon="2.93256">
        <ele>745.8</ele>
        <time>2010-01-01T05:21:12Z</time>
      </trkpt>
      <trkpt lat="44.12982" lon="2.93257">
        <ele>745.9</ele>
        <time>2010-01-01T05:21:12Z</time>
      </trkpt>
      <trkpt lat="44.12983" lon="2.93257">
        <ele>745.9</ele>
        <time>2010-01-01T05:21:13Z</time>
      </trkpt>
      <trkpt lat="44.12983" lon="2.93268">
        <ele>744.8</ele>
        <time>2010-01-01T05:21:16Z</time>
      </trkpt>
      <trkpt lat="44.12983" lon="2.93268">
        <ele>744.8</ele>
        <time>2010-01-01T05:21:16Z</time>
      </trkpt>
      <trkpt lat="44.12984" lon="2.93255">
        <ele>746.2</ele>
        <time>2010-01-01T05:21:20Z</time>
      </trkpt>
      <trkpt lat="44.1299" lon="2.93247">
        <ele>747.4</ele>
        <time>2010-01-01T05:21:23Z</time>
      </trkpt>
      <trkpt lat="44.12991" lon="2.93235">
        <ele>748.2</ele>
        <time>2010-01-01T05:21:26Z</time>
      </trkpt>
      <trkpt lat="44.12983" lon="2.93215">
        <ele>749</ele>
        <time>2010-01-01T05:21:33Z</time>
      </trkpt>
      <trkpt lat="44.12976" lon="2.93199">
        <ele>749.8</ele>
        <time>2010-01-01T05:21:38Z</time>
      </trkpt>
      <trkpt lat="44.12971" lon="2.93189">
        <ele>750.2</ele>
        <time>2010-01-01T05:21:42Z</time>
      </trkpt>
      <trkpt lat="44.12972" lon="2.93166">
        <ele>752</ele>
        <time>2010-01-01T05:21:49Z</time>
      </trkpt>
      <trkpt lat="44.12972" lon="2.93142">
        <ele>753.5</ele>
        <time>2010-01-01T05:21:56Z</time>
      </trkpt>
      <trkpt lat="44.12975" lon="2.93123">
        <ele>754.7</ele>
        <time>2010-01-01T05:22:01Z</time>
      </trkpt>
      <trkpt lat="44.12982" lon="2.93103">
        <ele>755.9</ele>
        <time>2010-01-01T05:22:08Z</time>
      </trkpt>
      <trkpt lat="44.12994" lon="2.93082">
        <ele>757.1</ele>
        <time>2010-01-01T05:22:15Z</time>
      </trkpt>
      <trkpt lat="44.13004" lon="2.93063">
        <ele>758.6</ele>
        <time>2010-01-01T05:22:22Z</time>
      </trkpt>
      <trkpt lat="44.13014" lon="2.93043">
        <ele>760.4</ele>
        <time>2010-01-01T05:22:29Z</time>
      </trkpt>
      <trkpt lat="44.13024" lon="2.93012">
        <ele>763.2</ele>
        <time>2010-01-01T05:22:39Z</time>
      </trkpt>
      <trkpt lat="44.13034" lon="2.92983">
        <ele>765.5</ele>
        <time>2010-01-01T05:22:48Z</time>
      </trkpt>
      <trkpt lat="44.13047" lon="2.92963">
        <ele>767</ele>
        <time>2010-01-01T05:22:56Z</time>
      </trkpt>
      <trkpt lat="44.13055" lon="2.92955">
        <ele>767.5</ele>
        <time>2010-01-01T05:23:00Z</time>
      </trkpt>
      <trkpt lat="44.13077" lon="2.92941">
        <ele>768.5</ele>
        <time>2010-01-01T05:23:09Z</time>
      </trkpt>
      <trkpt lat="44.13098" lon="2.92927">
        <ele>769.5</ele>
        <time>2010-01-01T05:23:19Z</time>
      </trkpt>
      <trkpt lat="44.13116" lon="2.92913">
        <ele>770.7</ele>
        <time>2010-01-01T05:23:27Z</time>
      </trkpt>
      <trkpt lat="44.13138" lon="2.92893">
        <ele>772.6</ele>
        <time>2010-01-01T05:23:37Z</time>
      </trkpt>
      <trkpt lat="44.1316" lon="2.92871">
        <ele>774.3</ele>
        <time>2010-01-01T05:23:48Z</time>
      </trkpt>
      <trkpt lat="44.13181" lon="2.92847">
        <ele>775</ele>
        <time>2010-01-01T05:23:59Z</time>
      </trkpt>
      <trkpt lat="44.13183" lon="2.92836">
        <ele>775.7</ele>
        <time>2010-01-01T05:24:03Z</time>
      </trkpt>
      <trkpt lat="44.13182" lon="2.92824">
        <ele>777.2</ele>
        <time>2010-01-01T05:24:06Z</time>
      </trkpt>
      <trkpt lat="44.13183" lon="2.9281">
        <ele>779.1</ele>
        <time>2010-01-01T05:24:10Z</time>
      </trkpt>
      <trkpt lat="44.13183" lon="2.92796">
        <ele>781.1</ele>
        <time>2010-01-01T05:24:14Z</time>
      </trkpt>
      <trkpt lat="44.13183" lon="2.92788">
        <ele>782.1</ele>
        <time>2010-01-01T05:24:16Z</time>
      </trkpt>
      <trkpt lat="44.13185" lon="2.92772">
        <ele>784.2</ele>
        <time>2010-01-01T05:24:21Z</time>
      </trkpt>
      <trkpt lat="44.13185" lon="2.92761">
        <ele>785.7</ele>
        <time>2010-01-01T05:24:24Z</time>
      </trkpt>
      <trkpt lat="44.13186" lon="2.92754">
        <ele>786.6</ele>
        <time>2010-01-01T05:24:26Z</time>
      </trkpt>
      <trkpt lat="44.13187" lon="2.92744">
        <ele>788.2</ele>
        <time>2010-01-01T05:24:29Z</time>
      </trkpt>
      <trkpt lat="44.13189" lon="2.92734">
        <ele>790.1</ele>
        <time>2010-01-01T05:24:32Z</time>
      </trkpt>
      <trkpt lat="44.1319" lon="2.92726">
        <ele>791.6</ele>
        <time>2010-01-01T05:24:35Z</time>
      </trkpt>
      <trkpt lat="44.13192" lon="2.92722">
        <ele>792.2</ele>
        <time>2010-01-01T05:24:36Z</time>
      </trkpt>
      <trkpt lat="44.13197" lon="2.92716">
        <ele>792.9</ele>
        <time>2010-01-01T05:24:39Z</time>
      </trkpt>
      <trkpt lat="44.13202" lon="2.9271">
        <ele>793.4</ele>
        <time>2010-01-01T05:24:41Z</time>
      </trkpt>
      <trkpt lat="44.13206" lon="2.92709">
        <ele>793.5</ele>
        <time>2010-01-01T05:24:42Z</time>
      </trkpt>
      <trkpt lat="44.1321" lon="2.92708">
        <ele>793.2</ele>
        <time>2010-01-01T05:24:44Z</time>
      </trkpt>
      <trkpt lat="44.13213" lon="2.92701">
        <ele>794.1</ele>
        <time>2010-01-01T05:24:46Z</time>
      </trkpt>
      <trkpt lat="44.13214" lon="2.92694">
        <ele>795.5</ele>
        <time>2010-01-01T05:24:49Z</time>
      </trkpt>
      <trkpt lat="44.13214" lon="2.92684">
        <ele>797.4</ele>
        <time>2010-01-01T05:24:51Z</time>
      </trkpt>
      <trkpt lat="44.13213" lon="2.9268">
        <ele>798.4</ele>
        <time>2010-01-01T05:24:53Z</time>
      </trkpt>
      <trkpt lat="44.13211" lon="2.92672">
        <ele>800.1</ele>
        <time>2010-01-01T05:24:55Z</time>
      </trkpt>
      <trkpt lat="44.13207" lon="2.92667">
        <ele>801.6</ele>
        <time>2010-01-01T05:24:57Z</time>
      </trkpt>
      <trkpt lat="44.13206" lon="2.92666">
        <ele>801.9</ele>
        <time>2010-01-01T05:24:58Z</time>
      </trkpt>
      <trkpt lat="44.13202" lon="2.92664">
        <ele>802.6</ele>
        <time>2010-01-01T05:24:59Z</time>
      </trkpt>
      <trkpt lat="44.13202" lon="2.92663">
        <ele>802.7</ele>
        <time>2010-01-01T05:25:00Z</time>
      </trkpt>
      <trkpt lat="44.13199" lon="2.92661">
        <ele>803.4</ele>
        <time>2010-01-01T05:25:01Z</time>
      </trkpt>
      <trkpt lat="44.13194" lon="2.92655">
        <ele>804.7</ele>
        <time>2010-01-01T05:25:04Z</time>
      </trkpt>
      <trkpt lat="44.13189" lon="2.92649">
        <ele>806.1</ele>
        <time>2010-01-01T05:25:06Z</time>
      </trkpt>
      <trkpt lat="44.13186" lon="2.92643">
        <ele>807.3</ele>
        <time>2010-01-01T05:25:08Z</time>
      </trkpt>
      <trkpt lat="44.13185" lon="2.92639">
        <ele>808.1</ele>
        <time>2010-01-01T05:25:10Z</time>
      </trkpt>
      <trkpt lat="44.13183" lon="2.9263">
        <ele>809.6</ele>
        <time>2010-01-01T05:25:12Z</time>
      </trkpt>
      <trkpt lat="44.13181" lon="2.9262">
        <ele>811.3</ele>
        <time>2010-01-01T05:25:15Z</time>
      </trkpt>
      <trkpt lat="44.13181" lon="2.92613">
        <ele>812.4</ele>
        <time>2010-01-01T05:25:17Z</time>
      </trkpt>
      <trkpt lat="44.1318" lon="2.92604">
        <ele>813.7</ele>
        <time>2010-01-01T05:25:20Z</time>
      </trkpt>
      <trkpt lat="44.1318" lon="2.92602">
        <ele>814.1</ele>
        <time>2010-01-01T05:25:21Z</time>
      </trkpt>
      <trkpt lat="44.13172" lon="2.92594">
        <ele>816</ele>
        <time>2010-01-01T05:25:24Z</time>
      </trkpt>
      <trkpt lat="44.13169" lon="2.92585">
        <ele>817.6</ele>
        <time>2010-01-01T05:25:27Z</time>
      </trkpt>
      <trkpt lat="44.13171" lon="2.92568">
        <ele>819.6</ele>
        <time>2010-01-01T05:25:32Z</time>
      </trkpt>
      <trkpt lat="44.13178" lon="2.92552">
        <ele>821.1</ele>
        <time>2010-01-01T05:25:37Z</time>
      </trkpt>
      <trkpt lat="44.13182" lon="2.92538">
        <ele>822.5</ele>
        <time>2010-01-01T05:25:42Z</time>
      </trkpt>
      <trkpt lat="44.13187" lon="2.92521">
        <ele>824.3</ele>
        <time>2010-01-01T05:25:47Z</time>
      </trkpt>
      <trkpt lat="44.13194" lon="2.92504">
        <ele>826.1</ele>
        <time>2010-01-01T05:25:53Z</time>
      </trkpt>
      <trkpt lat="44.13203" lon="2.92485">
        <ele>827.2</ele>
        <time>2010-01-01T05:25:59Z</time>
      </trkpt>
      <trkpt lat="44.1321" lon="2.92467">
        <ele>828.2</ele>
        <time>2010-01-01T05:26:05Z</time>
      </trkpt>
      <trkpt lat="44.13219" lon="2.92446">
        <ele>829.4</ele>
        <time>2010-01-01T05:26:12Z</time>
      </trkpt>
      <trkpt lat="44.13226" lon="2.92429">
        <ele>830.7</ele>
        <time>2010-01-01T05:26:18Z</time>
      </trkpt>
      <trkpt lat="44.13236" lon="2.92405">
        <ele>832.6</ele>
        <time>2010-01-01T05:26:26Z</time>
      </trkpt>
      <trkpt lat="44.13242" lon="2.9239">
        <ele>833.8</ele>
        <time>2010-01-01T05:26:31Z</time>
      </trkpt>
      <trkpt lat="44.13249" lon="2.92372">
        <ele>835.3</ele>
        <time>2010-01-01T05:26:37Z</time>
      </trkpt>
      <trkpt lat="44.13257" lon="2.92354">
        <ele>836.6</ele>
        <time>2010-01-01T05:26:43Z</time>
      </trkpt>
      <trkpt lat="44.13264" lon="2.92334">
        <ele>838.2</ele>
        <time>2010-01-01T05:26:49Z</time>
      </trkpt>
      <trkpt lat="44.13272" lon="2.92316">
        <ele>838.9</ele>
        <time>2010-01-01T05:26:55Z</time>
      </trkpt>
      <trkpt lat="44.13279" lon="2.92295">
        <ele>839.8</ele>
        <time>2010-01-01T05:27:02Z</time>
      </trkpt>
      <trkpt lat="44.13287" lon="2.92274">
        <ele>840.7</ele>
        <time>2010-01-01T05:27:08Z</time>
      </trkpt>
      <trkpt lat="44.13293" lon="2.92263">
        <ele>841.2</ele>
        <time>2010-01-01T05:27:13Z</time>
      </trkpt>
      <trkpt lat="44.13299" lon="2.92251">
        <ele>841.8</ele>
        <time>2010-01-01T05:27:17Z</time>
      </trkpt>
      <trkpt lat="44.13307" lon="2.92228">
        <ele>843.8</ele>
        <time>2010-01-01T05:27:24Z</time>
      </trkpt>
      <trkpt lat="44.13314" lon="2.92212">
        <ele>845.4</ele>
        <time>2010-01-01T05:27:30Z</time>
      </trkpt>
      <trkpt lat="44.13323" lon="2.92192">
        <ele>847.4</ele>
        <time>2010-01-01T05:27:36Z</time>
      </trkpt>
      <trkpt lat="44.1333" lon="2.92175">
        <ele>849.1</ele>
        <time>2010-01-01T05:27:42Z</time>
      </trkpt>
      <trkpt lat="44.13339" lon="2.92155">
        <ele>850.7</ele>
        <time>2010-01-01T05:27:49Z</time>
      </trkpt>
      <trkpt lat="44.13349" lon="2.92135">
        <ele>851.9</ele>
        <time>2010-01-01T05:27:56Z</time>
      </trkpt>
      <trkpt lat="44.13359" lon="2.92116">
        <ele>853.3</ele>
        <time>2010-01-01T05:28:03Z</time>
      </trkpt>
      <trkpt lat="44.13368" lon="2.92104">
        <ele>854.3</ele>
        <time>2010-01-01T05:28:07Z</time>
      </trkpt>
      <trkpt lat="44.13381" lon="2.92082">
        <ele>856.2</ele>
        <time>2010-01-01T05:28:15Z</time>
      </trkpt>
      <trkpt lat="44.1339" lon="2.92068">
        <ele>857.4</ele>
        <time>2010-01-01T05:28:21Z</time>
      </trkpt>
      <trkpt lat="44.13399" lon="2.92055">
        <ele>858.5</ele>
        <time>2010-01-01T05:28:26Z</time>
      </trkpt>
      <trkpt lat="44.13409" lon="2.92039">
        <ele>859.9</ele>
        <time>2010-01-01T05:28:32Z</time>
      </trkpt>
      <trkpt lat="44.13416" lon="2.92027">
        <ele>861</ele>
        <time>2010-01-01T05:28:37Z</time>
      </trkpt>
      <trkpt lat="44.13423" lon="2.92012">
        <ele>862</ele>
        <time>2010-01-01T05:28:42Z</time>
      </trkpt>
      <trkpt lat="44.1343" lon="2.91992">
        <ele>863.1</ele>
        <time>2010-01-01T05:28:48Z</time>
      </trkpt>
      <trkpt lat="44.13434" lon="2.91981">
        <ele>863.5</ele>
        <time>2010-01-01T05:28:52Z</time>
      </trkpt>
      <trkpt lat="44.13437" lon="2.91964">
        <ele>864.2</ele>
        <time>2010-01-01T05:28:57Z</time>
      </trkpt>
      <trkpt lat="44.13441" lon="2.91949">
        <ele>864.8</ele>
        <time>2010-01-01T05:29:01Z</time>
      </trkpt>
      <trkpt lat="44.13446" lon="2.91937">
        <ele>865.3</ele>
        <time>2010-01-01T05:29:05Z</time>
      </trkpt>
      <trkpt lat="44.13451" lon="2.91924">
        <ele>865.8</ele>
        <time>2010-01-01T05:29:10Z</time>
      </trkpt>
      <trkpt lat="44.13457" lon="2.91911">
        <ele>866.3</ele>
        <time>2010-01-01T05:29:14Z</time>
      </trkpt>
      <trkpt lat="44.13463" lon="2.91894">
        <ele>867</ele>
        <time>2010-01-01T05:29:19Z</time>
      </trkpt>
      <trkpt lat="44.1347" lon="2.91878">
        <ele>867.7</ele>
        <time>2010-01-01T05:29:25Z</time>
      </trkpt>
      <trkpt lat="44.13478" lon="2.91862">
        <ele>868.5</ele>
        <time>2010-01-01T05:29:30Z</time>
      </trkpt>
      <trkpt lat="44.13484" lon="2.91843">
        <ele>869.5</ele>
        <time>2010-01-01T05:29:36Z</time>
      </trkpt>
      <trkpt lat="44.13487" lon="2.91829">
        <ele>870.2</ele>
        <time>2010-01-01T05:29:41Z</time>
      </trkpt>
      <trkpt lat="44.13492" lon="2.91813">
        <ele>871.2</ele>
        <time>2010-01-01T05:29:46Z</time>
      </trkpt>
      <trkpt lat="44.13498" lon="2.91794">
        <ele>872.3</ele>
        <time>2010-01-01T05:29:51Z</time>
      </trkpt>
      <trkpt lat="44.13508" lon="2.9177">
        <ele>873.6</ele>
        <time>2010-01-01T05:29:59Z</time>
      </trkpt>
      <trkpt lat="44.13516" lon="2.91747">
        <ele>874.5</ele>
        <time>2010-01-01T05:30:07Z</time>
      </trkpt>
      <trkpt lat="44.13521" lon="2.91734">
        <ele>874.7</ele>
        <time>2010-01-01T05:30:11Z</time>
      </trkpt>
      <trkpt lat="44.13526" lon="2.91712">
        <ele>875.1</ele>
        <time>2010-01-01T05:30:18Z</time>
      </trkpt>
      <trkpt lat="44.13533" lon="2.91687">
        <ele>875.6</ele>
        <time>2010-01-01T05:30:25Z</time>
      </trkpt>
      <trkpt lat="44.13538" lon="2.9167">
        <ele>876</ele>
        <time>2010-01-01T05:30:31Z</time>
      </trkpt>
      <trkpt lat="44.13545" lon="2.91638">
        <ele>876.7</ele>
        <time>2010-01-01T05:30:40Z</time>
      </trkpt>
      <trkpt lat="44.13552" lon="2.91617">
        <ele>877.2</ele>
        <time>2010-01-01T05:30:47Z</time>
      </trkpt>
      <trkpt lat="44.13564" lon="2.91595">
        <ele>878.1</ele>
        <time>2010-01-01T05:30:55Z</time>
      </trkpt>
      <trkpt lat="44.13573" lon="2.91577">
        <ele>878.8</ele>
        <time>2010-01-01T05:31:01Z</time>
      </trkpt>
      <trkpt lat="44.1358" lon="2.91558">
        <ele>879.2</ele>
        <time>2010-01-01T05:31:07Z</time>
      </trkpt>
      <trkpt lat="44.13587" lon="2.91537">
        <ele>879.8</ele>
        <time>2010-01-01T05:31:14Z</time>
      </trkpt>
      <trkpt lat="44.13593" lon="2.91516">
        <ele>880.4</ele>
        <time>2010-01-01T05:31:20Z</time>
      </trkpt>
      <trkpt lat="44.13598" lon="2.91503">
        <ele>881</ele>
        <time>2010-01-01T05:31:25Z</time>
      </trkpt>
      <trkpt lat="44.13604" lon="2.91482">
        <ele>882.3</ele>
        <time>2010-01-01T05:31:31Z</time>
      </trkpt>
      <trkpt lat="44.13607" lon="2.91466">
        <ele>883.4</ele>
        <time>2010-01-01T05:31:36Z</time>
      </trkpt>
      <trkpt lat="44.13609" lon="2.91455">
        <ele>884</ele>
        <time>2010-01-01T05:31:39Z</time>
      </trkpt>
      <trkpt lat="44.13612" lon="2.91438">
        <ele>885</ele>
        <time>2010-01-01T05:31:44Z</time>
      </trkpt>
      <trkpt lat="44.13614" lon="2.91427">
        <ele>885.7</ele>
        <time>2010-01-01T05:31:48Z</time>
      </trkpt>
      <trkpt lat="44.13616" lon="2.91417">
        <ele>886.4</ele>
        <time>2010-01-01T05:31:51Z</time>
      </trkpt>
      <trkpt lat="44.13616" lon="2.91413">
        <ele>886.5</ele>
        <time>2010-01-01T05:31:52Z</time>
      </trkpt>
      <trkpt lat="44.13621" lon="2.91398">
        <ele>887.6</ele>
        <time>2010-01-01T05:31:56Z</time>
      </trkpt>
      <trkpt lat="44.13625" lon="2.91384">
        <ele>888.6</ele>
        <time>2010-01-01T05:32:01Z</time>
      </trkpt>
      <trkpt lat="44.13627" lon="2.91376">
        <ele>889.1</ele>
        <time>2010-01-01T05:32:03Z</time>
      </trkpt>
      <trkpt lat="44.13631" lon="2.91359">
        <ele>890.2</ele>
        <time>2010-01-01T05:32:08Z</time>
      </trkpt>
      <trkpt lat="44.13634" lon="2.91348">
        <ele>890.9</ele>
        <time>2010-01-01T05:32:12Z</time>
      </trkpt>
      <trkpt lat="44.13639" lon="2.91332">
        <ele>892</ele>
        <time>2010-01-01T05:32:17Z</time>
      </trkpt>
      <trkpt lat="44.13644" lon="2.91321">
        <ele>892.7</ele>
        <time>2010-01-01T05:32:20Z</time>
      </trkpt>
      <trkpt lat="44.1365" lon="2.91308">
        <ele>893.6</ele>
        <time>2010-01-01T05:32:25Z</time>
      </trkpt>
      <trkpt lat="44.13656" lon="2.91298">
        <ele>894.2</ele>
        <time>2010-01-01T05:32:29Z</time>
      </trkpt>
      <trkpt lat="44.13658" lon="2.91294">
        <ele>894.4</ele>
        <time>2010-01-01T05:32:30Z</time>
      </trkpt>
      <trkpt lat="44.13667" lon="2.91283">
        <ele>895.2</ele>
        <time>2010-01-01T05:32:35Z</time>
      </trkpt>
      <trkpt lat="44.13669" lon="2.9128">
        <ele>895.4</ele>
        <time>2010-01-01T05:32:36Z</time>
      </trkpt>
      <trkpt lat="44.13675" lon="2.91275">
        <ele>895.8</ele>
        <time>2010-01-01T05:32:39Z</time>
      </trkpt>
      <trkpt lat="44.13686" lon="2.9127">
        <ele>896.4</ele>
        <time>2010-01-01T05:32:44Z</time>
      </trkpt>
      <trkpt lat="44.13693" lon="2.91265">
        <ele>896.8</ele>
        <time>2010-01-01T05:32:46Z</time>
      </trkpt>
      <trkpt lat="44.137" lon="2.91261">
        <ele>897.3</ele>
        <time>2010-01-01T05:32:49Z</time>
      </trkpt>
      <trkpt lat="44.13708" lon="2.91254">
        <ele>897.9</ele>
        <time>2010-01-01T05:32:53Z</time>
      </trkpt>
      <trkpt lat="44.13715" lon="2.91248">
        <ele>898.4</ele>
        <time>2010-01-01T05:32:56Z</time>
      </trkpt>
      <trkpt lat="44.13716" lon="2.91247">
        <ele>898.5</ele>
        <time>2010-01-01T05:32:57Z</time>
      </trkpt>
      <trkpt lat="44.13721" lon="2.9124">
        <ele>899.2</ele>
        <time>2010-01-01T05:33:00Z</time>
      </trkpt>
      <trkpt lat="44.13726" lon="2.91234">
        <ele>899.8</ele>
        <time>2010-01-01T05:33:03Z</time>
      </trkpt>
      <trkpt lat="44.1373" lon="2.9123">
        <ele>900.2</ele>
        <time>2010-01-01T05:33:04Z</time>
      </trkpt>
      <trkpt lat="44.13736" lon="2.91221">
        <ele>901.1</ele>
        <time>2010-01-01T05:33:08Z</time>
      </trkpt>
      <trkpt lat="44.13744" lon="2.91213">
        <ele>901.9</ele>
        <time>2010-01-01T05:33:12Z</time>
      </trkpt>
      <trkpt lat="44.13752" lon="2.91206">
        <ele>902.7</ele>
        <time>2010-01-01T05:33:16Z</time>
      </trkpt>
      <trkpt lat="44.13761" lon="2.91197">
        <ele>903.6</ele>
        <time>2010-01-01T05:33:20Z</time>
      </trkpt>
      <trkpt lat="44.13766" lon="2.91191">
        <ele>904.2</ele>
        <time>2010-01-01T05:33:23Z</time>
      </trkpt>
      <trkpt lat="44.13772" lon="2.91183">
        <ele>904.8</ele>
        <time>2010-01-01T05:33:26Z</time>
      </trkpt>
      <trkpt lat="44.13777" lon="2.91175">
        <ele>905.5</ele>
        <time>2010-01-01T05:33:29Z</time>
      </trkpt>
      <trkpt lat="44.13781" lon="2.91168">
        <ele>906.1</ele>
        <time>2010-01-01T05:33:32Z</time>
      </trkpt>
      <trkpt lat="44.13786" lon="2.91163">
        <ele>906.4</ele>
        <time>2010-01-01T05:33:34Z</time>
      </trkpt>
      <trkpt lat="44.13786" lon="2.91163">
        <ele>906.4</ele>
        <time>2010-01-01T05:33:34Z</time>
      </trkpt>
      <trkpt lat="44.13792" lon="2.91153">
        <ele>907</ele>
        <time>2010-01-01T05:33:38Z</time>
      </trkpt>
      <trkpt lat="44.13799" lon="2.91141">
        <ele>907.7</ele>
        <time>2010-01-01T05:33:42Z</time>
      </trkpt>
      <trkpt lat="44.13803" lon="2.91129">
        <ele>908.2</ele>
        <time>2010-01-01T05:33:46Z</time>
      </trkpt>
      <trkpt lat="44.13803" lon="2.91128">
        <ele>908.3</ele>
        <time>2010-01-01T05:33:46Z</time>
      </trkpt>
      <trkpt lat="44.13809" lon="2.91116">
        <ele>908.9</ele>
        <time>2010-01-01T05:33:51Z</time>
      </trkpt>
      <trkpt lat="44.1381" lon="2.91114">
        <ele>909.1</ele>
        <time>2010-01-01T05:33:51Z</time>
      </trkpt>
      <trkpt lat="44.13815" lon="2.91101">
        <ele>909.7</ele>
        <time>2010-01-01T05:33:55Z</time>
      </trkpt>
      <trkpt lat="44.13821" lon="2.91087">
        <ele>910.4</ele>
        <time>2010-01-01T05:34:00Z</time>
      </trkpt>
      <trkpt lat="44.13825" lon="2.91077">
        <ele>910.9</ele>
        <time>2010-01-01T05:34:04Z</time>
      </trkpt>
      <trkpt lat="44.13832" lon="2.91059">
        <ele>911.8</ele>
        <time>2010-01-01T05:34:10Z</time>
      </trkpt>
      <trkpt lat="44.13839" lon="2.91041">
        <ele>912.6</ele>
        <time>2010-01-01T05:34:15Z</time>
      </trkpt>
      <trkpt lat="44.13846" lon="2.91027">
        <ele>913.1</ele>
        <time>2010-01-01T05:34:20Z</time>
      </trkpt>
      <trkpt lat="44.13858" lon="2.91016">
        <ele>913.7</ele>
        <time>2010-01-01T05:34:26Z</time>
      </trkpt>
      <trkpt lat="44.13865" lon="2.91008">
        <ele>914.1</ele>
        <time>2010-01-01T05:34:30Z</time>
      </trkpt>
      <trkpt lat="44.13869" lon="2.90988">
        <ele>914.5</ele>
        <time>2010-01-01T05:34:36Z</time>
      </trkpt>
      <trkpt lat="44.13876" lon="2.90977">
        <ele>914.8</ele>
        <time>2010-01-01T05:34:40Z</time>
      </trkpt>
      <trkpt lat="44.13889" lon="2.90966">
        <ele>915.5</ele>
        <time>2010-01-01T05:34:46Z</time>
      </trkpt>
      <trkpt lat="44.13904" lon="2.90951">
        <ele>916.7</ele>
        <time>2010-01-01T05:34:53Z</time>
      </trkpt>
      <trkpt lat="44.13919" lon="2.90938">
        <ele>918.1</ele>
        <time>2010-01-01T05:35:01Z</time>
      </trkpt>
      <trkpt lat="44.13935" lon="2.90922">
        <ele>919.7</ele>
        <time>2010-01-01T05:35:09Z</time>
      </trkpt>
      <trkpt lat="44.13952" lon="2.9091">
        <ele>920.7</ele>
        <time>2010-01-01T05:35:16Z</time>
      </trkpt>
      <trkpt lat="44.13966" lon="2.90901">
        <ele>921.5</ele>
        <time>2010-01-01T05:35:22Z</time>
      </trkpt>
      <trkpt lat="44.13983" lon="2.9089">
        <ele>922.5</ele>
        <time>2010-01-01T05:35:30Z</time>
      </trkpt>
      <trkpt lat="44.14002" lon="2.90877">
        <ele>923.6</ele>
        <time>2010-01-01T05:35:38Z</time>
      </trkpt>
      <trkpt lat="44.14018" lon="2.90866">
        <ele>924.8</ele>
        <time>2010-01-01T05:35:45Z</time>
      </trkpt>
      <trkpt lat="44.14032" lon="2.90857">
        <ele>925.9</ele>
        <time>2010-01-01T05:35:52Z</time>
      </trkpt>
      <trkpt lat="44.14048" lon="2.90844">
        <ele>927.3</ele>
        <time>2010-01-01T05:35:59Z</time>
      </trkpt>
      <trkpt lat="44.14054" lon="2.90841">
        <ele>927.7</ele>
        <time>2010-01-01T05:36:02Z</time>
      </trkpt>
      <trkpt lat="44.14063" lon="2.90837">
        <ele>928.4</ele>
        <time>2010-01-01T05:36:05Z</time>
      </trkpt>
      <trkpt lat="44.14065" lon="2.90835">
        <ele>928.7</ele>
        <time>2010-01-01T05:36:06Z</time>
      </trkpt>
      <trkpt lat="44.14077" lon="2.90824">
        <ele>929.7</ele>
        <time>2010-01-01T05:36:12Z</time>
      </trkpt>
      <trkpt lat="44.14088" lon="2.90814">
        <ele>930.4</ele>
        <time>2010-01-01T05:36:17Z</time>
      </trkpt>
      <trkpt lat="44.14102" lon="2.90802">
        <ele>931.1</ele>
        <time>2010-01-01T05:36:24Z</time>
      </trkpt>
      <trkpt lat="44.14115" lon="2.90787">
        <ele>931.9</ele>
        <time>2010-01-01T05:36:30Z</time>
      </trkpt>
      <trkpt lat="44.14131" lon="2.90769">
        <ele>933.3</ele>
        <time>2010-01-01T05:36:39Z</time>
      </trkpt>
      <trkpt lat="44.14141" lon="2.9076">
        <ele>934.1</ele>
        <time>2010-01-01T05:36:44Z</time>
      </trkpt>
      <trkpt lat="44.14157" lon="2.90744">
        <ele>935.5</ele>
        <time>2010-01-01T05:36:52Z</time>
      </trkpt>
      <trkpt lat="44.14171" lon="2.9073">
        <ele>936.6</ele>
        <time>2010-01-01T05:36:58Z</time>
      </trkpt>
      <trkpt lat="44.14189" lon="2.90713">
        <ele>938.2</ele>
        <time>2010-01-01T05:37:07Z</time>
      </trkpt>
      <trkpt lat="44.14202" lon="2.907">
        <ele>939.5</ele>
        <time>2010-01-01T05:37:13Z</time>
      </trkpt>
      <trkpt lat="44.14211" lon="2.9069">
        <ele>940.5</ele>
        <time>2010-01-01T05:37:18Z</time>
      </trkpt>
      <trkpt lat="44.14223" lon="2.90677">
        <ele>942</ele>
        <time>2010-01-01T05:37:24Z</time>
      </trkpt>
      <trkpt lat="44.14232" lon="2.90668">
        <ele>943.2</ele>
        <time>2010-01-01T05:37:28Z</time>
      </trkpt>
      <trkpt lat="44.14241" lon="2.90661">
        <ele>944.3</ele>
        <time>2010-01-01T05:37:33Z</time>
      </trkpt>
      <trkpt lat="44.14248" lon="2.90653">
        <ele>945.3</ele>
        <time>2010-01-01T05:37:36Z</time>
      </trkpt>
      <trkpt lat="44.14256" lon="2.90642">
        <ele>946.4</ele>
        <time>2010-01-01T05:37:41Z</time>
      </trkpt>
      <trkpt lat="44.14264" lon="2.90634">
        <ele>947.4</ele>
        <time>2010-01-01T05:37:45Z</time>
      </trkpt>
      <trkpt lat="44.14273" lon="2.90626">
        <ele>948.5</ele>
        <time>2010-01-01T05:37:49Z</time>
      </trkpt>
      <trkpt lat="44.14283" lon="2.90621">
        <ele>949.7</ele>
        <time>2010-01-01T05:37:53Z</time>
      </trkpt>
      <trkpt lat="44.14292" lon="2.90614">
        <ele>950.9</ele>
        <time>2010-01-01T05:37:57Z</time>
      </trkpt>
      <trkpt lat="44.14301" lon="2.90606">
        <ele>952.2</ele>
        <time>2010-01-01T05:38:02Z</time>
      </trkpt>
      <trkpt lat="44.14314" lon="2.90598">
        <ele>954</ele>
        <time>2010-01-01T05:38:07Z</time>
      </trkpt>
      <trkpt lat="44.14323" lon="2.90599">
        <ele>954.9</ele>
        <time>2010-01-01T05:38:11Z</time>
      </trkpt>
      <trkpt lat="44.1433" lon="2.9061">
        <ele>954.8</ele>
        <time>2010-01-01T05:38:15Z</time>
      </trkpt>
      <trkpt lat="44.14344" lon="2.90628">
        <ele>953.8</ele>
        <time>2010-01-01T05:38:23Z</time>
      </trkpt>
      <trkpt lat="44.14356" lon="2.9064">
        <ele>952.9</ele>
        <time>2010-01-01T05:38:29Z</time>
      </trkpt>
      <trkpt lat="44.14372" lon="2.90651">
        <ele>952.1</ele>
        <time>2010-01-01T05:38:36Z</time>
      </trkpt>
      <trkpt lat="44.14387" lon="2.9066">
        <ele>951.5</ele>
        <time>2010-01-01T05:38:43Z</time>
      </trkpt>
      <trkpt lat="44.14409" lon="2.90669">
        <ele>950.9</ele>
        <time>2010-01-01T05:38:52Z</time>
      </trkpt>
      <trkpt lat="44.14436" lon="2.90679">
        <ele>949.7</ele>
        <time>2010-01-01T05:39:03Z</time>
      </trkpt>
      <trkpt lat="44.14478" lon="2.90698">
        <ele>946.5</ele>
        <time>2010-01-01T05:39:21Z</time>
      </trkpt>
      <trkpt lat="44.1447" lon="2.907">
        <ele>946.7</ele>
        <time>2021-02-13T18:15:50Z</time>
      </trkpt>
      <trkpt lat="44.1454" lon="2.90469">
        <ele>964</ele>
        <time>2021-02-13T18:16:32Z</time>
      </trkpt>
      <trkpt lat="44.14606" lon="2.90458">
        <ele>963</ele>
        <time>2021-02-13T18:16:48Z</time>
      </trkpt>
      <trkpt lat="44.14729" lon="2.90239">
        <ele>987.8</ele>
        <time>2021-02-13T18:17:34Z</time>
      </trkpt>
      <trkpt lat="44.14859" lon="2.90061">
        <ele>995.1</ele>
        <time>2021-02-13T18:18:17Z</time>
      </trkpt>
      <trkpt lat="44.14871" lon="2.89975">
        <ele>1000.8</ele>
        <time>2021-02-13T18:18:31Z</time>
      </trkpt>
      <trkpt lat="44.1484" lon="2.89874">
        <ele>1010.8</ele>
        <time>2021-02-13T18:18:50Z</time>
      </trkpt>
      <trkpt lat="44.14789" lon="2.89793">
        <ele>1013.8</ele>
        <time>2021-02-13T18:19:08Z</time>
      </trkpt>
      <trkpt lat="44.14882" lon="2.89748">
        <ele>1020.4</ele>
        <time>2021-02-13T18:19:31Z</time>
      </trkpt>
      <trkpt lat="44.14986" lon="2.89692">
        <ele>1029.5</ele>
        <time>2021-02-13T18:19:57Z</time>
      </trkpt>
      <trkpt lat="44.15131" lon="2.89675">
        <ele>1023.8</ele>
        <time>2021-02-13T18:20:31Z</time>
      </trkpt>
      <trkpt lat="44.1523" lon="2.89615">
        <ele>1020.5</ele>
        <time>2021-02-13T18:20:56Z</time>
      </trkpt>
      <trkpt lat="44.15299" lon="2.89587">
        <ele>1023.4</ele>
        <time>2021-02-13T18:21:13Z</time>
      </trkpt>
      <trkpt lat="44.15334" lon="2.89514">
        <ele>1034.2</ele>
        <time>2021-02-13T18:21:28Z</time>
      </trkpt>
      <trkpt lat="44.15439" lon="2.89503">
        <ele>1037.8</ele>
        <time>2021-02-13T18:21:52Z</time>
      </trkpt>
      <trkpt lat="44.15502" lon="2.89548">
        <ele>1030.9</ele>
        <time>2021-02-13T18:22:09Z</time>
      </trkpt>
      <trkpt lat="44.15684" lon="2.89454">
        <ele>1044.3</ele>
        <time>2021-02-13T18:22:54Z</time>
      </trkpt>
      <trkpt lat="44.15693" lon="2.89378">
        <ele>1048.4</ele>
        <time>2021-02-13T18:23:07Z</time>
      </trkpt>
      <trkpt lat="44.15664" lon="2.89241">
        <ele>1051.2</ele>
        <time>2021-02-13T18:23:31Z</time>
      </trkpt>
      <trkpt lat="44.15596" lon="2.88939">
        <ele>1049.8</ele>
        <time>2021-02-13T18:24:24Z</time>
      </trkpt>
      <trkpt lat="44.15704" lon="2.88597">
        <ele>1036.2</ele>
        <time>2021-02-13T18:25:27Z</time>
      </trkpt>
      <trkpt lat="44.15714" lon="2.88454">
        <ele>1028.8</ele>
        <time>2021-02-13T18:25:51Z</time>
      </trkpt>
      <trkpt lat="44.15667" lon="2.88237">
        <ele>1024.9</ele>
        <time>2021-02-13T18:26:29Z</time>
      </trkpt>
      <trkpt lat="44.15597" lon="2.88033">
        <ele>1015.2</ele>
        <time>2021-02-13T18:27:06Z</time>
      </trkpt>
      <trkpt lat="44.15545" lon="2.87932">
        <ele>1005.9</ele>
        <time>2021-02-13T18:27:27Z</time>
      </trkpt>
      <trkpt lat="44.15454" lon="2.87806">
        <ele>1004.9</ele>
        <time>2021-02-13T18:27:57Z</time>
      </trkpt>
      <trkpt lat="44.15353" lon="2.87574">
        <ele>993.7</ele>
        <time>2021-02-13T18:28:43Z</time>
      </trkpt>
      <trkpt lat="44.15214" lon="2.8717">
        <ele>983.8</ele>
        <time>2021-02-13T18:29:58Z</time>
      </trkpt>
      <trkpt lat="44.15185" lon="2.87063">
        <ele>983.6</ele>
        <time>2021-02-13T18:30:17Z</time>
      </trkpt>
      <trkpt lat="44.15129" lon="2.86922">
        <ele>983.6</ele>
        <time>2021-02-13T18:30:44Z</time>
      </trkpt>
      <trkpt lat="44.15062" lon="2.86821">
        <ele>985.4</ele>
        <time>2021-02-13T18:31:07Z</time>
      </trkpt>
      <trkpt lat="44.1488" lon="2.8681">
        <ele>1008.9</ele>
        <time>2021-02-13T18:31:50Z</time>
      </trkpt>
      <trkpt lat="44.14669" lon="2.86606">
        <ele>1013.4</ele>
        <time>2021-02-13T18:32:50Z</time>
      </trkpt>
      <trkpt lat="44.14517" lon="2.86492">
        <ele>1013.2</ele>
        <time>2021-02-13T18:33:30Z</time>
      </trkpt>
      <trkpt lat="44.14394" lon="2.8643">
        <ele>1010.1</ele>
        <time>2021-02-13T18:34:00Z</time>
      </trkpt>
      <trkpt lat="44.14283" lon="2.86501">
        <ele>1011.8</ele>
        <time>2021-02-13T18:34:29Z</time>
      </trkpt>
      <trkpt lat="44.1426" lon="2.86632">
        <ele>1016</ele>
        <time>2021-02-13T18:34:51Z</time>
      </trkpt>
      <trkpt lat="44.14179" lon="2.86741">
        <ele>1019.8</ele>
        <time>2021-02-13T18:35:18Z</time>
      </trkpt>
      <trkpt lat="44.14407" lon="2.87175">
        <ele>1051.8</ele>
        <time>2021-02-13T18:36:48Z</time>
      </trkpt>
      <trkpt lat="44.14521" lon="2.86988">
        <ele>1056.7</ele>
        <time>2021-02-13T18:37:29Z</time>
      </trkpt>
      <trkpt lat="44.14609" lon="2.87035">
        <ele>1068.5</ele>
        <time>2021-02-13T18:37:51Z</time>
      </trkpt>
      <trkpt lat="44.14701" lon="2.87177">
        <ele>1077.6</ele>
        <time>2021-02-13T18:38:23Z</time>
      </trkpt>
      <trkpt lat="44.14698" lon="2.87276">
        <ele>1080.8</ele>
        <time>2021-02-13T18:38:40Z</time>
      </trkpt>
      <trkpt lat="44.14808" lon="2.87381">
        <ele>1078.6</ele>
        <time>2021-02-13T18:39:11Z</time>
      </trkpt>
      <trkpt lat="44.14794" lon="2.87479">
        <ele>1079.2</ele>
        <time>2021-02-13T18:39:28Z</time>
      </trkpt>
      <trkpt lat="44.14752" lon="2.87501">
        <ele>1081.8</ele>
        <time>2021-02-13T18:39:38Z</time>
      </trkpt>
      <trkpt lat="44.14972" lon="2.88007">
        <ele>1088.4</ele>
        <time>2021-02-13T18:41:17Z</time>
      </trkpt>
      <trkpt lat="44.15133" lon="2.88185">
        <ele>1088.4</ele>
        <time>2021-02-13T18:42:05Z</time>
      </trkpt>
      <trkpt lat="44.15242" lon="2.88346">
        <ele>1091.6</ele>
        <time>2021-02-13T18:42:42Z</time>
      </trkpt>
      <trkpt lat="44.15302" lon="2.88565">
        <ele>1092.7</ele>
        <time>2021-02-13T18:43:22Z</time>
      </trkpt>
      <trkpt lat="44.15371" lon="2.8887">
        <ele>1080.4</ele>
        <time>2021-02-13T18:44:15Z</time>
      </trkpt>
      <trkpt lat="44.15402" lon="2.88947">
        <ele>1075.6</ele>
        <time>2021-02-13T18:44:30Z</time>
      </trkpt>
      <trkpt lat="44.15659" lon="2.89314">
        <ele>1049.6</ele>
        <time>2021-02-13T18:45:56Z</time>
      </trkpt>
      <trkpt lat="44.15722" lon="2.89398">
        <ele>1049</ele>
        <time>2021-02-13T18:46:16Z</time>
      </trkpt>
      <trkpt lat="44.15895" lon="2.89396">
        <ele>1058.5</ele>
        <time>2021-02-13T18:46:57Z</time>
      </trkpt>
      <trkpt lat="44.16092" lon="2.89565">
        <ele>1083.5</ele>
        <time>2021-02-13T18:47:51Z</time>
      </trkpt>
      <trkpt lat="44.16256" lon="2.89668">
        <ele>1096.1</ele>
        <time>2021-02-13T18:48:33Z</time>
      </trkpt>
      <trkpt lat="44.16578" lon="2.90132">
        <ele>1092.8</ele>
        <time>2021-02-13T18:50:21Z</time>
      </trkpt>
      <trkpt lat="44.1685" lon="2.9049">
        <ele>1085.3</ele>
        <time>2021-02-13T18:51:48Z</time>
      </trkpt>
      <trkpt lat="44.17057" lon="2.90739">
        <ele>1069.8</ele>
        <time>2021-02-13T18:52:52Z</time>
      </trkpt>
      <trkpt lat="44.17277" lon="2.90941">
        <ele>1061.6</ele>
        <time>2021-02-13T18:53:54Z</time>
      </trkpt>
      <trkpt lat="44.17522" lon="2.91095">
        <ele>1056.3</ele>
        <time>2021-02-13T18:54:56Z</time>
      </trkpt>
      <trkpt lat="44.17768" lon="2.91177">
        <ele>1064.5</ele>
        <time>2021-02-13T18:55:55Z</time>
      </trkpt>
      <trkpt lat="44.1786" lon="2.91245">
        <ele>1065.6</ele>
        <time>2021-02-13T18:56:20Z</time>
      </trkpt>
      <trkpt lat="44.17928" lon="2.91385">
        <ele>1062.6</ele>
        <time>2021-02-13T18:56:48Z</time>
      </trkpt>
      <trkpt lat="44.17923" lon="2.91456">
        <ele>1061.6</ele>
        <time>2021-02-13T18:57:00Z</time>
      </trkpt>
      <trkpt lat="44.17906" lon="2.91524">
        <ele>1059.4</ele>
        <time>2021-02-13T18:57:12Z</time>
      </trkpt>
      <trkpt lat="44.18003" lon="2.91617">
        <ele>1058.2</ele>
        <time>2021-02-13T18:57:39Z</time>
      </trkpt>
      <trkpt lat="44.18062" lon="2.91797">
        <ele>1060.2</ele>
        <time>2021-02-13T18:58:13Z</time>
      </trkpt>
      <trkpt lat="44.18176" lon="2.91936">
        <ele>1059.4</ele>
        <time>2021-02-13T18:58:48Z</time>
      </trkpt>
      <trkpt lat="44.18208" lon="2.92044">
        <ele>1052.4</ele>
        <time>2021-02-13T18:59:08Z</time>
      </trkpt>
      <trkpt lat="44.18325" lon="2.92046">
        <ele>1056.6</ele>
        <time>2021-02-13T18:59:35Z</time>
      </trkpt>
      <trkpt lat="44.18523" lon="2.9223">
        <ele>1043.6</ele>
        <time>2021-02-13T19:00:30Z</time>
      </trkpt>
      <trkpt lat="44.18603" lon="2.92398">
        <ele>1042.3</ele>
        <time>2021-02-13T19:01:04Z</time>
      </trkpt>
      <trkpt lat="44.18613" lon="2.92501">
        <ele>1032.7</ele>
        <time>2021-02-13T19:01:22Z</time>
      </trkpt>
      <trkpt lat="44.18743" lon="2.92599">
        <ele>1020.1</ele>
        <time>2021-02-13T19:01:56Z</time>
      </trkpt>
      <trkpt lat="44.1885" lon="2.92574">
        <ele>1016.3</ele>
        <time>2021-02-13T19:02:21Z</time>
      </trkpt>
      <trkpt lat="44.18957" lon="2.92462">
        <ele>1007.9</ele>
        <time>2021-02-13T19:02:53Z</time>
      </trkpt>
      <trkpt lat="44.18963" lon="2.92503">
        <ele>1009</ele>
        <time>2021-02-13T19:03:00Z</time>
      </trkpt>
      <trkpt lat="44.18913" lon="2.92589">
        <ele>1011.1</ele>
        <time>2021-02-13T19:03:18Z</time>
      </trkpt>
      <trkpt lat="44.19088" lon="2.92535">
        <ele>1012</ele>
        <time>2021-02-13T19:04:00Z</time>
      </trkpt>
      <trkpt lat="44.19211" lon="2.92494">
        <ele>1010.7</ele>
        <time>2021-02-13T19:04:30Z</time>
      </trkpt>
      <trkpt lat="44.19331" lon="2.92552">
        <ele>1010.4</ele>
        <time>2021-02-13T19:04:59Z</time>
      </trkpt>
      <trkpt lat="44.19451" lon="2.92715">
        <ele>1010.1</ele>
        <time>2021-02-13T19:05:38Z</time>
      </trkpt>
      <trkpt lat="44.1951" lon="2.92857">
        <ele>1000.6</ele>
        <time>2021-02-13T19:06:06Z</time>
      </trkpt>
      <trkpt lat="44.19557" lon="2.9305">
        <ele>995.5</ele>
        <time>2021-02-13T19:06:40Z</time>
      </trkpt>
      <trkpt lat="44.19594" lon="2.93155">
        <ele>995.2</ele>
        <time>2021-02-13T19:07:00Z</time>
      </trkpt>
      <trkpt lat="44.1969" lon="2.93183">
        <ele>996.7</ele>
        <time>2021-02-13T19:07:23Z</time>
      </trkpt>
      <trkpt lat="44.19983" lon="2.93097">
        <ele>998.5</ele>
        <time>2021-02-13T19:08:32Z</time>
      </trkpt>
      <trkpt lat="44.20057" lon="2.93237">
        <ele>997.6</ele>
        <time>2021-02-13T19:09:02Z</time>
      </trkpt>
      <trkpt lat="44.20125" lon="2.93359">
        <ele>1006.1</ele>
        <time>2021-02-13T19:09:27Z</time>
      </trkpt>
      <trkpt lat="44.20209" lon="2.9343">
        <ele>1015.3</ele>
        <time>2021-02-13T19:09:50Z</time>
      </trkpt>
      <trkpt lat="44.20277" lon="2.93413">
        <ele>1022.4</ele>
        <time>2021-02-13T19:10:07Z</time>
      </trkpt>
      <trkpt lat="44.2032" lon="2.93333">
        <ele>1030</ele>
        <time>2021-02-13T19:10:23Z</time>
      </trkpt>
      <trkpt lat="44.2034" lon="2.93228">
        <ele>1035.3</ele>
        <time>2021-02-13T19:10:41Z</time>
      </trkpt>
      <trkpt lat="44.20436" lon="2.93084">
        <ele>1025</ele>
        <time>2021-02-13T19:11:14Z</time>
      </trkpt>
      <trkpt lat="44.20765" lon="2.9323">
        <ele>1044.9</ele>
        <time>2021-02-13T19:12:35Z</time>
      </trkpt>
      <trkpt lat="44.2084" lon="2.9334">
        <ele>1049.4</ele>
        <time>2021-02-13T19:13:00Z</time>
      </trkpt>
      <trkpt lat="44.20999" lon="2.9344">
        <ele>1064.7</ele>
        <time>2021-02-13T19:13:41Z</time>
      </trkpt>
      <trkpt lat="44.21146" lon="2.93419">
        <ele>1076.3</ele>
        <time>2021-02-13T19:14:16Z</time>
      </trkpt>
      <trkpt lat="44.21248" lon="2.93224">
        <ele>1092</ele>
        <time>2021-02-13T19:14:56Z</time>
      </trkpt>
      <trkpt lat="44.21314" lon="2.93185">
        <ele>1101.7</ele>
        <time>2021-02-13T19:15:13Z</time>
      </trkpt>
      <trkpt lat="44.21354" lon="2.92955">
        <ele>1110.1</ele>
        <time>2021-02-13T19:15:52Z</time>
      </trkpt>
      <trkpt lat="44.21558" lon="2.92979">
        <ele>1121.3</ele>
        <time>2021-02-13T19:16:40Z</time>
      </trkpt>
      <trkpt lat="44.21369" lon="2.92996">
        <ele>1111</ele>
        <time>2021-02-13T19:17:24Z</time>
      </trkpt>
      <trkpt lat="44.21331" lon="2.93196">
        <ele>1104.3</ele>
        <time>2021-02-13T19:17:59Z</time>
      </trkpt>
      <trkpt lat="44.21268" lon="2.93256">
        <ele>1095.4</ele>
        <time>2021-02-13T19:18:17Z</time>
      </trkpt>
      <trkpt lat="44.21192" lon="2.93395">
        <ele>1081.7</ele>
        <time>2021-02-13T19:18:46Z</time>
      </trkpt>
      <trkpt lat="44.21282" lon="2.93449">
        <ele>1082.5</ele>
        <time>2021-02-13T19:19:09Z</time>
      </trkpt>
      <trkpt lat="44.21274" lon="2.93565">
        <ele>1068.9</ele>
        <time>2021-02-13T19:19:29Z</time>
      </trkpt>
      <trkpt lat="44.21214" lon="2.93752">
        <ele>1046.7</ele>
        <time>2021-02-13T19:20:03Z</time>
      </trkpt>
      <trkpt lat="44.21135" lon="2.93741">
        <ele>1046.7</ele>
        <time>2021-02-13T19:20:21Z</time>
      </trkpt>
      <trkpt lat="44.21186" lon="2.93825">
        <ele>1035.1</ele>
        <time>2021-02-13T19:20:40Z</time>
      </trkpt>
      <trkpt lat="44.21048" lon="2.94103">
        <ele>1020.8</ele>
        <time>2021-02-13T19:21:36Z</time>
      </trkpt>
      <trkpt lat="44.20862" lon="2.94389">
        <ele>985.5</ele>
        <time>2021-02-13T19:22:41Z</time>
      </trkpt>
      <trkpt lat="44.20766" lon="2.94509">
        <ele>971.4</ele>
        <time>2021-02-13T19:23:11Z</time>
      </trkpt>
      <trkpt lat="44.20734" lon="2.94663">
        <ele>949.5</ele>
        <time>2021-02-13T19:23:38Z</time>
      </trkpt>
      <trkpt lat="44.20708" lon="2.94934">
        <ele>924.1</ele>
        <time>2021-02-13T19:24:24Z</time>
      </trkpt>
      <trkpt lat="44.20657" lon="2.95114">
        <ele>899.6</ele>
        <time>2021-02-13T19:24:56Z</time>
      </trkpt>
      <trkpt lat="44.20565" lon="2.9523">
        <ele>892.1</ele>
        <time>2021-02-13T19:25:25Z</time>
      </trkpt>
      <trkpt lat="44.20462" lon="2.95389">
        <ele>867</ele>
        <time>2021-02-13T19:26:01Z</time>
      </trkpt>
      <trkpt lat="44.20269" lon="2.95457">
        <ele>849.8</ele>
        <time>2021-02-13T19:26:48Z</time>
      </trkpt>
      <trkpt lat="44.20422" lon="2.95593">
        <ele>833.7</ele>
        <time>2021-02-13T19:27:30Z</time>
      </trkpt>
      <trkpt lat="44.20228" lon="2.95786">
        <ele>816.9</ele>
        <time>2021-02-13T19:28:26Z</time>
      </trkpt>
      <trkpt lat="44.201" lon="2.95968">
        <ele>810.1</ele>
        <time>2021-02-13T19:29:08Z</time>
      </trkpt>
      <trkpt lat="44.1998" lon="2.96045">
        <ele>810.8</ele>
        <time>2021-02-13T19:29:39Z</time>
      </trkpt>
      <trkpt lat="44.19783" lon="2.9609">
        <ele>818.6</ele>
        <time>2021-02-13T19:30:26Z</time>
      </trkpt>
      <trkpt lat="44.19628" lon="2.96217">
        <ele>830.9</ele>
        <time>2021-02-13T19:31:08Z</time>
      </trkpt>
      <trkpt lat="44.1954" lon="2.96357">
        <ele>841.7</ele>
        <time>2021-02-13T19:31:39Z</time>
      </trkpt>
      <trkpt lat="44.19425" lon="2.96436">
        <ele>852.4</ele>
        <time>2021-02-13T19:32:09Z</time>
      </trkpt>
      <trkpt lat="44.19236" lon="2.96496">
        <ele>859.5</ele>
        <time>2021-02-13T19:32:54Z</time>
      </trkpt>
      <trkpt lat="44.19156" lon="2.96526">
        <ele>858.1</ele>
        <time>2021-02-13T19:33:13Z</time>
      </trkpt>
      <trkpt lat="44.1898" lon="2.96563">
        <ele>864.5</ele>
        <time>2021-02-13T19:33:55Z</time>
      </trkpt>
      <trkpt lat="44.18931" lon="2.96537">
        <ele>867</ele>
        <time>2021-02-13T19:34:07Z</time>
      </trkpt>
      <trkpt lat="44.18825" lon="2.96565">
        <ele>878</ele>
        <time>2021-02-13T19:34:32Z</time>
      </trkpt>
      <trkpt lat="44.18782" lon="2.9649">
        <ele>868.1</ele>
        <time>2021-02-13T19:34:48Z</time>
      </trkpt>
      <trkpt lat="44.18693" lon="2.9644">
        <ele>866.9</ele>
        <time>2021-02-13T19:35:11Z</time>
      </trkpt>
      <trkpt lat="44.18614" lon="2.96354">
        <ele>853</ele>
        <time>2021-02-13T19:35:34Z</time>
      </trkpt>
      <trkpt lat="44.18562" lon="2.96341">
        <ele>846.3</ele>
        <time>2021-02-13T19:35:47Z</time>
      </trkpt>
      <trkpt lat="44.18382" lon="2.96593">
        <ele>832.3</ele>
        <time>2021-02-13T19:36:46Z</time>
      </trkpt>
      <trkpt lat="44.18373" lon="2.96678">
        <ele>829.6</ele>
        <time>2021-02-13T19:37:01Z</time>
      </trkpt>
      <trkpt lat="44.18454" lon="2.96764">
        <ele>819.1</ele>
        <time>2021-02-13T19:37:24Z</time>
      </trkpt>
      <trkpt lat="44.18569" lon="2.96766">
        <ele>832.8</ele>
        <time>2021-02-13T19:37:51Z</time>
      </trkpt>
      <trkpt lat="44.18594" lon="2.96826">
        <ele>817</ele>
        <time>2021-02-13T19:38:03Z</time>
      </trkpt>
      <trkpt lat="44.18348" lon="2.96805">
        <ele>794.3</ele>
        <time>2021-02-13T19:39:00Z</time>
      </trkpt>
      <trkpt lat="44.18242" lon="2.96893">
        <ele>770.2</ele>
        <time>2021-02-13T19:39:29Z</time>
      </trkpt>
      <trkpt lat="44.18089" lon="2.96874">
        <ele>759.5</ele>
        <time>2021-02-13T19:40:05Z</time>
      </trkpt>
      <trkpt lat="44.18022" lon="2.96895">
        <ele>748.1</ele>
        <time>2021-02-13T19:40:21Z</time>
      </trkpt>
      <trkpt lat="44.17985" lon="2.96801">
        <ele>765.4</ele>
        <time>2021-02-13T19:40:39Z</time>
      </trkpt>
      <trkpt lat="44.17943" lon="2.96809">
        <ele>760.8</ele>
        <time>2021-02-13T19:40:49Z</time>
      </trkpt>
      <trkpt lat="44.17911" lon="2.96747">
        <ele>764.1</ele>
        <time>2021-02-13T19:41:02Z</time>
      </trkpt>
      <trkpt lat="44.17959" lon="2.96573">
        <ele>774.5</ele>
        <time>2021-02-13T19:41:33Z</time>
      </trkpt>
      <trkpt lat="44.18002" lon="2.96468">
        <ele>788.1</ele>
        <time>2021-02-13T19:41:53Z</time>
      </trkpt>
      <trkpt lat="44.17957" lon="2.96427">
        <ele>781</ele>
        <time>2021-02-13T19:42:06Z</time>
      </trkpt>
      <trkpt lat="44.17948" lon="2.96294">
        <ele>790.4</ele>
        <time>2021-02-13T19:42:28Z</time>
      </trkpt>
      <trkpt lat="44.18008" lon="2.96185">
        <ele>789.2</ele>
        <time>2021-02-13T19:42:51Z</time>
      </trkpt>
      <trkpt lat="44.18036" lon="2.96202">
        <ele>788</ele>
        <time>2021-02-13T19:42:58Z</time>
      </trkpt>
      <trkpt lat="44.18149" lon="2.96307">
        <ele>792.7</ele>
        <time>2021-02-13T19:43:30Z</time>
      </trkpt>
      <trkpt lat="44.1822" lon="2.96369">
        <ele>791.5</ele>
        <time>2021-02-13T19:43:50Z</time>
      </trkpt>
      <trkpt lat="44.18232" lon="2.96423">
        <ele>796</ele>
        <time>2021-02-13T19:43:59Z</time>
      </trkpt>
      <trkpt lat="44.18286" lon="2.96442">
        <ele>794.4</ele>
        <time>2021-02-13T19:44:12Z</time>
      </trkpt>
      <trkpt lat="44.18299" lon="2.96485">
        <ele>801</ele>
        <time>2021-02-13T19:44:20Z</time>
      </trkpt>
      <trkpt lat="44.18336" lon="2.96485">
        <ele>801.6</ele>
        <time>2021-02-13T19:44:28Z</time>
      </trkpt>
      <trkpt lat="44.18363" lon="2.96444">
        <ele>800.4</ele>
        <time>2021-02-13T19:44:38Z</time>
      </trkpt>
      <trkpt lat="44.18369" lon="2.96387">
        <ele>790.6</ele>
        <time>2021-02-13T19:44:47Z</time>
      </trkpt>
      <trkpt lat="44.18416" lon="2.96326">
        <ele>790.9</ele>
        <time>2021-02-13T19:45:02Z</time>
      </trkpt>
      <trkpt lat="44.18403" lon="2.96247">
        <ele>787.7</ele>
        <time>2021-02-13T19:45:16Z</time>
      </trkpt>
      <trkpt lat="44.18394" lon="2.96176">
        <ele>783.6</ele>
        <time>2021-02-13T19:45:28Z</time>
      </trkpt>
      <trkpt lat="44.18409" lon="2.96099">
        <ele>780.3</ele>
        <time>2021-02-13T19:45:41Z</time>
      </trkpt>
      <trkpt lat="44.18451" lon="2.9597">
        <ele>769.8</ele>
        <time>2021-02-13T19:46:05Z</time>
      </trkpt>
      <trkpt lat="44.18476" lon="2.95887">
        <ele>764.2</ele>
        <time>2021-02-13T19:46:20Z</time>
      </trkpt>
      <trkpt lat="44.18431" lon="2.95831">
        <ele>751.7</ele>
        <time>2021-02-13T19:46:34Z</time>
      </trkpt>
      <trkpt lat="44.18391" lon="2.9591">
        <ele>744.9</ele>
        <time>2021-02-13T19:46:51Z</time>
      </trkpt>
      <trkpt lat="44.1834" lon="2.95904">
        <ele>732.9</ele>
        <time>2021-02-13T19:47:02Z</time>
      </trkpt>
      <trkpt lat="44.18288" lon="2.95934">
        <ele>726</ele>
        <time>2021-02-13T19:47:16Z</time>
      </trkpt>
      <trkpt lat="44.18229" lon="2.95895">
        <ele>717.5</ele>
        <time>2021-02-13T19:47:31Z</time>
      </trkpt>
      <trkpt lat="44.18196" lon="2.95955">
        <ele>728.1</ele>
        <time>2021-02-13T19:47:44Z</time>
      </trkpt>
      <trkpt lat="44.18163" lon="2.95889">
        <ele>720.3</ele>
        <time>2021-02-13T19:47:57Z</time>
      </trkpt>
      <trkpt lat="44.18116" lon="2.95777">
        <ele>710.8</ele>
        <time>2021-02-13T19:48:19Z</time>
      </trkpt>
      <trkpt lat="44.17985" lon="2.95575">
        <ele>684.1</ele>
        <time>2021-02-13T19:49:04Z</time>
      </trkpt>
      <trkpt lat="44.17859" lon="2.95535">
        <ele>670.6</ele>
        <time>2021-02-13T19:49:35Z</time>
      </trkpt>
      <trkpt lat="44.17706" lon="2.95537">
        <ele>656</ele>
        <time>2021-02-13T19:50:10Z</time>
      </trkpt>
      <trkpt lat="44.17598" lon="2.95554">
        <ele>649.6</ele>
        <time>2021-02-13T19:50:36Z</time>
      </trkpt>
      <trkpt lat="44.1748" lon="2.95655">
        <ele>658.9</ele>
        <time>2021-02-13T19:51:08Z</time>
      </trkpt>
      <trkpt lat="44.17375" lon="2.9558">
        <ele>630.4</ele>
        <time>2021-02-13T19:51:36Z</time>
      </trkpt>
      <trkpt lat="44.17249" lon="2.95533">
        <ele>629.2</ele>
        <time>2021-02-13T19:52:06Z</time>
      </trkpt>
      <trkpt lat="44.17115" lon="2.9564">
        <ele>629.9</ele>
        <time>2021-02-13T19:52:42Z</time>
      </trkpt>
      <trkpt lat="44.16941" lon="2.95726">
        <ele>635.2</ele>
        <time>2021-02-13T19:53:25Z</time>
      </trkpt>
      <trkpt lat="44.16832" lon="2.9576">
        <ele>636.5</ele>
        <time>2021-02-13T19:53:51Z</time>
      </trkpt>
      <trkpt lat="44.16714" lon="2.95719">
        <ele>630.1</ele>
        <time>2021-02-13T19:54:20Z</time>
      </trkpt>
      <trkpt lat="44.16646" lon="2.95773">
        <ele>624.7</ele>
        <time>2021-02-13T19:54:38Z</time>
      </trkpt>
      <trkpt lat="44.16654" lon="2.95781">
        <ele>623</ele>
        <time>2010-01-01T06:29:14Z</time>
      </trkpt>
      <trkpt lat="44.16666" lon="2.95785">
        <ele>621.6</ele>
        <time>2010-01-01T06:29:19Z</time>
      </trkpt>
      <trkpt lat="44.16669" lon="2.95787">
        <ele>621.5</ele>
        <time>2010-01-01T06:29:20Z</time>
      </trkpt>
      <trkpt lat="44.16683" lon="2.95804">
        <ele>621.2</ele>
        <time>2010-01-01T06:29:28Z</time>
      </trkpt>
      <trkpt lat="44.16705" lon="2.95842">
        <ele>619.7</ele>
        <time>2010-01-01T06:29:42Z</time>
      </trkpt>
      <trkpt lat="44.16714" lon="2.95867">
        <ele>617.4</ele>
        <time>2010-01-01T06:29:50Z</time>
      </trkpt>
      <trkpt lat="44.16715" lon="2.9588">
        <ele>616</ele>
        <time>2010-01-01T06:29:54Z</time>
      </trkpt>
      <trkpt lat="44.16721" lon="2.95897">
        <ele>614.6</ele>
        <time>2010-01-01T06:29:59Z</time>
      </trkpt>
      <trkpt lat="44.16731" lon="2.95914">
        <ele>613.4</ele>
        <time>2010-01-01T06:30:05Z</time>
      </trkpt>
      <trkpt lat="44.16735" lon="2.95925">
        <ele>612.7</ele>
        <time>2010-01-01T06:30:09Z</time>
      </trkpt>
      <trkpt lat="44.16728" lon="2.95933">
        <ele>611.3</ele>
        <time>2010-01-01T06:30:12Z</time>
      </trkpt>
      <trkpt lat="44.16714" lon="2.95929">
        <ele>610.3</ele>
        <time>2010-01-01T06:30:18Z</time>
      </trkpt>
      <trkpt lat="44.16685" lon="2.95919">
        <ele>608.5</ele>
        <time>2010-01-01T06:30:30Z</time>
      </trkpt>
      <trkpt lat="44.16639" lon="2.95915">
        <ele>605.3</ele>
        <time>2010-01-01T06:30:49Z</time>
      </trkpt>
      <trkpt lat="44.16625" lon="2.95921">
        <ele>603.7</ele>
        <time>2010-01-01T06:30:54Z</time>
      </trkpt>
      <trkpt lat="44.16614" lon="2.95957">
        <ele>600.1</ele>
        <time>2010-01-01T06:31:06Z</time>
      </trkpt>
      <trkpt lat="44.16612" lon="2.95964">
        <ele>599.5</ele>
        <time>2010-01-01T06:31:08Z</time>
      </trkpt>
      <trkpt lat="44.16599" lon="2.95971">
        <ele>598.4</ele>
        <time>2010-01-01T06:31:13Z</time>
      </trkpt>
      <trkpt lat="44.16596" lon="2.95968">
        <ele>598.5</ele>
        <time>2010-01-01T06:31:15Z</time>
      </trkpt>
      <trkpt lat="44.16579" lon="2.95951">
        <ele>599</ele>
        <time>2010-01-01T06:31:23Z</time>
      </trkpt>
      <trkpt lat="44.16554" lon="2.95943">
        <ele>599.8</ele>
        <time>2010-01-01T06:31:33Z</time>
      </trkpt>
      <trkpt lat="44.16545" lon="2.95953">
        <ele>599.1</ele>
        <time>2010-01-01T06:31:38Z</time>
      </trkpt>
      <trkpt lat="44.16547" lon="2.95964">
        <ele>598.3</ele>
        <time>2010-01-01T06:31:41Z</time>
      </trkpt>
      <trkpt lat="44.16552" lon="2.95991">
        <ele>596.3</ele>
        <time>2010-01-01T06:31:49Z</time>
      </trkpt>
      <trkpt lat="44.1656" lon="2.96006">
        <ele>596.3</ele>
        <time>2010-01-01T06:31:55Z</time>
      </trkpt>
      <trkpt lat="44.16562" lon="2.96009">
        <ele>596.6</ele>
        <time>2010-01-01T06:31:56Z</time>
      </trkpt>
      <trkpt lat="44.16564" lon="2.96012">
        <ele>596.9</ele>
        <time>2010-01-01T06:31:57Z</time>
      </trkpt>
      <trkpt lat="44.16567" lon="2.96018">
        <ele>597.5</ele>
        <time>2010-01-01T06:31:59Z</time>
      </trkpt>
      <trkpt lat="44.16569" lon="2.96021">
        <ele>597.8</ele>
        <time>2010-01-01T06:32:00Z</time>
      </trkpt>
      <trkpt lat="44.16564" lon="2.96035">
        <ele>599.1</ele>
        <time>2010-01-01T06:32:05Z</time>
      </trkpt>
      <trkpt lat="44.16558" lon="2.96034">
        <ele>598.9</ele>
        <time>2010-01-01T06:32:07Z</time>
      </trkpt>
      <trkpt lat="44.16531" lon="2.96031">
        <ele>598.1</ele>
        <time>2010-01-01T06:32:18Z</time>
      </trkpt>
      <trkpt lat="44.16512" lon="2.96031">
        <ele>597.8</ele>
        <time>2010-01-01T06:32:26Z</time>
      </trkpt>
      <trkpt lat="44.16498" lon="2.96023">
        <ele>597</ele>
        <time>2010-01-01T06:32:32Z</time>
      </trkpt>
      <trkpt lat="44.16472" lon="2.96039">
        <ele>598.2</ele>
        <time>2010-01-01T06:32:43Z</time>
      </trkpt>
      <trkpt lat="44.16468" lon="2.96043">
        <ele>598.4</ele>
        <time>2010-01-01T06:32:45Z</time>
      </trkpt>
      <trkpt lat="44.16445" lon="2.96059">
        <ele>598.4</ele>
        <time>2010-01-01T06:32:55Z</time>
      </trkpt>
      <trkpt lat="44.16426" lon="2.96074">
        <ele>597.7</ele>
        <time>2010-01-01T06:33:04Z</time>
      </trkpt>
      <trkpt lat="44.16419" lon="2.9608">
        <ele>597.2</ele>
        <time>2010-01-01T06:33:07Z</time>
      </trkpt>
      <trkpt lat="44.16406" lon="2.96111">
        <ele>601.8</ele>
        <time>2010-01-01T06:33:18Z</time>
      </trkpt>
      <trkpt lat="44.164" lon="2.96143">
        <ele>606.7</ele>
        <time>2010-01-01T06:33:27Z</time>
      </trkpt>
      <trkpt lat="44.164" lon="2.96176">
        <ele>609.5</ele>
        <time>2010-01-01T06:33:37Z</time>
      </trkpt>
      <trkpt lat="44.16403" lon="2.96205">
        <ele>609.5</ele>
        <time>2010-01-01T06:33:45Z</time>
      </trkpt>
      <trkpt lat="44.16399" lon="2.96235">
        <ele>611.6</ele>
        <time>2010-01-01T06:33:54Z</time>
      </trkpt>
      <trkpt lat="44.16396" lon="2.96253">
        <ele>613.1</ele>
        <time>2010-01-01T06:33:59Z</time>
      </trkpt>
      <trkpt lat="44.16393" lon="2.96272">
        <ele>614.5</ele>
        <time>2010-01-01T06:34:05Z</time>
      </trkpt>
      <trkpt lat="44.16384" lon="2.96291">
        <ele>617</ele>
        <time>2010-01-01T06:34:11Z</time>
      </trkpt>
      <trkpt lat="44.16372" lon="2.96307">
        <ele>619.6</ele>
        <time>2010-01-01T06:34:18Z</time>
      </trkpt>
      <trkpt lat="44.16363" lon="2.96329">
        <ele>620.8</ele>
        <time>2010-01-01T06:34:25Z</time>
      </trkpt>
      <trkpt lat="44.16353" lon="2.96353">
        <ele>621.6</ele>
        <time>2010-01-01T06:34:33Z</time>
      </trkpt>
      <trkpt lat="44.16342" lon="2.96382">
        <ele>620.8</ele>
        <time>2010-01-01T06:34:43Z</time>
      </trkpt>
      <trkpt lat="44.16333" lon="2.96408">
        <ele>618.7</ele>
        <time>2010-01-01T06:34:51Z</time>
      </trkpt>
      <trkpt lat="44.16327" lon="2.9643">
        <ele>621.2</ele>
        <time>2010-01-01T06:34:58Z</time>
      </trkpt>
      <trkpt lat="44.16323" lon="2.9645">
        <ele>622.8</ele>
        <time>2010-01-01T06:35:04Z</time>
      </trkpt>
      <trkpt lat="44.1632" lon="2.96463">
        <ele>624</ele>
        <time>2010-01-01T06:35:08Z</time>
      </trkpt>
      <trkpt lat="44.16314" lon="2.96481">
        <ele>625.9</ele>
        <time>2010-01-01T06:35:13Z</time>
      </trkpt>
      <trkpt lat="44.16308" lon="2.965">
        <ele>627.6</ele>
        <time>2010-01-01T06:35:19Z</time>
      </trkpt>
      <trkpt lat="44.16301" lon="2.96521">
        <ele>629.7</ele>
        <time>2010-01-01T06:35:26Z</time>
      </trkpt>
      <trkpt lat="44.16294" lon="2.96539">
        <ele>630.8</ele>
        <time>2010-01-01T06:35:32Z</time>
      </trkpt>
      <trkpt lat="44.16289" lon="2.96556">
        <ele>631.2</ele>
        <time>2010-01-01T06:35:37Z</time>
      </trkpt>
      <trkpt lat="44.16283" lon="2.96573">
        <ele>631.1</ele>
        <time>2010-01-01T06:35:42Z</time>
      </trkpt>
      <trkpt lat="44.16279" lon="2.96585">
        <ele>631</ele>
        <time>2010-01-01T06:35:46Z</time>
      </trkpt>
      <trkpt lat="44.16271" lon="2.96599">
        <ele>632</ele>
        <time>2010-01-01T06:35:51Z</time>
      </trkpt>
      <trkpt lat="44.16261" lon="2.96613">
        <ele>632.9</ele>
        <time>2010-01-01T06:35:57Z</time>
      </trkpt>
      <trkpt lat="44.16254" lon="2.96623">
        <ele>633.4</ele>
        <time>2010-01-01T06:36:01Z</time>
      </trkpt>
      <trkpt lat="44.16248" lon="2.96631">
        <ele>634.3</ele>
        <time>2010-01-01T06:36:04Z</time>
      </trkpt>
      <trkpt lat="44.16237" lon="2.9664">
        <ele>636.9</ele>
        <time>2010-01-01T06:36:09Z</time>
      </trkpt>
      <trkpt lat="44.16227" lon="2.96648">
        <ele>639.2</ele>
        <time>2010-01-01T06:36:14Z</time>
      </trkpt>
      <trkpt lat="44.16217" lon="2.96655">
        <ele>641.2</ele>
        <time>2010-01-01T06:36:19Z</time>
      </trkpt>
      <trkpt lat="44.16215" lon="2.96656">
        <ele>641.6</ele>
        <time>2010-01-01T06:36:19Z</time>
      </trkpt>
      <trkpt lat="44.1621" lon="2.96646">
        <ele>643.5</ele>
        <time>2010-01-01T06:36:23Z</time>
      </trkpt>
      <trkpt lat="44.1621" lon="2.96645">
        <ele>643.6</ele>
        <time>2010-01-01T06:36:23Z</time>
      </trkpt>
      <trkpt lat="44.16216" lon="2.96628">
        <ele>643.4</ele>
        <time>2010-01-01T06:36:28Z</time>
      </trkpt>
      <trkpt lat="44.16223" lon="2.96611">
        <ele>642.5</ele>
        <time>2010-01-01T06:36:34Z</time>
      </trkpt>
      <trkpt lat="44.16229" lon="2.96596">
        <ele>640.9</ele>
        <time>2010-01-01T06:36:39Z</time>
      </trkpt>
      <trkpt lat="44.16233" lon="2.96583">
        <ele>639.9</ele>
        <time>2010-01-01T06:36:43Z</time>
      </trkpt>
      <trkpt lat="44.16242" lon="2.96569">
        <ele>638.5</ele>
        <time>2010-01-01T06:36:48Z</time>
      </trkpt>
      <trkpt lat="44.16249" lon="2.96553">
        <ele>637.6</ele>
        <time>2010-01-01T06:36:54Z</time>
      </trkpt>
      <trkpt lat="44.16254" lon="2.96534">
        <ele>639.3</ele>
        <time>2010-01-01T06:37:00Z</time>
      </trkpt>
      <trkpt lat="44.16258" lon="2.96515">
        <ele>640.9</ele>
        <time>2010-01-01T06:37:05Z</time>
      </trkpt>
      <trkpt lat="44.16261" lon="2.96494">
        <ele>642.3</ele>
        <time>2010-01-01T06:37:12Z</time>
      </trkpt>
      <trkpt lat="44.16263" lon="2.96475">
        <ele>643.4</ele>
        <time>2010-01-01T06:37:17Z</time>
      </trkpt>
      <trkpt lat="44.16266" lon="2.96457">
        <ele>644.1</ele>
        <time>2010-01-01T06:37:22Z</time>
      </trkpt>
      <trkpt lat="44.16268" lon="2.96441">
        <ele>644.6</ele>
        <time>2010-01-01T06:37:27Z</time>
      </trkpt>
      <trkpt lat="44.16269" lon="2.96433">
        <ele>644.9</ele>
        <time>2010-01-01T06:37:29Z</time>
      </trkpt>
      <trkpt lat="44.16265" lon="2.96433">
        <ele>647</ele>
        <time>2010-01-01T06:37:31Z</time>
      </trkpt>
      <trkpt lat="44.16264" lon="2.96433">
        <ele>647.1</ele>
        <time>2010-01-01T06:37:32Z</time>
      </trkpt>
      <trkpt lat="44.16258" lon="2.96455">
        <ele>647.3</ele>
        <time>2010-01-01T06:37:38Z</time>
      </trkpt>
      <trkpt lat="44.16254" lon="2.96472">
        <ele>647</ele>
        <time>2010-01-01T06:37:43Z</time>
      </trkpt>
      <trkpt lat="44.16247" lon="2.96494">
        <ele>647.1</ele>
        <time>2010-01-01T06:37:50Z</time>
      </trkpt>
      <trkpt lat="44.16242" lon="2.96511">
        <ele>647.2</ele>
        <time>2010-01-01T06:37:56Z</time>
      </trkpt>
      <trkpt lat="44.16236" lon="2.96527">
        <ele>647.4</ele>
        <time>2010-01-01T06:38:01Z</time>
      </trkpt>
      <trkpt lat="44.16225" lon="2.96545">
        <ele>649.4</ele>
        <time>2010-01-01T06:38:08Z</time>
      </trkpt>
      <trkpt lat="44.16216" lon="2.96555">
        <ele>651.4</ele>
        <time>2010-01-01T06:38:12Z</time>
      </trkpt>
      <trkpt lat="44.16206" lon="2.96566">
        <ele>653.7</ele>
        <time>2010-01-01T06:38:17Z</time>
      </trkpt>
      <trkpt lat="44.16198" lon="2.96577">
        <ele>655.3</ele>
        <time>2010-01-01T06:38:22Z</time>
      </trkpt>
      <trkpt lat="44.16186" lon="2.96593">
        <ele>657.7</ele>
        <time>2010-01-01T06:38:28Z</time>
      </trkpt>
      <trkpt lat="44.16173" lon="2.96609">
        <ele>659.8</ele>
        <time>2010-01-01T06:38:35Z</time>
      </trkpt>
      <trkpt lat="44.16165" lon="2.96618">
        <ele>660.7</ele>
        <time>2010-01-01T06:38:39Z</time>
      </trkpt>
      <trkpt lat="44.16158" lon="2.96627">
        <ele>661.6</ele>
        <time>2010-01-01T06:38:43Z</time>
      </trkpt>
      <trkpt lat="44.16149" lon="2.96639">
        <ele>662.4</ele>
        <time>2010-01-01T06:38:48Z</time>
      </trkpt>
      <trkpt lat="44.1614" lon="2.96652">
        <ele>663.2</ele>
        <time>2010-01-01T06:38:53Z</time>
      </trkpt>
      <trkpt lat="44.16132" lon="2.96663">
        <ele>663.8</ele>
        <time>2010-01-01T06:38:58Z</time>
      </trkpt>
      <trkpt lat="44.16125" lon="2.96674">
        <ele>665.5</ele>
        <time>2010-01-01T06:39:02Z</time>
      </trkpt>
      <trkpt lat="44.16116" lon="2.96689">
        <ele>667.9</ele>
        <time>2010-01-01T06:39:08Z</time>
      </trkpt>
      <trkpt lat="44.16106" lon="2.96707">
        <ele>669.1</ele>
        <time>2010-01-01T06:39:14Z</time>
      </trkpt>
      <trkpt lat="44.16096" lon="2.96726">
        <ele>669.6</ele>
        <time>2010-01-01T06:39:21Z</time>
      </trkpt>
      <trkpt lat="44.1609" lon="2.96745">
        <ele>668.5</ele>
        <time>2010-01-01T06:39:27Z</time>
      </trkpt>
      <trkpt lat="44.16083" lon="2.96763">
        <ele>669.1</ele>
        <time>2010-01-01T06:39:33Z</time>
      </trkpt>
      <trkpt lat="44.16078" lon="2.96775">
        <ele>671.6</ele>
        <time>2010-01-01T06:39:37Z</time>
      </trkpt>
      <trkpt lat="44.16073" lon="2.96788">
        <ele>674.1</ele>
        <time>2010-01-01T06:39:41Z</time>
      </trkpt>
      <trkpt lat="44.16068" lon="2.96799">
        <ele>676.4</ele>
        <time>2010-01-01T06:39:45Z</time>
      </trkpt>
      <trkpt lat="44.16059" lon="2.9682">
        <ele>680</ele>
        <time>2010-01-01T06:39:52Z</time>
      </trkpt>
      <trkpt lat="44.16053" lon="2.96835">
        <ele>682.4</ele>
        <time>2010-01-01T06:39:57Z</time>
      </trkpt>
      <trkpt lat="44.16048" lon="2.96848">
        <ele>685.1</ele>
        <time>2010-01-01T06:40:01Z</time>
      </trkpt>
      <trkpt lat="44.16041" lon="2.96864">
        <ele>687.8</ele>
        <time>2010-01-01T06:40:06Z</time>
      </trkpt>
      <trkpt lat="44.16036" lon="2.96877">
        <ele>689.8</ele>
        <time>2010-01-01T06:40:10Z</time>
      </trkpt>
      <trkpt lat="44.16031" lon="2.96894">
        <ele>691.4</ele>
        <time>2010-01-01T06:40:16Z</time>
      </trkpt>
      <trkpt lat="44.16026" lon="2.96912">
        <ele>692.8</ele>
        <time>2010-01-01T06:40:21Z</time>
      </trkpt>
      <trkpt lat="44.16023" lon="2.96928">
        <ele>693.8</ele>
        <time>2010-01-01T06:40:26Z</time>
      </trkpt>
      <trkpt lat="44.16021" lon="2.96945">
        <ele>694.8</ele>
        <time>2010-01-01T06:40:31Z</time>
      </trkpt>
      <trkpt lat="44.16019" lon="2.96961">
        <ele>695.7</ele>
        <time>2010-01-01T06:40:36Z</time>
      </trkpt>
      <trkpt lat="44.16016" lon="2.96981">
        <ele>696.6</ele>
        <time>2010-01-01T06:40:42Z</time>
      </trkpt>
      <trkpt lat="44.16014" lon="2.96994">
        <ele>697.1</ele>
        <time>2010-01-01T06:40:45Z</time>
      </trkpt>
      <trkpt lat="44.1601" lon="2.97008">
        <ele>697.7</ele>
        <time>2010-01-01T06:40:50Z</time>
      </trkpt>
      <trkpt lat="44.16007" lon="2.9702">
        <ele>698.3</ele>
        <time>2010-01-01T06:40:53Z</time>
      </trkpt>
      <trkpt lat="44.16002" lon="2.97032">
        <ele>698.8</ele>
        <time>2010-01-01T06:40:57Z</time>
      </trkpt>
      <trkpt lat="44.15999" lon="2.97045">
        <ele>699.4</ele>
        <time>2010-01-01T06:41:01Z</time>
      </trkpt>
      <trkpt lat="44.15997" lon="2.97054">
        <ele>700.4</ele>
        <time>2010-01-01T06:41:04Z</time>
      </trkpt>
      <trkpt lat="44.15991" lon="2.97065">
        <ele>702.4</ele>
        <time>2010-01-01T06:41:08Z</time>
      </trkpt>
      <trkpt lat="44.15989" lon="2.9707">
        <ele>703.3</ele>
        <time>2010-01-01T06:41:10Z</time>
      </trkpt>
      <trkpt lat="44.15987" lon="2.97083">
        <ele>704</ele>
        <time>2010-01-01T06:41:13Z</time>
      </trkpt>
      <trkpt lat="44.15989" lon="2.97094">
        <ele>705</ele>
        <time>2010-01-01T06:41:17Z</time>
      </trkpt>
      <trkpt lat="44.15997" lon="2.97105">
        <ele>704.5</ele>
        <time>2010-01-01T06:41:21Z</time>
      </trkpt>
      <trkpt lat="44.16003" lon="2.97116">
        <ele>705.8</ele>
        <time>2010-01-01T06:41:25Z</time>
      </trkpt>
      <trkpt lat="44.1601" lon="2.97128">
        <ele>708.4</ele>
        <time>2010-01-01T06:41:29Z</time>
      </trkpt>
      <trkpt lat="44.16019" lon="2.9713">
        <ele>709.4</ele>
        <time>2010-01-01T06:41:33Z</time>
      </trkpt>
      <trkpt lat="44.16028" lon="2.97124">
        <ele>709.1</ele>
        <time>2010-01-01T06:41:37Z</time>
      </trkpt>
      <trkpt lat="44.16038" lon="2.9711">
        <ele>707.7</ele>
        <time>2010-01-01T06:41:43Z</time>
      </trkpt>
      <trkpt lat="44.1605" lon="2.97094">
        <ele>706</ele>
        <time>2010-01-01T06:41:49Z</time>
      </trkpt>
      <trkpt lat="44.16062" lon="2.9708">
        <ele>704.9</ele>
        <time>2010-01-01T06:41:56Z</time>
      </trkpt>
      <trkpt lat="44.16071" lon="2.97072">
        <ele>704.3</ele>
        <time>2010-01-01T06:42:00Z</time>
      </trkpt>
      <trkpt lat="44.16082" lon="2.9706">
        <ele>703.1</ele>
        <time>2010-01-01T06:42:05Z</time>
      </trkpt>
      <trkpt lat="44.16093" lon="2.97051">
        <ele>702.8</ele>
        <time>2010-01-01T06:42:10Z</time>
      </trkpt>
      <trkpt lat="44.16102" lon="2.97042">
        <ele>702.7</ele>
        <time>2010-01-01T06:42:15Z</time>
      </trkpt>
      <trkpt lat="44.16112" lon="2.97033">
        <ele>702.7</ele>
        <time>2010-01-01T06:42:20Z</time>
      </trkpt>
      <trkpt lat="44.16122" lon="2.97025">
        <ele>703.1</ele>
        <time>2010-01-01T06:42:24Z</time>
      </trkpt>
      <trkpt lat="44.1613" lon="2.97019">
        <ele>703.5</ele>
        <time>2010-01-01T06:42:28Z</time>
      </trkpt>
      <trkpt lat="44.16137" lon="2.97014">
        <ele>703.9</ele>
        <time>2010-01-01T06:42:31Z</time>
      </trkpt>
      <trkpt lat="44.16148" lon="2.97008">
        <ele>704.8</ele>
        <time>2010-01-01T06:42:36Z</time>
      </trkpt>
      <trkpt lat="44.16159" lon="2.97004">
        <ele>706.3</ele>
        <time>2010-01-01T06:42:41Z</time>
      </trkpt>
      <trkpt lat="44.16171" lon="2.97007">
        <ele>706.9</ele>
        <time>2010-01-01T06:42:45Z</time>
      </trkpt>
      <trkpt lat="44.16175" lon="2.97013">
        <ele>706.7</ele>
        <time>2010-01-01T06:42:47Z</time>
      </trkpt>
      <trkpt lat="44.16176" lon="2.97023">
        <ele>707.7</ele>
        <time>2010-01-01T06:42:51Z</time>
      </trkpt>
      <trkpt lat="44.16174" lon="2.97037">
        <ele>709.6</ele>
        <time>2010-01-01T06:42:54Z</time>
      </trkpt>
      <trkpt lat="44.16171" lon="2.97046">
        <ele>711.6</ele>
        <time>2010-01-01T06:42:58Z</time>
      </trkpt>
      <trkpt lat="44.1616" lon="2.97046">
        <ele>711.7</ele>
        <time>2010-01-01T06:43:02Z</time>
      </trkpt>
      <trkpt lat="44.16149" lon="2.97049">
        <ele>710.5</ele>
        <time>2010-01-01T06:43:06Z</time>
      </trkpt>
      <trkpt lat="44.16139" lon="2.97054">
        <ele>709.7</ele>
        <time>2010-01-01T06:43:11Z</time>
      </trkpt>
      <trkpt lat="44.16139" lon="2.97055">
        <ele>709.9</ele>
        <time>2010-01-01T06:43:11Z</time>
      </trkpt>
      <trkpt lat="44.16138" lon="2.97054">
        <ele>709.5</ele>
        <time>2010-01-01T06:43:12Z</time>
      </trkpt>
      <trkpt lat="44.16138" lon="2.97054">
        <ele>709.5</ele>
        <time>2010-01-01T06:43:12Z</time>
      </trkpt>
      <trkpt lat="44.1613" lon="2.97061">
        <ele>709.5</ele>
        <time>2010-01-01T06:43:15Z</time>
      </trkpt>
      <trkpt lat="44.1612" lon="2.97072">
        <ele>709.7</ele>
        <time>2010-01-01T06:43:21Z</time>
      </trkpt>
      <trkpt lat="44.1611" lon="2.97085">
        <ele>710.4</ele>
        <time>2010-01-01T06:43:26Z</time>
      </trkpt>
      <trkpt lat="44.16093" lon="2.97107">
        <ele>711.9</ele>
        <time>2010-01-01T06:43:35Z</time>
      </trkpt>
      <trkpt lat="44.16076" lon="2.97126">
        <ele>713.5</ele>
        <time>2010-01-01T06:43:44Z</time>
      </trkpt>
      <trkpt lat="44.16071" lon="2.97131">
        <ele>713.9</ele>
        <time>2010-01-01T06:43:46Z</time>
      </trkpt>
      <trkpt lat="44.16067" lon="2.97138">
        <ele>714.8</ele>
        <time>2010-01-01T06:43:49Z</time>
      </trkpt>
      <trkpt lat="44.16065" lon="2.97143">
        <ele>715.4</ele>
        <time>2010-01-01T06:43:51Z</time>
      </trkpt>
      <trkpt lat="44.1606" lon="2.97154">
        <ele>717</ele>
        <time>2010-01-01T06:43:54Z</time>
      </trkpt>
      <trkpt lat="44.1606" lon="2.97167">
        <ele>719.2</ele>
        <time>2010-01-01T06:43:58Z</time>
      </trkpt>
      <trkpt lat="44.1606" lon="2.9717">
        <ele>719.5</ele>
        <time>2010-01-01T06:43:59Z</time>
      </trkpt>
      <trkpt lat="44.16056" lon="2.97181">
        <ele>720.7</ele>
        <time>2010-01-01T06:44:03Z</time>
      </trkpt>
      <trkpt lat="44.1605" lon="2.97196">
        <ele>722.2</ele>
        <time>2010-01-01T06:44:07Z</time>
      </trkpt>
      <trkpt lat="44.16044" lon="2.97213">
        <ele>724</ele>
        <time>2010-01-01T06:44:13Z</time>
      </trkpt>
      <trkpt lat="44.16036" lon="2.97227">
        <ele>725.5</ele>
        <time>2010-01-01T06:44:18Z</time>
      </trkpt>
      <trkpt lat="44.16024" lon="2.97239">
        <ele>726.5</ele>
        <time>2010-01-01T06:44:24Z</time>
      </trkpt>
      <trkpt lat="44.16014" lon="2.97242">
        <ele>726.5</ele>
        <time>2010-01-01T06:44:28Z</time>
      </trkpt>
      <trkpt lat="44.16009" lon="2.97245">
        <ele>726.6</ele>
        <time>2010-01-01T06:44:30Z</time>
      </trkpt>
      <trkpt lat="44.16004" lon="2.97247">
        <ele>726.8</ele>
        <time>2010-01-01T06:44:32Z</time>
      </trkpt>
      <trkpt lat="44.15996" lon="2.97255">
        <ele>728.3</ele>
        <time>2010-01-01T06:44:36Z</time>
      </trkpt>
      <trkpt lat="44.15991" lon="2.97262">
        <ele>729.9</ele>
        <time>2010-01-01T06:44:39Z</time>
      </trkpt>
      <trkpt lat="44.1599" lon="2.97263">
        <ele>730.2</ele>
        <time>2010-01-01T06:44:39Z</time>
      </trkpt>
      <trkpt lat="44.15989" lon="2.97265">
        <ele>730.6</ele>
        <time>2010-01-01T06:44:40Z</time>
      </trkpt>
      <trkpt lat="44.15989" lon="2.97267">
        <ele>730.9</ele>
        <time>2010-01-01T06:44:41Z</time>
      </trkpt>
      <trkpt lat="44.15989" lon="2.97267">
        <ele>731</ele>
        <time>2010-01-01T06:44:41Z</time>
      </trkpt>
      <trkpt lat="44.15987" lon="2.97271">
        <ele>731.8</ele>
        <time>2010-01-01T06:44:42Z</time>
      </trkpt>
      <trkpt lat="44.15984" lon="2.97279">
        <ele>733.2</ele>
        <time>2010-01-01T06:44:44Z</time>
      </trkpt>
      <trkpt lat="44.15982" lon="2.97285">
        <ele>734.2</ele>
        <time>2010-01-01T06:44:46Z</time>
      </trkpt>
      <trkpt lat="44.15977" lon="2.97291">
        <ele>735.5</ele>
        <time>2010-01-01T06:44:49Z</time>
      </trkpt>
      <trkpt lat="44.15972" lon="2.97299">
        <ele>737</ele>
        <time>2010-01-01T06:44:52Z</time>
      </trkpt>
      <trkpt lat="44.15969" lon="2.97303">
        <ele>737.7</ele>
        <time>2010-01-01T06:44:54Z</time>
      </trkpt>
      <trkpt lat="44.15967" lon="2.97302">
        <ele>737.7</ele>
        <time>2010-01-01T06:44:55Z</time>
      </trkpt>
      <trkpt lat="44.15966" lon="2.97301">
        <ele>737.6</ele>
        <time>2010-01-01T06:44:55Z</time>
      </trkpt>
      <trkpt lat="44.15956" lon="2.97298">
        <ele>737.9</ele>
        <time>2010-01-01T06:44:59Z</time>
      </trkpt>
      <trkpt lat="44.15945" lon="2.97291">
        <ele>737.9</ele>
        <time>2010-01-01T06:45:04Z</time>
      </trkpt>
      <trkpt lat="44.1593" lon="2.97283">
        <ele>738.3</ele>
        <time>2010-01-01T06:45:10Z</time>
      </trkpt>
      <trkpt lat="44.15919" lon="2.97278">
        <ele>738.8</ele>
        <time>2010-01-01T06:45:15Z</time>
      </trkpt>
      <trkpt lat="44.15897" lon="2.97275">
        <ele>740.1</ele>
        <time>2010-01-01T06:45:24Z</time>
      </trkpt>
      <trkpt lat="44.15875" lon="2.97282">
        <ele>741.8</ele>
        <time>2010-01-01T06:45:33Z</time>
      </trkpt>
      <trkpt lat="44.1586" lon="2.97295">
        <ele>743.2</ele>
        <time>2010-01-01T06:45:40Z</time>
      </trkpt>
      <trkpt lat="44.15851" lon="2.97317">
        <ele>744.2</ele>
        <time>2010-01-01T06:45:47Z</time>
      </trkpt>
      <trkpt lat="44.15847" lon="2.9734">
        <ele>744.8</ele>
        <time>2010-01-01T06:45:54Z</time>
      </trkpt>
      <trkpt lat="44.15835" lon="2.97342">
        <ele>745.1</ele>
        <time>2010-01-01T06:45:59Z</time>
      </trkpt>
      <trkpt lat="44.15811" lon="2.97324">
        <ele>745.2</ele>
        <time>2010-01-01T06:46:10Z</time>
      </trkpt>
      <trkpt lat="44.15782" lon="2.97294">
        <ele>746</ele>
        <time>2010-01-01T06:46:24Z</time>
      </trkpt>
      <trkpt lat="44.15751" lon="2.97264">
        <ele>747.6</ele>
        <time>2010-01-01T06:46:39Z</time>
      </trkpt>
      <trkpt lat="44.15726" lon="2.9724">
        <ele>748.3</ele>
        <time>2010-01-01T06:46:52Z</time>
      </trkpt>
      <trkpt lat="44.15699" lon="2.97215">
        <ele>749.6</ele>
        <time>2010-01-01T06:47:05Z</time>
      </trkpt>
      <trkpt lat="44.1567" lon="2.97187">
        <ele>751.5</ele>
        <time>2010-01-01T06:47:19Z</time>
      </trkpt>
      <trkpt lat="44.15642" lon="2.97159">
        <ele>753.7</ele>
        <time>2010-01-01T06:47:33Z</time>
      </trkpt>
      <trkpt lat="44.15621" lon="2.97138">
        <ele>754.4</ele>
        <time>2010-01-01T06:47:43Z</time>
      </trkpt>
      <trkpt lat="44.15593" lon="2.97116">
        <ele>754.9</ele>
        <time>2010-01-01T06:47:56Z</time>
      </trkpt>
      <trkpt lat="44.1556" lon="2.97107">
        <ele>755</ele>
        <time>2010-01-01T06:48:09Z</time>
      </trkpt>
      <trkpt lat="44.1553" lon="2.97101">
        <ele>755.1</ele>
        <time>2010-01-01T06:48:21Z</time>
      </trkpt>
      <trkpt lat="44.15497" lon="2.97095">
        <ele>755.3</ele>
        <time>2010-01-01T06:48:35Z</time>
      </trkpt>
      <trkpt lat="44.15458" lon="2.97087">
        <ele>754.7</ele>
        <time>2010-01-01T06:48:50Z</time>
      </trkpt>
      <trkpt lat="44.15421" lon="2.97081">
        <ele>754.2</ele>
        <time>2010-01-01T06:49:06Z</time>
      </trkpt>
      <trkpt lat="44.1539" lon="2.97081">
        <ele>752.8</ele>
        <time>2010-01-01T06:49:18Z</time>
      </trkpt>
      <trkpt lat="44.15362" lon="2.97079">
        <ele>751.5</ele>
        <time>2010-01-01T06:49:29Z</time>
      </trkpt>
      <trkpt lat="44.15327" lon="2.97077">
        <ele>750.2</ele>
        <time>2010-01-01T06:49:43Z</time>
      </trkpt>
      <trkpt lat="44.15308" lon="2.97078">
        <ele>750.4</ele>
        <time>2010-01-01T06:49:51Z</time>
      </trkpt>
      <trkpt lat="44.1527" lon="2.97078">
        <ele>750.8</ele>
        <time>2010-01-01T06:50:06Z</time>
      </trkpt>
      <trkpt lat="44.15231" lon="2.97072">
        <ele>752</ele>
        <time>2010-01-01T06:50:22Z</time>
      </trkpt>
      <trkpt lat="44.15218" lon="2.97076">
        <ele>752.6</ele>
        <time>2010-01-01T06:50:27Z</time>
      </trkpt>
      <trkpt lat="44.15218" lon="2.9708">
        <ele>752.5</ele>
        <time>2010-01-01T06:50:28Z</time>
      </trkpt>
      <trkpt lat="44.15225" lon="2.97111">
        <ele>751.6</ele>
        <time>2010-01-01T06:50:37Z</time>
      </trkpt>
      <trkpt lat="44.15236" lon="2.97141">
        <ele>750.4</ele>
        <time>2010-01-01T06:50:47Z</time>
      </trkpt>
      <trkpt lat="44.15249" lon="2.97172">
        <ele>749.2</ele>
        <time>2010-01-01T06:50:57Z</time>
      </trkpt>
      <trkpt lat="44.15271" lon="2.97223">
        <ele>748.7</ele>
        <time>2010-01-01T06:51:14Z</time>
      </trkpt>
      <trkpt lat="44.15285" lon="2.97271">
        <ele>747.6</ele>
        <time>2010-01-01T06:51:29Z</time>
      </trkpt>
      <trkpt lat="44.15299" lon="2.97318">
        <ele>746.1</ele>
        <time>2010-01-01T06:51:44Z</time>
      </trkpt>
      <trkpt lat="44.15313" lon="2.9737">
        <ele>744.2</ele>
        <time>2010-01-01T06:52:00Z</time>
      </trkpt>
      <trkpt lat="44.15315" lon="2.97383">
        <ele>743.9</ele>
        <time>2010-01-01T06:52:03Z</time>
      </trkpt>
      <trkpt lat="44.15326" lon="2.9742">
        <ele>742.6</ele>
        <time>2010-01-01T06:52:15Z</time>
      </trkpt>
      <trkpt lat="44.15337" lon="2.97448">
        <ele>741</ele>
        <time>2010-01-01T06:52:24Z</time>
      </trkpt>
      <trkpt lat="44.15347" lon="2.97477">
        <ele>739.7</ele>
        <time>2010-01-01T06:52:33Z</time>
      </trkpt>
      <trkpt lat="44.15355" lon="2.97495">
        <ele>738.8</ele>
        <time>2010-01-01T06:52:39Z</time>
      </trkpt>
      <trkpt lat="44.15363" lon="2.97523">
        <ele>736.6</ele>
        <time>2010-01-01T06:52:48Z</time>
      </trkpt>
      <trkpt lat="44.15365" lon="2.97535">
        <ele>735.6</ele>
        <time>2010-01-01T06:52:51Z</time>
      </trkpt>
      <trkpt lat="44.15366" lon="2.97554">
        <ele>734.2</ele>
        <time>2010-01-01T06:52:57Z</time>
      </trkpt>
      <trkpt lat="44.15364" lon="2.97573">
        <ele>732.9</ele>
        <time>2010-01-01T06:53:02Z</time>
      </trkpt>
      <trkpt lat="44.15351" lon="2.97614">
        <ele>729.9</ele>
        <time>2010-01-01T06:53:15Z</time>
      </trkpt>
      <trkpt lat="44.15335" lon="2.9766">
        <ele>725.7</ele>
        <time>2010-01-01T06:53:30Z</time>
      </trkpt>
      <trkpt lat="44.15324" lon="2.97693">
        <ele>724.4</ele>
        <time>2010-01-01T06:53:41Z</time>
      </trkpt>
      <trkpt lat="44.15307" lon="2.97745">
        <ele>722.6</ele>
        <time>2010-01-01T06:53:57Z</time>
      </trkpt>
      <trkpt lat="44.15304" lon="2.97755">
        <ele>722</ele>
        <time>2010-01-01T06:54:00Z</time>
      </trkpt>
      <trkpt lat="44.15294" lon="2.97783">
        <ele>720.1</ele>
        <time>2010-01-01T06:54:09Z</time>
      </trkpt>
      <trkpt lat="44.1528" lon="2.97816">
        <ele>717.8</ele>
        <time>2010-01-01T06:54:20Z</time>
      </trkpt>
      <trkpt lat="44.15264" lon="2.97846">
        <ele>715.8</ele>
        <time>2010-01-01T06:54:31Z</time>
      </trkpt>
      <trkpt lat="44.15248" lon="2.97874">
        <ele>714.1</ele>
        <time>2010-01-01T06:54:41Z</time>
      </trkpt>
      <trkpt lat="44.15238" lon="2.97906">
        <ele>712.2</ele>
        <time>2010-01-01T06:54:51Z</time>
      </trkpt>
      <trkpt lat="44.15235" lon="2.97922">
        <ele>711.3</ele>
        <time>2010-01-01T06:54:56Z</time>
      </trkpt>
      <trkpt lat="44.15219" lon="2.97965">
        <ele>709.7</ele>
        <time>2010-01-01T06:55:10Z</time>
      </trkpt>
      <trkpt lat="44.152" lon="2.98">
        <ele>708</ele>
        <time>2010-01-01T06:55:22Z</time>
      </trkpt>
      <trkpt lat="44.15194" lon="2.98015">
        <ele>708</ele>
        <time>2010-01-01T06:55:27Z</time>
      </trkpt>
      <trkpt lat="44.15202" lon="2.98028">
        <ele>708.2</ele>
        <time>2010-01-01T06:55:32Z</time>
      </trkpt>
      <trkpt lat="44.1521" lon="2.98038">
        <ele>708.5</ele>
        <time>2010-01-01T06:55:36Z</time>
      </trkpt>
      <trkpt lat="44.15222" lon="2.98059">
        <ele>709.4</ele>
        <time>2010-01-01T06:55:44Z</time>
      </trkpt>
      <trkpt lat="44.1523" lon="2.98084">
        <ele>710.6</ele>
        <time>2010-01-01T06:55:52Z</time>
      </trkpt>
      <trkpt lat="44.15232" lon="2.98097">
        <ele>711.6</ele>
        <time>2010-01-01T06:55:56Z</time>
      </trkpt>
      <trkpt lat="44.15233" lon="2.98109">
        <ele>712.5</ele>
        <time>2010-01-01T06:55:59Z</time>
      </trkpt>
      <trkpt lat="44.15232" lon="2.98124">
        <ele>713.5</ele>
        <time>2010-01-01T06:56:04Z</time>
      </trkpt>
      <trkpt lat="44.15228" lon="2.98144">
        <ele>714.4</ele>
        <time>2010-01-01T06:56:10Z</time>
      </trkpt>
      <trkpt lat="44.15218" lon="2.98156">
        <ele>714.3</ele>
        <time>2010-01-01T06:56:15Z</time>
      </trkpt>
      <trkpt lat="44.152" lon="2.98174">
        <ele>713.8</ele>
        <time>2010-01-01T06:56:24Z</time>
      </trkpt>
      <trkpt lat="44.1519" lon="2.9818">
        <ele>713.4</ele>
        <time>2010-01-01T06:56:28Z</time>
      </trkpt>
      <trkpt lat="44.15164" lon="2.98205">
        <ele>713</ele>
        <time>2010-01-01T06:56:41Z</time>
      </trkpt>
      <trkpt lat="44.15143" lon="2.98221">
        <ele>712.2</ele>
        <time>2010-01-01T06:56:50Z</time>
      </trkpt>
      <trkpt lat="44.15123" lon="2.98236">
        <ele>711.3</ele>
        <time>2010-01-01T06:56:59Z</time>
      </trkpt>
      <trkpt lat="44.15111" lon="2.98244">
        <ele>710.6</ele>
        <time>2010-01-01T06:57:05Z</time>
      </trkpt>
      <trkpt lat="44.15091" lon="2.98257">
        <ele>709.5</ele>
        <time>2010-01-01T06:57:14Z</time>
      </trkpt>
      <trkpt lat="44.15064" lon="2.98284">
        <ele>709.6</ele>
        <time>2010-01-01T06:57:27Z</time>
      </trkpt>
      <trkpt lat="44.15041" lon="2.98311">
        <ele>710</ele>
        <time>2010-01-01T06:57:39Z</time>
      </trkpt>
      <trkpt lat="44.15015" lon="2.98346">
        <ele>710.1</ele>
        <time>2010-01-01T06:57:53Z</time>
      </trkpt>
      <trkpt lat="44.14989" lon="2.9838">
        <ele>709.2</ele>
        <time>2010-01-01T06:58:08Z</time>
      </trkpt>
      <trkpt lat="44.14976" lon="2.98412">
        <ele>709.3</ele>
        <time>2010-01-01T06:58:18Z</time>
      </trkpt>
      <trkpt lat="44.14974" lon="2.9845">
        <ele>709.8</ele>
        <time>2010-01-01T06:58:29Z</time>
      </trkpt>
      <trkpt lat="44.14969" lon="2.98472">
        <ele>709.4</ele>
        <time>2010-01-01T06:58:36Z</time>
      </trkpt>
      <trkpt lat="44.14943" lon="2.98522">
        <ele>706.8</ele>
        <time>2010-01-01T06:58:53Z</time>
      </trkpt>
      <trkpt lat="44.14921" lon="2.98557">
        <ele>705.2</ele>
        <time>2010-01-01T06:59:07Z</time>
      </trkpt>
      <trkpt lat="44.14907" lon="2.98583">
        <ele>704.9</ele>
        <time>2010-01-01T06:59:16Z</time>
      </trkpt>
      <trkpt lat="44.14889" lon="2.98607">
        <ele>705.4</ele>
        <time>2010-01-01T06:59:26Z</time>
      </trkpt>
      <trkpt lat="44.14879" lon="2.98617">
        <ele>705.3</ele>
        <time>2010-01-01T06:59:31Z</time>
      </trkpt>
      <trkpt lat="44.14848" lon="2.98644">
        <ele>705</ele>
        <time>2010-01-01T06:59:45Z</time>
      </trkpt>
      <trkpt lat="44.14821" lon="2.98669">
        <ele>706.3</ele>
        <time>2010-01-01T06:59:59Z</time>
      </trkpt>
      <trkpt lat="44.14796" lon="2.98689">
        <ele>708.8</ele>
        <time>2010-01-01T07:00:10Z</time>
      </trkpt>
      <trkpt lat="44.14774" lon="2.98702">
        <ele>710.1</ele>
        <time>2010-01-01T07:00:20Z</time>
      </trkpt>
      <trkpt lat="44.14752" lon="2.98712">
        <ele>710.9</ele>
        <time>2010-01-01T07:00:29Z</time>
      </trkpt>
      <trkpt lat="44.14738" lon="2.98718">
        <ele>712.2</ele>
        <time>2010-01-01T07:00:35Z</time>
      </trkpt>
      <trkpt lat="44.1472" lon="2.98718">
        <ele>713.3</ele>
        <time>2010-01-01T07:00:42Z</time>
      </trkpt>
      <trkpt lat="44.14704" lon="2.98712">
        <ele>713.8</ele>
        <time>2010-01-01T07:00:49Z</time>
      </trkpt>
      <trkpt lat="44.14692" lon="2.98713">
        <ele>714.7</ele>
        <time>2010-01-01T07:00:53Z</time>
      </trkpt>
      <trkpt lat="44.14678" lon="2.98719">
        <ele>715.8</ele>
        <time>2010-01-01T07:00:59Z</time>
      </trkpt>
      <trkpt lat="44.14662" lon="2.98729">
        <ele>716.7</ele>
        <time>2010-01-01T07:01:06Z</time>
      </trkpt>
      <trkpt lat="44.1465" lon="2.98739">
        <ele>716.2</ele>
        <time>2010-01-01T07:01:12Z</time>
      </trkpt>
      <trkpt lat="44.14635" lon="2.98754">
        <ele>715.2</ele>
        <time>2010-01-01T07:01:19Z</time>
      </trkpt>
      <trkpt lat="44.14616" lon="2.98771">
        <ele>713</ele>
        <time>2010-01-01T07:01:28Z</time>
      </trkpt>
      <trkpt lat="44.14595" lon="2.98782">
        <ele>710.6</ele>
        <time>2010-01-01T07:01:37Z</time>
      </trkpt>
      <trkpt lat="44.14584" lon="2.98792">
        <ele>709.1</ele>
        <time>2010-01-01T07:01:42Z</time>
      </trkpt>
      <trkpt lat="44.14586" lon="2.98805">
        <ele>708.7</ele>
        <time>2010-01-01T07:01:46Z</time>
      </trkpt>
      <trkpt lat="44.14595" lon="2.98821">
        <ele>708.9</ele>
        <time>2010-01-01T07:01:52Z</time>
      </trkpt>
      <trkpt lat="44.14606" lon="2.98831">
        <ele>709.8</ele>
        <time>2010-01-01T07:01:57Z</time>
      </trkpt>
      <trkpt lat="44.14621" lon="2.98837">
        <ele>711.4</ele>
        <time>2010-01-01T07:02:04Z</time>
      </trkpt>
      <trkpt lat="44.14633" lon="2.98842">
        <ele>712.9</ele>
        <time>2010-01-01T07:02:09Z</time>
      </trkpt>
      <trkpt lat="44.14652" lon="2.98849">
        <ele>715.2</ele>
        <time>2010-01-01T07:02:16Z</time>
      </trkpt>
      <trkpt lat="44.1467" lon="2.98857">
        <ele>717.6</ele>
        <time>2010-01-01T07:02:24Z</time>
      </trkpt>
      <trkpt lat="44.14686" lon="2.98868">
        <ele>719.3</ele>
        <time>2010-01-01T07:02:31Z</time>
      </trkpt>
      <trkpt lat="44.14697" lon="2.98877">
        <ele>720.8</ele>
        <time>2010-01-01T07:02:36Z</time>
      </trkpt>
      <trkpt lat="44.14704" lon="2.98882">
        <ele>721.9</ele>
        <time>2010-01-01T07:02:40Z</time>
      </trkpt>
      <trkpt lat="44.14716" lon="2.98886">
        <ele>723.5</ele>
        <time>2010-01-01T07:02:44Z</time>
      </trkpt>
      <trkpt lat="44.14729" lon="2.98888">
        <ele>725</ele>
        <time>2010-01-01T07:02:49Z</time>
      </trkpt>
      <trkpt lat="44.14743" lon="2.98889">
        <ele>726.9</ele>
        <time>2010-01-01T07:02:55Z</time>
      </trkpt>
      <trkpt lat="44.14755" lon="2.9889">
        <ele>728.2</ele>
        <time>2010-01-01T07:03:00Z</time>
      </trkpt>
      <trkpt lat="44.14772" lon="2.9889">
        <ele>729.7</ele>
        <time>2010-01-01T07:03:07Z</time>
      </trkpt>
      <trkpt lat="44.14786" lon="2.9889">
        <ele>731</ele>
        <time>2010-01-01T07:03:12Z</time>
      </trkpt>
      <trkpt lat="44.14798" lon="2.98891">
        <ele>732.2</ele>
        <time>2010-01-01T07:03:17Z</time>
      </trkpt>
      <trkpt lat="44.14809" lon="2.98894">
        <ele>733.5</ele>
        <time>2010-01-01T07:03:21Z</time>
      </trkpt>
      <trkpt lat="44.14819" lon="2.98897">
        <ele>734.9</ele>
        <time>2010-01-01T07:03:26Z</time>
      </trkpt>
      <trkpt lat="44.1483" lon="2.98904">
        <ele>736.8</ele>
        <time>2010-01-01T07:03:30Z</time>
      </trkpt>
      <trkpt lat="44.14837" lon="2.98908">
        <ele>738.3</ele>
        <time>2010-01-01T07:03:34Z</time>
      </trkpt>
      <trkpt lat="44.1485" lon="2.98916">
        <ele>741.2</ele>
        <time>2010-01-01T07:03:39Z</time>
      </trkpt>
      <trkpt lat="44.14858" lon="2.98921">
        <ele>742.9</ele>
        <time>2010-01-01T07:03:43Z</time>
      </trkpt>
      <trkpt lat="44.14865" lon="2.98923">
        <ele>744.1</ele>
        <time>2010-01-01T07:03:46Z</time>
      </trkpt>
      <trkpt lat="44.14874" lon="2.98925">
        <ele>745.7</ele>
        <time>2010-01-01T07:03:49Z</time>
      </trkpt>
      <trkpt lat="44.14883" lon="2.98929">
        <ele>747.4</ele>
        <time>2010-01-01T07:03:53Z</time>
      </trkpt>
      <trkpt lat="44.14891" lon="2.98931">
        <ele>748.8</ele>
        <time>2010-01-01T07:03:56Z</time>
      </trkpt>
      <trkpt lat="44.14899" lon="2.98935">
        <ele>750.6</ele>
        <time>2010-01-01T07:04:00Z</time>
      </trkpt>
      <trkpt lat="44.14909" lon="2.98941">
        <ele>752.7</ele>
        <time>2010-01-01T07:04:04Z</time>
      </trkpt>
      <trkpt lat="44.14921" lon="2.98946">
        <ele>754.7</ele>
        <time>2010-01-01T07:04:09Z</time>
      </trkpt>
      <trkpt lat="44.14935" lon="2.98951">
        <ele>756</ele>
        <time>2010-01-01T07:04:15Z</time>
      </trkpt>
      <trkpt lat="44.14946" lon="2.98955">
        <ele>756.9</ele>
        <time>2010-01-01T07:04:19Z</time>
      </trkpt>
      <trkpt lat="44.14957" lon="2.98959">
        <ele>757.8</ele>
        <time>2010-01-01T07:04:24Z</time>
      </trkpt>
      <trkpt lat="44.14969" lon="2.98962">
        <ele>758.5</ele>
        <time>2010-01-01T07:04:29Z</time>
      </trkpt>
      <trkpt lat="44.14979" lon="2.98966">
        <ele>759.2</ele>
        <time>2010-01-01T07:04:33Z</time>
      </trkpt>
      <trkpt lat="44.1499" lon="2.98971">
        <ele>760</ele>
        <time>2010-01-01T07:04:38Z</time>
      </trkpt>
      <trkpt lat="44.15002" lon="2.98977">
        <ele>760.8</ele>
        <time>2010-01-01T07:04:43Z</time>
      </trkpt>
      <trkpt lat="44.15005" lon="2.9898">
        <ele>761.1</ele>
        <time>2010-01-01T07:04:44Z</time>
      </trkpt>
      <trkpt lat="44.15015" lon="2.98986">
        <ele>761.8</ele>
        <time>2010-01-01T07:04:49Z</time>
      </trkpt>
      <trkpt lat="44.15031" lon="2.98995">
        <ele>762.6</ele>
        <time>2010-01-01T07:04:56Z</time>
      </trkpt>
    </trkseg>
  </trk>
</gpx>